# Wetter Temperatur Luftdruck Luftfeuchtigkeit Sichtweite Windgeschwindigkeit Windrichtung Zeit
1 Clear 28 1010 24 10000 3.13 170 07:41 02.10.2022
2 Clouds 33 1007 17 10000 5.66 230 02:55 02.10.2022
3 Clouds 34 1007 16 10000 4.12 140 00:46 02.10.2022
4 Clouds 34 1007 17 10000 4.12 140 00:21 02.10.2022
5 Clouds 32 1010 20 10000 3.6 50 22:43 01.10.2022
6 Clear 30 1010 22 10000 4.12 50 20:36 01.10.2022
7 Clear 27 1011 22 10000 1.54 80 18:40 01.10.2022
8 Clear 22 1011 26 10000 5.14 70 16:36 01.10.2022
9 Clear 23 1010 27 10000 5.66 200 14:35 01.10.2022
10 Clear 24 1009 26 10000 4.12 210 13:31 01.10.2022
11 Clear 24 1009 25 10000 4.63 200 12:33 01.10.2022
12 Clear 25 1009 24 10000 4.63 190 11:20 01.10.2022
13 Clear 26 1008 22 10000 5.14 190 10:32 01.10.2022
14 Clear 26 1007 22 10000 6.69 200 09:28 01.10.2022
15 Clear 27 1006 23 10000 2.31 224 08:58 01.10.2022
16 Clouds 31 1006 17 10000 4.63 230 04:27 01.10.2022
17 Clouds 33 1005 16 10000 5.66 210 03:32 01.10.2022
18 Clouds 35 1007 14 10000 5.14 220 00:18 01.10.2022
19 Clouds 35 1009 15 10000 7.2 230 22:37 30.09.2022
20 Clouds 34 1010 14 10000 6.69 230 21:29 30.09.2022
21 Clouds 32 1011 18 10000 5.66 210 20:44 30.09.2022
22 Clouds 31 1012 23 10000 5.66 220 19:49 30.09.2022
23 Clear 26 1013 29 10000 5.14 190 17:38 30.09.2022
24 Clear 23 1010 39 10000 1.04 191 15:56 30.09.2022
25 Clear 26 1011 31 10000 5.14 200 13:30 30.09.2022
26 Clouds 27 1007 31 10000 0.89 189 11:58 30.09.2022
27 Clear 27 1011 37 10000 4.12 200 10:40 30.09.2022
28 Clear 29 1011 33 10000 6.17 180 08:26 30.09.2022
29 Clouds 30 1010 25 10000 7.2 180 05:54 30.09.2022
30 Clouds 35 1011 19 10000 8.23 210 02:36 30.09.2022
31 Clouds 34 1014 30 10000 5.14 90 22:31 29.09.2022
32 Clouds 32 1016 32 10000 3.13 100 21:27 29.09.2022
33 Clear 31 1016 34 10000 3.09 120 20:44 29.09.2022
34 Clouds 27 1017 41 10000 5.14 80 18:34 29.09.2022
35 Clouds 25 1017 49 10000 3.6 70 17:23 29.09.2022
36 Clouds 23 1017 55 10000 3.09 40 16:28 29.09.2022
37 Clear 23 1017 55 10000 3.09 170 15:35 29.09.2022
38 Clear 23 1017 50 10000 3.6 180 14:25 29.09.2022
39 Clear 25 1014 43 10000 1.48 51 09:57 29.09.2022
40 Clouds 28 1017 42 10000 3.09 100 06:46 29.09.2022
41 Clouds 32 1015 31 10000 6.69 40 02:47 29.09.2022
42 Clear 32 1016 34 10000 10.29 60 23:54 28.09.2022
43 Clouds 32 1018 35 10000 6.69 90 22:32 28.09.2022
44 Clouds 31 1019 38 10000 8.23 60 21:29 28.09.2022
45 Clouds 29 1019 44 10000 6.69 50 20:22 28.09.2022
46 Clouds 24 1020 63 10000 5.14 290 18:31 28.09.2022
47 Thunderstorm 27 1016 32 10000 2.57 230 14:52 28.09.2022
48 Clouds 26 1011 35 10000 0.45 71 12:56 28.09.2022
49 Clouds 28 1015 26 10000 3.09 200 10:51 28.09.2022
50 Clouds 29 1015 25 10000 4.12 50 08:33 28.09.2022
51 Clouds 31 1014 24 10000 2.57 20 06:50 28.09.2022
52 Clouds 35 1012 15 10000 3.09 100 01:56 28.09.2022
53 Clouds 36 1013 13 10000 5.14 60 01:33 28.09.2022
54 Clouds 36 1014 14 10000 4.12 10 23:20 27.09.2022
55 Clouds 34 1016 15 10000 2.57 60 21:42 27.09.2022
56 Clear 33 1016 16 10000 2.57 0 20:37 27.09.2022
57 Clouds 31 1017 17 10000 1.54 120 19:47 27.09.2022
58 Clouds 29 1016 19 10000 2.06 320 18:37 27.09.2022
59 Clouds 26 1017 23 10000 2.57 180 17:44 27.09.2022
60 Clouds 24 1016 22 10000 4.12 180 15:29 27.09.2022
61 Clouds 24 1016 21 10000 2.57 220 14:55 27.09.2022
62 Clouds 25 1015 17 10000 4.12 200 12:42 27.09.2022
63 Clear 27 1012 20 10000 1.47 291 10:58 27.09.2022
64 Clear 27 1015 16 10000 3.09 180 08:49 27.09.2022
65 Clear 29 1014 16 10000 3.6 330 06:39 27.09.2022
66 Clear 36 1010 15 10000 0.89 115 01:57 27.09.2022
67 Clouds 36 1014 11 10000 4.12 140 01:27 27.09.2022
68 Clouds 36 1014 11 10000 4.12 140 01:27 27.09.2022
69 Clear 36 1014 12 10000 2.57 0 23:25 26.09.2022
70 Clear 35 1016 13 10000 3.6 330 22:31 26.09.2022
71 Clear 33 1017 14 10000 2.57 360 20:45 26.09.2022
72 Clear 30 1018 15 10000 4.12 340 19:30 26.09.2022
73 Clear 28 1018 16 10000 3.6 330 18:31 26.09.2022
74 Clear 22 1018 19 10000 3.6 200 16:29 26.09.2022
75 Clear 23 1017 18 10000 4.12 160 14:28 26.09.2022
76 Clear 24 1017 16 10000 3.09 170 11:29 26.09.2022
77 Clear 25 1016 17 10000 4.12 180 10:38 26.09.2022
78 Clear 25 1015 17 10000 4.12 180 10:20 26.09.2022
79 Clear 26 1015 16 10000 2.24 240 09:54 26.09.2022
80 Clear 26 1015 16 10000 3.09 290 09:24 26.09.2022
81 Clear 27 1016 15 10000 2.24 240 07:37 26.09.2022
82 Clear 35 1016 10 10000 3.09 80 02:51 26.09.2022
83 Clear 35 1017 11 10000 4.12 40 23:46 25.09.2022
84 Clouds 34 1019 14 10000 3.6 50 21:54 25.09.2022
85 Clouds 34 1019 14 10000 3.6 50 21:34 25.09.2022
86 Clouds 33 1019 16 10000 3.6 20 20:45 25.09.2022
87 Clouds 30 1020 18 10000 2.57 40 19:32 25.09.2022
88 Clouds 28 1019 21 10000 0 0 18:35 25.09.2022
89 Clouds 26 1020 23 10000 2.06 200 17:52 25.09.2022
90 Clouds 23 1019 25 10000 4.63 160 16:35 25.09.2022
91 Clear 23 1019 25 10000 3.6 160 15:44 25.09.2022
92 Clear 24 1018 26 10000 3.6 160 14:22 25.09.2022
93 Clear 25 1018 22 10000 1.54 240 12:49 25.09.2022
94 Clear 26 1018 23 10000 3.6 300 10:26 25.09.2022
95 Clear 27 1017 22 10000 3.6 160 08:24 25.09.2022
96 Clouds 30 1016 19 10000 3.09 70 05:36 25.09.2022
97 Clouds 35 1017 13 10000 3.6 30 00:39 25.09.2022
98 Clouds 34 1019 14 10000 2.57 40 22:35 24.09.2022
99 Clouds 31 1020 16 10000 4.63 20 20:54 24.09.2022
100 Clouds 29 1020 17 10000 3.09 50 19:22 24.09.2022
101 Clouds 25 1020 25 10000 2.57 170 17:19 24.09.2022
102 Clouds 22 1019 25 10000 2.57 180 16:23 24.09.2022
103 Clouds 23 1018 23 10000 3.6 340 15:19 24.09.2022
104 Clouds 23 1017 23 10000 2.06 150 13:23 24.09.2022
105 Clouds 24 1017 22 10000 2.57 320 12:41 24.09.2022
106 Clouds 26 1017 21 10000 3.6 310 10:19 24.09.2022
107 Clouds 26 1017 20 10000 3.6 300 09:23 24.09.2022
108 Clouds 26 1017 22 10000 3.6 290 08:43 24.09.2022
109 Clear 28 1016 19 10000 2.06 20 06:26 24.09.2022
110 Clouds 30 1014 19 10000 3.6 10 04:34 24.09.2022
111 Clouds 33 1015 13 10000 3.09 100 23:48 23.09.2022
112 Clouds 32 1016 13 10000 3.09 150 22:21 23.09.2022
113 Clear 31 1017 14 10000 2.57 30 21:25 23.09.2022
114 Clouds 30 1017 13 10000 4.63 20 20:54 23.09.2022
115 Clouds 28 1018 14 10000 2.57 10 19:44 23.09.2022
116 Clouds 24 1018 17 10000 2.57 210 17:55 23.09.2022
117 Clear 21 1016 14 10000 6.17 320 13:41 23.09.2022
118 Clear 23 1015 15 10000 5.66 310 10:25 23.09.2022
119 Clear 25 1015 14 10000 3.09 330 08:45 23.09.2022
120 Clouds 32 1012 9 10000 5.66 270 03:37 23.09.2022
121 Clouds 33 1014 12 10000 5.66 240 23:30 22.09.2022
122 Clouds 32 1015 13 10000 4.63 220 22:28 22.09.2022
123 Clouds 31 1016 18 10000 5.14 220 21:36 22.09.2022
124 Clouds 29 1017 21 10000 5.14 220 20:25 22.09.2022
125 Clear 27 1014 24 10000 0.44 180 18:58 22.09.2022
126 Clear 22 1015 28 10000 4.12 210 15:39 22.09.2022
127 Clear 24 1013 27 10000 4.63 140 10:51 22.09.2022
128 Clear 24 1013 27 10000 4.63 140 10:19 22.09.2022
129 Clear 25 1013 23 10000 1.54 150 08:20 22.09.2022
130 Clear 28 1011 19 10000 4.63 270 05:22 22.09.2022
131 Clouds 33 1010 15 10000 10.8 210 01:19 22.09.2022
132 Clouds 34 1011 18 10000 11.83 210 22:29 21.09.2022
133 Clouds 33 1011 21 10000 9.26 180 21:18 21.09.2022
134 Clouds 29 1012 28 10000 5.14 210 18:51 21.09.2022
135 Clouds 26 1012 30 10000 2.57 190 17:44 21.09.2022
136 Clouds 23 1012 31 10000 3.6 190 15:47 21.09.2022
137 Clouds 23 1011 29 10000 3.6 180 13:54 21.09.2022
138 Clear 25 1011 27 10000 3.6 170 11:43 21.09.2022
139 Clear 26 1008 28 10000 2.24 169 10:59 21.09.2022
140 Clear 27 1011 26 10000 3.09 220 09:40 21.09.2022
141 Clear 28 1011 24 10000 3.09 180 08:43 21.09.2022
142 Clear 32 1007 20 10000 4.97 213 03:56 21.09.2022
143 Clouds 34 1009 16 10000 9.77 200 02:38 21.09.2022
144 Clear 34 1006 19 10000 8.82 194 01:56 21.09.2022
145 Clouds 35 1009 17 10000 10.29 210 00:19 21.09.2022
146 Clouds 34 1011 16 10000 5.66 150 21:53 20.09.2022
147 Clouds 32 1012 16 10000 8.23 210 20:32 20.09.2022
148 Clouds 28 1012 21 10000 4.63 150 18:41 20.09.2022
149 Clouds 23 1011 29 10000 3.6 170 15:51 20.09.2022
150 Clouds 24 1011 29 10000 3.6 180 14:18 20.09.2022
151 Clouds 25 1010 25 10000 3.6 220 11:51 20.09.2022
152 Clouds 27 1009 23 10000 4.12 230 08:44 20.09.2022
153 Clouds 28 1009 22 10000 4.12 230 08:23 20.09.2022
154 Clouds 31 1007 15 10000 7.2 150 04:37 20.09.2022
155 Clouds 35 1007 13 10000 8.23 210 01:42 20.09.2022
156 Clear 33 1010 17 10000 6.69 130 22:42 19.09.2022
157 Clear 32 1010 19 10000 6.17 130 21:28 19.09.2022
158 Clear 30 1011 21 10000 4.63 100 20:40 19.09.2022
159 Clear 27 1010 22 10000 3.6 190 18:49 19.09.2022
160 Clear 24 1010 24 10000 2.68 0 17:20 19.09.2022
161 Clear 23 1009 21 10000 4.63 160 13:47 19.09.2022
162 Clear 24 1006 24 10000 1.75 154 11:57 19.09.2022
163 Clear 25 1007 17 10000 2.57 120 10:19 19.09.2022
164 Clear 26 1007 16 10000 4.63 160 08:36 19.09.2022
165 Clear 32 1005 12 10000 8.75 200 03:39 19.09.2022
166 Clear 34 1005 12 10000 10.29 160 00:48 19.09.2022
167 Clear 33 1006 14 10000 9.77 200 22:33 18.09.2022
168 Clear 32 1007 18 10000 7.2 140 21:19 18.09.2022
169 Clear 28 1007 23 10000 5.14 100 19:33 18.09.2022
170 Clear 25 1007 28 10000 3.6 30 17:52 18.09.2022
171 Clear 23 1006 31 10000 5.14 180 16:47 18.09.2022
172 Clear 23 1005 30 10000 4.63 170 14:44 18.09.2022
173 Clear 23 1005 28 10000 4.12 180 13:35 18.09.2022
174 Clear 24 1004 26 10000 5.14 180 12:20 18.09.2022
175 Clear 26 1004 20 10000 6.17 180 09:25 18.09.2022
176 Clouds 33 1003 14 10000 7.72 220 01:43 18.09.2022
177 Clouds 34 1003 14 10000 7.72 220 01:20 18.09.2022
178 Clouds 33 1005 16 10000 3.58 122 22:56 17.09.2022
179 Clouds 31 1008 20 10000 4.63 120 20:53 17.09.2022
180 Clear 29 1008 23 10000 4.63 170 19:37 17.09.2022
181 Clear 24 1009 29 10000 1.54 10 17:44 17.09.2022
182 Clear 22 1008 29 10000 5.66 210 14:22 17.09.2022
183 Clear 24 1009 26 10000 4.63 210 12:46 17.09.2022
184 Clear 25 1009 24 10000 4.12 190 10:48 17.09.2022
185 Clear 28 1008 22 10000 5.66 160 06:35 17.09.2022
186 Clear 30 1008 20 10000 5.66 160 05:49 17.09.2022
187 Clouds 33 1011 21 10000 5.66 140 23:39 16.09.2022
188 Clear 32 1008 26 10000 1.34 117 21:57 16.09.2022
189 Clouds 30 1013 23 10000 2.57 90 20:44 16.09.2022
190 Clouds 27 1013 27 10000 2.24 110 18:43 16.09.2022
191 Clear 22 1013 31 10000 3.6 210 16:22 16.09.2022
192 Clear 23 1012 28 10000 4.63 200 14:50 16.09.2022
193 Clear 23 1012 28 10000 3.6 160 12:52 16.09.2022
194 Clear 26 1011 25 10000 4.12 180 09:55 16.09.2022
195 Clear 27 1010 21 10000 4.63 180 07:23 16.09.2022
196 Clouds 28 1010 21 10000 4.63 170 06:48 16.09.2022
197 Clouds 29 1010 22 10000 4.12 220 05:55 16.09.2022
198 Clouds 33 1008 24 10000 8.23 150 01:45 16.09.2022
199 Clouds 30 1013 38 10000 4.12 100 21:33 15.09.2022
200 Clouds 29 1013 41 10000 4.12 120 20:33 15.09.2022
201 Clear 28 1010 47 10000 1.34 103 18:57 15.09.2022
202 Clouds 25 1013 53 10000 5.14 90 17:39 15.09.2022
203 Clouds 25 1013 53 10000 2.06 150 17:20 15.09.2022
204 Clouds 22 1012 60 10000 5.14 70 15:37 15.09.2022
205 Clouds 24 1012 53 10000 3.6 80 12:50 15.09.2022
206 Clouds 24 1012 50 10000 4.63 100 11:47 15.09.2022
207 Clouds 25 1012 51 10000 3.6 80 09:43 15.09.2022
208 Clouds 28 1010 31 10000 5.66 40 05:37 15.09.2022
209 Clouds 31 1008 27 10000 5.81 230 03:29 15.09.2022
210 Clouds 28 1011 43 10000 4.12 50 22:51 14.09.2022
211 Clouds 26 1013 50 10000 5.14 40 20:30 14.09.2022
212 Clouds 25 1013 55 10000 5.66 50 19:32 14.09.2022
213 Clouds 21 1012 68 10000 2.57 130 17:35 14.09.2022
214 Clouds 20 1012 69 10000 2.06 100 16:36 14.09.2022
215 Clouds 20 1012 69 10000 2.06 100 16:36 14.09.2022
216 Clouds 20 1011 71 10000 5.14 60 14:50 14.09.2022
217 Clouds 21 1011 73 10000 5.14 40 12:34 14.09.2022
218 Clouds 23 1010 64 10000 12.35 40 09:51 14.09.2022
219 Clouds 26 1008 50 10000 5.81 10 07:55 14.09.2022
220 Clouds 28 1008 42 10000 4.63 60 06:49 14.09.2022
221 Clouds 28 1008 42 10000 4.63 60 06:23 14.09.2022
222 Clouds 32 1006 32 10000 7.72 90 02:19 14.09.2022
223 Clouds 32 1007 30 10000 5.66 160 01:30 14.09.2022
224 Clouds 32 1007 32 10000 6.17 130 00:52 14.09.2022
225 Clouds 32 1008 32 10000 6.17 140 23:54 13.09.2022
226 Clouds 32 1008 32 10000 6.17 140 23:36 13.09.2022
227 Clouds 32 1008 32 10000 7.2 120 23:18 13.09.2022
228 Clouds 32 1008 32 10000 8.23 230 22:22 13.09.2022
229 Clouds 30 1010 37 10000 6.26 190 20:41 13.09.2022
230 Clouds 28 1012 47 10000 4.12 180 18:37 13.09.2022
231 Clouds 24 1006 58 10000 0.45 309 15:58 13.09.2022
232 Clouds 25 1010 59 10000 4.12 200 14:50 13.09.2022
233 Clouds 25 1010 56 10000 5.14 190 13:25 13.09.2022
234 Clouds 26 1011 51 10000 3.6 220 09:51 13.09.2022
235 Clouds 27 1011 47 10000 3.09 190 07:31 13.09.2022
236 Clouds 30 1013 42 10000 4.12 180 00:52 13.09.2022
237 Clouds 29 1015 43 10000 3.13 110 22:51 12.09.2022
238 Clouds 29 1015 44 10000 3.13 110 22:26 12.09.2022
239 Clouds 26 1017 65 10000 4.63 70 20:46 12.09.2022
240 Clouds 24 1019 74 10000 3.6 90 19:22 12.09.2022
241 Clouds 21 1019 89 10000 3.09 220 17:42 12.09.2022
242 Rain 23 1019 73 10000 10.8 190 14:54 12.09.2022
243 Clouds 27 1009 42 10000 1.34 223 11:57 12.09.2022
244 Clouds 27 1013 40 10000 4.63 310 10:20 12.09.2022
245 Clouds 31 1014 30 10000 1.54 350 05:50 12.09.2022
246 Clouds 33 1014 26 10000 3.6 360 04:30 12.09.2022
247 Clouds 34 1012 32 10000 0.45 221 23:58 11.09.2022
248 Clouds 32 1018 33 10000 2.06 130 22:43 11.09.2022
249 Clear 31 1018 36 10000 3.6 50 20:53 11.09.2022
250 Clouds 30 1019 37 10000 3.6 50 20:21 11.09.2022
251 Clouds 29 1019 41 10000 3.6 130 19:26 11.09.2022
252 Clouds 28 1018 44 10000 0.89 97 18:38 11.09.2022
253 Clear 25 1015 54 10000 0.95 36 16:56 11.09.2022
254 Clouds 23 1018 57 10000 2.57 180 15:22 11.09.2022
255 Clouds 24 1017 51 10000 3.09 200 12:54 11.09.2022
256 Clouds 25 1017 49 10000 2.06 150 09:45 11.09.2022
257 Clouds 27 1017 49 10000 3.6 80 07:43 11.09.2022
258 Clouds 28 1013 45 10000 4.12 60 02:55 11.09.2022
259 Clouds 29 1014 52 10000 6.17 30 23:45 10.09.2022
260 Clouds 28 1014 53 10000 2.06 0 21:35 10.09.2022
261 Clouds 26 1017 64 10000 5.36 60 19:56 10.09.2022
262 Clouds 26 1017 63 10000 5.36 60 19:37 10.09.2022
263 Clouds 25 1017 65 10000 5.36 60 19:19 10.09.2022
264 Clouds 26 1009 54 10000 3.13 130 16:58 10.09.2022
265 Clouds 26 1012 57 10000 6.17 150 15:28 10.09.2022
266 Clouds 27 1009 54 10000 8.75 170 12:55 10.09.2022
267 Clouds 27 1009 54 10000 8.75 170 12:55 10.09.2022
268 Clouds 28 1009 51 10000 6.69 160 11:36 10.09.2022
269 Clouds 29 1008 46 10000 6.69 140 10:25 10.09.2022
270 Clouds 30 1007 42 10000 3.6 170 08:37 10.09.2022
271 Clouds 30 1007 41 10000 3.6 170 08:18 10.09.2022
272 Clouds 34 1003 31 10000 7.2 180 02:54 10.09.2022
273 Clouds 35 1004 29 10000 5.14 100 23:35 09.09.2022
274 Clouds 36 1005 27 10000 6.69 130 22:21 09.09.2022
275 Haze 35 1006 29 10000 5.66 170 20:48 09.09.2022
276 Dust 34 1006 30 10000 6.17 150 19:25 09.09.2022
277 Dust 33 1006 30 8047 3.6 120 18:55 09.09.2022
278 Dust 30 1005 33 6437 6.17 130 16:34 09.09.2022
279 Dust 30 1005 31 8047 2.68 100 14:27 09.09.2022
280 Haze 31 1005 32 8047 1.54 170 12:56 09.09.2022
281 Dust 32 1004 29 9656 4.12 280 10:22 09.09.2022
282 Dust 34 1005 28 10000 14.92 130 06:46 09.09.2022
283 Clouds 38 1003 20 10000 6.17 250 03:24 09.09.2022
284 Clouds 39 1004 27 10000 1.34 167 21:57 08.09.2022
285 Clouds 38 1010 25 10000 1.34 149 21:36 08.09.2022
286 Clouds 37 1011 26 10000 2.57 0 20:38 08.09.2022
287 Clouds 37 1011 26 10000 2.57 0 20:19 08.09.2022
288 Clouds 34 1011 30 10000 3.6 80 18:26 08.09.2022
289 Clouds 30 1012 42 10000 2.06 320 16:27 08.09.2022
290 Thunderstorm 31 1012 34 10000 1.54 260 14:40 08.09.2022
291 Clouds 31 1012 33 10000 3.09 340 13:27 08.09.2022
292 Clouds 32 1012 31 10000 4.12 350 12:24 08.09.2022
293 Clear 33 1011 31 10000 1.46 205 10:58 08.09.2022
294 Clouds 35 1014 26 10000 5.66 160 08:54 08.09.2022
295 Clouds 37 1012 24 10000 5.36 200 06:43 08.09.2022
296 Clouds 41 1012 19 10000 3.6 180 02:37 08.09.2022
297 Clouds 41 1012 19 10000 3.6 180 02:19 08.09.2022
298 Clouds 41 1012 19 10000 4.12 120 01:38 08.09.2022
299 Clouds 41 1015 21 10000 6.17 90 22:54 07.09.2022
300 Clouds 40 1015 21 10000 4.12 100 21:42 07.09.2022
301 Clouds 38 1016 22 10000 2.57 110 20:49 07.09.2022
302 Clouds 37 1017 23 10000 3.6 120 19:42 07.09.2022
303 Clouds 35 1016 25 10000 2.57 120 18:27 07.09.2022
304 Clear 31 1015 25 10000 2.57 330 14:26 07.09.2022
305 Clouds 34 1014 22 10000 0 0 10:49 07.09.2022
306 Clouds 36 1014 20 10000 4.12 150 09:39 07.09.2022
307 Clear 37 1014 18 10000 1.54 110 07:23 07.09.2022
308 Clouds 43 1012 13 10000 2.57 180 03:33 07.09.2022
309 Clouds 43 1012 13 10000 3.09 130 23:38 06.09.2022
310 Clouds 41 1013 14 10000 3.6 50 21:42 06.09.2022
311 Clear 40 1011 16 10000 3.6 120 20:45 06.09.2022
312 Clear 36 1013 17 10000 2.06 310 18:45 06.09.2022
313 Clear 36 1013 17 10000 2.06 310 18:22 06.09.2022
314 Clear 33 1014 21 10000 3.09 270 17:22 06.09.2022
315 Clear 31 1013 20 10000 2.57 60 16:37 06.09.2022
316 Clear 31 1012 20 10000 3.13 150 15:22 06.09.2022
317 Clear 31 1011 19 10000 5.14 320 13:45 06.09.2022
318 Clear 31 1011 19 10000 5.14 320 13:45 06.09.2022
319 Clear 32 1011 19 10000 5.14 320 13:23 06.09.2022
320 Clear 34 1007 20 10000 2.04 281 11:57 06.09.2022
321 Clear 33 1011 16 10000 3.13 230 10:41 06.09.2022
322 Clear 35 1011 15 10000 3.09 310 08:50 06.09.2022
323 Clear 36 1010 15 10000 3.09 320 07:45 06.09.2022
324 Clouds 42 1009 15 10000 2.68 0 02:44 06.09.2022
325 Clear 41 1010 19 10000 3.09 90 23:23 05.09.2022
326 Clouds 39 1012 21 10000 1.79 182 21:53 05.09.2022
327 Clouds 37 1013 23 10000 2.68 70 20:33 05.09.2022
328 Clear 36 1012 25 10000 2.57 50 19:19 05.09.2022
329 Clear 34 1013 27 10000 2.06 0 18:45 05.09.2022
330 Clear 34 1013 27 10000 2.06 0 18:21 05.09.2022
331 Clear 30 1013 32 10000 0 0 16:35 05.09.2022
332 Clouds 30 1013 33 10000 2.68 280 15:47 05.09.2022
333 Clouds 30 1010 32 10000 2.06 340 13:25 05.09.2022
334 Clouds 31 1010 30 10000 2.24 250 12:27 05.09.2022
335 Clouds 34 1009 25 10000 3.6 50 09:44 05.09.2022
336 Clouds 36 1009 24 10000 6.69 180 06:40 05.09.2022
337 Clear 42 1004 21 10000 0.45 38 01:56 05.09.2022
338 Clouds 40 1014 21 10000 2.06 0 22:44 04.09.2022
339 Clouds 40 1013 22 10000 2.06 0 22:26 04.09.2022
340 Clouds 38 1014 24 10000 2.68 10 20:44 04.09.2022
341 Clouds 36 1015 27 10000 0.45 24 19:29 04.09.2022
342 Clouds 33 1015 31 10000 2.06 320 17:50 04.09.2022
343 Clouds 31 1016 34 10000 2.57 340 16:28 04.09.2022
344 Clouds 31 1015 31 10000 3.09 40 14:27 04.09.2022
345 Clear 31 1015 32 10000 3.09 220 13:28 04.09.2022
346 Clear 31 1015 32 10000 3.09 220 13:28 04.09.2022
347 Clear 32 1013 30 10000 2.68 220 11:52 04.09.2022
348 Clear 33 1008 31 10000 0.45 279 09:56 04.09.2022
349 Clear 36 1012 25 10000 6.17 180 07:27 04.09.2022
350 Clear 39 1010 23 10000 7.48 148 04:00 04.09.2022
351 Clouds 41 1013 20 10000 4.12 120 23:40 03.09.2022
352 Clouds 39 1013 23 10000 2.57 120 22:21 03.09.2022
353 Clouds 37 1014 26 10000 2.06 170 21:23 03.09.2022
354 Clouds 37 1014 26 10000 2.06 170 21:23 03.09.2022
355 Clear 35 1010 30 10000 0.89 86 18:59 03.09.2022
356 Clouds 32 1015 32 10000 2.57 60 17:25 03.09.2022
357 Clear 29 1014 36 10000 3.09 330 16:26 03.09.2022
358 Clear 29 1012 34 10000 2.24 220 14:44 03.09.2022
359 Clouds 30 1012 33 10000 3.6 270 13:50 03.09.2022
360 Clouds 32 1011 30 10000 3.6 80 11:51 03.09.2022
361 Clear 33 1007 29 10000 1.79 128 09:56 03.09.2022
362 Clear 35 1006 28 10000 0.89 234 07:57 03.09.2022
363 Clouds 38 1004 27 10000 3.13 207 04:57 03.09.2022
364 Clear 40 1003 20 10000 1.34 161 03:57 03.09.2022
365 Clouds 41 1012 19 10000 3.13 30 23:49 02.09.2022
366 Clouds 40 1012 21 10000 4.12 150 22:34 02.09.2022
367 Clouds 38 1009 23 10000 1.95 105 20:57 02.09.2022
368 Clouds 37 1013 21 10000 3.6 80 20:23 02.09.2022
369 Clouds 36 1009 25 10000 1.9 94 18:59 02.09.2022
370 Clear 35 1013 25 10000 2.06 80 18:26 02.09.2022
371 Clouds 33 1012 25 10000 3.6 20 17:30 02.09.2022
372 Clouds 33 1012 25 10000 3.6 20 17:30 02.09.2022
373 Clouds 31 1011 24 10000 2.06 320 16:44 02.09.2022
374 Clouds 31 1009 21 10000 3.6 340 13:51 02.09.2022
375 Clear 32 1009 20 10000 1.54 310 11:47 02.09.2022
376 Clear 34 1009 19 10000 2.24 300 09:49 02.09.2022
377 Clear 35 1008 16 10000 2.24 250 08:55 02.09.2022
378 Clear 36 1008 15 10000 2.57 310 07:24 02.09.2022
379 Clear 37 1008 16 10000 2.68 250 06:34 02.09.2022
380 Clouds 43 1008 10 10000 3.09 100 02:34 02.09.2022
381 Clouds 41 1011 13 10000 3.09 90 22:24 01.09.2022
382 Clouds 40 1012 13 10000 3.13 80 21:39 01.09.2022
383 Clouds 40 1012 13 10000 3.13 80 21:20 01.09.2022
384 Clouds 38 1012 14 10000 3.09 130 20:31 01.09.2022
385 Clouds 35 1013 18 10000 2.57 360 18:37 01.09.2022
386 Clouds 31 1012 19 10000 1.54 240 16:55 01.09.2022
387 Clouds 31 1011 20 10000 5.14 330 15:26 01.09.2022
388 Clear 32 1011 18 10000 2.06 320 13:44 01.09.2022
389 Clear 32 1007 20 10000 1.05 275 12:56 01.09.2022
390 Clear 32 1010 17 10000 2.06 320 11:51 01.09.2022
391 Clear 33 1010 17 10000 2.06 320 11:22 01.09.2022
392 Clear 34 1011 15 10000 3.09 240 09:32 01.09.2022
393 Clear 36 1010 13 10000 3.6 250 07:31 01.09.2022
394 Clear 36 1008 14 10000 1.67 238 05:56 01.09.2022
395 Clouds 43 1012 8 10000 3.09 170 01:31 01.09.2022
396 Clear 42 1009 13 10000 1.42 80 22:56 31.08.2022
397 Clouds 39 1015 14 10000 2.57 120 20:45 31.08.2022
398 Clouds 36 1015 17 10000 4.12 320 18:47 31.08.2022
399 Clouds 32 1015 21 10000 5.66 320 16:47 31.08.2022
400 Clouds 30 1015 25 10000 6.69 340 15:25 31.08.2022
401 Clouds 32 1013 22 10000 5.66 320 13:37 31.08.2022
402 Clear 32 1013 20 10000 2.24 240 11:55 31.08.2022
403 Clear 33 1013 20 10000 3.6 290 09:36 31.08.2022
404 Clear 34 1013 20 10000 3.6 310 08:26 31.08.2022
405 Clear 41 1009 14 10000 1.31 328 02:58 31.08.2022
406 Clouds 41 1014 16 10000 2.68 340 22:29 30.08.2022
407 Clouds 41 1014 16 10000 2.68 340 22:29 30.08.2022
408 Clouds 40 1014 17 10000 5.66 50 21:29 30.08.2022
409 Clouds 39 1015 19 10000 2.57 80 20:35 30.08.2022
410 Clear 32 1013 35 10000 1.45 344 16:58 30.08.2022
411 Clear 30 1014 32 10000 2.24 200 13:53 30.08.2022
412 Clear 31 1014 32 10000 2.06 200 12:24 30.08.2022
413 Clear 32 1014 30 10000 2.06 320 11:20 30.08.2022
414 Clear 33 1013 28 10000 3.6 220 09:39 30.08.2022
415 Clear 35 1012 24 10000 2.06 120 06:48 30.08.2022
416 Clouds 39 1010 21 10000 3.6 190 01:18 30.08.2022
417 Clouds 38 1013 23 10000 2.57 0 22:38 29.08.2022
418 Clouds 38 1013 24 10000 2.24 0 21:53 29.08.2022
419 Clouds 36 1013 30 10000 3.6 120 20:47 29.08.2022
420 Clear 34 1009 39 10000 0.45 269 18:59 29.08.2022
421 Clear 31 1012 41 10000 2.06 320 17:33 29.08.2022
422 Clear 29 1008 47 10000 0.89 28 16:58 29.08.2022
423 Clear 29 1012 45 10000 2.06 20 15:19 29.08.2022
424 Clear 30 1010 39 10000 3.6 40 13:54 29.08.2022
425 Clear 30 1011 39 10000 2.06 60 12:24 29.08.2022
426 Clear 31 1008 36 10000 4.12 200 10:43 29.08.2022
427 Clear 33 1008 33 10000 3.6 170 09:18 29.08.2022
428 Clear 35 1007 27 10000 6.69 150 06:52 29.08.2022
429 Clouds 38 1005 20 10000 7.72 140 02:25 29.08.2022
430 Clouds 38 1007 17 10000 6.17 160 23:33 28.08.2022
431 Clouds 38 1008 19 10000 6.26 170 21:48 28.08.2022
432 Clouds 38 1008 20 10000 6.26 170 21:25 28.08.2022
433 Clouds 36 1009 20 10000 6.26 180 20:18 28.08.2022
434 Clouds 36 1009 20 10000 6.26 180 20:18 28.08.2022
435 Clear 32 1009 27 10000 3.6 180 18:22 28.08.2022
436 Clear 31 1009 29 10000 4.63 200 17:51 28.08.2022
437 Clear 29 1009 31 10000 3.6 170 16:44 28.08.2022
438 Clear 28 1007 32 10000 1.97 180 15:00 28.08.2022
439 Clear 29 1002 28 10000 0.45 219 12:57 28.08.2022
440 Clear 31 1006 23 10000 5.66 180 11:24 28.08.2022
441 Clear 31 1006 21 10000 4.12 190 10:20 28.08.2022
442 Clear 33 1005 17 10000 3.6 230 08:49 28.08.2022
443 Clear 33 1005 17 10000 3.13 180 07:51 28.08.2022
444 Clouds 37 1004 12 10000 6.17 210 04:55 28.08.2022
445 Clouds 40 1005 11 10000 6.26 230 00:36 28.08.2022
446 Clear 40 1002 12 10000 3.58 249 22:58 27.08.2022
447 Clouds 39 1008 13 10000 4.12 90 22:24 27.08.2022
448 Clouds 36 1009 21 10000 3.6 80 20:34 27.08.2022
449 Clear 32 1009 33 10000 4.63 50 18:50 27.08.2022
450 Clouds 28 1009 36 10000 3.09 60 16:26 27.08.2022
451 Clouds 28 1010 36 10000 3.09 50 15:30 27.08.2022
452 Clouds 29 1008 35 10000 0 0 12:55 27.08.2022
453 Clear 29 1004 38 10000 0.45 338 11:58 27.08.2022
454 Clouds 31 1009 32 10000 4.12 40 10:26 27.08.2022
455 Clouds 32 1010 28 10000 6.17 60 09:31 27.08.2022
456 Clear 35 1004 26 10000 1.34 242 05:59 27.08.2022
457 Clouds 38 1010 21 10000 0.89 191 00:51 27.08.2022
458 Clouds 38 1013 22 10000 2.24 0 23:35 26.08.2022
459 Clouds 35 1013 27 10000 2.24 0 21:45 26.08.2022
460 Clouds 33 1014 31 10000 1.79 153 19:50 26.08.2022
461 Clouds 31 1014 34 10000 2.57 90 17:49 26.08.2022
462 Clouds 28 1015 38 10000 3.13 20 15:40 26.08.2022
463 Clouds 27 1011 47 10000 0.91 283 14:59 26.08.2022
464 Clouds 28 1009 45 10000 3.57 295 12:56 26.08.2022
465 Clouds 30 1013 37 10000 4.12 300 11:43 26.08.2022
466 Clouds 30 1013 38 10000 2.06 90 11:21 26.08.2022
467 Clouds 31 1010 37 10000 1.79 14 07:56 26.08.2022
468 Clear 36 1010 30 10000 1.54 0 02:57 26.08.2022
469 Clouds 36 1015 24 10000 5.36 80 23:45 25.08.2022
470 Clouds 34 1015 33 10000 3.6 70 21:55 25.08.2022
471 Clouds 33 1016 36 10000 3.13 100 20:51 25.08.2022
472 Clouds 31 1016 42 10000 2.57 100 19:27 25.08.2022
473 Clouds 29 1016 50 10000 3.13 80 18:29 25.08.2022
474 Clouds 28 1015 56 10000 3.6 120 17:31 25.08.2022
475 Clouds 27 1015 59 10000 2.57 80 16:27 25.08.2022
476 Clouds 27 1015 60 10000 2.24 100 15:28 25.08.2022
477 Clouds 27 1011 55 10000 0.89 91 12:56 25.08.2022
478 Dust 29 1015 47 10000 5.14 100 10:49 25.08.2022
479 Dust 30 1015 42 10000 4.63 140 09:44 25.08.2022
480 Dust 31 1012 37 8047 6.69 130 06:45 25.08.2022
481 Clouds 35 1010 21 10000 5.66 230 02:29 25.08.2022
482 Clouds 39 1009 24 10000 3.6 150 23:29 24.08.2022
483 Clouds 38 1010 24 10000 3.09 80 22:46 24.08.2022
484 Clouds 37 1011 27 10000 4.63 90 21:37 24.08.2022
485 Clouds 37 1011 27 10000 4.63 90 21:19 24.08.2022
486 Clouds 34 1011 31 10000 4.12 130 19:34 24.08.2022
487 Clouds 31 1011 35 10000 3.6 310 16:49 24.08.2022
488 Thunderstorm 31 1010 35 10000 5.14 270 15:52 24.08.2022
489 Clouds 31 1010 36 10000 3.6 170 13:48 24.08.2022
490 Clear 31 1007 37 10000 0.67 155 11:59 24.08.2022
491 Clouds 32 1008 32 10000 5.14 150 11:18 24.08.2022
492 Clouds 34 1009 25 10000 3.13 170 08:26 24.08.2022
493 Clouds 41 1006 15 10000 3.09 350 03:32 24.08.2022
494 Clouds 40 1008 21 10000 2.57 220 23:35 23.08.2022
495 Clouds 38 1009 25 10000 4.63 150 22:33 23.08.2022
496 Clouds 37 1010 28 10000 3.6 120 21:35 23.08.2022
497 Clouds 35 1011 32 10000 4.63 140 20:30 23.08.2022
498 Smoke 33 1011 36 10000 2.68 30 18:50 23.08.2022
499 Clear 32 1010 40 10000 2.06 70 17:50 23.08.2022
500 Clear 31 1010 41 10000 2.06 70 17:18 23.08.2022
501 Clouds 29 1011 40 10000 3.6 40 15:39 23.08.2022
502 Clouds 30 1011 36 10000 3.6 50 13:36 23.08.2022
503 Clouds 31 1011 34 10000 3.6 190 11:33 23.08.2022
504 Clear 31 1011 34 10000 3.09 200 10:51 23.08.2022
505 Clear 32 1011 33 10000 3.09 200 10:26 23.08.2022
506 Clouds 33 1011 31 10000 3.6 210 08:53 23.08.2022
507 Clouds 33 1011 32 10000 3.6 210 08:21 23.08.2022
508 Clouds 34 1010 29 10000 3.09 170 07:38 23.08.2022
509 Clouds 35 1010 27 10000 3.09 70 06:29 23.08.2022
510 Clouds 35 1010 27 10000 3.09 70 06:29 23.08.2022
511 Clouds 38 1009 21 10000 3.13 100 04:45 23.08.2022
512 Clouds 39 1011 24 10000 3.09 150 00:28 23.08.2022
513 Clouds 38 1014 25 10000 3.09 50 23:54 22.08.2022
514 Clouds 37 1014 29 10000 2.57 0 22:45 22.08.2022
515 Clouds 35 1014 34 10000 3.09 70 21:45 22.08.2022
516 Clouds 33 1015 40 10000 1.54 120 19:49 22.08.2022
517 Clouds 32 1015 41 10000 1.54 120 19:18 22.08.2022
518 Clouds 30 1014 49 10000 3.13 80 17:37 22.08.2022
519 Clouds 28 1014 54 10000 6.17 60 15:39 22.08.2022
520 Clouds 28 1013 52 10000 6.69 50 14:32 22.08.2022
521 Clouds 31 1013 43 10000 4.63 190 10:49 22.08.2022
522 Clouds 32 1015 36 10000 4.12 120 08:21 22.08.2022
523 Clouds 37 1011 29 10000 13.38 30 04:30 22.08.2022
524 Clouds 39 1012 27 10000 2.57 60 00:49 22.08.2022
525 Clouds 38 1012 28 10000 2.57 60 00:26 22.08.2022
526 Clouds 38 1013 30 10000 3.6 120 22:53 21.08.2022
527 Clouds 36 1014 35 10000 5.14 90 21:28 21.08.2022
528 Clear 35 1012 38 10000 4.12 100 20:57 21.08.2022
529 Clouds 33 1015 41 10000 2.57 160 19:27 21.08.2022
530 Clear 31 1015 50 10000 4.12 130 17:39 21.08.2022
531 Clear 28 1009 58 10000 0.45 16 15:58 21.08.2022
532 Clouds 28 1013 53 10000 4.63 200 15:22 21.08.2022
533 Clear 29 1011 51 10000 5.66 170 13:53 21.08.2022
534 Clear 29 1012 49 10000 5.66 170 13:30 21.08.2022
535 Clear 30 1011 44 10000 2.24 150 11:54 21.08.2022
536 Clouds 32 1012 37 10000 4.12 150 09:31 21.08.2022
537 Clouds 31 1010 40 10000 3.09 140 08:56 21.08.2022
538 Clouds 31 1010 37 10000 4.12 180 08:38 21.08.2022
539 Clouds 31 1009 36 10000 4.12 160 07:27 21.08.2022
540 Clouds 35 1008 28 10000 6.17 180 03:41 21.08.2022
541 Clouds 37 1009 30 10000 4.12 90 00:24 21.08.2022
542 Clouds 35 1010 36 10000 2.57 200 22:40 20.08.2022
543 Clouds 35 1011 39 10000 2.24 0 21:37 20.08.2022
544 Clouds 33 1011 41 10000 2.57 80 20:41 20.08.2022
545 Clouds 32 1012 44 10000 3.6 130 19:40 20.08.2022
546 Clouds 31 1011 50 10000 4.12 130 18:30 20.08.2022
547 Clouds 29 1011 51 10000 2.68 70 17:50 20.08.2022
548 Clouds 28 1010 55 10000 3.6 180 16:52 20.08.2022
549 Clouds 27 1009 55 10000 4.63 180 15:33 20.08.2022
550 Clear 28 1008 46 10000 5.14 170 13:26 20.08.2022
551 Clear 30 1007 39 10000 5.66 80 11:50 20.08.2022
552 Clear 31 1007 34 10000 4.12 40 09:37 20.08.2022
553 Clouds 32 1007 33 10000 4.12 200 08:31 20.08.2022
554 Clouds 35 1006 26 10000 4.12 210 05:52 20.08.2022
555 Clear 38 1006 35 10000 4.86 259 00:59 20.08.2022
556 Clouds 37 1008 25 10000 3.6 140 00:34 20.08.2022
557 Clouds 36 1009 28 10000 3.13 70 23:18 19.08.2022
558 Clouds 34 1011 32 10000 2.57 190 21:40 19.08.2022
559 Clouds 32 1012 39 10000 2.24 100 19:54 19.08.2022
560 Clouds 29 1012 50 10000 2.68 30 17:19 19.08.2022
561 Clouds 26 1011 59 10000 2.57 180 14:54 19.08.2022
562 Clouds 28 1011 52 10000 4.63 260 12:49 19.08.2022
563 Thunderstorm 27 1014 53 10000 3.6 270 10:44 19.08.2022
564 Thunderstorm 27 1014 56 10000 2.57 280 10:19 19.08.2022
565 Rain 33 1009 48 10000 2.57 190 05:58 19.08.2022
566 Thunderstorm 36 1010 33 10000 6.69 330 00:48 19.08.2022
567 Clouds 36 1011 34 10000 7.72 310 00:23 19.08.2022
568 Clouds 36 1011 33 10000 4.47 297 23:28 18.08.2022
569 Clouds 37 1014 33 10000 5.14 130 22:37 18.08.2022
570 Clouds 36 1012 33 10000 3.13 50 21:53 18.08.2022
571 Clouds 36 1014 30 10000 3.13 50 21:26 18.08.2022
572 Clouds 34 1013 35 10000 2.57 110 19:55 18.08.2022
573 Clouds 34 1013 36 10000 2.24 40 19:25 18.08.2022
574 Clouds 32 1014 40 10000 3.13 60 17:49 18.08.2022
575 Clouds 30 1013 43 10000 3.6 20 16:55 18.08.2022
576 Clouds 30 1012 46 10000 4.12 20 14:22 18.08.2022
577 Clouds 29 1009 51 10000 2.57 60 13:58 18.08.2022
578 Clouds 30 1012 46 10000 2.68 40 12:31 18.08.2022
579 Clouds 31 1012 44 10000 3.6 10 11:23 18.08.2022
580 Clouds 32 1012 41 10000 6 70 09:43 18.08.2022
581 Clouds 33 1012 38 10000 6.17 30 08:31 18.08.2022
582 Clouds 33 1013 37 10000 7.72 40 07:18 18.08.2022
583 Thunderstorm 36 1009 34 10000 8.23 210 02:59 18.08.2022
584 Clouds 37 1012 28 10000 2.06 0 22:51 17.08.2022
585 Clouds 36 1013 32 10000 2.68 60 21:26 17.08.2022
586 Clear 35 1009 35 10000 0.89 319 19:59 17.08.2022
587 Clouds 33 1014 36 10000 3.09 30 18:39 17.08.2022
588 Clouds 31 1013 40 10000 0.45 74 17:27 17.08.2022
589 Clouds 29 1013 48 10000 2.06 170 16:21 17.08.2022
590 Clouds 28 1012 44 10000 2.57 350 14:48 17.08.2022
591 Clouds 29 1013 43 10000 2.06 90 12:50 17.08.2022
592 Clouds 30 1011 38 10000 3.6 340 11:36 17.08.2022
593 Clouds 31 1010 37 10000 9.26 300 09:30 17.08.2022
594 Clouds 33 1010 35 10000 6.69 30 07:28 17.08.2022
595 Clouds 37 1009 25 10000 4.12 60 01:45 17.08.2022
596 Clouds 37 1010 27 10000 5.14 40 23:33 16.08.2022
597 Clouds 35 1013 30 10000 2.57 70 21:48 16.08.2022
598 Clouds 34 1014 33 10000 3.09 350 20:26 16.08.2022
599 Clear 33 1012 36 10000 3.6 60 19:40 16.08.2022
600 Clouds 31 1012 38 10000 2.24 10 18:18 16.08.2022
601 Clouds 29 1012 44 10000 1.54 350 17:24 16.08.2022
602 Clouds 27 1013 48 10000 2.57 300 15:45 16.08.2022
603 Clouds 27 1011 48 10000 2.24 310 14:55 16.08.2022
604 Clouds 27 1011 48 10000 3.09 310 14:36 16.08.2022
605 Clouds 28 1011 46 10000 4.12 40 12:40 16.08.2022
606 Clouds 28 1011 43 10000 7.2 290 10:29 16.08.2022
607 Clouds 29 1011 41 10000 7.72 290 09:29 16.08.2022
608 Thunderstorm 29 1013 45 10000 10.29 320 08:26 16.08.2022
609 Clouds 32 1012 38 10000 13.38 270 07:20 16.08.2022
610 Clouds 35 1009 31 10000 4.63 40 01:20 16.08.2022
611 Clouds 34 1012 36 10000 4.63 70 22:26 15.08.2022
612 Clouds 33 1013 39 10000 3.13 90 21:51 15.08.2022
613 Clouds 31 1013 44 10000 4.12 90 20:35 15.08.2022
614 Clouds 31 1009 49 10000 1.34 90 19:59 15.08.2022
615 Clouds 29 1009 54 10000 0.45 167 18:00 15.08.2022
616 Clouds 26 1013 61 10000 2.06 70 16:25 15.08.2022
617 Clouds 26 1013 64 10000 2.68 90 15:55 15.08.2022
618 Clouds 26 1014 60 10000 3.09 20 13:54 15.08.2022
619 Clouds 27 1013 59 10000 4.12 50 12:24 15.08.2022
620 Clouds 27 1014 56 10000 2.68 100 09:53 15.08.2022
621 Clouds 28 1014 50 10000 8.23 70 07:49 15.08.2022
622 Clouds 34 1012 34 10000 5.14 180 04:35 15.08.2022
623 Clouds 35 1011 33 10000 4.63 210 00:54 15.08.2022
624 Clouds 35 1014 35 10000 1.54 220 22:38 14.08.2022
625 Clouds 34 1015 37 10000 2.24 0 21:37 14.08.2022
626 Clouds 33 1015 44 10000 2.68 0 19:48 14.08.2022
627 Clouds 32 1011 50 10000 0.89 120 18:57 14.08.2022
628 Clouds 31 1015 49 10000 4.63 100 18:18 14.08.2022
629 Clouds 28 1015 60 10000 3.09 40 16:52 14.08.2022
630 Clouds 27 1014 61 10000 3.09 190 15:48 14.08.2022
631 Clouds 27 1014 60 10000 3.09 200 14:24 14.08.2022
632 Clouds 27 1014 62 10000 2.57 190 13:49 14.08.2022
633 Clouds 27 1014 61 10000 2.57 190 13:19 14.08.2022
634 Clouds 27 1010 65 10000 0.45 292 11:56 14.08.2022
635 Clouds 28 1014 59 10000 3.09 170 10:40 14.08.2022
636 Clouds 28 1015 59 10000 2.06 160 08:50 14.08.2022
637 Clouds 29 1015 55 10000 3.09 220 06:21 14.08.2022
638 Clouds 31 1014 49 10000 4.12 180 02:48 14.08.2022
639 Clouds 31 1018 50 10000 0 0 23:53 13.08.2022
640 Clouds 30 1019 54 10000 2.06 30 22:52 13.08.2022
641 Clouds 29 1014 63 10000 1.03 51 20:58 13.08.2022
642 Clouds 28 1018 61 10000 2.06 350 20:31 13.08.2022
643 Clouds 28 1018 65 10000 2.57 70 19:29 13.08.2022
644 Clouds 26 1017 71 10000 2.06 210 17:40 13.08.2022
645 Clouds 26 1016 74 10000 4.12 60 15:23 13.08.2022
646 Clouds 26 1016 73 10000 4.12 40 14:26 13.08.2022
647 Clouds 26 1015 73 10000 5.14 40 13:38 13.08.2022
648 Clouds 26 1015 70 10000 2.06 80 11:52 13.08.2022
649 Clouds 26 1012 72 10000 0.3 172 09:58 13.08.2022
650 Clouds 27 1015 68 10000 3.09 80 08:23 13.08.2022
651 Clouds 28 1014 59 10000 3.09 150 04:21 13.08.2022
652 Clouds 35 1014 35 10000 7.72 30 23:47 12.08.2022
653 Clouds 35 1015 35 10000 2.57 40 21:42 12.08.2022
654 Clouds 34 1015 38 10000 2.06 50 20:51 12.08.2022
655 Clouds 33 1016 40 10000 2.57 120 19:39 12.08.2022
656 Clouds 32 1016 43 10000 4.12 50 18:46 12.08.2022
657 Clouds 27 1016 57 10000 2.06 180 16:37 12.08.2022
658 Clouds 27 1016 57 10000 4.63 70 15:40 12.08.2022
659 Clouds 27 1015 52 10000 3.09 30 14:27 12.08.2022
660 Clouds 27 1015 54 10000 2.24 220 12:53 12.08.2022
661 Clouds 28 1016 52 10000 2.57 130 09:52 12.08.2022
662 Rain 30 1016 43 10000 9.77 350 07:47 12.08.2022
663 Thunderstorm 33 1015 35 10000 7.2 170 06:31 12.08.2022
664 Clouds 37 1014 26 10000 3.09 170 02:22 12.08.2022
665 Clouds 37 1014 31 10000 2.24 182 00:23 12.08.2022
666 Clouds 37 1015 32 10000 3.09 240 23:34 11.08.2022
667 Clouds 36 1014 35 10000 1.68 120 21:58 11.08.2022
668 Clouds 35 1018 35 10000 5.66 130 21:35 11.08.2022
669 Clouds 34 1018 38 10000 2.68 0 20:32 11.08.2022
670 Clear 34 1013 42 10000 1.79 96 19:57 11.08.2022
671 Clouds 33 1017 41 10000 2.57 110 19:32 11.08.2022
672 Clouds 30 1017 48 10000 1.54 360 17:47 11.08.2022
673 Clear 28 1015 53 10000 0.97 38 16:32 11.08.2022
674 Clouds 27 1017 56 10000 2.57 210 15:20 11.08.2022
675 Clouds 27 1016 54 10000 5.66 30 12:41 11.08.2022
676 Clouds 29 1016 49 10000 0 0 09:54 11.08.2022
677 Clouds 30 1012 47 10000 2.24 148 06:59 11.08.2022
678 Clouds 35 1016 32 10000 3.6 90 03:45 11.08.2022
679 Clouds 33 1015 39 10000 7.2 160 00:35 11.08.2022
680 Thunderstorm 34 1016 40 10000 5.66 100 22:21 10.08.2022
681 Clouds 34 1017 39 10000 3.6 70 21:20 10.08.2022
682 Clouds 34 1018 41 10000 2.57 70 20:43 10.08.2022
683 Clouds 34 1018 41 10000 2.57 70 20:43 10.08.2022
684 Clouds 31 1017 50 10000 4.63 50 18:55 10.08.2022
685 Clouds 29 1017 54 10000 4.63 60 17:31 10.08.2022
686 Clouds 27 1017 65 10000 4.12 70 15:53 10.08.2022
687 Clouds 27 1015 63 10000 1.54 190 13:34 10.08.2022
688 Clouds 28 1015 63 10000 1.54 80 12:24 10.08.2022
689 Clouds 29 1014 54 10000 3.09 150 08:55 10.08.2022
690 Clouds 29 1014 54 10000 3.09 150 08:31 10.08.2022
691 Clouds 29 1013 49 10000 4.63 180 06:22 10.08.2022
692 Clear 34 1011 37 10000 9.26 200 02:45 10.08.2022
693 Clouds 36 1014 32 10000 7.2 80 23:34 09.08.2022
694 Clouds 35 1015 33 10000 7.72 90 22:55 09.08.2022
695 Clouds 36 1016 30 10000 6.26 90 21:34 09.08.2022
696 Clouds 34 1016 33 10000 2.57 230 19:34 09.08.2022
697 Clouds 32 1016 36 10000 4.63 120 18:23 09.08.2022
698 Clouds 32 1016 38 10000 4.63 160 17:26 09.08.2022
699 Clouds 31 1015 39 10000 5.66 130 16:40 09.08.2022
700 Clouds 30 1015 39 10000 4.63 100 15:40 09.08.2022
701 Clouds 32 1014 37 10000 3.6 170 12:25 09.08.2022
702 Clouds 33 1014 36 10000 3.6 250 09:22 09.08.2022
703 Clouds 34 1014 34 10000 5.66 170 08:26 09.08.2022
704 Clouds 34 1014 33 10000 8.75 120 07:18 09.08.2022
705 Clouds 38 1011 23 10000 7.2 200 03:32 09.08.2022
706 Clouds 38 1013 23 10000 3.6 320 23:27 08.08.2022
707 Clouds 38 1015 24 10000 3.6 260 22:53 08.08.2022
708 Clouds 37 1015 25 10000 3.6 240 21:49 08.08.2022
709 Clouds 36 1016 27 10000 2.57 130 20:52 08.08.2022
710 Clouds 35 1016 31 10000 3.09 90 19:50 08.08.2022
711 Clouds 34 1016 34 10000 3.09 90 18:35 08.08.2022
712 Clouds 31 1016 37 10000 3.6 340 16:34 08.08.2022
713 Clouds 30 1015 38 10000 3.6 60 15:38 08.08.2022
714 Clouds 31 1014 32 10000 3.6 200 12:50 08.08.2022
715 Clouds 32 1014 30 10000 2.57 180 11:48 08.08.2022
716 Clouds 34 1014 26 10000 3.6 170 09:29 08.08.2022
717 Clouds 37 1013 20 10000 3.09 200 05:37 08.08.2022
718 Clouds 39 1012 17 10000 3.6 280 02:24 08.08.2022
719 Clouds 38 1016 20 10000 5.14 130 22:20 07.08.2022
720 Clouds 37 1016 21 10000 4.63 100 21:38 07.08.2022
721 Clouds 36 1017 24 10000 4.63 50 20:25 07.08.2022
722 Clouds 35 1017 27 10000 3.09 70 19:54 07.08.2022
723 Clouds 34 1017 28 10000 3.09 70 19:29 07.08.2022
724 Clouds 33 1017 30 10000 3.09 90 18:21 07.08.2022
725 Clouds 30 1017 35 10000 4.63 50 16:53 07.08.2022
726 Clouds 29 1016 36 10000 3.09 70 15:54 07.08.2022
727 Clouds 29 1015 34 10000 5.66 30 14:39 07.08.2022
728 Clear 30 1010 32 10000 2.22 350 12:59 07.08.2022
729 Clouds 32 1014 30 10000 4.12 50 10:57 07.08.2022
730 Clouds 32 1014 29 10000 4.12 50 10:21 07.08.2022
731 Clouds 37 1011 23 10000 4.12 80 04:42 07.08.2022
732 Clouds 39 1012 21 10000 4.12 300 02:37 07.08.2022
733 Clouds 37 1014 25 10000 2.24 0 23:29 06.08.2022
734 Clouds 36 1015 27 10000 3.6 130 22:20 06.08.2022
735 Clouds 35 1016 32 10000 2.57 360 20:20 06.08.2022
736 Clouds 34 1016 34 10000 5.14 350 19:38 06.08.2022
737 Clouds 32 1016 39 10000 7.72 310 18:19 06.08.2022
738 Clouds 28 1015 52 10000 5.14 320 16:33 06.08.2022
739 Clouds 27 1014 54 10000 3.6 310 13:52 06.08.2022
740 Clear 27 1014 53 10000 4.63 210 12:50 06.08.2022
741 Clear 28 1014 53 10000 3.6 310 11:21 06.08.2022
742 Clear 29 1014 51 10000 3.6 180 09:49 06.08.2022
743 Clear 30 1014 45 10000 3.09 230 07:36 06.08.2022
744 Clouds 35 1013 31 10000 9.26 240 02:22 06.08.2022
745 Clouds 33 1015 38 10000 8.75 180 22:40 05.08.2022
746 Clouds 32 1015 43 10000 7.2 210 21:36 05.08.2022
747 Clouds 28 1016 57 10000 6.17 190 19:22 05.08.2022
748 Clouds 26 1016 72 10000 6.17 190 18:44 05.08.2022
749 Clouds 27 1016 63 10000 3.09 200 16:55 05.08.2022
750 Clouds 27 1015 66 10000 3.09 200 16:37 05.08.2022
751 Clouds 26 1015 67 10000 2.57 80 15:19 05.08.2022
752 Clouds 26 1014 66 10000 3.09 40 13:39 05.08.2022
753 Clouds 26 1014 65 10000 3.09 40 13:20 05.08.2022
754 Clouds 26 1014 64 10000 4.12 30 12:23 05.08.2022
755 Clouds 27 1015 61 10000 4.12 210 10:25 05.08.2022
756 Clouds 28 1012 54 10000 2.48 113 07:58 05.08.2022
757 Clouds 28 1012 54 10000 2.48 113 07:58 05.08.2022
758 Clouds 29 1012 49 10000 8.75 210 05:25 05.08.2022
759 Clouds 33 1011 35 10000 10.8 200 23:51 04.08.2022
760 Clouds 33 1007 36 10000 4.47 167 21:58 04.08.2022
761 Clouds 32 1013 37 10000 11.32 170 21:25 04.08.2022
762 Clouds 31 1013 41 10000 10.29 190 20:41 04.08.2022
763 Clouds 32 1012 36 10000 6.69 170 19:21 04.08.2022
764 Clouds 33 1012 35 10000 7.2 210 18:34 04.08.2022
765 Clouds 32 1011 38 10000 3.09 150 17:28 04.08.2022
766 Clouds 32 1011 34 10000 4.12 210 13:35 04.08.2022
767 Clouds 33 1011 32 10000 6.17 210 11:46 04.08.2022
768 Clouds 34 1011 30 10000 3.09 220 10:48 04.08.2022
769 Clouds 35 1011 28 10000 3.09 210 07:51 04.08.2022
770 Clouds 39 1010 23 10000 6.17 180 04:28 04.08.2022
771 Clouds 40 1006 23 10000 1.89 147 01:58 04.08.2022
772 Clouds 40 1010 23 10000 3.09 210 23:42 03.08.2022
773 Clouds 38 1013 26 10000 2.57 90 21:39 03.08.2022
774 Clouds 37 1014 29 10000 3.6 50 20:22 03.08.2022
775 Clouds 34 1014 32 10000 3.09 50 19:28 03.08.2022
776 Clouds 31 1014 39 10000 5.14 210 17:41 03.08.2022
777 Clouds 30 1014 42 10000 5.14 210 16:24 03.08.2022
778 Clouds 30 1013 40 10000 5.66 220 14:43 03.08.2022
779 Clouds 31 1013 37 10000 4.12 210 11:53 03.08.2022
780 Clouds 33 1011 33 10000 3.09 190 08:20 03.08.2022
781 Clouds 37 1012 28 10000 3.09 220 04:46 03.08.2022
782 Clouds 38 1012 25 10000 5.14 240 03:27 03.08.2022
783 Clouds 38 1011 26 10000 2.57 170 01:18 03.08.2022
784 Clouds 38 1011 26 10000 2.57 170 01:18 03.08.2022
785 Clouds 37 1010 32 10000 1.3 212 22:59 02.08.2022
786 Clouds 37 1014 31 10000 2.57 50 21:53 02.08.2022
787 Clouds 36 1010 36 10000 1.79 198 20:58 02.08.2022
788 Clouds 33 1015 40 10000 4.12 320 18:48 02.08.2022
789 Clouds 29 1015 56 10000 3.6 210 16:22 02.08.2022
790 Clouds 28 1015 53 10000 5.14 220 12:34 02.08.2022
791 Clouds 30 1015 49 10000 5.14 200 09:34 02.08.2022
792 Clouds 31 1015 46 10000 7.2 210 07:54 02.08.2022
793 Clouds 31 1013 46 10000 5.14 180 06:43 02.08.2022
794 Clouds 32 1013 41 10000 4.63 170 04:55 02.08.2022
795 Thunderstorm 36 1014 34 10000 9.26 150 23:51 01.08.2022
796 Clouds 34 1016 40 10000 4.12 150 22:25 01.08.2022
797 Clouds 33 1017 45 10000 4.12 110 20:52 01.08.2022
798 Clouds 31 1017 50 10000 2.24 108 19:32 01.08.2022
799 Clouds 30 1018 55 10000 2.06 150 18:40 01.08.2022
800 Clouds 27 1016 67 10000 2.06 190 16:53 01.08.2022
801 Clouds 26 1017 73 10000 3.09 210 15:52 01.08.2022
802 Clouds 25 1016 75 10000 1.54 40 15:30 01.08.2022
803 Clouds 25 1018 72 10000 3.09 200 14:43 01.08.2022
804 Clouds 26 1016 68 10000 4.12 210 12:47 01.08.2022
805 Clouds 28 1016 61 10000 3.6 210 09:43 01.08.2022
806 Clouds 27 1016 59 10000 2.57 200 08:30 01.08.2022
807 Clouds 30 1012 60 10000 1.48 269 04:56 01.08.2022
808 Clouds 29 1016 52 10000 5.14 180 03:49 01.08.2022
809 Rain 27 1018 67 10000 6.69 190 00:36 01.08.2022
810 Clouds 29 1018 61 10000 8.23 210 22:40 31.07.2022
811 Clear 31 1018 55 10000 3.6 120 21:29 31.07.2022
812 Clouds 32 1018 48 10000 4.12 130 19:53 31.07.2022
813 Clouds 31 1017 57 10000 4.12 50 17:57 31.07.2022
814 Clouds 29 1017 56 10000 3.6 50 15:39 31.07.2022
815 Clouds 29 1016 54 10000 2.57 100 13:44 31.07.2022
816 Clouds 29 1013 58 10000 2.54 72 11:59 31.07.2022
817 Clear 31 1017 51 10000 2.06 160 09:55 31.07.2022
818 Clouds 31 1013 51 10000 2.64 103 07:59 31.07.2022
819 Clouds 35 1010 35 10000 2.24 100 02:58 31.07.2022
820 Clear 34 1015 36 10000 3.6 100 23:40 30.07.2022
821 Clouds 32 1016 40 10000 4.63 50 22:19 30.07.2022
822 Clouds 32 1016 43 10000 2.57 0 21:49 30.07.2022
823 Clouds 32 1013 47 10000 2.57 90 20:57 30.07.2022
824 Clouds 32 1013 47 10000 2.57 90 20:57 30.07.2022
825 Clouds 32 1012 48 10000 0.89 39 19:59 30.07.2022
826 Clouds 29 1016 56 10000 3.09 90 18:53 30.07.2022
827 Clouds 28 1016 62 10000 2.06 130 17:44 30.07.2022
828 Clouds 25 1015 78 10000 2.57 80 15:54 30.07.2022
829 Clouds 25 1015 77 10000 2.57 80 15:24 30.07.2022
830 Clouds 25 1014 78 10000 4.12 50 13:18 30.07.2022
831 Clouds 26 1014 75 10000 3.09 220 12:19 30.07.2022
832 Clouds 26 1015 72 10000 3.09 90 10:31 30.07.2022
833 Clouds 26 1015 72 10000 3.09 90 10:31 30.07.2022
834 Clouds 26 1015 72 10000 3.09 90 10:31 30.07.2022
835 Clouds 26 1015 72 10000 3.09 90 10:31 30.07.2022
836 Clouds 26 1014 71 10000 2.57 180 09:54 30.07.2022
837 Thunderstorm 26 1015 71 10000 3.6 140 07:55 30.07.2022
838 Clear 36 1007 34 10000 4.12 150 02:57 30.07.2022
839 Clouds 37 1010 32 10000 4.12 150 02:24 30.07.2022
840 Clouds 34 1013 41 10000 3.6 110 22:41 29.07.2022
841 Clouds 32 1014 45 10000 4.12 140 21:24 29.07.2022
842 Clouds 31 1014 47 10000 1.34 88 20:35 29.07.2022
843 Clouds 28 1015 61 10000 2.57 360 18:18 29.07.2022
844 Clouds 24 1015 72 10000 2.57 50 15:35 29.07.2022
845 Clouds 25 1014 65 10000 3.09 340 13:19 29.07.2022
846 Clouds 25 1014 68 10000 6.17 90 11:22 29.07.2022
847 Thunderstorm 24 1014 66 10000 6.69 270 08:50 29.07.2022
848 Thunderstorm 27 1013 58 8047 10.8 130 07:54 29.07.2022
849 Clear 37 1005 32 10000 1.79 153 01:58 29.07.2022
850 Clouds 35 1011 36 10000 3.6 70 22:53 28.07.2022
851 Clouds 34 1012 39 10000 3.6 120 21:28 28.07.2022
852 Clear 33 1012 44 10000 2.06 110 20:32 28.07.2022
853 Clouds 31 1015 45 10000 2.06 0 19:43 28.07.2022
854 Clouds 31 1015 45 10000 2.06 0 19:23 28.07.2022
855 Clouds 28 1014 60 10000 1.54 180 17:44 28.07.2022
856 Clouds 27 1015 61 10000 1.54 270 16:55 28.07.2022
857 Clouds 27 1015 62 10000 1.54 270 16:28 28.07.2022
858 Clouds 25 1014 76 10000 3.6 110 13:30 28.07.2022
859 Clouds 25 1014 73 10000 3.6 120 11:27 28.07.2022
860 Thunderstorm 26 1016 63 10000 4.12 20 06:45 28.07.2022
861 Dust 28 1015 52 6437 19.03 20 05:31 28.07.2022
862 Thunderstorm 36 1010 34 10000 8.75 190 01:23 28.07.2022
863 Clouds 37 1012 31 10000 2.06 80 22:45 27.07.2022
864 Clouds 36 1014 32 10000 4.12 70 21:29 27.07.2022
865 Clouds 33 1014 41 10000 3.6 100 19:44 27.07.2022
866 Clear 32 1013 46 10000 1.79 126 18:39 27.07.2022
867 Clouds 28 1013 58 10000 4.63 210 15:52 27.07.2022
868 Clouds 27 1013 59 10000 4.63 210 15:20 27.07.2022
869 Clouds 27 1013 59 10000 3.09 210 14:40 27.07.2022
870 Clouds 28 1012 55 10000 4.63 60 12:50 27.07.2022
871 Clouds 31 1012 46 10000 4.12 200 08:44 27.07.2022
872 Clouds 31 1012 44 10000 5.66 180 07:24 27.07.2022
873 Clouds 33 1012 38 10000 7.2 210 02:42 27.07.2022
874 Clouds 33 1013 41 10000 1.54 220 22:29 26.07.2022
875 Clouds 33 1014 43 10000 3.6 240 21:21 26.07.2022
876 Clouds 32 1016 43 10000 3.09 120 20:31 26.07.2022
877 Clouds 30 1014 54 10000 2.06 0 18:44 26.07.2022
878 Clouds 29 1011 63 10000 0.89 153 17:59 26.07.2022
879 Clouds 26 1014 70 10000 2.06 140 16:31 26.07.2022
880 Clouds 26 1014 75 10000 5.14 80 15:30 26.07.2022
881 Clouds 26 1013 74 10000 4.63 50 13:46 26.07.2022
882 Clouds 27 1012 67 10000 4.63 170 11:38 26.07.2022
883 Clouds 27 1013 66 10000 1.54 60 09:32 26.07.2022
884 Clouds 26 1014 69 10000 4.12 70 06:26 26.07.2022
885 Thunderstorm 28 1015 62 10000 7.2 70 00:44 26.07.2022
886 Thunderstorm 28 1014 56 10000 14.4 50 23:33 25.07.2022
887 Thunderstorm 34 1014 35 10000 10.8 220 22:26 25.07.2022
888 Clouds 34 1015 34 10000 5.66 340 21:43 25.07.2022
889 Clouds 34 1015 36 10000 4.12 310 20:42 25.07.2022
890 Clouds 33 1015 38 10000 6.17 360 19:50 25.07.2022
891 Clouds 32 1015 42 10000 4.63 50 18:21 25.07.2022
892 Clouds 31 1015 42 10000 6.17 50 17:27 25.07.2022
893 Clouds 31 1013 43 10000 4.63 160 15:20 25.07.2022
894 Clouds 32 1012 38 10000 5.14 170 12:22 25.07.2022
895 Clouds 33 1012 32 10000 6.17 170 10:32 25.07.2022
896 Clouds 36 1008 29 10000 8.23 150 06:32 25.07.2022
897 Clouds 40 1011 18 10000 7.72 170 23:55 24.07.2022
898 Clouds 40 1011 17 10000 7.72 140 23:18 24.07.2022
899 Clouds 40 1012 18 10000 9.77 140 22:34 24.07.2022
900 Clouds 39 1012 21 10000 9.26 150 21:25 24.07.2022
901 Clouds 38 1013 24 10000 5.14 100 20:51 24.07.2022
902 Clouds 38 1013 24 10000 5.14 100 20:26 24.07.2022
903 Clouds 35 1013 28 10000 4.12 90 18:48 24.07.2022
904 Clouds 31 1012 34 10000 4.12 170 16:32 24.07.2022
905 Clouds 31 1012 33 10000 3.6 180 15:50 24.07.2022
906 Clouds 31 1011 32 10000 4.63 200 14:38 24.07.2022
907 Clouds 31 1011 34 10000 3.6 170 12:55 24.07.2022
908 Clouds 32 1011 32 10000 2.57 170 11:40 24.07.2022
909 Clouds 32 1011 32 10000 2.57 170 11:18 24.07.2022
910 Clouds 33 1010 30 10000 1.54 190 08:56 24.07.2022
911 Clouds 34 1011 27 10000 4.12 180 07:52 24.07.2022
912 Clouds 35 1010 26 10000 2.57 170 06:27 24.07.2022
913 Clouds 38 1010 17 10000 6.17 200 01:50 24.07.2022
914 Clouds 39 1010 16 10000 8.23 160 22:25 23.07.2022
915 Clouds 36 1011 17 10000 14.4 170 20:31 23.07.2022
916 Clouds 36 1009 15 10000 6.17 190 18:51 23.07.2022
917 Clouds 35 1009 16 10000 7.72 180 17:41 23.07.2022
918 Clouds 35 1009 15 10000 7.72 180 17:23 23.07.2022
919 Clouds 32 1009 14 10000 5.14 200 15:42 23.07.2022
920 Clouds 32 1006 18 10000 1.87 216 14:59 23.07.2022
921 Clouds 33 1009 14 10000 6.69 210 14:35 23.07.2022
922 Clouds 32 1007 17 10000 6.17 200 13:50 23.07.2022
923 Clouds 34 1006 16 10000 5.14 190 11:19 23.07.2022
924 Clouds 35 1006 15 10000 5.14 190 10:23 23.07.2022
925 Clouds 36 1006 14 10000 4.12 190 08:55 23.07.2022
926 Clouds 42 1004 12 10000 6.17 220 03:40 23.07.2022
927 Clouds 43 1000 12 10000 2.68 236 01:58 23.07.2022
928 Clouds 44 1007 11 10000 5.66 240 23:19 22.07.2022
929 Clear 41 1005 13 10000 2.24 107 20:57 22.07.2022
930 Clouds 39 1009 14 10000 3.6 260 19:47 22.07.2022
931 Clouds 37 1005 18 10000 1.39 156 18:29 22.07.2022
932 Clouds 33 1010 19 10000 5.66 210 17:28 22.07.2022
933 Clouds 31 1008 21 10000 3.09 190 14:57 22.07.2022
934 Clouds 33 1007 18 10000 4.63 180 11:49 22.07.2022
935 Clouds 36 1007 17 10000 4.63 200 09:27 22.07.2022
936 Clouds 37 1007 16 10000 6.69 180 08:43 22.07.2022
937 Clouds 38 1007 15 10000 6.17 180 07:20 22.07.2022
938 Clouds 42 1001 12 10000 3.13 219 03:59 22.07.2022
939 Clouds 43 1009 11 10000 5.14 280 22:53 21.07.2022
940 Clouds 42 1011 12 10000 2.06 0 21:34 21.07.2022
941 Clouds 39 1012 15 10000 1.54 0 19:30 21.07.2022
942 Clouds 35 1012 20 10000 6.17 200 17:45 21.07.2022
943 Clouds 35 1012 20 10000 6.17 200 17:19 21.07.2022
944 Clouds 33 1013 21 10000 5.66 200 15:22 21.07.2022
945 Clouds 32 1011 23 10000 3.6 210 14:39 21.07.2022
946 Clear 34 1012 19 10000 4.63 180 12:28 21.07.2022
947 Clear 34 1010 19 10000 6.17 190 11:19 21.07.2022
948 Clouds 36 1011 17 10000 5.14 190 09:38 21.07.2022
949 Clouds 36 1010 17 10000 3.09 210 08:52 21.07.2022
950 Clouds 37 1010 17 10000 4.12 220 07:50 21.07.2022
951 Clouds 39 1010 16 10000 5.66 220 05:47 21.07.2022
952 Clouds 43 1012 13 10000 4.63 220 00:43 21.07.2022
953 Clouds 42 1013 17 10000 3.6 120 22:22 20.07.2022
954 Clouds 40 1009 19 10000 2.24 163 20:59 20.07.2022
955 Clear 39 1012 20 10000 1.79 158 19:53 20.07.2022
956 Clear 38 1014 19 10000 1.34 170 19:25 20.07.2022
957 Clouds 37 1015 19 10000 2.57 240 18:51 20.07.2022
958 Clouds 37 1015 21 10000 2.57 240 18:22 20.07.2022
959 Clouds 33 1014 24 10000 5.14 220 16:45 20.07.2022
960 Clouds 32 1016 26 10000 3.09 220 15:32 20.07.2022
961 Clouds 32 1015 25 10000 5.66 220 14:20 20.07.2022
962 Clouds 34 1012 22 10000 5.66 200 11:37 20.07.2022
963 Clouds 35 1011 21 10000 3.6 210 09:41 20.07.2022
964 Clouds 41 1009 17 10000 6.17 230 03:49 20.07.2022
965 Clouds 42 1011 17 10000 4.12 180 00:51 20.07.2022
966 Clouds 41 1012 19 10000 3.6 210 23:41 19.07.2022
967 Clouds 40 1015 20 10000 4.12 210 22:33 19.07.2022
968 Clouds 39 1016 22 10000 3.6 140 21:35 19.07.2022
969 Clouds 38 1016 25 10000 1.54 0 20:33 19.07.2022
970 Clear 36 1012 30 10000 1.28 120 18:58 19.07.2022
971 Clouds 35 1016 28 10000 2.57 350 18:28 19.07.2022
972 Clouds 31 1016 37 10000 3.09 190 16:37 19.07.2022
973 Clear 29 1015 41 10000 3.6 170 14:53 19.07.2022
974 Clear 31 1014 39 10000 3.6 200 11:43 19.07.2022
975 Clear 31 1014 38 10000 3.09 200 10:55 19.07.2022
976 Clouds 32 1014 35 10000 2.06 80 09:25 19.07.2022
977 Clouds 33 1014 32 10000 5.14 300 08:39 19.07.2022
978 Clouds 34 1012 32 10000 3.6 350 07:19 19.07.2022
979 Thunderstorm 36 1010 27 10000 6.17 220 05:30 19.07.2022
980 Thunderstorm 36 1010 26 10000 4.63 150 04:55 19.07.2022
981 Thunderstorm 38 1013 26 10000 6.17 110 01:19 19.07.2022
982 Clouds 40 1012 23 10000 8.23 190 23:47 18.07.2022
983 Clouds 40 1012 22 10000 4.63 80 23:18 18.07.2022
984 Clouds 38 1009 30 10000 1.34 106 21:58 18.07.2022
985 Clouds 34 1016 30 10000 5.14 120 20:51 18.07.2022
986 Clear 34 1013 32 10000 5.66 140 19:33 18.07.2022
987 Clouds 33 1014 33 10000 4.12 100 17:31 18.07.2022
988 Clouds 31 1013 40 10000 5.66 200 15:52 18.07.2022
989 Clouds 31 1012 40 10000 9.26 170 14:34 18.07.2022
990 Clouds 32 1010 32 10000 6.17 160 13:23 18.07.2022
991 Clouds 32 1009 31 10000 3.09 220 11:31 18.07.2022
992 Clear 34 1004 26 10000 4.63 190 08:57 18.07.2022
993 Clouds 37 1010 20 10000 3.6 190 07:38 18.07.2022
994 Clouds 42 1007 16 10000 3.6 250 01:24 18.07.2022
995 Clouds 41 1010 19 10000 3.6 350 22:46 17.07.2022
996 Clouds 40 1010 21 10000 3.6 350 22:22 17.07.2022
997 Clouds 38 1011 24 10000 4.63 350 21:23 17.07.2022
998 Clouds 37 1012 27 10000 2.06 280 20:44 17.07.2022
999 Clouds 36 1014 27 10000 4.12 10 19:34 17.07.2022
1000 Thunderstorm 34 1014 30 10000 4.63 40 18:54 17.07.2022
1001 Thunderstorm 34 1013 29 10000 6.69 280 17:38 17.07.2022
1002 Thunderstorm 33 1014 33 10000 4.63 210 16:51 17.07.2022
1003 Clouds 33 1013 33 10000 3.09 70 16:26 17.07.2022
1004 Clouds 32 1006 37 10000 2.24 168 14:58 17.07.2022
1005 Clouds 33 1009 31 10000 7.2 170 13:31 17.07.2022
1006 Clouds 32 1008 31 10000 2.57 140 11:41 17.07.2022
1007 Clouds 34 1010 27 10000 3.6 190 09:30 17.07.2022
1008 Clouds 38 1009 23 10000 3.6 180 05:25 17.07.2022
1009 Clouds 37 1008 25 10000 12.86 220 02:33 17.07.2022
1010 Clouds 42 1010 18 10000 3.6 100 23:21 16.07.2022
1011 Clouds 40 1012 20 10000 3.09 60 21:32 16.07.2022
1012 Clouds 38 1013 22 10000 1.54 10 19:53 16.07.2022
1013 Clear 37 1013 25 10000 1.54 340 18:35 16.07.2022
1014 Clouds 34 1014 28 10000 4.12 330 17:19 16.07.2022
1015 Clouds 32 1015 30 10000 3.09 330 14:31 16.07.2022
1016 Clouds 33 1013 31 10000 10.29 40 11:38 16.07.2022
1017 Clouds 34 1014 29 10000 3.09 210 09:35 16.07.2022
1018 Clouds 35 1014 28 10000 4.12 210 08:47 16.07.2022
1019 Clouds 34 1014 29 10000 4.12 210 08:29 16.07.2022
1020 Thunderstorm 38 1012 21 10000 4.63 220 04:24 16.07.2022
1021 Thunderstorm 39 1012 21 10000 6.69 240 03:22 16.07.2022
1022 Clouds 39 1013 25 10000 2.06 0 23:34 15.07.2022
1023 Clouds 38 1015 26 10000 4.12 140 22:41 15.07.2022
1024 Clouds 36 1015 30 10000 3.09 170 21:29 15.07.2022
1025 Clouds 34 1016 32 10000 3.09 360 20:30 15.07.2022
1026 Clouds 32 1017 39 10000 3.6 10 18:44 15.07.2022
1027 Clear 30 1017 44 10000 4.12 30 17:44 15.07.2022
1028 Clouds 27 1016 56 10000 2.57 70 14:54 15.07.2022
1029 Clouds 27 1016 54 10000 2.57 290 13:18 15.07.2022
1030 Clouds 27 1016 58 10000 3.6 90 11:44 15.07.2022
1031 Clouds 27 1015 58 10000 4.63 90 10:23 15.07.2022
1032 Thunderstorm 28 1016 52 10000 3.09 310 06:30 15.07.2022
1033 Thunderstorm 38 1012 23 10000 8.23 140 01:32 15.07.2022
1034 Thunderstorm 40 1012 19 10000 6.17 170 00:22 15.07.2022
1035 Thunderstorm 41 1013 18 10000 6.69 200 22:52 14.07.2022
1036 Clouds 41 1014 18 10000 6.69 230 21:54 14.07.2022
1037 Clouds 41 1014 18 10000 7.2 160 21:30 14.07.2022
1038 Clouds 40 1015 19 10000 6.69 160 20:45 14.07.2022
1039 Clouds 40 1015 19 10000 6.69 160 20:24 14.07.2022
1040 Clouds 39 1015 17 10000 5.14 180 19:19 14.07.2022
1041 Clouds 33 1014 24 10000 4.63 180 16:23 14.07.2022
1042 Clouds 32 1014 23 10000 4.12 190 15:34 14.07.2022
1043 Clouds 32 1011 23 10000 3.6 170 14:31 14.07.2022
1044 Clouds 32 1010 26 10000 1.12 155 12:58 14.07.2022
1045 Clouds 35 1012 16 10000 5.14 200 11:54 14.07.2022
1046 Clouds 36 1012 17 10000 5.14 200 11:23 14.07.2022
1047 Clouds 35 1012 20 10000 6.69 230 10:24 14.07.2022
1048 Clouds 37 1011 18 10000 3.09 210 07:50 14.07.2022
1049 Clouds 43 1011 15 10000 6.69 180 01:26 14.07.2022
1050 Clouds 42 1012 15 10000 4.63 190 00:54 14.07.2022
1051 Clouds 42 1007 17 10000 7.34 197 22:57 13.07.2022
1052 Clouds 41 1013 14 10000 4.63 120 22:22 13.07.2022
1053 Clouds 41 1014 15 10000 5.14 160 21:19 13.07.2022
1054 Clouds 39 1010 18 10000 3.35 149 19:58 13.07.2022
1055 Clouds 36 1014 19 10000 5.66 180 17:52 13.07.2022
1056 Clouds 34 1014 22 10000 5.14 190 16:46 13.07.2022
1057 Clouds 33 1013 22 10000 4.63 240 15:43 13.07.2022
1058 Clouds 33 1012 21 10000 6.17 130 13:24 13.07.2022
1059 Clouds 36 1011 17 10000 5.66 180 10:46 13.07.2022
1060 Clouds 36 1011 17 10000 5.66 180 10:28 13.07.2022
1061 Clouds 36 1011 17 10000 5.66 180 10:28 13.07.2022
1062 Clouds 36 1011 16 10000 7.2 180 09:27 13.07.2022
1063 Clouds 37 1009 16 10000 4.63 190 07:53 13.07.2022
1064 Clouds 43 1007 10 10000 6.17 240 03:26 13.07.2022
1065 Clouds 44 1009 11 10000 3.6 120 00:18 13.07.2022
1066 Clouds 42 1011 11 10000 4.63 120 22:18 12.07.2022
1067 Clouds 42 1012 12 10000 5.66 150 21:35 12.07.2022
1068 Clouds 41 1012 11 10000 3.6 130 20:42 12.07.2022
1069 Clouds 39 1012 12 10000 3.09 40 19:42 12.07.2022
1070 Clouds 37 1012 13 10000 2.57 80 18:21 12.07.2022
1071 Clouds 33 1012 17 10000 4.63 210 16:20 12.07.2022
1072 Clouds 31 1011 17 10000 4.12 200 14:31 12.07.2022
1073 Clear 32 1011 15 10000 5.66 190 13:24 12.07.2022
1074 Clear 32 1010 15 10000 3.6 190 11:46 12.07.2022
1075 Clouds 34 1010 12 10000 4.63 180 10:25 12.07.2022
1076 Clear 36 1010 11 10000 4.63 190 08:40 12.07.2022
1077 Clear 38 1010 11 10000 6.17 170 07:47 12.07.2022
1078 Clouds 41 1008 9 10000 6.17 240 05:45 12.07.2022
1079 Clouds 43 1008 10 10000 5.66 120 04:18 12.07.2022
1080 Clouds 43 1011 11 10000 5.81 70 23:50 11.07.2022
1081 Clouds 42 1012 12 10000 4.63 100 22:39 11.07.2022
1082 Clear 41 1008 15 10000 2.01 107 20:56 11.07.2022
1083 Clouds 40 1014 13 10000 2.57 0 20:32 11.07.2022
1084 Clouds 37 1014 16 10000 2.06 300 18:48 11.07.2022
1085 Clouds 37 1014 15 10000 2.06 300 18:23 11.07.2022
1086 Clouds 37 1014 15 10000 2.06 300 18:23 11.07.2022
1087 Clouds 32 1014 21 10000 0 0 16:26 11.07.2022
1088 Clear 30 1010 25 10000 0.78 341 14:58 11.07.2022
1089 Clear 31 1012 19 10000 4.63 180 12:38 11.07.2022
1090 Clear 32 1012 21 10000 3.09 220 10:56 11.07.2022
1091 Clear 34 1013 17 10000 4.63 190 09:54 11.07.2022
1092 Clear 35 1013 16 10000 4.63 190 09:21 11.07.2022
1093 Clouds 36 1013 15 10000 4.12 180 07:52 11.07.2022
1094 Clear 42 1009 11 10000 4.12 200 00:56 11.07.2022
1095 Clouds 42 1013 10 10000 4.12 220 23:53 10.07.2022
1096 Clouds 41 1014 10 10000 5.36 220 22:37 10.07.2022
1097 Clouds 39 1016 10 10000 4.63 140 20:55 10.07.2022
1098 Clouds 39 1016 10 10000 4.63 140 20:24 10.07.2022
1099 Clouds 37 1016 10 10000 2.57 130 19:28 10.07.2022
1100 Clear 35 1012 11 10000 0.45 319 17:59 10.07.2022
1101 Clouds 33 1012 12 10000 1.01 115 16:59 10.07.2022
1102 Clouds 30 1016 16 10000 2.06 180 16:20 10.07.2022
1103 Clouds 28 1015 14 10000 5.14 200 14:44 10.07.2022
1104 Clear 29 1015 12 10000 4.12 330 13:29 10.07.2022
1105 Clouds 31 1015 11 10000 5.66 190 11:39 10.07.2022
1106 Clear 32 1014 9 10000 3.6 180 09:45 10.07.2022
1107 Clear 33 1014 8 10000 4.12 210 08:43 10.07.2022
1108 Clouds 38 1015 6 10000 4.12 230 06:39 10.07.2022
1109 Clouds 42 1015 6 10000 9.77 240 23:47 09.07.2022
1110 Clouds 41 1015 5 10000 7.2 250 22:26 09.07.2022
1111 Clouds 40 1016 7 10000 6.17 200 21:41 09.07.2022
1112 Clouds 37 1017 13 10000 3.6 160 19:44 09.07.2022
1113 Clouds 34 1017 15 10000 2.57 130 18:26 09.07.2022
1114 Clouds 34 1017 15 10000 2.57 130 18:26 09.07.2022
1115 Clouds 32 1017 16 10000 3.09 230 17:27 09.07.2022
1116 Clouds 29 1016 18 10000 3.09 240 16:25 09.07.2022
1117 Clouds 28 1017 18 10000 3.6 190 15:38 09.07.2022
1118 Clouds 27 1015 18 10000 5.14 180 14:22 09.07.2022
1119 Clear 28 1014 18 10000 5.66 190 13:47 09.07.2022
1120 Clear 29 1014 15 10000 4.12 180 11:45 09.07.2022
1121 Clear 30 1014 14 10000 2.68 210 10:26 09.07.2022
1122 Clear 31 1014 15 10000 3.09 240 09:38 09.07.2022
1123 Clear 32 1014 12 10000 3.6 160 07:44 09.07.2022
1124 Clouds 39 1013 5 10000 6.26 230 04:41 09.07.2022
1125 Clouds 40 1015 6 10000 8.75 170 23:41 08.07.2022
1126 Clouds 39 1016 8 10000 7.2 180 22:33 08.07.2022
1127 Clouds 39 1016 11 10000 7.2 140 21:26 08.07.2022
1128 Clouds 37 1017 12 10000 4.12 60 20:35 08.07.2022
1129 Clouds 35 1017 13 10000 4.12 50 19:38 08.07.2022
1130 Clouds 32 1017 15 10000 3.13 180 17:50 08.07.2022
1131 Clouds 29 1016 19 10000 3.6 200 16:29 08.07.2022
1132 Clouds 27 1015 19 10000 4.12 210 14:50 08.07.2022
1133 Clear 29 1014 14 10000 3.6 170 12:42 08.07.2022
1134 Clear 31 1014 14 10000 4.12 220 10:47 08.07.2022
1135 Clear 30 1013 15 10000 3.09 210 09:58 08.07.2022
1136 Clear 33 1014 13 10000 7.2 170 07:53 08.07.2022
1137 Clear 37 1012 12 10000 6.69 160 05:37 08.07.2022
1138 Clouds 39 1012 11 10000 6.69 250 00:40 08.07.2022
1139 Clouds 38 1013 13 10000 5.14 190 22:52 07.07.2022
1140 Clouds 37 1013 14 10000 4.63 160 21:48 07.07.2022
1141 Clear 34 1014 19 10000 6.17 130 19:34 07.07.2022
1142 Clear 31 1014 22 10000 0.45 87 17:43 07.07.2022
1143 Clear 28 1013 26 10000 2.57 230 16:23 07.07.2022
1144 Clear 26 1012 28 10000 3.6 210 14:21 07.07.2022
1145 Clear 27 1011 25 10000 4.63 170 12:43 07.07.2022
1146 Clear 28 1011 25 10000 4.63 170 12:23 07.07.2022
1147 Clear 28 1011 22 10000 6.17 200 11:33 07.07.2022
1148 Clear 30 1011 20 10000 4.63 220 10:45 07.07.2022
1149 Clear 30 1011 19 10000 4.63 220 10:27 07.07.2022
1150 Clear 31 1012 18 10000 5.66 180 09:22 07.07.2022
1151 Clear 35 1009 6 10000 7.2 140 05:57 07.07.2022
1152 Clear 39 1005 9 10000 4.02 147 00:18 07.07.2022
1153 Clear 38 1005 10 10000 5.36 155 23:36 06.07.2022
1154 Clear 38 1005 10 10000 5.36 173 23:18 06.07.2022
1155 Clouds 37 1011 10 10000 9.26 150 22:47 06.07.2022
1156 Clouds 37 1011 10 10000 9.26 150 22:47 06.07.2022
1157 Clouds 37 1011 11 10000 9.26 150 22:28 06.07.2022
1158 Clouds 34 1012 17 10000 7.2 150 20:19 06.07.2022
1159 Clear 32 1013 23 10000 4.63 130 18:48 06.07.2022
1160 Clear 29 1008 31 10000 0.89 135 16:58 06.07.2022
1161 Clear 26 1011 33 10000 5.14 220 15:44 06.07.2022
1162 Clear 27 1010 29 10000 5.14 190 12:44 06.07.2022
1163 Clear 28 1010 25 10000 4.12 190 11:52 06.07.2022
1164 Clear 30 1011 21 10000 6.17 200 10:48 06.07.2022
1165 Clear 31 1011 19 10000 6.69 180 08:46 06.07.2022
1166 Clear 33 1011 16 10000 7.72 170 07:41 06.07.2022
1167 Clear 34 1009 15 10000 7.2 190 06:40 06.07.2022
1168 Clouds 37 1010 12 10000 7.72 130 22:52 05.07.2022
1169 Clouds 37 1010 12 10000 7.72 130 22:34 05.07.2022
1170 Clouds 35 1011 14 10000 5.14 250 20:45 05.07.2022
1171 Clouds 33 1011 15 10000 3.6 180 19:54 05.07.2022
1172 Clouds 33 1012 15 10000 3.6 180 19:35 05.07.2022
1173 Clouds 29 1012 21 10000 2.68 180 17:49 05.07.2022
1174 Clouds 29 1012 22 10000 4.12 220 17:18 05.07.2022
1175 Clouds 25 1012 22 10000 4.63 190 15:39 05.07.2022
1176 Clouds 24 1010 24 10000 5.66 200 14:39 05.07.2022
1177 Clear 26 1010 21 10000 3.6 210 12:52 05.07.2022
1178 Clear 26 1010 18 10000 3.6 210 12:21 05.07.2022
1179 Clear 28 1009 13 10000 5.14 210 10:45 05.07.2022
1180 Clear 29 1009 13 10000 4.63 190 09:32 05.07.2022
1181 Clear 31 1011 13 10000 3.6 200 08:19 05.07.2022
1182 Clear 32 1008 12 10000 4.12 230 06:22 05.07.2022
1183 Clear 35 1007 9 10000 6.69 210 04:26 05.07.2022
1184 Clear 37 1008 8 10000 9.26 170 00:38 05.07.2022
1185 Clear 37 1008 8 10000 9.26 230 23:34 04.07.2022
1186 Clear 36 1009 8 10000 8.75 150 22:54 04.07.2022
1187 Clear 35 1010 11 10000 7.72 170 21:53 04.07.2022
1188 Clear 34 1011 12 10000 4.12 200 20:54 04.07.2022
1189 Clear 33 1011 12 10000 4.12 200 20:35 04.07.2022
1190 Clear 32 1011 14 10000 6.17 180 19:55 04.07.2022
1191 Clear 32 1011 14 10000 6.69 120 19:36 04.07.2022
1192 Clear 31 1011 17 10000 5.66 230 18:26 04.07.2022
1193 Clear 26 1010 23 10000 4.12 170 16:34 04.07.2022
1194 Clear 24 1009 25 10000 5.81 170 15:34 04.07.2022
1195 Clear 25 1008 22 10000 6.17 190 13:33 04.07.2022
1196 Clear 26 1008 21 10000 4.63 200 12:33 04.07.2022
1197 Clear 29 1009 15 10000 4.63 210 10:34 04.07.2022
1198 Clear 29 1009 15 10000 4.63 200 09:53 04.07.2022
1199 Clouds 30 1008 13 10000 4.12 230 08:24 04.07.2022
1200 Clouds 34 1005 9 10000 7.2 220 05:18 04.07.2022
1201 Clear 37 1006 8 10000 9.26 200 00:42 04.07.2022
1202 Clear 36 1003 10 10000 4.92 232 22:59 03.07.2022
1203 Clear 35 1004 12 10000 4.02 219 20:59 03.07.2022
1204 Clear 34 1008 13 10000 10.29 220 20:41 03.07.2022
1205 Clear 33 1008 13 10000 9.26 210 19:41 03.07.2022
1206 Clear 33 1008 14 10000 9.26 210 19:23 03.07.2022
1207 Clear 30 1008 16 10000 8.23 210 17:45 03.07.2022
1208 Clear 27 1007 20 10000 7.2 190 15:55 03.07.2022
1209 Clear 26 1007 22 10000 7.2 190 14:59 03.07.2022
1210 Clear 27 1008 19 10000 7.72 220 14:20 03.07.2022
1211 Clear 28 1008 21 10000 6.17 210 13:48 03.07.2022
1212 Clear 28 1008 17 10000 8.75 240 12:33 03.07.2022
1213 Clear 30 1008 16 10000 5.14 180 11:29 03.07.2022
1214 Clear 31 1008 15 10000 5.66 220 10:39 03.07.2022
1215 Clear 31 1008 15 10000 4.63 240 09:55 03.07.2022
1216 Clear 33 1007 16 10000 7.2 210 07:35 03.07.2022
1217 Clear 37 1005 13 10000 8.23 240 04:22 03.07.2022
1218 Clouds 40 1007 12 10000 7.72 200 00:22 03.07.2022
1219 Clear 39 1009 12 10000 7.2 200 22:34 02.07.2022
1220 Clear 38 1010 13 10000 8.75 240 21:28 02.07.2022
1221 Clear 35 1011 17 10000 6.71 180 19:52 02.07.2022
1222 Clear 35 1011 18 10000 6.71 180 19:20 02.07.2022
1223 Clear 31 1011 19 10000 7.2 200 17:42 02.07.2022
1224 Clear 30 1011 20 10000 6.17 180 16:53 02.07.2022
1225 Clear 28 1010 19 10000 7.72 190 14:52 02.07.2022
1226 Clear 29 1009 18 10000 6.17 180 12:22 02.07.2022
1227 Clear 31 1010 16 10000 6.69 180 11:27 02.07.2022
1228 Clear 32 1010 15 10000 7.2 220 10:43 02.07.2022
1229 Clear 32 1009 14 10000 5.14 230 09:25 02.07.2022
1230 Clear 33 1009 12 10000 4.12 230 08:20 02.07.2022
1231 Clear 34 1009 11 10000 5.14 220 07:48 02.07.2022
1232 Clouds 40 1009 7 10000 9.77 230 02:50 02.07.2022
1233 Clouds 40 1010 7 10000 8.75 220 00:26 02.07.2022
1234 Clouds 39 1012 7 10000 10.29 200 22:58 01.07.2022
1235 Clouds 38 1012 7 10000 8.75 190 21:49 01.07.2022
1236 Clouds 38 1012 7 10000 8.75 190 21:29 01.07.2022
1237 Clouds 37 1013 7 10000 8.75 210 20:43 01.07.2022
1238 Clear 36 1013 9 10000 8.23 200 19:47 01.07.2022
1239 Clouds 33 1013 11 10000 9.26 210 17:53 01.07.2022
1240 Clouds 31 1013 14 10000 8.23 220 16:22 01.07.2022
1241 Clear 29 1012 20 10000 8.75 210 13:55 01.07.2022
1242 Clear 30 1013 19 10000 6.69 220 12:55 01.07.2022
1243 Clear 32 1012 16 10000 5.14 180 10:20 01.07.2022
1244 Clear 32 1012 16 10000 4.63 220 09:47 01.07.2022
1245 Clouds 37 1010 13 10000 7.72 220 05:25 01.07.2022
1246 Clouds 40 1011 12 10000 8.75 220 00:42 01.07.2022
1247 Clouds 40 1012 13 10000 9.77 220 23:22 30.06.2022
1248 Clouds 39 1013 14 10000 10.29 220 22:44 30.06.2022
1249 Clouds 39 1013 14 10000 8.23 210 22:25 30.06.2022
1250 Clear 38 1013 15 10000 9.26 200 21:45 30.06.2022
1251 Clouds 37 1014 16 10000 10.29 190 20:30 30.06.2022
1252 Clouds 36 1014 16 10000 9.26 210 19:54 30.06.2022
1253 Clouds 36 1014 15 10000 9.26 210 19:25 30.06.2022
1254 Clouds 35 1014 16 10000 9.26 180 18:42 30.06.2022
1255 Clouds 33 1014 17 10000 10.8 190 17:44 30.06.2022
1256 Clouds 32 1014 19 10000 7.2 170 16:55 30.06.2022
1257 Clouds 31 1013 21 10000 5.66 190 15:42 30.06.2022
1258 Clouds 32 1013 17 10000 8.23 200 13:36 30.06.2022
1259 Clouds 32 1013 18 10000 10.29 200 12:35 30.06.2022
1260 Clouds 33 1013 16 10000 8.75 170 11:43 30.06.2022
1261 Clouds 34 1012 16 10000 9.26 220 09:55 30.06.2022
1262 Clouds 34 1012 16 10000 9.26 220 09:35 30.06.2022
1263 Clear 35 1013 16 10000 7.2 220 08:19 30.06.2022
1264 Clear 36 1012 14 10000 6.71 230 07:23 30.06.2022
1265 Clouds 41 1011 11 10000 10.29 230 01:47 30.06.2022
1266 Clouds 41 1012 12 10000 10.8 210 23:34 29.06.2022
1267 Clouds 41 1013 14 10000 6.69 210 22:40 29.06.2022
1268 Clouds 40 1014 15 10000 8.75 230 21:39 29.06.2022
1269 Clouds 40 1015 16 10000 8.23 190 20:34 29.06.2022
1270 Clouds 39 1015 15 10000 5.66 190 19:39 29.06.2022
1271 Clouds 35 1015 18 10000 5.81 180 17:54 29.06.2022
1272 Clouds 33 1015 20 10000 3.6 180 16:48 29.06.2022
1273 Clouds 31 1014 22 10000 6.17 210 15:32 29.06.2022
1274 Clouds 32 1014 20 10000 6.17 200 13:20 29.06.2022
1275 Clouds 34 1013 18 10000 4.12 170 11:57 29.06.2022
1276 Clouds 35 1013 22 10000 5.66 170 09:35 29.06.2022
1277 Clouds 35 1013 26 10000 5.66 200 08:46 29.06.2022
1278 Clouds 39 1012 16 10000 18.01 200 05:42 29.06.2022
1279 Clouds 40 1011 15 10000 7.2 270 02:21 29.06.2022
1280 Thunderstorm 41 1014 15 10000 9.77 210 00:38 29.06.2022
1281 Clouds 42 1013 14 10000 7.2 150 23:26 28.06.2022
1282 Clouds 41 1014 14 10000 5.14 140 22:48 28.06.2022
1283 Clouds 40 1015 16 10000 4.12 70 21:55 28.06.2022
1284 Clouds 40 1015 15 10000 4.12 70 21:33 28.06.2022
1285 Clouds 39 1016 17 10000 4.12 90 20:51 28.06.2022
1286 Clouds 37 1016 19 10000 2.06 310 19:43 28.06.2022
1287 Clouds 37 1016 20 10000 2.06 310 19:23 28.06.2022
1288 Smoke 34 1016 24 10000 4.12 250 17:44 28.06.2022
1289 Clouds 31 1016 28 10000 4.63 220 16:24 28.06.2022
1290 Clouds 31 1015 28 10000 5.14 210 15:53 28.06.2022
1291 Clouds 30 1015 28 10000 5.66 190 14:21 28.06.2022
1292 Clear 30 1014 28 10000 5.14 190 13:54 28.06.2022
1293 Clear 31 1015 25 10000 5.14 190 13:20 28.06.2022
1294 Clear 32 1014 26 10000 6.69 190 11:37 28.06.2022
1295 Clear 33 1015 22 10000 5.14 210 09:41 28.06.2022
1296 Clear 33 1014 19 10000 4.12 210 08:45 28.06.2022
1297 Clear 34 1009 20 10000 0.89 263 07:58 28.06.2022
1298 Clear 35 1013 18 10000 2.06 120 07:19 28.06.2022
1299 Clouds 40 1014 15 10000 1.79 149 01:33 28.06.2022
1300 Clouds 39 1016 20 10000 3.09 0 23:44 27.06.2022
1301 Clouds 38 1016 22 10000 2.24 0 22:54 27.06.2022
1302 Clouds 37 1017 25 10000 2.68 153 21:38 27.06.2022
1303 Clouds 36 1018 27 10000 3.09 30 20:54 27.06.2022
1304 Clouds 34 1019 30 10000 3.6 110 19:40 27.06.2022
1305 Clouds 33 1020 31 10000 4.12 100 18:33 27.06.2022
1306 Clear 30 1019 37 10000 7.2 130 16:37 27.06.2022
1307 Clear 29 1018 37 10000 7.2 120 15:24 27.06.2022
1308 Clouds 29 1017 37 10000 3.6 210 13:39 27.06.2022
1309 Clear 29 1016 38 10000 4.63 160 12:57 27.06.2022
1310 Dust 31 1017 32 10000 10.8 170 10:41 27.06.2022
1311 Dust 33 1015 29 10000 10.8 160 09:23 27.06.2022
1312 Clouds 34 1015 25 10000 7.72 120 08:31 27.06.2022
1313 Clouds 36 1016 16 10000 5.66 90 07:38 27.06.2022
1314 Clouds 39 1007 12 10000 0.45 143 03:58 27.06.2022
1315 Clouds 41 1013 10 10000 5.36 80 01:18 27.06.2022
1316 Clouds 39 1015 14 10000 4.12 90 22:27 26.06.2022
1317 Clouds 37 1016 18 10000 3.6 90 20:53 26.06.2022
1318 Clouds 36 1016 20 10000 4.63 100 19:44 26.06.2022
1319 Clouds 34 1016 20 10000 3.6 100 18:32 26.06.2022
1320 Clear 33 1015 20 10000 3.6 60 17:33 26.06.2022
1321 Clouds 28 1014 22 10000 2.68 190 15:31 26.06.2022
1322 Clear 28 1013 21 10000 3.09 20 13:55 26.06.2022
1323 Clear 28 1013 21 10000 3.09 20 13:23 26.06.2022
1324 Clear 30 1013 18 10000 5.66 30 11:27 26.06.2022
1325 Clear 31 1012 16 10000 4.12 360 10:28 26.06.2022
1326 Clouds 32 1012 14 10000 6.17 110 09:39 26.06.2022
1327 Clouds 34 1011 15 10000 4.63 150 07:45 26.06.2022
1328 Clouds 40 1009 11 10000 2.68 0 02:52 26.06.2022
1329 Clouds 39 1010 12 10000 7.2 120 00:36 26.06.2022
1330 Clouds 39 1010 13 10000 7.2 120 00:18 26.06.2022
1331 Clouds 39 1011 12 10000 4.12 40 23:24 25.06.2022
1332 Clouds 39 1012 12 10000 4.63 120 22:27 25.06.2022
1333 Clouds 38 1013 13 10000 1.54 40 21:46 25.06.2022
1334 Clouds 38 1013 13 10000 1.79 183 21:20 25.06.2022
1335 Clouds 37 1013 12 10000 2.24 0 20:30 25.06.2022
1336 Clouds 35 1013 12 10000 3.09 110 19:54 25.06.2022
1337 Clouds 33 1014 13 10000 3.6 80 18:19 25.06.2022
1338 Clouds 31 1013 14 10000 1.54 270 17:25 25.06.2022
1339 Clouds 27 1013 17 10000 3.09 310 15:42 25.06.2022
1340 Clear 27 1012 16 10000 2.57 340 13:48 25.06.2022
1341 Clear 27 1010 16 10000 2.57 40 12:38 25.06.2022
1342 Clear 28 1006 16 10000 0.45 254 10:58 25.06.2022
1343 Smoke 31 1011 12 10000 2.68 190 09:22 25.06.2022
1344 Clear 32 1009 12 10000 3.6 180 08:41 25.06.2022
1345 Clear 32 1009 12 10000 3.6 180 08:19 25.06.2022
1346 Clouds 38 1008 8 10000 6.17 220 04:18 25.06.2022
1347 Clouds 39 1009 11 10000 8.75 220 00:38 25.06.2022
1348 Clear 39 1011 14 10000 6.17 140 22:56 24.06.2022
1349 Clouds 37 1013 15 10000 5.36 180 21:44 24.06.2022
1350 Clear 37 1012 17 10000 1.54 80 20:57 24.06.2022
1351 Clouds 35 1013 17 10000 2.57 160 20:19 24.06.2022
1352 Clouds 34 1013 18 10000 2.68 0 19:22 24.06.2022
1353 Clouds 33 1014 20 10000 4.63 300 18:49 24.06.2022
1354 Clouds 33 1013 20 10000 4.63 300 18:30 24.06.2022
1355 Clear 31 1013 23 10000 3.6 210 17:41 24.06.2022
1356 Clouds 27 1012 28 10000 4.12 330 15:51 24.06.2022
1357 Clouds 26 1012 28 10000 8.23 190 14:28 24.06.2022
1358 Clear 27 1011 27 10000 7.2 190 13:55 24.06.2022
1359 Clear 28 1012 26 10000 4.63 290 11:45 24.06.2022
1360 Clear 28 1012 25 10000 4.63 290 11:22 24.06.2022
1361 Clear 29 1011 22 10000 5.66 340 10:19 24.06.2022
1362 Clear 30 1011 22 10000 8.23 330 09:40 24.06.2022
1363 Clouds 31 1011 22 10000 3.6 210 08:52 24.06.2022
1364 Clouds 33 1009 20 10000 5.14 260 06:49 24.06.2022
1365 Clouds 34 1009 19 10000 5.14 260 06:30 24.06.2022
1366 Clouds 34 1009 19 10000 7.2 240 05:55 24.06.2022
1367 Clouds 37 1009 16 10000 7.2 260 01:28 24.06.2022
1368 Clouds 36 1012 19 10000 3.6 120 22:45 23.06.2022
1369 Clouds 36 1012 19 10000 3.6 120 22:18 23.06.2022
1370 Clouds 34 1014 22 10000 1.54 0 20:54 23.06.2022
1371 Clouds 33 1014 23 10000 1.54 0 20:32 23.06.2022
1372 Clear 32 1011 27 10000 2.12 120 18:59 23.06.2022
1373 Clouds 28 1015 35 10000 4.63 320 17:50 23.06.2022
1374 Clouds 28 1015 35 10000 4.63 320 17:50 23.06.2022
1375 Clouds 25 1015 42 10000 5.66 200 16:42 23.06.2022
1376 Clouds 23 1014 46 10000 3.09 200 15:43 23.06.2022
1377 Clouds 23 1015 47 10000 4.63 200 15:23 23.06.2022
1378 Clouds 24 1014 47 10000 5.66 300 13:21 23.06.2022
1379 Clouds 24 1014 47 10000 5.66 200 11:23 23.06.2022
1380 Clouds 25 1015 45 10000 6.17 230 09:46 23.06.2022
1381 Clouds 26 1015 43 10000 9.26 290 08:18 23.06.2022
1382 Clouds 34 1014 18 10000 4.63 50 02:19 23.06.2022
1383 Clouds 34 1015 19 10000 4.63 340 00:25 23.06.2022
1384 Clouds 34 1016 20 10000 5.66 330 23:27 22.06.2022
1385 Clouds 32 1017 21 10000 5.66 360 22:24 22.06.2022
1386 Clouds 32 1012 25 10000 5.47 172 20:57 22.06.2022
1387 Clouds 32 1017 22 10000 8.75 200 20:21 22.06.2022
1388 Clouds 32 1017 22 10000 7.72 200 19:48 22.06.2022
1389 Clouds 32 1017 21 10000 3.6 180 18:21 22.06.2022
1390 Clouds 31 1016 20 10000 4.63 200 17:24 22.06.2022
1391 Clouds 30 1016 21 10000 4.12 200 15:53 22.06.2022
1392 Clouds 29 1016 20 10000 4.12 200 15:24 22.06.2022
1393 Clouds 28 1015 15 10000 4.12 200 13:50 22.06.2022
1394 Clouds 28 1015 13 10000 4.12 200 13:25 22.06.2022
1395 Clouds 28 1015 13 10000 3.09 220 12:44 22.06.2022
1396 Clouds 27 1014 13 10000 3.13 180 11:47 22.06.2022
1397 Clouds 28 1013 13 10000 2.68 210 10:54 22.06.2022
1398 Clouds 29 1013 12 10000 4.12 170 09:44 22.06.2022
1399 Clouds 29 1011 12 10000 1.54 340 07:56 22.06.2022
1400 Clouds 37 1012 6 10000 5.14 70 03:25 22.06.2022
1401 Clouds 37 1013 5 10000 3.6 80 01:21 22.06.2022
1402 Clouds 36 1015 5 10000 4.63 150 23:39 21.06.2022
1403 Clear 34 1016 7 10000 5.14 110 21:31 21.06.2022
1404 Clear 31 1016 9 10000 6.17 40 19:43 21.06.2022
1405 Clear 29 1013 11 10000 0.45 148 17:57 21.06.2022
1406 Clouds 25 1016 13 10000 3.09 310 16:52 21.06.2022
1407 Clear 23 1014 13 10000 3.6 170 12:40 21.06.2022
1408 Clear 24 1013 14 10000 3.6 160 10:55 21.06.2022
1409 Clear 24 1013 14 10000 3.6 310 09:40 21.06.2022
1410 Clear 26 1013 13 10000 3.6 170 08:22 21.06.2022
1411 Clouds 30 1012 9 10000 1.54 90 05:37 21.06.2022
1412 Clouds 32 1015 9 10000 3.09 280 00:37 21.06.2022
1413 Clear 31 1016 11 10000 3.6 40 22:23 20.06.2022
1414 Clear 31 1017 12 10000 5.66 40 21:49 20.06.2022
1415 Clear 29 1017 14 10000 5.14 20 20:32 20.06.2022
1416 Clear 29 1018 14 10000 7.72 20 19:38 20.06.2022
1417 Clear 27 1018 15 10000 8.23 10 18:44 20.06.2022
1418 Clear 26 1018 16 10000 8.23 20 17:50 20.06.2022
1419 Clear 24 1017 17 10000 6.71 40 16:55 20.06.2022
1420 Clear 22 1016 17 10000 5.66 60 15:53 20.06.2022
1421 Clear 21 1015 12 10000 5.14 350 12:41 20.06.2022
1422 Clear 22 1014 12 10000 5.14 280 10:32 20.06.2022
1423 Clear 23 1014 11 10000 3.6 280 09:30 20.06.2022
1424 Clear 25 1013 10 10000 4.12 170 08:44 20.06.2022
1425 Clear 28 1011 9 10000 6.17 320 05:35 20.06.2022
1426 Clear 30 1012 9 10000 7.2 300 01:44 20.06.2022
1427 Clear 30 1013 9 10000 5.14 300 00:26 20.06.2022
1428 Clear 29 1013 11 10000 2.57 0 22:50 19.06.2022
1429 Clouds 29 1011 13 10000 6.17 280 21:57 19.06.2022
1430 Clear 28 1013 13 10000 6.17 280 21:39 19.06.2022
1431 Clear 27 1014 14 10000 5.14 250 20:38 19.06.2022
1432 Clear 26 1013 16 10000 9.77 320 19:47 19.06.2022
1433 Clear 24 1014 16 10000 9.26 320 18:45 19.06.2022
1434 Clear 23 1013 18 10000 10.29 290 17:54 19.06.2022
1435 Clear 22 1013 18 10000 10.29 290 17:22 19.06.2022
1436 Clear 21 1012 19 10000 9.26 300 16:35 19.06.2022
1437 Clear 20 1011 20 10000 9.26 310 15:41 19.06.2022
1438 Clear 19 1008 20 10000 7.72 210 14:57 19.06.2022
1439 Clear 19 1011 20 10000 7.72 210 14:19 19.06.2022
1440 Clear 19 1010 19 10000 9.26 210 13:21 19.06.2022
1441 Clear 22 1008 19 10000 9.26 220 10:55 19.06.2022
1442 Clear 23 1008 19 10000 11.32 240 09:46 19.06.2022
1443 Clear 24 1008 17 10000 13.38 240 08:47 19.06.2022
1444 Clear 25 1006 21 10000 5.14 249 07:59 19.06.2022
1445 Clouds 29 1006 7 10000 7.2 230 05:37 19.06.2022
1446 Clouds 32 1006 5 10000 8.75 220 01:29 19.06.2022
1447 Clouds 32 1007 5 10000 9.77 220 00:24 19.06.2022
1448 Clouds 31 1007 6 10000 10.8 240 23:36 18.06.2022
1449 Clouds 30 1008 7 10000 7.72 220 22:39 18.06.2022
1450 Clouds 28 1005 7 10000 7.2 210 20:57 18.06.2022
1451 Clouds 28 1008 7 10000 8.75 210 20:38 18.06.2022
1452 Clouds 27 1008 7 10000 7.72 190 19:38 18.06.2022
1453 Clouds 26 1008 9 10000 7.72 190 18:45 18.06.2022
1454 Clouds 24 1007 13 10000 7.72 190 17:34 18.06.2022
1455 Clouds 23 1007 14 10000 9.26 210 16:47 18.06.2022
1456 Clouds 23 1007 14 10000 7.72 180 15:31 18.06.2022
1457 Clouds 23 1006 13 10000 6.69 180 14:44 18.06.2022
1458 Clouds 24 1006 13 10000 8.23 200 13:22 18.06.2022
1459 Clouds 25 1006 13 10000 8.23 180 11:39 18.06.2022
1460 Clouds 26 1006 12 10000 8.75 190 10:47 18.06.2022
1461 Clouds 27 1006 12 10000 7.72 220 09:23 18.06.2022
1462 Clouds 28 1006 12 10000 7.2 220 08:30 18.06.2022
1463 Clouds 28 1006 12 10000 7.2 220 08:30 18.06.2022
1464 Clouds 31 1005 11 10000 8.23 220 06:46 18.06.2022
1465 Dust 35 1001 10 10000 14.4 230 03:45 18.06.2022
1466 Dust 38 1001 6 10000 12.86 210 01:26 18.06.2022
1467 Dust 38 1001 6 10000 12.86 210 01:26 18.06.2022
1468 Clouds 39 1002 6 10000 12.86 210 00:48 18.06.2022
1469 Clouds 38 1002 6 10000 11.83 170 23:52 17.06.2022
1470 Clouds 39 1002 6 10000 11.83 170 23:20 17.06.2022
1471 Clouds 36 1004 11 10000 5.66 230 20:56 17.06.2022
1472 Clouds 35 1002 12 10000 7.72 200 19:59 17.06.2022
1473 Clouds 33 1006 13 10000 7.72 180 18:44 17.06.2022
1474 Smoke 31 1006 13 10000 7.72 170 17:43 17.06.2022
1475 Smoke 29 1005 15 10000 6.69 180 16:43 17.06.2022
1476 Smoke 28 1005 17 10000 8.23 170 15:43 17.06.2022
1477 Smoke 28 1006 16 10000 8.23 170 15:20 17.06.2022
1478 Clouds 28 1006 16 10000 6.17 170 14:20 17.06.2022
1479 Clear 28 1005 16 10000 5.14 180 13:46 17.06.2022
1480 Clear 27 1003 20 10000 2.23 172 12:57 17.06.2022
1481 Clear 28 1004 12 10000 6.17 170 11:57 17.06.2022
1482 Clear 29 1003 15 10000 6.17 170 11:36 17.06.2022
1483 Clear 32 1005 10 10000 5.66 180 10:51 17.06.2022
1484 Clear 33 1003 8 10000 6.69 200 08:30 17.06.2022
1485 Clear 34 1005 8 10000 7.2 180 07:47 17.06.2022
1486 Clear 35 1002 8 10000 8.23 160 05:57 17.06.2022
1487 Clear 41 1003 5 10000 7.72 170 02:52 17.06.2022
1488 Clear 41 1005 6 10000 7.2 150 00:42 17.06.2022
1489 Clear 40 1007 7 10000 6.17 130 22:45 16.06.2022
1490 Clear 40 1007 7 10000 6.17 130 22:20 16.06.2022
1491 Clear 38 1009 7 10000 3.09 110 21:19 16.06.2022
1492 Clear 37 1009 8 10000 4.12 40 20:50 16.06.2022
1493 Clear 36 1006 9 10000 2.57 80 19:57 16.06.2022
1494 Clear 33 1010 10 10000 4.12 80 18:34 16.06.2022
1495 Clear 31 1010 11 10000 1.54 70 17:44 16.06.2022
1496 Clear 31 1010 11 10000 1.54 70 17:44 16.06.2022
1497 Clear 28 1011 13 10000 3.09 220 16:46 16.06.2022
1498 Clear 25 1010 14 10000 3.6 330 15:37 16.06.2022
1499 Clear 24 1009 16 10000 3.6 330 15:18 16.06.2022
1500 Clear 25 1008 14 10000 3.6 200 13:46 16.06.2022
1501 Clear 25 1008 13 10000 5.14 180 12:38 16.06.2022
1502 Clear 25 1008 14 10000 3.6 200 11:54 16.06.2022
1503 Clear 26 1008 12 10000 3.6 200 11:18 16.06.2022
1504 Clear 27 1008 11 10000 3.09 320 10:33 16.06.2022
1505 Clear 28 1009 12 10000 2.57 310 09:25 16.06.2022
1506 Clear 29 1009 12 10000 2.06 250 08:46 16.06.2022
1507 Clear 30 1008 13 10000 3.09 30 07:29 16.06.2022
1508 Clear 36 1009 6 10000 3.09 90 05:42 16.06.2022
1509 Clear 37 1009 5 10000 2.57 320 02:54 16.06.2022
1510 Clear 37 1010 6 10000 3.09 100 01:51 16.06.2022
1511 Clear 37 1010 6 10000 3.09 100 01:21 16.06.2022
1512 Clear 37 1010 6 10000 3.09 100 01:21 16.06.2022
1513 Clear 36 1011 5 10000 4.12 160 23:49 15.06.2022
1514 Clear 35 1012 6 10000 4.12 340 22:45 15.06.2022
1515 Clear 34 1013 6 10000 5.81 50 21:28 15.06.2022
1516 Clear 34 1010 6 10000 5.66 60 20:57 15.06.2022
1517 Clear 33 1013 6 10000 5.66 60 20:35 15.06.2022
1518 Clear 31 1013 6 10000 8.75 50 19:46 15.06.2022
1519 Clear 30 1013 7 10000 5.66 20 18:29 15.06.2022
1520 Clear 28 1013 8 10000 4.63 30 17:42 15.06.2022
1521 Clear 25 1012 11 10000 5.66 320 15:51 15.06.2022
1522 Clear 23 1011 15 10000 2.57 40 14:30 15.06.2022
1523 Clear 23 1007 17 10000 2.57 60 12:57 15.06.2022
1524 Clear 24 1010 12 10000 4.63 340 12:33 15.06.2022
1525 Clear 25 1009 15 10000 1.54 190 10:53 15.06.2022
1526 Clear 26 1010 13 10000 3.09 270 10:20 15.06.2022
1527 Clear 25 1007 16 10000 2.06 350 08:57 15.06.2022
1528 Clear 27 1007 14 10000 2.06 180 07:21 15.06.2022
1529 Clear 32 1007 8 10000 3.09 30 04:51 15.06.2022
1530 Clear 33 1008 7 10000 4.63 170 02:28 15.06.2022
1531 Clear 32 1010 7 10000 3.09 40 00:54 15.06.2022
1532 Clear 32 1011 8 10000 4.12 350 23:55 14.06.2022
1533 Clear 31 1011 8 10000 4.12 350 23:37 14.06.2022
1534 Clear 30 1012 8 10000 4.12 300 22:28 14.06.2022
1535 Clear 29 1013 8 10000 4.12 320 21:41 14.06.2022
1536 Clear 29 1011 9 10000 6.17 30 20:57 14.06.2022
1537 Clear 28 1014 8 10000 6.17 30 20:32 14.06.2022
1538 Clear 27 1014 9 10000 8.75 30 19:22 14.06.2022
1539 Clear 26 1014 10 10000 8.75 340 18:25 14.06.2022
1540 Clear 24 1013 11 10000 9.39 20 16:48 14.06.2022
1541 Clear 23 1012 13 10000 9.77 40 15:50 14.06.2022
1542 Clear 23 1012 13 10000 9.77 40 15:28 14.06.2022
1543 Dust 23 1011 14 10000 8.94 10 14:40 14.06.2022
1544 Dust 24 1011 13 10000 12.86 10 13:46 14.06.2022
1545 Dust 26 1010 11 10000 14.4 30 12:48 14.06.2022
1546 Dust 28 1009 10 10000 10.29 360 11:41 14.06.2022
1547 Clear 29 1008 8 10000 10.8 10 10:49 14.06.2022
1548 Clear 29 1008 8 10000 10.8 10 10:49 14.06.2022
1549 Clear 29 1008 8 10000 10.8 10 10:24 14.06.2022
1550 Clear 30 1006 10 10000 6.69 310 08:49 14.06.2022
1551 Clear 31 1005 10 10000 6.69 210 07:49 14.06.2022
1552 Clouds 34 1003 9 10000 7.72 220 05:46 14.06.2022
1553 Clouds 35 1002 10 10000 9.77 210 03:20 14.06.2022
1554 Clouds 36 1003 15 10000 10.29 220 00:54 14.06.2022
1555 Clouds 35 1003 17 10000 7.2 230 23:41 13.06.2022
1556 Clouds 34 1004 20 10000 8.75 210 22:26 13.06.2022
1557 Clouds 33 1004 22 10000 8.75 220 21:52 13.06.2022
1558 Clouds 32 1005 24 10000 8.75 230 20:42 13.06.2022
1559 Clouds 31 1004 26 10000 7.72 200 19:35 13.06.2022
1560 Clouds 30 1005 31 10000 9.77 210 18:31 13.06.2022
1561 Clouds 28 1004 35 10000 10.29 230 17:47 13.06.2022
1562 Clouds 27 1004 39 10000 11.32 210 16:53 13.06.2022
1563 Clouds 26 1003 40 10000 11.83 230 15:40 13.06.2022
1564 Dust 27 1003 37 10000 12.35 230 14:47 13.06.2022
1565 Dust 28 1002 34 10000 11.83 220 13:55 13.06.2022
1566 Dust 28 1001 32 10000 13.89 240 12:49 13.06.2022
1567 Clouds 29 1001 29 10000 13.38 210 11:37 13.06.2022
1568 Dust 30 1001 27 10000 10.8 210 10:27 13.06.2022
1569 Dust 31 1001 24 10000 10.8 200 09:42 13.06.2022
1570 Clouds 32 1001 21 10000 10.8 200 08:24 13.06.2022
1571 Clouds 35 1002 14 10000 12.35 210 06:33 13.06.2022
1572 Clouds 39 1001 8 10000 11.83 230 03:28 13.06.2022
1573 Clouds 40 1002 7 10000 12.86 220 01:38 13.06.2022
1574 Clouds 41 1002 6 10000 13.38 210 00:22 13.06.2022
1575 Clouds 40 1003 7 10000 11.32 230 23:29 12.06.2022
1576 Clear 40 1004 8 10000 12.35 210 22:23 12.06.2022
1577 Clear 39 1005 10 10000 10.29 230 21:28 12.06.2022
1578 Clear 37 1005 11 10000 10.8 220 20:34 12.06.2022
1579 Clear 36 1006 13 10000 9.26 220 19:36 12.06.2022
1580 Clear 34 1006 15 10000 7.72 210 18:39 12.06.2022
1581 Clear 30 1006 18 10000 5.66 200 16:42 12.06.2022
1582 Clear 28 1005 20 10000 7.72 200 15:24 12.06.2022
1583 Clear 28 1005 21 10000 7.72 180 14:31 12.06.2022
1584 Clear 29 1006 18 10000 7.2 180 13:55 12.06.2022
1585 Clear 30 1004 18 10000 6.69 190 12:46 12.06.2022
1586 Clear 32 1007 14 10000 7.2 250 11:47 12.06.2022
1587 Clear 33 1007 14 10000 6.17 200 10:45 12.06.2022
1588 Clear 34 1008 12 10000 7.72 220 09:25 12.06.2022
1589 Clear 36 1008 11 10000 8.75 210 08:48 12.06.2022
1590 Clear 37 1008 9 10000 8.23 230 07:38 12.06.2022
1591 Clouds 39 1005 9 10000 8.75 230 05:29 12.06.2022
1592 Clouds 41 1005 7 10000 11.32 220 03:38 12.06.2022
1593 Clouds 42 1006 7 10000 10.29 220 01:43 12.06.2022
1594 Clear 42 1001 9 10000 5.36 255 00:58 12.06.2022
1595 Clouds 42 1007 8 10000 11.32 230 00:25 12.06.2022
1596 Clouds 42 1008 7 10000 9.26 220 23:48 11.06.2022
1597 Clouds 42 1008 7 10000 9.26 220 23:48 11.06.2022
1598 Clouds 42 1009 8 10000 8.23 190 22:39 11.06.2022
1599 Clouds 42 1009 8 10000 8.23 190 22:18 11.06.2022
1600 Clouds 41 1010 9 10000 10.29 230 20:38 11.06.2022
1601 Clear 40 1005 10 10000 4.92 241 19:59 11.06.2022
1602 Clouds 40 1010 10 10000 6.69 240 19:26 11.06.2022
1603 Clouds 37 1011 13 10000 7.2 220 18:34 11.06.2022
1604 Clouds 36 1011 15 10000 7.72 210 17:51 11.06.2022
1605 Clouds 35 1011 15 10000 7.72 210 17:28 11.06.2022
1606 Clear 34 1007 17 10000 2.06 230 16:57 11.06.2022
1607 Clouds 33 1011 18 10000 6.17 210 16:30 11.06.2022
1608 Clouds 32 1010 19 10000 6.17 200 15:43 11.06.2022
1609 Clear 31 1011 17 10000 5.66 200 13:53 11.06.2022
1610 Clear 29 1009 19 10000 2.06 210 12:57 11.06.2022
1611 Clouds 34 1011 14 10000 6.17 210 10:55 11.06.2022
1612 Clouds 34 1011 14 10000 4.63 190 09:55 11.06.2022
1613 Clouds 34 1010 12 10000 4.63 190 09:19 11.06.2022
1614 Clear 35 1009 12 10000 4.63 180 07:43 11.06.2022
1615 Clouds 37 1008 11 10000 6.17 210 06:30 11.06.2022
1616 Clouds 41 1009 9 10000 7.2 210 04:49 11.06.2022
1617 Clouds 42 1009 8 10000 8.75 230 01:53 11.06.2022
1618 Clouds 42 1009 8 10000 8.75 230 01:33 11.06.2022
1619 Clouds 42 1009 9 10000 7.72 170 00:20 11.06.2022
1620 Clouds 42 1011 9 10000 7.72 250 22:32 10.06.2022
1621 Clouds 41 1011 10 10000 8.23 220 21:52 10.06.2022
1622 Clouds 40 1012 13 10000 5.66 220 20:42 10.06.2022
1623 Clouds 39 1012 14 10000 5.66 220 20:22 10.06.2022
1624 Clouds 37 1012 15 10000 4.12 230 19:38 10.06.2022
1625 Clouds 37 1012 15 10000 4.12 230 19:18 10.06.2022
1626 Clouds 37 1012 15 10000 4.12 230 19:18 10.06.2022
1627 Clouds 35 1013 16 10000 2.24 70 18:18 10.06.2022
1628 Clouds 33 1012 17 10000 4.12 210 17:35 10.06.2022
1629 Clear 31 1012 20 10000 5.66 200 16:51 10.06.2022
1630 Clear 29 1012 21 10000 5.14 210 15:45 10.06.2022
1631 Clear 27 1009 26 10000 0.28 222 14:57 10.06.2022
1632 Clear 28 1010 23 10000 4.63 200 13:36 10.06.2022
1633 Clear 30 1010 22 10000 6.17 180 12:21 10.06.2022
1634 Clear 30 1010 21 10000 5.66 190 11:30 10.06.2022
1635 Clouds 31 1010 19 10000 4.63 200 10:36 10.06.2022
1636 Clouds 31 1010 19 10000 4.12 160 09:37 10.06.2022
1637 Clouds 32 1005 18 10000 0.89 275 07:58 10.06.2022
1638 Clouds 35 1008 14 10000 5.66 260 06:50 10.06.2022
1639 Clouds 35 1008 14 10000 5.66 260 06:31 10.06.2022
1640 Clouds 37 1008 13 10000 6.71 260 05:34 10.06.2022
1641 Clouds 40 1007 11 10000 7.2 260 02:50 10.06.2022
1642 Clouds 41 1007 11 10000 5.66 150 01:37 10.06.2022
1643 Clear 41 1005 12 10000 6.69 130 23:58 09.06.2022
1644 Clouds 40 1009 11 10000 8.23 180 22:47 09.06.2022
1645 Clouds 39 1010 13 10000 5.66 140 21:46 09.06.2022
1646 Clouds 39 1010 13 10000 4.63 150 21:28 09.06.2022
1647 Clouds 38 1010 14 10000 5.14 120 20:40 09.06.2022
1648 Clouds 36 1010 15 10000 4.63 130 19:51 09.06.2022
1649 Clouds 34 1011 17 10000 4.63 190 18:41 09.06.2022
1650 Clear 33 1010 19 10000 4.12 210 17:55 09.06.2022
1651 Clouds 30 1010 22 10000 5.14 190 16:28 09.06.2022
1652 Clouds 27 1009 25 10000 4.12 210 15:22 09.06.2022
1653 Clouds 27 1008 22 10000 5.14 190 14:30 09.06.2022
1654 Clouds 28 1008 20 10000 4.63 180 13:44 09.06.2022
1655 Clouds 29 1008 20 10000 4.63 180 13:19 09.06.2022
1656 Clouds 31 1007 19 10000 5.66 210 11:35 09.06.2022
1657 Clouds 33 1008 16 10000 4.12 220 09:55 09.06.2022
1658 Clouds 32 1008 17 10000 4.12 220 09:55 09.06.2022
1659 Clouds 33 1008 16 10000 4.12 220 09:37 09.06.2022
1660 Clouds 33 1007 16 10000 4.12 190 08:38 09.06.2022
1661 Clouds 34 1007 13 10000 4.63 180 07:29 09.06.2022
1662 Clouds 38 1004 10 10000 7.2 220 04:30 09.06.2022
1663 Clouds 40 1006 11 10000 6.69 270 00:35 09.06.2022
1664 Clouds 40 1007 12 10000 6.17 180 23:18 08.06.2022
1665 Clouds 39 1007 13 10000 5.66 150 22:43 08.06.2022
1666 Clouds 39 1008 13 10000 5.66 150 22:23 08.06.2022
1667 Clouds 38 1008 14 10000 4.63 170 21:40 08.06.2022
1668 Clouds 37 1009 16 10000 4.12 130 20:25 08.06.2022
1669 Clouds 35 1010 17 10000 3.09 0 19:42 08.06.2022
1670 Clouds 34 1010 19 10000 4.12 120 18:48 08.06.2022
1671 Clouds 32 1010 21 10000 3.6 260 17:46 08.06.2022
1672 Clear 28 1006 28 10000 1.54 40 15:56 08.06.2022
1673 Clouds 27 1008 25 10000 3.09 330 14:44 08.06.2022
1674 Clouds 28 1007 24 10000 4.63 200 12:55 08.06.2022
1675 Clouds 28 1007 24 10000 4.63 200 12:55 08.06.2022
1676 Clouds 28 1007 24 10000 4.63 200 12:55 08.06.2022
1677 Clouds 28 1007 24 10000 4.63 200 12:55 08.06.2022
1678 Clouds 28 1007 24 10000 4.63 200 12:55 08.06.2022
1679 Clouds 29 1007 22 10000 4.63 200 11:36 08.06.2022
1680 Clouds 30 1007 21 10000 5.14 210 10:51 08.06.2022
1681 Clouds 32 1007 19 10000 7.2 170 09:30 08.06.2022
1682 Clouds 33 1008 16 10000 5.14 170 08:55 08.06.2022
1683 Clouds 35 1006 16 10000 5.14 110 07:21 08.06.2022
1684 Clouds 35 1006 16 10000 5.14 110 07:21 08.06.2022
1685 Clouds 38 1005 13 10000 7.2 140 04:47 08.06.2022
1686 Clouds 39 1006 11 10000 3.09 170 01:25 08.06.2022
1687 Clouds 38 1007 11 10000 3.6 360 23:32 07.06.2022
1688 Clouds 38 1008 12 10000 2.57 310 22:54 07.06.2022
1689 Clouds 38 1008 11 10000 3.09 140 22:34 07.06.2022
1690 Clear 37 1009 12 10000 3.09 90 21:39 07.06.2022
1691 Clear 37 1009 11 10000 3.09 90 21:20 07.06.2022
1692 Clear 36 1009 11 10000 2.68 360 20:40 07.06.2022
1693 Clear 36 1006 11 10000 3.09 60 19:57 07.06.2022
1694 Clouds 33 1010 12 10000 4.12 50 18:26 07.06.2022
1695 Clouds 32 1009 16 10000 4.63 360 17:33 07.06.2022
1696 Clouds 29 1008 22 10000 5.14 240 16:44 07.06.2022
1697 Clear 28 1004 26 10000 2.24 333 15:58 07.06.2022
1698 Clouds 27 1008 23 10000 5.14 210 15:36 07.06.2022
1699 Clouds 27 1008 24 10000 5.14 210 15:18 07.06.2022
1700 Clear 27 1007 22 10000 5.66 180 14:42 07.06.2022
1701 Clear 27 1006 23 10000 4.63 190 13:34 07.06.2022
1702 Clear 28 1005 23 10000 7.2 190 12:54 07.06.2022
1703 Clear 29 1005 21 10000 5.14 170 11:51 07.06.2022
1704 Clear 30 1005 19 10000 5.14 190 10:48 07.06.2022
1705 Clear 31 1004 18 10000 4.12 190 08:53 07.06.2022
1706 Clouds 33 1007 17 10000 5.14 230 07:54 07.06.2022
1707 Clouds 35 1006 15 10000 7.2 140 06:41 07.06.2022
1708 Clouds 37 1005 11 10000 5.14 160 04:41 07.06.2022
1709 Clouds 38 1005 14 10000 4.12 180 01:27 07.06.2022
1710 Clouds 37 1006 15 10000 3.6 60 23:53 06.06.2022
1711 Clouds 37 1007 15 10000 2.06 0 22:54 06.06.2022
1712 Clouds 36 1007 15 10000 3.6 90 22:29 06.06.2022
1713 Clouds 34 1008 19 10000 2.57 40 20:54 06.06.2022
1714 Clear 32 1010 21 10000 4.12 30 19:29 06.06.2022
1715 Clear 31 1008 23 10000 2.68 230 18:49 06.06.2022
1716 Clear 30 1008 23 10000 2.57 230 18:21 06.06.2022
1717 Clear 28 1008 27 10000 5.66 210 17:26 06.06.2022
1718 Clear 26 1007 31 10000 7.2 200 16:18 06.06.2022
1719 Clear 25 1007 33 10000 6.69 190 15:28 06.06.2022
1720 Clouds 24 1006 34 10000 6.17 190 14:30 06.06.2022
1721 Clear 25 1007 32 10000 7.2 200 13:22 06.06.2022
1722 Clear 27 1006 27 10000 8.75 200 12:36 06.06.2022
1723 Clear 27 1006 25 10000 8.75 200 11:53 06.06.2022
1724 Clear 28 1006 24 10000 8.23 200 10:21 06.06.2022
1725 Clear 29 1006 20 10000 8.75 190 09:33 06.06.2022
1726 Clear 31 1006 16 10000 10.29 200 08:32 06.06.2022
1727 Clouds 32 1006 14 10000 7.72 200 07:28 06.06.2022
1728 Clouds 35 1005 14 10000 6.17 220 05:18 06.06.2022
1729 Clouds 37 1004 13 10000 7.72 220 02:42 06.06.2022
1730 Clear 38 1003 14 10000 10.8 210 00:57 06.06.2022
1731 Clouds 37 1006 13 10000 6.26 180 00:37 06.06.2022
1732 Clouds 36 1007 14 10000 4.12 100 23:28 05.06.2022
1733 Clouds 35 1007 15 10000 3.13 70 22:33 05.06.2022
1734 Clouds 32 1009 19 10000 2.24 40 20:40 05.06.2022
1735 Clouds 30 1009 20 10000 0 0 19:26 05.06.2022
1736 Clouds 29 1008 24 10000 3.09 230 18:26 05.06.2022
1737 Clouds 27 1008 26 10000 5.66 200 17:50 05.06.2022
1738 Clouds 27 1008 27 10000 5.66 200 17:23 05.06.2022
1739 Clouds 25 1008 29 10000 5.14 210 16:49 05.06.2022
1740 Clouds 23 1007 33 10000 5.66 210 15:50 05.06.2022
1741 Smoke 23 1007 33 10000 4.63 210 14:22 05.06.2022
1742 Clouds 25 1007 27 10000 9.26 200 12:43 05.06.2022
1743 Clouds 25 1007 26 10000 7.2 200 11:35 05.06.2022
1744 Clouds 27 1007 25 10000 7.2 200 10:25 05.06.2022
1745 Clouds 26 1005 26 10000 3.61 213 09:58 05.06.2022
1746 Clouds 28 1007 21 10000 7.72 180 08:26 05.06.2022
1747 Clouds 31 1007 17 10000 5.66 230 06:54 05.06.2022
1748 Clouds 32 1006 16 10000 6.17 240 05:20 05.06.2022
1749 Clouds 34 1006 15 10000 8.75 220 03:38 05.06.2022
1750 Clouds 34 1006 15 10000 7.72 220 01:32 05.06.2022
1751 Clouds 35 1005 16 10000 8.75 220 23:58 04.06.2022
1752 Clouds 33 1008 16 10000 9.26 160 21:49 04.06.2022
1753 Clouds 32 1008 17 10000 8.75 200 20:21 04.06.2022
1754 Clouds 27 1006 25 10000 5.03 196 17:59 04.06.2022
1755 Clouds 25 1008 25 10000 7.72 180 16:42 04.06.2022
1756 Clouds 25 1008 26 10000 7.72 180 16:18 04.06.2022
1757 Clouds 24 1006 26 10000 6.69 190 14:37 04.06.2022
1758 Clouds 26 1007 20 10000 6.17 190 11:51 04.06.2022
1759 Clear 28 1006 16 10000 6.17 190 10:57 04.06.2022
1760 Clouds 27 1007 20 10000 7.2 230 10:22 04.06.2022
1761 Clouds 28 1007 17 10000 7.2 230 09:41 04.06.2022
1762 Clouds 29 1006 17 10000 6.69 200 08:40 04.06.2022
1763 Clouds 30 1006 13 10000 4.12 190 07:39 04.06.2022
1764 Clouds 34 1005 10 10000 8.23 200 04:33 04.06.2022
1765 Clouds 36 1002 11 10000 9.44 222 00:56 04.06.2022
1766 Clouds 36 1006 9 10000 7.72 220 23:35 03.06.2022
1767 Clouds 35 1006 11 10000 8.75 210 22:30 03.06.2022
1768 Clouds 35 1006 10 10000 6.69 210 21:21 03.06.2022
1769 Clouds 33 1007 12 10000 7.72 210 20:33 03.06.2022
1770 Clouds 29 1005 16 10000 2.74 180 17:58 03.06.2022
1771 Clouds 27 1007 15 10000 6.17 210 16:47 03.06.2022
1772 Clouds 25 1006 15 10000 6.17 200 15:18 03.06.2022
1773 Clouds 26 1006 16 10000 5.66 170 12:56 03.06.2022
1774 Clouds 28 1006 14 10000 6.69 170 11:19 03.06.2022
1775 Clouds 29 1006 13 10000 4.12 210 09:38 03.06.2022
1776 Clouds 30 1006 10 10000 3.09 210 08:45 03.06.2022
1777 Clouds 31 1006 10 10000 3.6 200 07:26 03.06.2022
1778 Clouds 32 1006 10 10000 4.12 220 06:32 03.06.2022
1779 Clear 33 1005 8 10000 6.17 250 05:19 03.06.2022
1780 Clouds 36 1007 6 10000 6.17 110 00:28 03.06.2022
1781 Clouds 35 1009 6 10000 4.63 80 22:41 02.06.2022
1782 Clear 33 1010 7 10000 3.6 110 21:38 02.06.2022
1783 Clear 32 1011 8 10000 2.57 0 20:22 02.06.2022
1784 Clear 30 1012 9 10000 3.09 100 19:46 02.06.2022
1785 Clear 30 1012 9 10000 3.09 100 19:28 02.06.2022
1786 Clear 26 1012 11 10000 1.54 0 17:32 02.06.2022
1787 Clear 23 1011 14 10000 3.6 200 16:27 02.06.2022
1788 Clear 20 1010 14 10000 3.6 200 14:19 02.06.2022
1789 Clear 21 1010 14 10000 4.12 190 13:29 02.06.2022
1790 Clear 23 1010 14 10000 4.12 200 11:24 02.06.2022
1791 Clear 24 1010 12 10000 4.12 190 10:20 02.06.2022
1792 Clear 24 1010 14 10000 3.6 300 09:27 02.06.2022
1793 Clear 24 1011 14 10000 3.6 280 08:26 02.06.2022
1794 Clouds 26 1011 13 10000 3.6 190 07:21 02.06.2022
1795 Clouds 31 1010 7 10000 2.24 90 04:49 02.06.2022
1796 Clouds 32 1010 7 10000 4.12 140 02:37 02.06.2022
1797 Clouds 31 1013 9 10000 4.63 60 23:43 01.06.2022
1798 Clouds 31 1013 9 10000 4.63 60 23:43 01.06.2022
1799 Clouds 31 1013 9 10000 4.63 60 23:43 01.06.2022
1800 Clear 29 1014 11 10000 4.63 40 22:31 01.06.2022
1801 Clear 28 1015 13 10000 4.63 360 21:32 01.06.2022
1802 Clear 27 1015 14 10000 5.36 360 20:40 01.06.2022
1803 Clear 27 1013 16 10000 3.86 19 19:59 01.06.2022
1804 Clear 26 1016 16 10000 5.66 40 19:19 01.06.2022
1805 Clear 23 1016 19 10000 6.17 340 17:44 01.06.2022
1806 Clear 22 1016 21 10000 7.72 340 16:34 01.06.2022
1807 Clear 20 1015 22 10000 6.26 360 14:53 01.06.2022
1808 Clear 21 1015 21 10000 7.2 40 13:45 01.06.2022
1809 Clear 22 1014 21 10000 8.23 40 12:26 01.06.2022
1810 Clear 24 1013 19 10000 7.2 20 09:40 01.06.2022
1811 Clear 26 1012 16 10000 7.72 20 08:38 01.06.2022
1812 Clear 27 1012 13 10000 7.72 20 07:22 01.06.2022
1813 Clear 28 1009 13 10000 7.2 20 05:23 01.06.2022
1814 Clouds 29 1009 13 10000 2.24 0 00:22 01.06.2022
1815 Clouds 28 1010 13 10000 1.54 0 23:26 31.05.2022
1816 Clouds 28 1010 14 10000 3.09 70 22:36 31.05.2022
1817 Clouds 28 1011 15 10000 6.69 330 21:45 31.05.2022
1818 Clouds 26 1011 16 10000 7.2 20 20:45 31.05.2022
1819 Clouds 26 1011 16 10000 7.2 20 20:45 31.05.2022
1820 Clear 26 1009 18 10000 8.23 30 19:57 31.05.2022
1821 Clouds 24 1011 17 10000 9.26 30 18:50 31.05.2022
1822 Clouds 23 1010 17 10000 10.29 320 17:50 31.05.2022
1823 Clouds 21 1009 18 10000 5.36 355 16:53 31.05.2022
1824 Clouds 19 1008 22 10000 4.12 330 15:40 31.05.2022
1825 Clear 18 1007 21 10000 4.12 170 13:45 31.05.2022
1826 Clear 19 1007 18 10000 5.66 60 12:20 31.05.2022
1827 Clear 19 1006 21 10000 4.12 50 10:53 31.05.2022
1828 Clear 22 1006 18 10000 3.6 30 08:49 31.05.2022
1829 Clouds 23 1006 15 10000 5.14 120 07:21 31.05.2022
1830 Clouds 27 1006 10 10000 3.09 210 04:53 31.05.2022
1831 Clouds 27 1007 12 10000 5.36 330 00:26 31.05.2022
1832 Clouds 26 1008 13 10000 3.13 70 23:26 30.05.2022
1833 Clouds 26 1008 15 10000 3.6 170 22:48 30.05.2022
1834 Clouds 25 1008 14 10000 2.06 0 21:51 30.05.2022
1835 Clouds 25 1009 14 10000 2.06 0 21:32 30.05.2022
1836 Clouds 23 1009 17 10000 5.36 60 19:51 30.05.2022
1837 Clouds 22 1009 19 10000 6.69 10 18:39 30.05.2022
1838 Clouds 20 1009 21 10000 7.72 10 17:24 30.05.2022
1839 Clouds 19 1009 22 10000 5.81 60 16:39 30.05.2022
1840 Clear 18 1008 22 10000 10.29 20 13:44 30.05.2022
1841 Clear 19 1007 21 10000 9.77 30 12:21 30.05.2022
1842 Clear 22 1007 12 10000 7.72 10 10:40 30.05.2022
1843 Clear 23 1006 8 10000 9.26 330 09:19 30.05.2022
1844 Clear 25 1003 7 10000 12.52 340 06:30 30.05.2022
1845 Clear 27 1003 6 10000 10.8 340 05:47 30.05.2022
1846 Clouds 31 1001 5 10000 11.32 330 01:32 30.05.2022
1847 Clear 30 1002 6 10000 11.83 330 22:50 29.05.2022
1848 Clear 30 1002 7 10000 11.83 330 22:31 29.05.2022
1849 Clear 28 1003 10 10000 11.32 300 20:51 29.05.2022
1850 Clear 27 1003 12 10000 11.83 330 19:30 29.05.2022
1851 Dust 26 1003 15 10000 10.29 320 18:37 29.05.2022
1852 Dust 24 1002 25 10000 10.8 330 17:23 29.05.2022
1853 Dust 22 1000 33 10000 8.75 320 15:48 29.05.2022
1854 Clear 21 999 38 10000 5.14 190 14:57 29.05.2022
1855 Dust 22 1000 28 8047 9.26 210 13:46 29.05.2022
1856 Dust 23 999 27 6437 8.23 210 11:34 29.05.2022
1857 Dust 24 999 27 8047 8.75 200 10:38 29.05.2022
1858 Dust 26 1000 23 6437 10.29 180 08:39 29.05.2022
1859 Dust 29 999 21 10000 11.32 210 05:48 29.05.2022
1860 Clouds 31 998 18 10000 11.32 220 04:43 29.05.2022
1861 Clouds 33 999 16 10000 10.8 210 02:50 29.05.2022
1862 Clouds 34 1001 16 10000 9.26 240 23:49 28.05.2022
1863 Clouds 34 1001 15 10000 9.26 240 23:26 28.05.2022
1864 Clouds 33 1003 15 10000 9.26 160 22:25 28.05.2022
1865 Clouds 32 1003 17 10000 8.75 210 21:31 28.05.2022
1866 Clouds 30 1003 17 10000 11.32 210 19:21 28.05.2022
1867 Clouds 29 1004 18 10000 8.75 210 18:46 28.05.2022
1868 Clouds 27 1003 19 10000 9.26 180 17:35 28.05.2022
1869 Clouds 26 1005 17 10000 10.29 220 16:35 28.05.2022
1870 Clouds 25 1003 19 10000 10.8 170 15:38 28.05.2022
1871 Clouds 26 1004 16 10000 9.77 200 13:57 28.05.2022
1872 Clouds 27 1005 18 10000 9.26 210 12:43 28.05.2022
1873 Clear 28 1005 13 10000 8.23 210 11:57 28.05.2022
1874 Clouds 28 1006 15 10000 9.77 230 10:49 28.05.2022
1875 Clear 29 1005 15 10000 10.29 230 09:56 28.05.2022
1876 Clouds 31 1007 11 10000 9.26 220 08:43 28.05.2022
1877 Clouds 31 1007 11 10000 6.17 200 07:23 28.05.2022
1878 Clouds 33 1007 9 10000 5.66 200 05:24 28.05.2022
1879 Clouds 36 1008 7 10000 8.75 250 02:38 28.05.2022
1880 Clouds 38 1009 7 10000 8.75 200 00:31 28.05.2022
1881 Clouds 37 1011 8 10000 9.77 210 22:50 27.05.2022
1882 Clouds 36 1012 8 10000 9.77 180 21:37 27.05.2022
1883 Clouds 35 1012 8 10000 7.2 180 20:48 27.05.2022
1884 Clouds 35 1012 8 10000 7.2 180 20:21 27.05.2022
1885 Clouds 34 1013 9 10000 7.2 190 19:41 27.05.2022
1886 Clouds 33 1013 10 10000 7.2 190 19:21 27.05.2022
1887 Clouds 29 1013 15 10000 8.23 170 17:34 27.05.2022
1888 Clouds 27 1012 17 10000 6.17 190 16:36 27.05.2022
1889 Clouds 27 1012 18 10000 6.69 190 15:20 27.05.2022
1890 Clouds 28 1012 18 10000 7.72 180 13:41 27.05.2022
1891 Clouds 28 1011 18 10000 7.72 200 12:28 27.05.2022
1892 Clouds 29 1011 17 10000 7.2 200 11:31 27.05.2022
1893 Clouds 29 1011 15 10000 7.2 210 10:47 27.05.2022
1894 Clear 28 1008 20 10000 3.9 213 09:59 27.05.2022
1895 Clouds 31 1011 11 10000 7.2 190 09:31 27.05.2022
1896 Clouds 32 1010 12 10000 6.69 180 07:41 27.05.2022
1897 Clouds 34 1007 11 10000 6.69 200 05:25 27.05.2022
1898 Clouds 38 1008 7 10000 10.29 240 01:47 27.05.2022
1899 Clouds 39 1009 7 10000 10.29 180 23:55 26.05.2022
1900 Clouds 38 1010 7 10000 11.32 170 22:29 26.05.2022
1901 Clouds 38 1011 8 10000 6.17 200 21:33 26.05.2022
1902 Clouds 34 1012 12 10000 3.6 30 19:49 26.05.2022
1903 Clouds 33 1012 13 10000 3.6 30 19:18 26.05.2022
1904 Clouds 33 1012 13 10000 3.6 30 19:18 26.05.2022
1905 Clouds 29 1012 15 10000 2.06 60 17:36 26.05.2022
1906 Clouds 27 1011 16 10000 5.14 200 16:35 26.05.2022
1907 Clouds 24 1010 19 10000 3.6 200 15:34 26.05.2022
1908 Clouds 23 1009 18 10000 3.6 30 14:21 26.05.2022
1909 Clear 25 1009 19 10000 4.63 190 12:20 26.05.2022
1910 Clear 24 1008 17 10000 5.14 170 11:21 26.05.2022
1911 Clouds 27 1009 13 10000 3.6 220 09:39 26.05.2022
1912 Clouds 28 1009 13 10000 3.09 210 08:51 26.05.2022
1913 Clouds 31 1008 12 10000 3.09 40 06:51 26.05.2022
1914 Clear 36 1008 7 10000 1.54 60 02:54 26.05.2022
1915 Clear 35 1011 8 10000 3.6 120 00:20 26.05.2022
1916 Clear 35 1011 8 10000 3.13 40 23:19 25.05.2022
1917 Smoke 34 1013 9 10000 4.63 90 21:46 25.05.2022
1918 Smoke 33 1013 9 10000 5.66 50 20:53 25.05.2022
1919 Clouds 33 1010 12 10000 0.89 98 19:59 25.05.2022
1920 Smoke 30 1013 11 10000 4.12 40 18:48 25.05.2022
1921 Clouds 27 1013 11 10000 2.24 60 17:26 25.05.2022
1922 Clouds 25 1013 14 10000 3.09 310 16:35 25.05.2022
1923 Clouds 23 1013 16 10000 4.12 160 15:49 25.05.2022
1924 Clear 21 1011 17 10000 5.66 60 14:51 25.05.2022
1925 Clear 21 1011 17 10000 5.66 60 14:32 25.05.2022
1926 Clear 22 1011 15 10000 4.12 360 13:28 25.05.2022
1927 Clear 24 1009 14 10000 1.83 1 11:51 25.05.2022
1928 Clear 24 1009 15 10000 5.14 200 10:42 25.05.2022
1929 Clouds 25 1009 14 10000 4.12 200 09:53 25.05.2022
1930 Clouds 24 1006 17 10000 0.45 298 08:22 25.05.2022
1931 Clouds 25 1006 18 10000 0.45 286 06:45 25.05.2022
1932 Clouds 33 1008 8 10000 3.09 50 02:55 25.05.2022
1933 Clouds 32 1011 8 10000 6.17 50 23:52 24.05.2022
1934 Clouds 32 1011 9 10000 6.17 50 23:23 24.05.2022
1935 Clouds 31 1012 9 10000 2.06 0 22:18 24.05.2022
1936 Clouds 30 1012 9 10000 3.6 70 21:38 24.05.2022
1937 Clouds 30 1012 9 10000 3.6 70 21:19 24.05.2022
1938 Clouds 28 1013 10 10000 2.57 350 19:32 24.05.2022
1939 Clear 27 1013 10 10000 3.09 40 18:49 24.05.2022
1940 Clouds 23 1013 14 10000 3.6 90 16:40 24.05.2022
1941 Clear 21 1012 17 10000 3.6 90 15:54 24.05.2022
1942 Clouds 20 1011 15 10000 5.66 70 14:45 24.05.2022
1943 Clouds 20 1011 16 10000 6.17 30 13:48 24.05.2022
1944 Clouds 21 1011 15 10000 7.2 60 12:42 24.05.2022
1945 Clouds 22 1010 18 10000 6.69 40 10:18 24.05.2022
1946 Clouds 22 1009 17 10000 3.6 70 09:41 24.05.2022
1947 Clouds 24 1009 16 10000 2.57 290 08:43 24.05.2022
1948 Clear 24 1007 17 10000 1.54 20 06:56 24.05.2022
1949 Clouds 31 1008 10 10000 3.6 70 03:48 24.05.2022
1950 Clouds 32 1009 10 10000 5.14 90 01:49 24.05.2022
1951 Clouds 31 1009 10 10000 5.14 90 01:18 24.05.2022
1952 Clouds 30 1011 11 10000 5.14 60 22:50 23.05.2022
1953 Clouds 30 1012 12 10000 3.6 80 21:54 23.05.2022
1954 Clear 29 1009 15 10000 1.34 142 20:59 23.05.2022
1955 Clouds 28 1013 13 10000 4.63 30 20:26 23.05.2022
1956 Clouds 27 1013 13 10000 9.77 30 19:31 23.05.2022
1957 Clouds 27 1012 15 10000 9.26 30 18:54 23.05.2022
1958 Clouds 26 1013 15 10000 9.26 30 18:27 23.05.2022
1959 Clouds 24 1014 17 10000 6.71 70 17:18 23.05.2022
1960 Clouds 22 1013 16 10000 8.23 10 14:52 23.05.2022
1961 Clouds 24 1011 12 10000 6.69 60 12:50 23.05.2022
1962 Clouds 25 1011 15 10000 4.12 340 11:26 23.05.2022
1963 Clouds 25 1009 14 10000 4.12 210 09:50 23.05.2022
1964 Clouds 26 1009 14 10000 4.12 210 09:23 23.05.2022
1965 Clouds 27 1009 15 10000 4.12 210 07:48 23.05.2022
1966 Clouds 29 1009 10 10000 4.63 230 06:45 23.05.2022
1967 Clouds 30 1009 13 10000 5.66 260 05:21 23.05.2022
1968 Clouds 33 1009 10 10000 2.68 0 02:19 23.05.2022
1969 Clouds 33 1009 9 10000 3.13 325 01:37 23.05.2022
1970 Clouds 32 1011 11 10000 3.6 220 23:51 22.05.2022
1971 Clouds 31 1012 10 10000 6.17 240 22:35 22.05.2022
1972 Clear 30 1012 12 10000 2.06 280 21:55 22.05.2022
1973 Clear 29 1013 12 10000 2.68 0 20:53 22.05.2022
1974 Clouds 28 1014 11 10000 2.68 0 20:27 22.05.2022
1975 Clear 28 1012 14 10000 2.06 60 19:56 22.05.2022
1976 Clear 26 1014 13 10000 4.12 50 18:55 22.05.2022
1977 Clouds 25 1014 13 10000 4.12 50 18:25 22.05.2022
1978 Clouds 23 1014 15 10000 2.06 250 17:33 22.05.2022
1979 Clear 21 1014 18 10000 1.54 230 16:31 22.05.2022
1980 Clouds 18 1013 19 10000 4.12 190 14:49 22.05.2022
1981 Clear 18 1013 17 10000 3.6 200 13:48 22.05.2022
1982 Clear 18 1012 17 10000 3.09 210 12:52 22.05.2022
1983 Clear 19 1012 17 10000 3.6 160 11:44 22.05.2022
1984 Clear 21 1013 16 10000 3.6 50 09:45 22.05.2022
1985 Clear 21 1012 15 10000 3.6 60 08:54 22.05.2022
1986 Clouds 23 1012 16 10000 3.6 20 07:22 22.05.2022
1987 Clouds 23 1012 16 10000 3.6 20 07:22 22.05.2022
1988 Clouds 23 1012 16 10000 1.54 130 06:23 22.05.2022
1989 Clear 28 1010 10 10000 4.12 190 02:23 22.05.2022
1990 Clear 28 1011 11 10000 2.24 0 00:44 22.05.2022
1991 Clouds 27 1012 11 10000 2.24 0 23:55 21.05.2022
1992 Clouds 26 1012 11 10000 2.24 0 23:20 21.05.2022
1993 Clouds 25 1013 11 10000 4.12 90 21:43 21.05.2022
1994 Clouds 24 1013 11 10000 4.12 90 21:25 21.05.2022
1995 Clear 24 1014 13 10000 6.69 40 20:25 21.05.2022
1996 Clear 22 1014 13 10000 7.72 40 19:35 21.05.2022
1997 Clear 20 1014 15 10000 6.17 30 17:51 21.05.2022
1998 Clear 18 1013 16 10000 4.63 20 16:46 21.05.2022
1999 Clear 16 1011 19 10000 6.69 30 14:38 21.05.2022
2000 Clear 16 1012 18 10000 5.66 60 13:52 21.05.2022
2001 Clear 16 1010 19 10000 6.69 30 12:50 21.05.2022
2002 Clear 17 1010 20 10000 6.69 30 12:26 21.05.2022
2003 Clear 18 1010 16 10000 9.77 20 10:44 21.05.2022
2004 Squall 18 1010 16 10000 16.46 30 09:44 21.05.2022
2005 Clear 19 1008 17 10000 10.29 40 08:57 21.05.2022
2006 Clear 21 1008 11 10000 13.38 30 07:54 21.05.2022
2007 Clear 25 1004 12 10000 3.58 50 04:29 21.05.2022
2008 Clouds 26 1005 11 10000 6.17 30 00:38 21.05.2022
2009 Clouds 26 1003 14 10000 7.2 40 22:59 20.05.2022
2010 Clouds 25 1005 12 10000 8.23 330 22:24 20.05.2022
2011 Clouds 25 1006 13 10000 9.77 330 21:43 20.05.2022
2012 Clear 24 1003 15 10000 11.32 40 20:56 20.05.2022
2013 Clouds 24 1001 16 10000 6.26 29 19:59 20.05.2022
2014 Clouds 23 1005 14 10000 13.38 340 19:26 20.05.2022
2015 Clouds 22 1005 15 10000 16.09 360 18:46 20.05.2022
2016 Dust 21 1003 15 10000 12.96 360 17:24 20.05.2022
2017 Dust 22 1002 15 10000 14.4 320 16:19 20.05.2022
2018 Clouds 23 1000 17 10000 9.26 40 15:47 20.05.2022
2019 Clouds 26 1000 19 10000 8.75 30 14:30 20.05.2022
2020 Clouds 26 999 22 10000 5.14 190 13:55 20.05.2022
2021 Clouds 27 998 18 10000 9.26 190 11:38 20.05.2022
2022 Dust 28 998 17 10000 8.75 220 10:19 20.05.2022
2023 Dust 31 998 13 9656 10.29 200 08:45 20.05.2022
2024 Clouds 32 999 14 10000 10.8 210 07:18 20.05.2022
2025 Clouds 34 999 9 10000 10.29 220 06:32 20.05.2022
2026 Clouds 34 997 11 10000 9.66 234 04:59 20.05.2022
2027 Clouds 38 1002 10 10000 9.77 210 00:54 20.05.2022
2028 Clouds 38 1004 11 10000 8.23 230 22:48 19.05.2022
2029 Clouds 38 1004 11 10000 8.23 230 22:20 19.05.2022
2030 Clouds 36 1006 11 10000 7.72 210 21:48 19.05.2022
2031 Clouds 36 1006 11 10000 7.72 210 21:22 19.05.2022
2032 Clouds 35 1007 12 10000 7.2 210 20:34 19.05.2022
2033 Clouds 34 1008 11 10000 5.14 190 19:50 19.05.2022
2034 Clouds 31 1009 14 10000 7.2 210 18:22 19.05.2022
2035 Clouds 27 1010 18 10000 6.17 200 16:35 19.05.2022
2036 Clouds 24 1009 19 10000 5.14 200 15:19 19.05.2022
2037 Clouds 24 1009 19 10000 5.66 190 14:25 19.05.2022
2038 Clouds 24 1009 18 10000 5.66 190 13:23 19.05.2022
2039 Clouds 26 1009 14 10000 6.17 180 11:29 19.05.2022
2040 Clouds 28 1010 15 10000 5.14 210 09:27 19.05.2022
2041 Clouds 29 1010 14 10000 6.17 190 07:50 19.05.2022
2042 Clouds 31 1010 13 10000 5.14 160 06:18 19.05.2022
2043 Clouds 36 1011 7 10000 3.6 240 02:23 19.05.2022
2044 Clear 36 1010 12 10000 1.34 219 23:57 18.05.2022
2045 Clouds 35 1014 11 10000 4.63 30 22:47 18.05.2022
2046 Clouds 34 1015 12 10000 2.57 0 21:51 18.05.2022
2047 Clouds 34 1015 12 10000 2.57 0 21:29 18.05.2022
2048 Clear 33 1015 12 10000 2.68 50 20:47 18.05.2022
2049 Clear 33 1015 14 10000 2.57 50 20:18 18.05.2022
2050 Clear 30 1015 15 10000 1.54 120 18:33 18.05.2022
2051 Clear 27 1015 16 10000 2.06 160 17:41 18.05.2022
2052 Clear 27 1015 17 10000 2.06 160 17:23 18.05.2022
2053 Clear 24 1014 20 10000 3.09 300 16:34 18.05.2022
2054 Clear 22 1014 19 10000 3.6 190 15:41 18.05.2022
2055 Clear 22 1013 21 10000 3.09 310 14:35 18.05.2022
2056 Clear 22 1013 20 10000 3.6 190 13:35 18.05.2022
2057 Clear 23 1012 19 10000 4.12 220 12:43 18.05.2022
2058 Clear 24 1012 17 10000 4.63 200 11:34 18.05.2022
2059 Clear 23 1009 20 10000 3.09 60 10:56 18.05.2022
2060 Clear 23 1009 20 10000 3.09 60 10:56 18.05.2022
2061 Clear 26 1011 15 10000 3.6 210 09:31 18.05.2022
2062 Clouds 28 1010 15 10000 4.12 170 07:36 18.05.2022
2063 Clear 32 1008 9 10000 7.2 140 05:56 18.05.2022
2064 Clouds 36 1007 11 10000 5.14 90 01:20 18.05.2022
2065 Clouds 36 1008 12 10000 5.66 190 00:22 18.05.2022
2066 Clear 35 1007 15 10000 3.6 100 21:56 17.05.2022
2067 Clear 34 1010 13 10000 4.12 180 21:20 17.05.2022
2068 Clouds 32 1006 15 10000 2.24 145 19:59 17.05.2022
2069 Clear 31 1010 11 10000 4.12 210 19:27 17.05.2022
2070 Clouds 27 1010 16 10000 5.14 190 17:50 17.05.2022
2071 Clouds 26 1009 17 10000 7.72 210 16:58 17.05.2022
2072 Clouds 25 1009 17 10000 7.72 210 16:29 17.05.2022
2073 Clouds 23 1008 19 10000 8.23 210 15:24 17.05.2022
2074 Clear 23 1007 19 10000 7.72 180 14:30 17.05.2022
2075 Clear 23 1007 19 10000 7.72 180 14:30 17.05.2022
2076 Clear 23 1007 19 10000 7.72 180 14:30 17.05.2022
2077 Clear 23 1007 19 10000 5.14 190 13:32 17.05.2022
2078 Clear 27 1007 13 10000 7.2 180 11:37 17.05.2022
2079 Clouds 29 1008 11 10000 7.72 210 09:23 17.05.2022
2080 Clouds 30 1007 12 10000 6.69 210 08:23 17.05.2022
2081 Clouds 32 1007 9 10000 5.66 230 06:45 17.05.2022
2082 Clouds 36 1005 11 10000 6.69 250 02:55 17.05.2022
2083 Clouds 37 1006 11 10000 7.72 140 00:32 17.05.2022
2084 Clouds 36 1007 12 10000 5.66 200 22:42 16.05.2022
2085 Clouds 34 1008 12 10000 4.12 130 21:36 16.05.2022
2086 Clouds 33 1009 13 10000 4.63 200 20:46 16.05.2022
2087 Clouds 31 1009 15 10000 4.12 220 19:22 16.05.2022
2088 Clouds 29 1009 17 10000 5.66 190 18:18 16.05.2022
2089 Clouds 24 1009 22 10000 8.23 180 15:49 16.05.2022
2090 Clear 23 1007 18 10000 6.17 210 13:49 16.05.2022
2091 Clear 24 1007 17 10000 5.14 180 12:50 16.05.2022
2092 Clouds 28 1008 11 10000 6.69 200 10:52 16.05.2022
2093 Clouds 30 1009 7 10000 5.14 200 08:55 16.05.2022
2094 Clouds 32 1007 6 10000 4.12 210 06:34 16.05.2022
2095 Clouds 37 1007 6 10000 4.63 80 02:38 16.05.2022
2096 Clouds 36 1010 7 10000 3.6 110 23:19 15.05.2022
2097 Clouds 35 1011 8 10000 3.09 350 22:28 15.05.2022
2098 Clouds 35 1012 8 10000 2.06 0 21:38 15.05.2022
2099 Clouds 34 1012 9 10000 3.09 10 20:53 15.05.2022
2100 Clouds 32 1013 10 10000 2.06 80 19:24 15.05.2022
2101 Clouds 28 1014 13 10000 1.54 220 17:48 15.05.2022
2102 Clouds 20 1014 11 10000 3.09 150 15:44 15.05.2022
2103 Clouds 22 1013 13 10000 3.6 160 13:49 15.05.2022
2104 Clouds 23 1013 12 10000 5.14 220 12:22 15.05.2022
2105 Clouds 24 1014 12 10000 3.09 200 11:38 15.05.2022
2106 Clouds 24 1014 8 10000 5.14 200 10:20 15.05.2022
2107 Clouds 26 1013 10 10000 3.6 170 07:36 15.05.2022
2108 Clear 25 1011 16 10000 3.09 40 06:57 15.05.2022
2109 Clouds 34 1013 8 10000 3.09 80 04:26 15.05.2022
2110 Clear 35 1014 8 10000 2.24 0 00:48 15.05.2022
2111 Clear 34 1015 8 10000 2.24 0 23:38 14.05.2022
2112 Clear 33 1016 9 10000 2.57 0 22:45 14.05.2022
2113 Clouds 32 1017 11 10000 2.57 120 21:27 14.05.2022
2114 Clouds 30 1017 11 10000 2.06 0 20:32 14.05.2022
2115 Clouds 29 1017 12 10000 1.54 70 19:21 14.05.2022
2116 Clear 29 1015 15 10000 0.45 101 18:59 14.05.2022
2117 Clouds 25 1017 14 10000 3.09 190 17:54 14.05.2022
2118 Clouds 21 1016 17 10000 3.6 170 16:32 14.05.2022
2119 Clear 19 1014 19 10000 1.19 331 14:56 14.05.2022
2120 Clear 18 1015 18 10000 3.09 200 14:30 14.05.2022
2121 Clear 21 1016 13 10000 5.14 200 12:23 14.05.2022
2122 Clear 21 1015 14 10000 5.14 210 10:53 14.05.2022
2123 Clear 21 1015 15 10000 5.14 210 10:20 14.05.2022
2124 Clear 21 1015 15 10000 4.63 200 09:51 14.05.2022
2125 Clear 23 1015 13 10000 3.09 300 08:22 14.05.2022
2126 Clear 27 1014 11 10000 3.6 70 05:26 14.05.2022
2127 Clear 32 1014 12 10000 1.54 250 01:57 14.05.2022
2128 Clear 30 1017 11 10000 2.57 0 23:31 13.05.2022
2129 Clear 30 1017 13 10000 2.57 280 22:56 13.05.2022
2130 Clear 29 1018 11 10000 2.57 280 22:22 13.05.2022
2131 Clouds 28 1019 12 10000 2.24 30 21:35 13.05.2022
2132 Clear 26 1020 12 10000 2.57 0 20:43 13.05.2022
2133 Clear 26 1019 13 10000 2.57 0 20:23 13.05.2022
2134 Clear 24 1020 14 10000 1.54 0 19:21 13.05.2022
2135 Clear 21 1020 17 10000 3.6 310 17:50 13.05.2022
2136 Clear 20 1020 18 10000 3.6 310 17:24 13.05.2022
2137 Clear 14 1019 20 10000 3.09 180 15:53 13.05.2022
2138 Clear 14 1018 22 10000 3.6 330 14:47 13.05.2022
2139 Clear 14 1017 24 10000 0.89 0 12:58 13.05.2022
2140 Clear 15 1018 19 10000 5.66 310 12:25 13.05.2022
2141 Clear 17 1018 20 10000 3.6 320 10:35 13.05.2022
2142 Clear 17 1018 18 10000 3.09 200 09:29 13.05.2022
2143 Clear 18 1018 20 10000 3.09 200 07:59 13.05.2022
2144 Clouds 19 1018 19 10000 3.09 200 07:30 13.05.2022
2145 Clouds 21 1018 15 10000 2.57 90 05:46 13.05.2022
2146 Clouds 24 1019 13 10000 2.24 0 01:37 13.05.2022
2147 Clouds 23 1020 14 10000 2.57 30 23:34 12.05.2022
2148 Clouds 23 1021 16 10000 3.09 0 22:35 12.05.2022
2149 Clouds 21 1023 16 10000 4.63 350 21:35 12.05.2022
2150 Clouds 20 1024 19 10000 3.6 10 20:22 12.05.2022
2151 Clear 18 1024 22 10000 5.66 340 18:30 12.05.2022
2152 Clear 15 1024 26 10000 6.17 330 16:52 12.05.2022
2153 Clear 12 1023 30 10000 5.66 340 15:30 12.05.2022
2154 Clouds 11 1021 29 10000 1.79 24 13:58 12.05.2022
2155 Clear 13 1021 27 10000 6.69 340 12:46 12.05.2022
2156 Clear 14 1021 22 10000 6.17 320 10:34 12.05.2022
2157 Clear 14 1020 24 10000 4.86 326 08:58 12.05.2022
2158 Clear 15 1020 22 10000 6.17 270 08:37 12.05.2022
2159 Clouds 16 1019 19 10000 8.23 300 07:25 12.05.2022
2160 Clouds 17 1017 18 10000 8.23 280 04:50 12.05.2022
2161 Clouds 19 1014 18 10000 15.43 310 01:55 12.05.2022
2162 Clouds 20 1013 13 10000 11.32 270 23:42 11.05.2022
2163 Clouds 20 1013 15 10000 9.77 270 22:22 11.05.2022
2164 Clouds 20 1013 15 10000 9.77 210 21:27 11.05.2022
2165 Clear 19 1012 16 10000 7.2 170 20:45 11.05.2022
2166 Clear 15 1013 21 10000 8.75 200 17:43 11.05.2022
2167 Clear 14 1012 22 10000 10.29 210 16:47 11.05.2022
2168 Clear 12 1011 26 10000 10.8 180 14:49 11.05.2022
2169 Clear 12 1012 27 10000 10.8 180 14:25 11.05.2022
2170 Clouds 13 1012 26 10000 9.26 190 13:37 11.05.2022
2171 Clouds 14 1012 28 10000 6.17 200 11:48 11.05.2022
2172 Clouds 17 1012 21 10000 7.2 230 09:34 11.05.2022
2173 Clouds 18 1010 25 10000 3.89 252 06:59 11.05.2022
2174 Clouds 22 1011 15 10000 9.26 210 03:38 11.05.2022
2175 Clouds 22 1013 13 10000 9.77 190 23:45 10.05.2022
2176 Clouds 22 1013 14 10000 8.23 250 22:30 10.05.2022
2177 Clouds 22 1014 13 10000 10.29 220 21:41 10.05.2022
2178 Clouds 20 1014 14 10000 7.2 210 20:48 10.05.2022
2179 Clouds 19 1015 14 10000 3.6 220 19:18 10.05.2022
2180 Clear 16 1013 17 10000 10.8 200 17:43 10.05.2022
2181 Clouds 14 1013 19 10000 9.26 220 16:39 10.05.2022
2182 Clouds 13 1011 24 10000 11.32 200 13:54 10.05.2022
2183 Clouds 14 1010 24 10000 11.83 200 12:30 10.05.2022
2184 Clouds 14 1009 26 10000 9.77 200 11:42 10.05.2022
2185 Clear 15 1008 28 10000 12.35 210 10:57 10.05.2022
2186 Clouds 16 1009 26 10000 12.35 220 09:52 10.05.2022
2187 Clouds 17 1009 23 10000 10.8 200 08:22 10.05.2022
2188 Clouds 19 1008 16 10000 8.23 210 06:21 10.05.2022
2189 Clouds 22 1007 11 10000 12.35 230 02:31 10.05.2022
2190 Clouds 22 1008 14 10000 9.77 240 23:55 09.05.2022
2191 Clouds 22 1008 15 10000 7.2 190 22:41 09.05.2022
2192 Clouds 21 1009 16 10000 7.2 180 21:42 09.05.2022
2193 Clear 18 1010 16 10000 2.06 0 20:21 09.05.2022
2194 Clear 17 1011 17 10000 5.66 320 18:26 09.05.2022
2195 Clear 16 1009 20 10000 6.69 330 17:27 09.05.2022
2196 Clear 14 1008 23 10000 9.26 310 16:19 09.05.2022
2197 Clear 13 1008 25 10000 8.23 310 15:47 09.05.2022
2198 Clear 13 1007 24 10000 8.75 300 14:37 09.05.2022
2199 Clear 12 1009 29 10000 1.08 333 13:59 09.05.2022
2200 Clear 13 1007 24 10000 5.14 340 13:23 09.05.2022
2201 Dust 14 1006 25 10000 4.63 220 11:53 09.05.2022
2202 Dust 16 1005 19 10000 7.72 230 10:48 09.05.2022
2203 Dust 15 1005 21 10000 7.72 230 10:26 09.05.2022
2204 Dust 18 1002 16 10000 10.29 220 07:57 09.05.2022
2205 Dust 22 1000 15 10000 10.8 230 05:53 09.05.2022
2206 Dust 28 997 14 10000 9.77 200 00:59 09.05.2022
2207 Dust 28 998 15 6437 15.95 210 23:28 08.05.2022
2208 Clear 27 999 17 10000 13.89 200 22:32 08.05.2022
2209 Clear 26 1000 18 10000 12.35 240 21:20 08.05.2022
2210 Clear 26 1001 19 10000 10.29 230 20:23 08.05.2022
2211 Clear 24 1002 21 10000 7.72 200 19:33 08.05.2022
2212 Clear 24 1001 22 10000 10.8 220 18:38 08.05.2022
2213 Clear 22 1001 25 10000 10.8 210 17:39 08.05.2022
2214 Clear 18 1001 29 10000 8.23 200 15:46 08.05.2022
2215 Clear 18 1001 29 10000 8.23 200 15:22 08.05.2022
2216 Clouds 20 1000 18 10000 11.32 210 12:46 08.05.2022
2217 Clear 21 997 19 10000 0.89 234 10:59 08.05.2022
2218 Clouds 22 1000 18 10000 11.32 210 10:22 08.05.2022
2219 Dust 22 1000 16 10000 10.8 200 09:51 08.05.2022
2220 Dust 25 1001 11 10000 11.32 200 07:43 08.05.2022
2221 Clouds 26 999 17 10000 6.97 241 05:57 08.05.2022
2222 Dust 31 1000 11 10000 11.83 220 03:21 08.05.2022
2223 Clouds 34 1001 15 10000 14.4 240 00:42 08.05.2022
2224 Clouds 33 1002 16 10000 7.2 230 23:55 07.05.2022
2225 Clear 33 1000 17 10000 6.71 314 22:59 07.05.2022
2226 Clouds 32 1003 17 10000 10.8 220 22:35 07.05.2022
2227 Clouds 31 1004 19 10000 10.8 220 21:55 07.05.2022
2228 Clouds 31 1004 19 10000 10.8 220 21:20 07.05.2022
2229 Clouds 30 1001 21 10000 2.24 334 19:59 07.05.2022
2230 Clouds 28 1005 23 10000 6.17 200 18:41 07.05.2022
2231 Clouds 24 1006 27 10000 8.75 210 16:19 07.05.2022
2232 Clouds 24 1005 21 10000 7.72 180 14:51 07.05.2022
2233 Clouds 26 1006 20 10000 5.66 210 11:21 07.05.2022
2234 Clouds 28 1007 17 10000 10.29 200 09:39 07.05.2022
2235 Clouds 30 1007 15 10000 9.26 190 08:28 07.05.2022
2236 Clouds 32 1007 13 10000 7.72 190 06:44 07.05.2022
2237 Clouds 33 1006 12 10000 7.72 220 05:41 07.05.2022
2238 Clouds 34 1006 14 10000 9.77 190 03:54 07.05.2022
2239 Clouds 35 1009 14 10000 6.17 240 23:41 06.05.2022
2240 Clouds 33 1011 15 10000 3.09 0 22:34 06.05.2022
2241 Clouds 32 1011 15 10000 5.14 160 21:47 06.05.2022
2242 Clouds 31 1012 15 10000 3.09 110 20:39 06.05.2022
2243 Clouds 29 1012 18 10000 3.6 240 19:43 06.05.2022
2244 Clouds 28 1012 18 10000 3.6 240 19:19 06.05.2022
2245 Clouds 27 1012 21 10000 4.63 230 18:25 06.05.2022
2246 Clouds 25 1012 20 10000 4.63 210 17:27 06.05.2022
2247 Clouds 22 1011 23 10000 5.66 210 15:49 06.05.2022
2248 Clouds 19 1007 29 10000 0.45 350 14:58 06.05.2022
2249 Clouds 22 1010 21 10000 7.72 200 13:31 06.05.2022
2250 Clouds 23 1010 19 10000 8.23 190 12:41 06.05.2022
2251 Clouds 21 1007 23 10000 0.45 301 11:58 06.05.2022
2252 Clouds 26 1011 14 10000 8.75 200 10:36 06.05.2022
2253 Clouds 27 1011 11 10000 8.75 180 09:46 06.05.2022
2254 Clouds 27 1011 10 10000 7.2 210 08:52 06.05.2022
2255 Clouds 28 1011 10 10000 6.17 210 07:26 06.05.2022
2256 Clouds 30 1010 10 10000 5.66 230 05:48 06.05.2022
2257 Clouds 33 1010 10 10000 6.69 240 02:51 06.05.2022
2258 Clouds 33 1010 10 10000 6.17 240 01:31 06.05.2022
2259 Clouds 31 1013 15 10000 4.12 100 22:45 05.05.2022
2260 Clouds 31 1013 15 10000 4.12 100 22:45 05.05.2022
2261 Clouds 29 1014 17 10000 6.17 140 21:31 05.05.2022
2262 Clouds 27 1015 20 10000 3.09 120 20:26 05.05.2022
2263 Smoke 24 1016 23 10000 5.14 60 18:35 05.05.2022
2264 Clear 20 1016 30 10000 3.6 160 16:35 05.05.2022
2265 Clear 17 1015 32 10000 5.14 70 14:51 05.05.2022
2266 Clear 17 1015 31 10000 4.63 70 13:24 05.05.2022
2267 Clear 17 1015 32 10000 1.54 220 12:53 05.05.2022
2268 Clear 19 1015 26 10000 3.6 200 10:52 05.05.2022
2269 Clear 19 1014 26 10000 3.6 200 09:40 05.05.2022
2270 Clouds 22 1014 24 10000 3.6 160 07:36 05.05.2022
2271 Clouds 24 1013 22 10000 3.09 150 05:19 05.05.2022
2272 Clear 28 1011 19 10000 1.79 246 01:59 05.05.2022
2273 Clouds 27 1013 18 10000 4.12 10 01:29 05.05.2022
2274 Clear 27 1015 19 10000 5.14 60 23:52 04.05.2022
2275 Clear 26 1016 20 10000 5.66 50 22:42 04.05.2022
2276 Clear 25 1016 21 10000 7.2 10 21:50 04.05.2022
2277 Clear 25 1016 21 10000 7.2 10 21:29 04.05.2022
2278 Clouds 24 1017 22 10000 6.17 20 20:27 04.05.2022
2279 Clouds 23 1017 25 10000 7.72 30 19:53 04.05.2022
2280 Clouds 22 1017 23 10000 7.72 30 19:18 04.05.2022
2281 Clear 21 1017 25 10000 6.17 30 18:22 04.05.2022
2282 Clear 20 1017 26 10000 8.23 40 17:51 04.05.2022
2283 Clear 17 1016 29 10000 6.17 340 15:42 04.05.2022
2284 Clear 16 1017 29 10000 6.17 340 15:23 04.05.2022
2285 Clear 16 1017 28 10000 7.72 340 14:21 04.05.2022
2286 Clear 17 1017 28 10000 8.23 10 13:35 04.05.2022
2287 Clear 17 1016 27 10000 8.75 20 12:33 04.05.2022
2288 Clear 18 1015 27 10000 7.72 30 10:41 04.05.2022
2289 Clear 19 1015 25 10000 7.72 50 09:44 04.05.2022
2290 Clear 20 1013 23 10000 10.8 40 08:47 04.05.2022
2291 Clear 20 1013 23 10000 10.8 40 08:47 04.05.2022
2292 Clear 21 1011 17 10000 3.6 300 06:49 04.05.2022
2293 Clear 27 1008 13 10000 5.36 57 02:59 04.05.2022
2294 Clear 26 1011 12 10000 10.29 330 00:48 04.05.2022
2295 Clouds 25 1012 12 10000 11.32 330 22:40 03.05.2022
2296 Clear 24 1013 13 10000 9.26 350 21:46 03.05.2022
2297 Clear 24 1011 15 10000 7.72 310 20:56 03.05.2022
2298 Clear 23 1013 15 10000 10.29 330 20:30 03.05.2022
2299 Clear 20 1012 19 10000 11.83 350 18:54 03.05.2022
2300 Clear 20 1012 19 10000 11.83 350 18:21 03.05.2022
2301 Clear 18 1011 22 10000 13.38 340 16:44 03.05.2022
2302 Clouds 18 1008 23 10000 10.8 310 15:38 03.05.2022
2303 Clouds 21 1005 19 10000 9.26 220 12:48 03.05.2022
2304 Clouds 21 1004 22 10000 9.26 220 12:27 03.05.2022
2305 Clouds 21 1004 22 10000 9.26 220 12:27 03.05.2022
2306 Clear 21 1001 22 10000 0.89 294 10:57 03.05.2022
2307 Clouds 24 1004 14 10000 12.35 200 09:35 03.05.2022
2308 Clouds 26 1004 13 10000 7.72 190 07:33 03.05.2022
2309 Clouds 27 1004 12 10000 9.26 200 06:45 03.05.2022
2310 Clouds 31 1006 12 10000 7.72 190 01:52 03.05.2022
2311 Clouds 28 1011 16 10000 7.72 190 22:44 02.05.2022
2312 Clouds 26 1013 19 10000 2.06 90 21:55 02.05.2022
2313 Clouds 25 1013 19 10000 3.6 170 21:23 02.05.2022
2314 Clouds 21 1014 23 10000 3.09 360 18:46 02.05.2022
2315 Clouds 21 1014 24 10000 3.09 360 18:25 02.05.2022
2316 Clear 20 1014 26 10000 3.6 20 17:37 02.05.2022
2317 Clear 17 1014 30 10000 2.06 320 16:23 02.05.2022
2318 Clear 16 1014 30 10000 4.12 330 15:37 02.05.2022
2319 Clear 16 1012 30 10000 2.23 339 13:58 02.05.2022
2320 Clear 17 1013 26 10000 2.57 50 12:27 02.05.2022
2321 Clear 18 1013 23 10000 4.63 320 10:52 02.05.2022
2322 Clear 19 1013 20 10000 5.14 330 09:30 02.05.2022
2323 Clear 20 1010 21 10000 5.4 339 07:57 02.05.2022
2324 Clear 24 1008 12 10000 12.35 340 04:44 02.05.2022
2325 Clouds 29 1005 15 10000 10.8 320 00:25 02.05.2022
2326 Clouds 29 1005 15 10000 9.26 330 23:52 01.05.2022
2327 Clear 28 1005 17 10000 9.26 350 22:40 01.05.2022
2328 Clear 28 1006 18 10000 8.75 300 21:30 01.05.2022
2329 Clear 27 1005 17 10000 9.26 310 20:19 01.05.2022
2330 Clear 26 1005 20 10000 11.32 320 19:18 01.05.2022
2331 Clear 25 1004 19 10000 8.75 310 18:46 01.05.2022
2332 Clear 23 1004 23 10000 7.72 240 17:46 01.05.2022
2333 Clear 20 1004 28 10000 9.77 210 16:24 01.05.2022
2334 Clear 19 1003 28 10000 6.17 210 15:38 01.05.2022
2335 Clear 20 1002 22 10000 8.23 220 13:52 01.05.2022
2336 Clear 22 1003 16 10000 9.26 170 11:28 01.05.2022
2337 Clear 24 1005 9 10000 11.32 200 09:32 01.05.2022
2338 Clear 25 1005 11 10000 10.29 210 08:47 01.05.2022
2339 Clear 30 1005 6 10000 8.75 210 04:31 01.05.2022
2340 Clouds 31 1009 11 10000 3.09 0 00:34 01.05.2022
2341 Clouds 27 1014 13 10000 3.09 120 21:51 30.04.2022
2342 Clouds 27 1014 13 10000 3.09 120 21:19 30.04.2022
2343 Clouds 25 1015 15 10000 4.63 40 19:45 30.04.2022
2344 Clouds 24 1015 16 10000 3.09 160 18:45 30.04.2022
2345 Clouds 19 1015 20 10000 4.12 70 16:54 30.04.2022
2346 Clouds 16 1014 22 10000 5.14 80 15:48 30.04.2022
2347 Clear 15 1014 22 10000 2.57 140 14:53 30.04.2022
2348 Clear 17 1014 21 10000 2.06 210 13:30 30.04.2022
2349 Clear 18 1014 18 10000 4.12 190 11:34 30.04.2022
2350 Clear 18 1015 18 10000 3.6 180 10:49 30.04.2022
2351 Clear 19 1015 17 10000 1.54 230 09:48 30.04.2022
2352 Clear 22 1014 16 10000 2.57 120 06:48 30.04.2022
2353 Clouds 28 1013 11 10000 3.09 120 03:34 30.04.2022
2354 Clear 26 1016 14 10000 4.12 10 23:53 29.04.2022
2355 Clouds 25 1016 14 10000 5.66 40 22:34 29.04.2022
2356 Clear 25 1017 15 10000 6.17 40 21:54 29.04.2022
2357 Clear 23 1017 15 10000 8.75 10 20:51 29.04.2022
2358 Clear 22 1017 16 10000 9.26 30 19:47 29.04.2022
2359 Clear 21 1017 18 10000 9.26 10 18:36 29.04.2022
2360 Clear 19 1016 18 10000 8.75 350 17:25 29.04.2022
2361 Clear 17 1015 20 10000 9.77 320 15:52 29.04.2022
2362 Clear 17 1013 19 10000 9.26 340 14:23 29.04.2022
2363 Clear 16 1013 20 10000 3.6 190 13:22 29.04.2022
2364 Clear 18 1011 16 10000 6.17 330 11:50 29.04.2022
2365 Clear 19 1009 13 10000 6.69 200 09:23 29.04.2022
2366 Clear 21 1007 14 10000 8.23 200 07:28 29.04.2022
2367 Clear 22 1006 11 10000 10.29 210 06:46 29.04.2022
2368 Clear 23 1005 14 10000 7.72 200 05:44 29.04.2022
2369 Clear 28 1006 8 10000 11.83 220 00:46 29.04.2022
2370 Clear 28 1006 8 10000 11.83 230 23:48 28.04.2022
2371 Clear 28 1007 9 10000 10.8 210 22:45 28.04.2022
2372 Clouds 27 1007 10 10000 12.35 200 21:47 28.04.2022
2373 Clouds 27 1007 10 10000 12.35 200 21:22 28.04.2022
2374 Clouds 26 1008 11 10000 12.86 200 20:35 28.04.2022
2375 Clear 24 1007 12 10000 10.29 220 19:46 28.04.2022
2376 Clouds 23 1007 12 10000 10.29 220 19:23 28.04.2022
2377 Clouds 22 1007 13 10000 9.26 200 18:36 28.04.2022
2378 Clouds 20 1007 15 10000 9.77 190 17:26 28.04.2022
2379 Clouds 19 1006 17 10000 7.2 180 16:41 28.04.2022
2380 Clouds 19 1006 16 10000 7.2 180 16:19 28.04.2022
2381 Clouds 18 1006 16 10000 9.26 200 15:40 28.04.2022
2382 Clouds 19 1007 17 10000 8.23 220 14:36 28.04.2022
2383 Clouds 20 1007 19 10000 9.77 220 12:55 28.04.2022
2384 Clouds 20 1006 20 10000 4.64 205 11:59 28.04.2022
2385 Clouds 22 1008 19 10000 6.69 190 10:47 28.04.2022
2386 Clouds 22 1008 18 10000 6.69 190 10:26 28.04.2022
2387 Clouds 24 1008 16 10000 9.26 210 08:44 28.04.2022
2388 Clouds 25 1008 16 10000 8.94 230 07:37 28.04.2022
2389 Clouds 27 1007 14 10000 8.23 200 06:33 28.04.2022
2390 Clouds 27 1007 12 10000 6.69 200 05:39 28.04.2022
2391 Clouds 28 1007 14 10000 7.72 220 04:40 28.04.2022
2392 Clouds 31 1006 14 10000 7.72 190 00:36 28.04.2022
2393 Clouds 30 1007 14 10000 6.26 190 22:45 27.04.2022
2394 Clear 30 1005 17 10000 4.02 275 21:56 27.04.2022
2395 Clouds 29 1008 14 10000 7.72 210 21:26 27.04.2022
2396 Clear 28 1009 16 10000 7.2 200 20:38 27.04.2022
2397 Clear 27 1009 17 10000 7.2 200 19:38 27.04.2022
2398 Clear 27 1009 18 10000 7.2 200 19:18 27.04.2022
2399 Clear 25 1009 20 10000 8.75 210 18:25 27.04.2022
2400 Clouds 22 1009 22 10000 8.75 200 17:26 27.04.2022
2401 Clouds 19 1008 24 10000 8.23 180 15:22 27.04.2022
2402 Clouds 22 1008 20 10000 5.14 200 12:27 27.04.2022
2403 Clouds 22 1008 18 10000 6.17 190 11:21 27.04.2022
2404 Clouds 23 1007 12 10000 4.63 200 09:45 27.04.2022
2405 Clouds 24 1008 13 10000 4.12 180 07:25 27.04.2022
2406 Clouds 26 1008 10 10000 5.14 190 05:37 27.04.2022
2407 Clouds 31 1008 8 10000 4.63 160 01:52 27.04.2022
2408 Clouds 31 1009 8 10000 4.63 130 00:52 27.04.2022
2409 Clouds 31 1008 10 10000 3.13 236 23:57 26.04.2022
2410 Clouds 30 1010 8 10000 6.69 100 23:23 26.04.2022
2411 Clouds 29 1011 9 10000 6.26 80 22:41 26.04.2022
2412 Clouds 28 1012 11 10000 4.63 50 21:48 26.04.2022
2413 Clouds 27 1013 10 10000 3.6 140 20:53 26.04.2022
2414 Clouds 26 1013 10 10000 3.6 90 20:33 26.04.2022
2415 Clouds 25 1013 11 10000 3.09 50 19:32 26.04.2022
2416 Clouds 23 1013 14 10000 3.6 110 18:45 26.04.2022
2417 Clouds 22 1012 15 10000 1.68 130 17:59 26.04.2022
2418 Clouds 20 1014 16 10000 1.54 180 17:22 26.04.2022
2419 Clouds 15 1014 18 10000 2.06 330 14:28 26.04.2022
2420 Clouds 16 1014 18 10000 2.57 300 13:33 26.04.2022
2421 Clouds 16 1012 19 10000 0.89 331 11:57 26.04.2022
2422 Clouds 17 1014 17 10000 3.6 200 10:37 26.04.2022
2423 Clouds 18 1014 16 10000 2.57 300 09:25 26.04.2022
2424 Clear 19 1015 16 10000 3.6 60 07:38 26.04.2022
2425 Clouds 24 1014 11 10000 2.06 60 04:33 26.04.2022
2426 Clouds 26 1016 10 10000 2.24 0 01:30 26.04.2022
2427 Clouds 26 1017 11 10000 5.66 60 00:26 26.04.2022
2428 Clouds 25 1018 13 10000 3.09 90 22:36 25.04.2022
2429 Clouds 24 1020 13 10000 7.2 50 21:42 25.04.2022
2430 Clouds 24 1021 15 10000 4.63 90 20:40 25.04.2022
2431 Clouds 22 1020 21 10000 1.34 207 18:58 25.04.2022
2432 Clouds 19 1021 20 10000 6.17 10 17:54 25.04.2022
2433 Clear 17 1020 25 10000 1.34 305 16:59 25.04.2022
2434 Clouds 13 1021 25 10000 4.63 360 15:29 25.04.2022
2435 Clear 13 1020 26 10000 6.17 40 14:42 25.04.2022
2436 Clear 14 1020 25 10000 6.26 50 13:33 25.04.2022
2437 Clear 15 1019 21 10000 4.12 40 11:38 25.04.2022
2438 Clear 16 1020 21 10000 5.66 40 10:26 25.04.2022
2439 Clear 16 1019 20 10000 2.68 280 08:39 25.04.2022
2440 Clear 18 1018 21 10000 4.12 40 06:39 25.04.2022
2441 Clouds 23 1017 13 10000 4.63 40 03:47 25.04.2022
2442 Clouds 24 1018 13 10000 4.12 360 00:43 25.04.2022
2443 Clouds 23 1019 14 10000 9.26 30 23:51 24.04.2022
2444 Clear 22 1019 15 10000 6.17 360 22:41 24.04.2022
2445 Clear 22 1020 15 10000 6.69 30 22:20 24.04.2022
2446 Clear 21 1020 16 10000 9.26 40 21:26 24.04.2022
2447 Clear 21 1021 17 10000 9.26 40 20:48 24.04.2022
2448 Clear 21 1021 17 10000 9.26 40 20:29 24.04.2022
2449 Clear 20 1021 18 10000 8.75 30 19:45 24.04.2022
2450 Clear 18 1020 20 10000 6.71 340 18:20 24.04.2022
2451 Clear 17 1020 22 10000 7.72 330 17:28 24.04.2022
2452 Clear 16 1019 26 10000 3.13 48 16:58 24.04.2022
2453 Clear 15 1020 24 10000 6.17 320 16:32 24.04.2022
2454 Clear 14 1019 25 10000 5.81 340 15:54 24.04.2022
2455 Clear 14 1018 26 10000 2.24 16 14:58 24.04.2022
2456 Clear 14 1018 25 10000 3.13 34 13:56 24.04.2022
2457 Clear 15 1018 22 10000 5.66 330 13:24 24.04.2022
2458 Clear 15 1017 24 10000 2.68 53 11:56 24.04.2022
2459 Clear 16 1018 20 10000 7.2 350 11:27 24.04.2022
2460 Clear 17 1018 20 10000 5.66 20 09:55 24.04.2022
2461 Clear 18 1017 18 10000 12.86 40 08:51 24.04.2022
2462 Clouds 20 1016 16 10000 6.69 20 06:18 24.04.2022
2463 Clouds 22 1015 15 10000 7.2 290 03:37 24.04.2022
2464 Clouds 22 1015 15 10000 7.2 290 03:37 24.04.2022
2465 Clouds 23 1016 14 10000 6.69 320 01:37 24.04.2022
2466 Clouds 23 1017 16 10000 8.23 360 23:57 23.04.2022
2467 Clouds 23 1017 17 10000 8.23 360 23:26 23.04.2022
2468 Clouds 22 1018 18 10000 6.17 70 22:46 23.04.2022
2469 Clouds 21 1018 20 10000 7.2 10 21:51 23.04.2022
2470 Clouds 21 1019 20 10000 7.72 40 21:32 23.04.2022
2471 Clouds 20 1019 22 10000 8.75 320 20:33 23.04.2022
2472 Clouds 18 1019 24 10000 7.72 360 19:41 23.04.2022
2473 Clouds 18 1019 25 10000 7.72 360 19:18 23.04.2022
2474 Clouds 18 1019 27 10000 9.39 350 18:46 23.04.2022
2475 Clouds 16 1019 31 10000 6.69 330 17:48 23.04.2022
2476 Clouds 14 1019 37 10000 8.23 320 16:49 23.04.2022
2477 Clouds 13 1018 39 10000 8.23 320 16:21 23.04.2022
2478 Clear 12 1017 40 10000 5.66 320 14:27 23.04.2022
2479 Clear 13 1016 39 10000 0.89 103 11:59 23.04.2022
2480 Clear 14 1016 39 10000 4.12 330 10:40 23.04.2022
2481 Clouds 14 1015 41 10000 3.6 150 08:30 23.04.2022
2482 Clouds 16 1013 41 10000 5.81 80 05:45 23.04.2022
2483 Clouds 18 1011 34 10000 10.29 50 03:54 23.04.2022
2484 Clouds 19 1010 28 10000 4.63 230 00:18 23.04.2022
2485 Clouds 18 1010 34 10000 5.14 220 23:25 22.04.2022
2486 Rain 15 1012 53 10000 3.6 260 21:59 22.04.2022
2487 Clouds 12 1012 66 10000 8.23 320 21:40 22.04.2022
2488 Rain 15 1011 45 10000 11.83 300 20:37 22.04.2022
2489 Clouds 14 1009 48 10000 8.75 350 19:39 22.04.2022
2490 Clouds 14 1009 46 10000 9.39 270 19:18 22.04.2022
2491 Clouds 14 1007 45 10000 10.8 230 18:28 22.04.2022
2492 Clouds 14 1006 46 10000 10.8 220 17:24 22.04.2022
2493 Clouds 13 1003 49 10000 4.47 252 15:59 22.04.2022
2494 Clouds 13 1005 51 10000 10.29 220 15:31 22.04.2022
2495 Clouds 13 1006 53 10000 12.35 210 14:38 22.04.2022
2496 Clouds 13 1006 53 10000 12.35 210 14:38 22.04.2022
2497 Clouds 14 1006 49 10000 11.32 230 13:42 22.04.2022
2498 Clouds 14 1006 45 10000 9.26 230 12:48 22.04.2022
2499 Clouds 17 1006 36 10000 9.77 210 11:23 22.04.2022
2500 Clouds 17 1004 38 10000 5.36 208 10:57 22.04.2022
2501 Clouds 17 1006 33 10000 9.77 200 10:34 22.04.2022
2502 Clouds 17 1004 34 10000 4.02 203 09:59 22.04.2022
2503 Clouds 18 1006 28 10000 10.8 200 09:22 22.04.2022
2504 Clouds 19 1006 27 10000 11.83 210 08:48 22.04.2022
2505 Clouds 21 1007 21 10000 10.29 220 06:42 22.04.2022
2506 Clouds 28 1006 12 10000 14.92 200 01:24 22.04.2022
2507 Clouds 27 1008 11 10000 11.32 200 23:33 21.04.2022
2508 Clouds 27 1008 13 10000 12.35 220 22:47 21.04.2022
2509 Clouds 25 1009 15 10000 13.89 190 21:42 21.04.2022
2510 Clouds 24 1010 17 10000 13.38 200 20:31 21.04.2022
2511 Clear 22 1010 19 10000 12.35 210 18:49 21.04.2022
2512 Clear 22 1010 19 10000 12.35 210 18:28 21.04.2022
2513 Clear 20 1009 25 10000 11.32 190 17:19 21.04.2022
2514 Clear 18 1009 30 10000 9.26 180 15:25 21.04.2022
2515 Clear 18 1008 29 10000 8.23 170 14:52 21.04.2022
2516 Clear 18 1008 30 10000 8.23 170 14:18 21.04.2022
2517 Clear 19 1008 31 10000 9.77 180 13:21 21.04.2022
2518 Clear 19 1007 31 10000 10.29 190 12:22 21.04.2022
2519 Clear 22 1009 24 10000 8.23 190 09:36 21.04.2022
2520 Clear 22 1008 23 10000 9.26 200 08:46 21.04.2022
2521 Clear 25 1008 17 10000 10.29 230 06:44 21.04.2022
2522 Clouds 27 1006 16 10000 9.26 210 03:41 21.04.2022
2523 Clouds 28 1006 15 10000 9.77 220 03:22 21.04.2022
2524 Clouds 29 1006 15 10000 7.2 210 02:44 21.04.2022
2525 Clouds 29 1006 15 10000 7.2 210 02:44 21.04.2022
2526 Haze 29 1007 17 10000 7.2 150 00:35 21.04.2022
2527 Clouds 28 1008 18 10000 4.63 240 23:37 20.04.2022
2528 Clouds 28 1008 19 10000 4.63 240 23:18 20.04.2022
2529 Clouds 27 1009 21 10000 4.12 170 22:34 20.04.2022
2530 Clouds 25 1010 23 10000 5.14 170 21:43 20.04.2022
2531 Clouds 24 1010 24 10000 3.6 100 20:44 20.04.2022
2532 Clouds 24 1010 24 10000 3.6 100 20:44 20.04.2022
2533 Clouds 24 1010 24 10000 3.6 100 20:44 20.04.2022
2534 Clouds 23 1010 25 10000 3.6 100 20:21 20.04.2022
2535 Clear 23 1010 27 10000 1.79 156 19:44 20.04.2022
2536 Clouds 21 1010 30 10000 4.63 230 18:46 20.04.2022
2537 Clouds 19 1009 33 10000 7.2 200 17:49 20.04.2022
2538 Clouds 17 1009 37 10000 7.2 200 16:39 20.04.2022
2539 Clear 15 1004 40 10000 0.45 179 14:58 20.04.2022
2540 Clouds 18 1008 31 10000 7.2 210 12:22 20.04.2022
2541 Clouds 19 1007 29 10000 8.23 210 11:40 20.04.2022
2542 Clouds 19 1007 27 10000 8.23 210 10:39 20.04.2022
2543 Clouds 20 1006 28 10000 10.29 200 09:28 20.04.2022
2544 Dust 20 1005 26 10000 11.32 210 08:27 20.04.2022
2545 Dust 21 1004 25 10000 10.8 200 07:53 20.04.2022
2546 Clouds 23 1003 21 10000 8.23 210 05:29 20.04.2022
2547 Clouds 29 1002 11 10000 15.95 200 01:35 20.04.2022
2548 Clouds 30 1002 9 10000 12.35 230 00:21 20.04.2022
2549 Clouds 30 1004 10 10000 15.43 220 22:53 19.04.2022
2550 Clouds 29 1004 10 10000 15.43 220 22:23 19.04.2022
2551 Clouds 29 1005 11 10000 14.4 210 21:48 19.04.2022
2552 Clear 29 1003 13 10000 14.4 210 20:57 19.04.2022
2553 Clouds 28 1006 12 10000 14.4 210 20:37 19.04.2022
2554 Clouds 26 1006 12 10000 13.38 210 19:32 19.04.2022
2555 Clouds 25 1006 13 10000 13.89 160 18:30 19.04.2022
2556 Clouds 23 1007 14 10000 12.35 200 16:50 19.04.2022
2557 Clouds 22 1008 15 10000 12.35 200 16:25 19.04.2022
2558 Clouds 22 1003 18 10000 2.24 205 15:59 19.04.2022
2559 Clouds 22 1007 14 10000 11.83 220 14:44 19.04.2022
2560 Clouds 23 1006 13 10000 12.35 190 12:53 19.04.2022
2561 Clouds 23 1006 12 10000 12.35 190 12:31 19.04.2022
2562 Clouds 24 1007 13 10000 9.77 190 11:34 19.04.2022
2563 Clouds 26 1008 10 10000 8.23 200 09:35 19.04.2022
2564 Clouds 26 1009 10 10000 6.17 200 07:43 19.04.2022
2565 Clouds 30 1007 8 10000 8.23 240 04:25 19.04.2022
2566 Clouds 32 1009 7 10000 7.72 250 01:41 19.04.2022
2567 Clouds 32 1011 6 10000 5.66 200 23:49 18.04.2022
2568 Clouds 31 1012 8 10000 6.17 240 22:46 18.04.2022
2569 Clouds 29 1013 9 10000 5.36 80 21:25 18.04.2022
2570 Clouds 27 1014 12 10000 5.14 210 20:39 18.04.2022
2571 Clouds 27 1011 17 10000 1.34 130 19:59 18.04.2022
2572 Clouds 25 1014 14 10000 5.14 210 19:33 18.04.2022
2573 Clouds 24 1014 15 10000 6.17 200 18:45 18.04.2022
2574 Clouds 22 1014 17 10000 3.6 190 17:49 18.04.2022
2575 Clouds 21 1014 17 10000 3.6 190 17:19 18.04.2022
2576 Clouds 19 1014 18 10000 2.06 340 16:39 18.04.2022
2577 Clouds 17 1014 18 10000 2.57 310 15:32 18.04.2022
2578 Clouds 17 1014 16 10000 3.6 210 14:27 18.04.2022
2579 Clear 18 1014 19 10000 3.09 60 12:56 18.04.2022
2580 Clouds 19 1014 15 10000 6.69 200 12:24 18.04.2022
2581 Clouds 20 1014 14 10000 5.66 170 10:47 18.04.2022
2582 Clouds 20 1014 13 10000 4.12 190 09:53 18.04.2022
2583 Clouds 20 1015 13 10000 4.12 190 09:27 18.04.2022
2584 Clouds 23 1015 11 10000 2.68 180 07:25 18.04.2022
2585 Clouds 30 1014 9 10000 4.12 230 02:45 18.04.2022
2586 Clear 28 1017 16 10000 3.09 0 23:23 17.04.2022
2587 Clear 27 1018 17 10000 3.09 130 22:37 17.04.2022
2588 Clear 26 1019 19 10000 3.09 0 21:34 17.04.2022
2589 Clear 24 1020 21 10000 2.06 50 20:52 17.04.2022
2590 Clear 23 1020 21 10000 2.06 50 20:19 17.04.2022
2591 Clear 22 1018 25 10000 0.89 134 18:58 17.04.2022
2592 Clear 18 1019 26 10000 3.09 200 17:31 17.04.2022
2593 Clear 13 1017 33 10000 4.63 200 15:37 17.04.2022
2594 Clear 13 1017 34 10000 5.14 210 14:46 17.04.2022
2595 Clear 14 1016 32 10000 5.14 220 13:37 17.04.2022
2596 Clear 15 1016 32 10000 4.63 230 12:49 17.04.2022
2597 Clear 16 1013 31 10000 0.78 232 10:59 17.04.2022
2598 Clear 17 1015 28 10000 6.17 180 10:30 17.04.2022
2599 Clear 18 1015 28 10000 5.14 180 09:55 17.04.2022
2600 Clear 18 1015 26 10000 5.14 180 09:21 17.04.2022
2601 Dust 19 1014 23 10000 5.14 190 08:41 17.04.2022
2602 Dust 21 1012 22 10000 7.2 180 06:32 17.04.2022
2603 Dust 25 1009 18 10000 13.38 220 02:31 17.04.2022
2604 Clouds 25 1009 18 10000 16.98 220 00:42 17.04.2022
2605 Clouds 25 1009 18 10000 14.92 240 23:38 16.04.2022
2606 Clouds 24 1010 22 10000 14.4 200 21:49 16.04.2022
2607 Clouds 23 1010 23 10000 14.92 190 20:54 16.04.2022
2608 Clouds 23 1010 23 10000 13.89 180 19:30 16.04.2022
2609 Clouds 22 1009 24 10000 13.38 180 18:44 16.04.2022
2610 Clouds 20 1009 27 10000 12.86 180 17:21 16.04.2022
2611 Clouds 18 1009 29 10000 10.29 210 16:19 16.04.2022
2612 Clear 18 1006 31 10000 2.24 225 14:59 16.04.2022
2613 Clouds 18 1009 28 10000 8.75 200 14:41 16.04.2022
2614 Clouds 18 1008 28 10000 8.23 170 13:50 16.04.2022
2615 Clouds 18 1008 28 10000 8.23 170 13:18 16.04.2022
2616 Clouds 19 1009 25 10000 9.26 210 11:50 16.04.2022
2617 Clouds 20 1009 24 10000 6.69 180 10:35 16.04.2022
2618 Clouds 20 1009 23 10000 8.23 200 09:37 16.04.2022
2619 Clouds 21 1009 22 10000 6.69 180 08:52 16.04.2022
2620 Clouds 22 1009 21 10000 6.17 140 07:23 16.04.2022
2621 Clouds 23 1008 20 10000 5.66 210 05:45 16.04.2022
2622 Clouds 27 1008 18 10000 7.72 260 01:49 16.04.2022
2623 Clouds 26 1010 18 10000 6.69 230 23:52 15.04.2022
2624 Clouds 24 1010 18 10000 3.09 230 22:51 15.04.2022
2625 Clouds 24 1010 19 10000 3.09 230 22:29 15.04.2022
2626 Clouds 23 1012 20 10000 3.09 0 21:25 15.04.2022
2627 Clouds 22 1012 21 10000 4.12 180 20:38 15.04.2022
2628 Clouds 21 1012 23 10000 3.09 70 19:46 15.04.2022
2629 Clouds 20 1012 23 10000 3.09 70 19:23 15.04.2022
2630 Clouds 19 1012 26 10000 5.14 230 18:42 15.04.2022
2631 Clouds 18 1012 27 10000 5.14 230 18:22 15.04.2022
2632 Clear 16 1011 29 10000 5.66 200 17:27 15.04.2022
2633 Clouds 14 1010 33 10000 5.14 210 16:25 15.04.2022
2634 Clouds 14 1009 34 10000 4.63 200 15:52 15.04.2022
2635 Clouds 14 1008 34 10000 6.69 210 14:20 15.04.2022
2636 Clear 15 1007 30 10000 10.29 220 12:53 15.04.2022
2637 Clear 16 1007 28 10000 10.29 220 12:26 15.04.2022
2638 Dust 17 1007 26 10000 9.77 200 11:52 15.04.2022
2639 Dust 17 1007 24 10000 8.75 200 10:48 15.04.2022
2640 Dust 18 1007 23 10000 8.75 200 10:21 15.04.2022
2641 Clear 19 1006 23 10000 7.2 190 09:23 15.04.2022
2642 Clear 19 1006 22 10000 8.94 210 08:49 15.04.2022
2643 Clouds 22 1007 18 10000 8.75 220 06:51 15.04.2022
2644 Clouds 23 1006 16 10000 6.69 210 04:49 15.04.2022
2645 Clouds 24 1009 12 10000 7.2 140 00:51 15.04.2022
2646 Clouds 24 1011 13 10000 5.14 130 23:28 14.04.2022
2647 Clouds 23 1012 14 10000 7.2 210 22:46 14.04.2022
2648 Clouds 22 1012 14 10000 7.2 210 22:27 14.04.2022
2649 Clouds 21 1013 14 10000 2.68 100 21:50 14.04.2022
2650 Clouds 18 1014 13 10000 2.57 230 19:53 14.04.2022
2651 Clouds 18 1014 14 10000 2.57 230 19:22 14.04.2022
2652 Clouds 15 1014 14 10000 4.63 200 17:48 14.04.2022
2653 Clouds 14 1014 15 10000 4.63 200 17:18 14.04.2022
2654 Clouds 11 1014 18 10000 4.12 200 16:21 14.04.2022
2655 Clear 12 1013 17 10000 6.69 210 13:54 14.04.2022
2656 Clear 11 1013 17 10000 6.69 210 13:26 14.04.2022
2657 Clear 12 1013 15 10000 3.6 180 12:33 14.04.2022
2658 Clear 13 1014 13 10000 4.12 180 11:47 14.04.2022
2659 Clear 13 1014 13 10000 4.12 180 11:20 14.04.2022
2660 Clear 14 1014 13 10000 6.17 210 10:33 14.04.2022
2661 Clear 14 1014 14 10000 5.14 180 09:50 14.04.2022
2662 Clear 14 1014 12 10000 4.12 160 08:35 14.04.2022
2663 Clear 16 1015 13 10000 2.57 110 05:58 14.04.2022
2664 Clouds 20 1015 10 10000 4.12 260 01:49 14.04.2022
2665 Clouds 18 1017 12 10000 5.66 210 22:41 13.04.2022
2666 Clouds 17 1018 12 10000 3.09 160 21:44 13.04.2022
2667 Clouds 15 1019 13 10000 1.79 197 20:47 13.04.2022
2668 Clear 15 1020 15 10000 3.09 340 19:54 13.04.2022
2669 Clouds 13 1019 16 10000 4.12 360 18:43 13.04.2022
2670 Clear 11 1019 16 10000 4.63 340 17:52 13.04.2022
2671 Clear 10 1019 18 10000 4.63 340 17:23 13.04.2022
2672 Clear 7 1018 22 10000 5.66 340 16:18 13.04.2022
2673 Clear 7 1017 22 10000 6.17 340 15:31 13.04.2022
2674 Clear 7 1016 23 10000 5.14 210 14:43 13.04.2022
2675 Clear 7 1016 22 10000 5.14 210 13:55 13.04.2022
2676 Clear 7 1015 23 10000 1.54 20 12:57 13.04.2022
2677 Clear 8 1015 20 10000 4.63 200 12:19 13.04.2022
2678 Clear 8 1015 18 10000 2.68 200 10:41 13.04.2022
2679 Clear 10 1014 15 10000 4.12 170 08:49 13.04.2022
2680 Clear 10 1014 15 10000 4.12 170 08:24 13.04.2022
2681 Clear 11 1014 13 10000 3.09 320 06:50 13.04.2022
2682 Clear 12 1014 14 10000 3.09 320 06:24 13.04.2022
2683 Clouds 16 1012 8 10000 10.29 290 02:37 13.04.2022
2684 Clouds 16 1013 9 10000 11.32 340 00:20 13.04.2022
2685 Clouds 15 1013 11 10000 11.83 330 22:45 12.04.2022
2686 Clear 15 1013 14 10000 9.26 290 21:56 12.04.2022
2687 Clouds 14 1014 14 10000 10.29 350 20:49 12.04.2022
2688 Clouds 14 1014 14 10000 10.29 350 20:49 12.04.2022
2689 Clouds 13 1014 14 10000 10.29 350 20:22 12.04.2022
2690 Clear 12 1014 16 10000 9.39 350 19:41 12.04.2022
2691 Clear 12 1014 16 10000 9.39 350 19:19 12.04.2022
2692 Clouds 10 1013 19 10000 10.29 340 17:49 12.04.2022
2693 Clouds 9 1012 19 10000 10.8 340 16:50 12.04.2022
2694 Dust 9 1010 17 10000 12.35 300 15:39 12.04.2022
2695 Dust 9 1010 17 10000 12.35 300 15:20 12.04.2022
2696 Dust 9 1007 18 10000 15.43 340 13:53 12.04.2022
2697 Dust 10 1007 18 10000 15.43 340 13:27 12.04.2022
2698 Dust 10 1007 18 10000 15.43 340 13:27 12.04.2022
2699 Dust 10 1006 17 10000 13.41 350 12:26 12.04.2022
2700 Dust 11 1005 18 10000 14.92 340 11:39 12.04.2022
2701 Dust 13 1004 20 10000 16.46 310 10:29 12.04.2022
2702 Dust 16 999 30 10000 14.92 230 08:53 12.04.2022
2703 Dust 17 998 32 10000 16.46 230 07:47 12.04.2022
2704 Dust 19 996 27 9656 14.92 220 05:47 12.04.2022
2705 Dust 24 995 23 4828 15.95 210 02:53 12.04.2022
2706 Dust 25 998 18 8047 12.86 200 23:25 11.04.2022
2707 Dust 24 999 18 10000 14.4 210 22:44 11.04.2022
2708 Clouds 23 1000 17 10000 13.38 200 21:36 11.04.2022
2709 Clouds 23 1001 17 10000 10.8 210 20:49 11.04.2022
2710 Clouds 22 1002 17 10000 10.8 210 20:28 11.04.2022
2711 Clouds 20 1003 17 10000 9.77 210 19:29 11.04.2022
2712 Clouds 20 1001 19 10000 2.24 203 18:59 11.04.2022
2713 Clouds 18 1003 18 10000 10.29 210 18:33 11.04.2022
2714 Clouds 16 1003 19 10000 5.14 180 17:43 11.04.2022
2715 Clouds 14 1003 22 10000 6.69 200 16:38 11.04.2022
2716 Clouds 13 1003 20 10000 6.69 190 15:24 11.04.2022
2717 Clouds 14 1004 19 10000 5.14 180 13:44 11.04.2022
2718 Clouds 14 1004 18 10000 7.72 190 12:41 11.04.2022
2719 Clouds 14 1004 18 10000 7.72 190 12:22 11.04.2022
2720 Clouds 15 1005 17 10000 4.12 210 10:47 11.04.2022
2721 Clouds 15 1003 19 10000 0.45 300 09:58 11.04.2022
2722 Clouds 16 1005 16 10000 2.57 10 08:23 11.04.2022
2723 Clear 19 1005 14 10000 0 0 04:57 11.04.2022
2724 Clouds 23 1008 10 10000 3.09 30 00:49 11.04.2022
2725 Clouds 21 1010 10 10000 5.14 60 22:27 10.04.2022
2726 Clouds 21 1011 11 10000 9.26 40 21:54 10.04.2022
2727 Clouds 20 1012 10 10000 9.26 40 21:23 10.04.2022
2728 Clouds 20 1013 11 10000 8.75 40 20:21 10.04.2022
2729 Clouds 19 1013 11 10000 10.29 20 19:37 10.04.2022
2730 Clouds 18 1012 11 10000 10.8 30 18:50 10.04.2022
2731 Clouds 18 1012 12 10000 10.8 30 18:26 10.04.2022
2732 Clouds 17 1012 12 10000 10.29 30 17:46 10.04.2022
2733 Clouds 16 1009 16 10000 3.13 47 16:59 10.04.2022
2734 Clouds 16 1011 14 10000 12.86 30 15:40 10.04.2022
2735 Clouds 17 1010 14 10000 10.29 320 14:42 10.04.2022
2736 Clear 18 1009 14 10000 11.32 310 13:44 10.04.2022
2737 Clouds 20 1007 15 10000 11.32 20 12:32 10.04.2022
2738 Clouds 22 1007 12 10000 10.8 340 11:44 10.04.2022
2739 Clouds 21 1006 12 10000 8.75 20 11:18 10.04.2022
2740 Clouds 23 1007 8 10000 9.26 340 10:31 10.04.2022
2741 Clouds 24 1006 7 10000 8.23 320 09:41 10.04.2022
2742 Clear 25 1004 9 10000 10.29 340 08:28 10.04.2022
2743 Clear 25 1002 11 10000 5.66 360 07:57 10.04.2022
2744 Clear 26 1003 14 10000 5.19 323 06:59 10.04.2022
2745 Clouds 31 1001 8 10000 8.23 250 03:37 10.04.2022
2746 Clouds 32 1002 9 10000 9.39 260 02:18 10.04.2022
2747 Clouds 33 1004 11 10000 7.72 230 23:53 09.04.2022
2748 Clouds 32 1005 12 10000 8.75 240 22:54 09.04.2022
2749 Clouds 32 1005 12 10000 8.75 240 22:54 09.04.2022
2750 Clouds 32 1005 12 10000 8.75 240 22:33 09.04.2022
2751 Clear 30 1006 13 10000 5.14 240 21:19 09.04.2022
2752 Clouds 28 1007 14 10000 3.09 220 20:30 09.04.2022
2753 Clear 28 1006 15 10000 1.34 315 19:56 09.04.2022
2754 Clear 27 1007 15 10000 4.63 340 19:38 09.04.2022
2755 Clouds 23 1008 18 10000 8.23 220 18:23 09.04.2022
2756 Clouds 20 1009 17 10000 3.6 320 17:48 09.04.2022
2757 Clouds 21 1006 20 10000 1.01 202 16:56 09.04.2022
2758 Clouds 19 1008 19 10000 2.06 310 16:29 09.04.2022
2759 Clouds 19 1009 19 10000 2.06 330 15:49 09.04.2022
2760 Clouds 18 1009 19 10000 5.14 50 15:25 09.04.2022
2761 Clouds 19 1009 18 10000 5.66 210 14:25 09.04.2022
2762 Smoke 20 1009 17 10000 3.09 190 13:26 09.04.2022
2763 Smoke 20 1010 17 10000 5.66 210 12:53 09.04.2022
2764 Smoke 20 1011 16 10000 6.17 180 11:44 09.04.2022
2765 Clear 21 1011 15 10000 6.17 190 10:41 09.04.2022
2766 Clear 21 1011 15 10000 6.17 190 10:18 09.04.2022
2767 Clear 21 1012 13 10000 5.66 210 09:21 09.04.2022
2768 Clear 23 1012 16 10000 3.09 180 07:49 09.04.2022
2769 Clouds 30 1013 10 10000 2.57 300 03:22 09.04.2022
2770 Clouds 30 1016 10 10000 3.09 140 00:33 09.04.2022
2771 Clouds 30 1018 11 10000 2.57 0 23:20 08.04.2022
2772 Clouds 28 1019 11 10000 5.14 80 21:42 08.04.2022
2773 Clear 26 1020 13 10000 5.66 60 20:41 08.04.2022
2774 Clouds 25 1021 13 10000 5.14 60 19:41 08.04.2022
2775 Clouds 23 1022 15 10000 3.6 60 18:38 08.04.2022
2776 Clear 22 1020 18 10000 0.45 177 17:59 08.04.2022
2777 Clouds 20 1022 17 10000 1.54 230 17:27 08.04.2022
2778 Clouds 17 1022 21 10000 2.57 20 16:52 08.04.2022
2779 Clouds 16 1022 22 10000 2.57 20 16:22 08.04.2022
2780 Clear 16 1022 20 10000 1.54 280 15:28 08.04.2022
2781 Clear 16 1021 21 10000 2.68 200 14:44 08.04.2022
2782 Clear 16 1021 20 10000 3.6 160 13:55 08.04.2022
2783 Clear 16 1021 20 10000 3.6 160 13:30 08.04.2022
2784 Clear 17 1021 18 10000 3.6 320 12:45 08.04.2022
2785 Clear 17 1020 20 10000 3.09 80 10:56 08.04.2022
2786 Clear 19 1022 15 10000 4.12 70 09:41 08.04.2022
2787 Clear 20 1020 16 10000 1.29 355 08:59 08.04.2022
2788 Clear 20 1021 13 10000 3.13 280 07:42 08.04.2022
2789 Clear 22 1021 10 10000 3.09 70 06:44 08.04.2022
2790 Clear 28 1022 8 10000 6.69 50 02:37 08.04.2022
2791 Clear 28 1023 8 10000 7.2 80 00:29 08.04.2022
2792 Clear 28 1024 7 10000 8.75 40 23:42 07.04.2022
2793 Clear 27 1025 8 10000 6.17 10 22:41 07.04.2022
2794 Clear 26 1025 8 10000 7.2 20 22:23 07.04.2022
2795 Clear 26 1024 11 10000 7.2 20 21:58 07.04.2022
2796 Clear 25 1026 10 10000 5.66 30 21:28 07.04.2022
2797 Clear 24 1027 11 10000 3.09 40 20:42 07.04.2022
2798 Clear 22 1028 12 10000 2.57 60 19:51 07.04.2022
2799 Clear 17 1028 15 10000 3.6 70 17:29 07.04.2022
2800 Clear 16 1026 19 10000 0.45 278 16:59 07.04.2022
2801 Clear 14 1027 17 10000 2.06 30 16:33 07.04.2022
2802 Clear 14 1027 15 10000 4.63 50 15:40 07.04.2022
2803 Clear 13 1026 19 10000 6.69 40 13:54 07.04.2022
2804 Clear 13 1026 20 10000 6.69 40 13:23 07.04.2022
2805 Clear 15 1026 17 10000 8.23 30 11:52 07.04.2022
2806 Clear 16 1026 17 10000 7.72 60 10:46 07.04.2022
2807 Clear 18 1025 15 10000 6.26 30 08:43 07.04.2022
2808 Clear 19 1023 18 10000 1.34 78 06:59 07.04.2022
2809 Clear 21 1024 13 10000 5.81 60 05:21 07.04.2022
2810 Clear 25 1022 11 10000 10.29 40 02:34 07.04.2022
2811 Clear 25 1023 11 10000 8.75 50 00:43 07.04.2022
2812 Clear 24 1024 11 10000 9.26 40 23:28 06.04.2022
2813 Clear 23 1024 12 10000 10.8 30 22:44 06.04.2022
2814 Clear 23 1024 12 10000 10.8 30 22:20 06.04.2022
2815 Clear 21 1025 14 10000 8.94 50 20:47 06.04.2022
2816 Clear 21 1022 16 10000 4.02 32 19:59 06.04.2022
2817 Clear 19 1025 15 10000 10.29 40 19:24 06.04.2022
2818 Clear 18 1024 16 10000 12.86 40 18:48 06.04.2022
2819 Clear 17 1024 18 10000 10.8 50 17:36 06.04.2022
2820 Clear 16 1021 20 10000 9.26 50 16:56 06.04.2022
2821 Clear 16 1022 19 10000 9.83 40 16:32 06.04.2022
2822 Clear 15 1021 20 10000 9.83 40 15:43 06.04.2022
2823 Clear 17 1018 19 10000 9.26 50 13:48 06.04.2022
2824 Clear 18 1017 18 10000 9.83 30 12:30 06.04.2022
2825 Clear 21 1015 16 10000 9.77 50 10:57 06.04.2022
2826 Clear 21 1015 14 10000 9.77 50 10:33 06.04.2022
2827 Clear 22 1015 12 10000 8.23 40 09:46 06.04.2022
2828 Clear 23 1014 15 10000 4.79 1 08:59 06.04.2022
2829 Clear 24 1012 13 10000 7.2 350 07:59 06.04.2022
2830 Clear 27 1011 11 10000 12.52 340 05:45 06.04.2022
2831 Clouds 32 1010 11 10000 11.83 310 00:45 06.04.2022
2832 Clouds 32 1011 12 10000 10.8 340 23:48 05.04.2022
2833 Clouds 30 1012 15 10000 11.32 310 21:51 05.04.2022
2834 Clouds 29 1010 20 10000 2.07 58 20:59 05.04.2022
2835 Clouds 28 1013 14 10000 11.32 310 20:23 05.04.2022
2836 Clouds 25 1011 18 10000 9.26 320 18:31 05.04.2022
2837 Clouds 22 1011 21 10000 5.66 290 17:21 05.04.2022
2838 Clouds 20 1012 22 10000 4.63 300 16:42 05.04.2022
2839 Clear 19 1011 22 10000 5.66 220 15:51 05.04.2022
2840 Clear 19 1011 22 10000 5.66 220 15:31 05.04.2022
2841 Clear 19 1010 20 10000 5.14 200 13:49 05.04.2022
2842 Clear 20 1010 20 10000 6.17 210 12:33 05.04.2022
2843 Clear 22 1010 18 10000 5.66 170 11:43 05.04.2022
2844 Clear 22 1010 17 10000 5.66 170 11:24 05.04.2022
2845 Clouds 22 1010 18 10000 4.12 170 09:31 05.04.2022
2846 Clouds 23 1010 17 10000 5.14 210 08:33 05.04.2022
2847 Clouds 27 1008 13 10000 4.63 280 04:19 05.04.2022
2848 Clouds 29 1010 13 10000 5.14 310 23:45 04.04.2022
2849 Clouds 28 1010 14 10000 4.12 320 22:38 04.04.2022
2850 Clouds 27 1011 14 10000 3.09 260 21:51 04.04.2022
2851 Clouds 28 1011 15 10000 3.09 260 21:20 04.04.2022
2852 Clouds 26 1012 18 10000 3.09 0 20:47 04.04.2022
2853 Clouds 24 1012 22 10000 4.63 230 19:30 04.04.2022
2854 Clouds 22 1011 25 10000 5.66 210 18:44 04.04.2022
2855 Clear 19 1010 32 10000 3.09 180 17:21 04.04.2022
2856 Clear 16 1010 32 10000 5.66 210 16:34 04.04.2022
2857 Clear 16 1009 33 10000 3.6 190 15:34 04.04.2022
2858 Clear 16 1009 32 10000 2.57 310 14:46 04.04.2022
2859 Clear 16 1009 33 10000 2.57 310 14:28 04.04.2022
2860 Clear 16 1006 34 10000 1.46 281 12:59 04.04.2022
2861 Clouds 18 1009 32 10000 3.09 330 11:29 04.04.2022
2862 Clouds 18 1009 31 10000 3.09 310 10:29 04.04.2022
2863 Clouds 21 1007 29 10000 2.23 290 06:58 04.04.2022
2864 Clouds 25 1008 19 10000 3.6 50 03:18 04.04.2022
2865 Clouds 26 1011 20 10000 3.6 340 23:47 03.04.2022
2866 Clouds 25 1012 21 10000 5.14 80 22:24 03.04.2022
2867 Clouds 25 1012 21 10000 6.69 80 21:32 03.04.2022
2868 Clouds 24 1013 22 10000 9.26 60 20:35 03.04.2022
2869 Clouds 22 1013 27 10000 6.17 60 18:51 03.04.2022
2870 Clear 20 1012 31 10000 5.66 60 17:57 03.04.2022
2871 Clouds 19 1012 29 10000 5.66 60 17:37 03.04.2022
2872 Clouds 17 1012 31 10000 6.17 40 16:50 03.04.2022
2873 Clouds 17 1010 32 10000 0.65 54 15:59 03.04.2022
2874 Clouds 18 1011 28 10000 4.12 210 14:27 03.04.2022
2875 Clouds 18 1011 27 10000 4.63 200 13:38 03.04.2022
2876 Clouds 19 1009 27 10000 0.52 202 11:59 03.04.2022
2877 Clouds 21 1011 23 10000 6.17 200 10:22 03.04.2022
2878 Clouds 21 1011 20 10000 6.17 200 09:19 03.04.2022
2879 Clouds 24 1011 19 10000 7.2 170 06:41 03.04.2022
2880 Clear 28 1009 19 10000 7.2 100 02:56 03.04.2022
2881 Clouds 29 1011 16 10000 4.02 169 00:29 03.04.2022
2882 Clouds 28 1013 17 10000 5.66 140 22:52 02.04.2022
2883 Clear 28 1012 19 10000 3.09 160 21:57 02.04.2022
2884 Clouds 27 1014 19 10000 3.6 100 21:26 02.04.2022
2885 Clouds 25 1014 22 10000 4.12 30 20:39 02.04.2022
2886 Clear 22 1015 25 10000 2.06 300 18:51 02.04.2022
2887 Clear 21 1014 26 10000 2.06 300 18:20 02.04.2022
2888 Clear 19 1014 29 10000 1.54 290 17:43 02.04.2022
2889 Clear 16 1012 36 10000 0.5 192 15:59 02.04.2022
2890 Clear 16 1013 33 10000 3.09 310 15:20 02.04.2022
2891 Clear 16 1013 32 10000 2.06 330 14:32 02.04.2022
2892 Clear 16 1013 31 10000 2.57 200 13:34 02.04.2022
2893 Clear 17 1013 31 10000 3.09 180 12:34 02.04.2022
2894 Clear 18 1013 28 10000 3.09 190 10:50 02.04.2022
2895 Clear 20 1012 27 10000 2.68 250 08:44 02.04.2022
2896 Clear 21 1010 28 10000 0.75 84 05:58 02.04.2022
2897 Clear 26 1010 18 10000 3.6 350 03:31 02.04.2022
2898 Clouds 26 1012 20 10000 4.63 20 23:55 01.04.2022
2899 Clouds 25 1013 21 10000 2.68 0 22:55 01.04.2022
2900 Clouds 24 1013 21 10000 4.12 50 21:31 01.04.2022
2901 Clouds 23 1013 22 10000 6.17 50 20:50 01.04.2022
2902 Clouds 22 1014 21 10000 5.66 30 19:51 01.04.2022
2903 Clouds 22 1014 21 10000 5.66 30 19:27 01.04.2022
2904 Clouds 21 1013 22 10000 5.66 340 18:42 01.04.2022
2905 Clouds 19 1012 24 10000 6.17 330 17:46 01.04.2022
2906 Clouds 16 1011 26 10000 5.14 330 16:34 01.04.2022
2907 Clouds 15 1010 28 10000 5.81 10 15:19 01.04.2022
2908 Clouds 16 1009 32 10000 5.14 320 14:18 01.04.2022
2909 Clouds 16 1009 34 10000 3.6 200 13:32 01.04.2022
2910 Clouds 16 1008 33 10000 5.66 320 12:32 01.04.2022
2911 Clouds 17 1008 32 10000 3.6 330 11:18 01.04.2022
2912 Clouds 19 1008 29 10000 3.09 190 09:53 01.04.2022
2913 Clouds 20 1005 31 10000 0.89 304 07:59 01.04.2022
2914 Clouds 21 1006 27 10000 5.66 150 06:30 01.04.2022
2915 Clouds 23 1005 23 10000 6.17 130 04:45 01.04.2022
2916 Clouds 25 1005 19 10000 4.63 40 03:41 01.04.2022
2917 Clouds 25 1005 19 10000 2.24 0 01:53 01.04.2022
2918 Clouds 25 1007 23 10000 3.09 210 22:56 31.03.2022
2919 Clouds 23 1009 24 10000 2.24 0 21:49 31.03.2022
2920 Clouds 22 1009 24 10000 2.24 0 21:22 31.03.2022
2921 Clouds 21 1010 26 10000 2.57 220 20:28 31.03.2022
2922 Clouds 20 1010 29 10000 2.57 210 19:46 31.03.2022
2923 Clouds 18 1010 31 10000 4.12 210 18:38 31.03.2022
2924 Clouds 16 1009 34 10000 3.6 350 17:32 31.03.2022
2925 Clouds 15 1009 37 10000 4.12 210 16:18 31.03.2022
2926 Clouds 14 1008 37 10000 5.14 200 15:33 31.03.2022
2927 Clouds 15 1008 35 10000 6.17 200 14:52 31.03.2022
2928 Clouds 15 1008 35 10000 6.17 200 14:20 31.03.2022
2929 Clouds 18 1007 30 10000 7.72 200 11:32 31.03.2022
2930 Clouds 19 1008 27 10000 5.66 200 10:41 31.03.2022
2931 Clouds 20 1009 24 10000 3.6 160 09:43 31.03.2022
2932 Clouds 21 1009 21 10000 4.63 130 07:49 31.03.2022
2933 Clouds 24 1007 20 10000 0.89 110 03:57 31.03.2022
2934 Clouds 25 1013 18 10000 3.6 40 23:27 30.03.2022
2935 Clouds 24 1014 18 10000 5.36 20 22:20 30.03.2022
2936 Clouds 23 1015 20 10000 5.66 330 21:32 30.03.2022
2937 Clouds 23 1015 21 10000 7.72 330 20:44 30.03.2022
2938 Clouds 22 1016 24 10000 5.81 320 19:54 30.03.2022
2939 Clouds 20 1015 27 10000 5.66 340 18:50 30.03.2022
2940 Clouds 20 1015 27 10000 5.66 340 18:50 30.03.2022
2941 Clouds 18 1015 33 10000 4.12 320 17:52 30.03.2022
2942 Clouds 17 1015 35 10000 4.12 320 17:29 30.03.2022
2943 Clouds 15 1014 37 10000 4.12 350 16:41 30.03.2022
2944 Clouds 15 1014 38 10000 4.12 350 16:18 30.03.2022
2945 Clouds 15 1013 37 10000 3.6 340 14:42 30.03.2022
2946 Clear 16 1013 36 10000 5.14 310 13:26 30.03.2022
2947 Clouds 16 1013 39 10000 3.09 330 12:32 30.03.2022
2948 Clouds 17 1013 40 10000 3.13 311 10:48 30.03.2022
2949 Clear 17 1012 39 10000 0.89 333 09:58 30.03.2022
2950 Clouds 18 1012 39 10000 5.66 100 08:27 30.03.2022
2951 Clouds 20 1011 30 10000 7.2 70 07:28 30.03.2022
2952 Clouds 21 1009 29 10000 5.14 270 05:40 30.03.2022
2953 Clouds 22 1008 28 10000 7.72 340 02:40 30.03.2022
2954 Clouds 20 1009 35 10000 9.77 330 22:43 29.03.2022
2955 Clouds 19 1009 39 10000 8.75 320 21:52 29.03.2022
2956 Clouds 18 1009 40 10000 8.75 320 21:34 29.03.2022
2957 Clouds 16 1009 44 10000 7.72 330 20:26 29.03.2022
2958 Clouds 15 1009 49 10000 8.23 340 19:32 29.03.2022
2959 Clouds 15 1008 58 10000 5.66 230 18:53 29.03.2022
2960 Clouds 13 1008 65 10000 3.6 210 17:52 29.03.2022
2961 Clouds 12 1007 68 10000 3.6 210 17:18 29.03.2022
2962 Clouds 11 1007 73 10000 2.57 180 16:52 29.03.2022
2963 Clouds 10 1006 80 10000 2.06 170 15:29 29.03.2022
2964 Clouds 10 1006 81 10000 2.24 360 14:43 29.03.2022
2965 Clouds 10 1005 80 10000 2.57 80 13:34 29.03.2022
2966 Clouds 11 1005 78 10000 3.09 280 12:21 29.03.2022
2967 Clouds 11 1003 74 10000 0.65 304 10:59 29.03.2022
2968 Clouds 11 1003 71 10000 0.89 112 09:58 29.03.2022
2969 Clouds 12 1005 72 10000 5.66 80 08:44 29.03.2022
2970 Clouds 12 1006 73 9656 6.17 180 06:48 29.03.2022
2971 Clouds 23 1000 21 10000 10.8 190 02:27 29.03.2022
2972 Clouds 26 1003 11 10000 14.92 160 23:26 28.03.2022
2973 Clouds 25 1003 16 10000 14.92 170 22:57 28.03.2022
2974 Clouds 26 1004 10 10000 16.46 200 22:31 28.03.2022
2975 Dust 25 1004 10 10000 15.95 200 21:38 28.03.2022
2976 Clouds 25 1005 12 10000 12.35 150 20:32 28.03.2022
2977 Clouds 23 1006 16 10000 11.32 170 19:48 28.03.2022
2978 Clouds 23 1006 16 10000 11.32 170 19:30 28.03.2022
2979 Clouds 22 1006 18 10000 8.75 170 18:44 28.03.2022
2980 Clouds 21 1007 19 10000 11.32 180 17:41 28.03.2022
2981 Clouds 20 1006 20 10000 7.72 180 16:47 28.03.2022
2982 Clouds 21 1006 18 10000 4.12 180 14:53 28.03.2022
2983 Clouds 21 1006 17 10000 4.12 180 14:23 28.03.2022
2984 Clouds 21 1007 17 10000 3.09 130 12:51 28.03.2022
2985 Clouds 21 1007 17 10000 3.09 170 11:42 28.03.2022
2986 Clouds 21 1007 15 10000 4.63 190 09:47 28.03.2022
2987 Clouds 21 1007 15 10000 4.63 190 09:20 28.03.2022
2988 Clouds 23 1007 13 10000 6.17 200 08:23 28.03.2022
2989 Clear 22 1005 13 10000 3.06 196 07:56 28.03.2022
2990 Clouds 26 1006 10 10000 8.75 180 05:55 28.03.2022
2991 Clouds 30 1007 10 10000 9.77 180 23:53 27.03.2022
2992 Clouds 30 1008 12 10000 6.69 150 22:25 27.03.2022
2993 Clouds 30 1008 12 10000 6.69 150 22:25 27.03.2022
2994 Clouds 30 1008 12 10000 6.69 150 22:25 27.03.2022
2995 Clouds 29 1009 13 10000 7.2 150 21:42 27.03.2022
2996 Clouds 29 1006 17 10000 6.79 178 20:58 27.03.2022
2997 Clouds 27 1010 15 10000 5.66 160 20:18 27.03.2022
2998 Clouds 24 1010 17 10000 4.12 130 19:34 27.03.2022
2999 Clouds 22 1009 20 10000 3.6 180 18:29 27.03.2022
3000 Clouds 20 1009 23 10000 4.12 200 17:42 27.03.2022
3001 Clouds 19 1009 24 10000 4.12 200 17:23 27.03.2022
3002 Clouds 18 1008 23 10000 4.12 200 15:39 27.03.2022
3003 Clear 19 1008 23 10000 2.57 320 13:57 27.03.2022
3004 Clouds 20 1008 18 10000 3.13 190 12:50 27.03.2022
3005 Clouds 21 1008 17 10000 4.12 200 11:30 27.03.2022
3006 Clear 23 1009 14 10000 3.6 10 09:32 27.03.2022
3007 Clouds 26 1009 11 10000 7.2 180 06:44 27.03.2022
3008 Clouds 33 1008 9 10000 8.23 150 01:41 27.03.2022
3009 Clouds 33 1008 10 10000 7.2 100 00:25 27.03.2022
3010 Clouds 32 1010 8 10000 5.14 160 22:45 26.03.2022
3011 Clear 31 1011 12 10000 3.6 90 21:50 26.03.2022
3012 Clouds 30 1012 12 10000 3.6 90 21:26 26.03.2022
3013 Clouds 27 1013 15 10000 3.6 90 19:31 26.03.2022
3014 Clouds 24 1013 18 10000 3.6 70 17:54 26.03.2022
3015 Clouds 23 1013 19 10000 3.6 70 17:33 26.03.2022
3016 Clouds 20 1013 24 10000 5.14 70 16:27 26.03.2022
3017 Clouds 18 1014 23 10000 3.6 180 15:23 26.03.2022
3018 Clouds 19 1013 21 10000 3.6 180 13:54 26.03.2022
3019 Clouds 19 1013 21 10000 3.6 180 13:18 26.03.2022
3020 Clouds 20 1013 21 10000 4.63 180 11:41 26.03.2022
3021 Clouds 21 1014 19 10000 5.66 190 10:29 26.03.2022
3022 Clouds 23 1014 16 10000 4.63 200 08:44 26.03.2022
3023 Clouds 25 1014 17 10000 3.6 220 06:25 26.03.2022
3024 Clouds 26 1014 17 10000 6.17 200 05:22 26.03.2022
3025 Clouds 32 1013 12 10000 4.12 110 00:28 26.03.2022
3026 Clouds 29 1017 14 10000 2.24 70 21:51 25.03.2022
3027 Clouds 28 1018 14 10000 3.6 110 20:46 25.03.2022
3028 Clouds 28 1018 16 10000 3.6 110 20:20 25.03.2022
3029 Clouds 25 1019 17 10000 1.54 10 18:47 25.03.2022
3030 Clouds 22 1019 20 10000 1.54 150 17:47 25.03.2022
3031 Clouds 21 1019 21 10000 1.54 150 17:27 25.03.2022
3032 Clouds 18 1019 27 10000 3.09 180 16:18 25.03.2022
3033 Clear 16 1018 28 10000 2.57 210 14:26 25.03.2022
3034 Clear 16 1017 27 10000 1.54 40 12:57 25.03.2022
3035 Clear 18 1017 25 10000 4.12 190 10:22 25.03.2022
3036 Clear 19 1017 23 10000 3.6 320 09:28 25.03.2022
3037 Clear 20 1017 23 10000 2.57 180 07:54 25.03.2022
3038 Clear 20 1017 20 10000 2.57 320 07:28 25.03.2022
3039 Clear 22 1016 20 10000 2.57 180 05:55 25.03.2022
3040 Clouds 29 1016 14 10000 3.09 120 00:46 25.03.2022
3041 Clouds 27 1018 13 10000 3.09 30 22:39 24.03.2022
3042 Clouds 26 1019 13 10000 2.68 350 21:42 24.03.2022
3043 Clouds 24 1020 12 10000 2.06 30 20:26 24.03.2022
3044 Clouds 23 1021 14 10000 2.57 90 19:47 24.03.2022
3045 Clouds 19 1021 19 10000 0.89 127 17:47 24.03.2022
3046 Clouds 18 1021 20 10000 0.89 115 17:19 24.03.2022
3047 Clouds 13 1020 27 10000 3.09 170 15:21 24.03.2022
3048 Clear 12 1020 24 10000 2.57 290 14:43 24.03.2022
3049 Clear 12 1020 24 10000 2.57 290 14:18 24.03.2022
3050 Clear 13 1020 24 10000 3.6 180 12:52 24.03.2022
3051 Clear 14 1020 22 10000 3.6 170 11:44 24.03.2022
3052 Clear 15 1020 21 10000 4.63 160 09:53 24.03.2022
3053 Clear 15 1020 20 10000 2.68 210 08:41 24.03.2022
3054 Clear 17 1020 18 10000 2.57 200 06:49 24.03.2022
3055 Clear 24 1019 13 10000 4.12 50 02:24 24.03.2022
3056 Clear 24 1022 13 10000 2.68 30 23:20 23.03.2022
3057 Clear 22 1024 16 10000 2.57 120 21:27 23.03.2022
3058 Clear 22 1022 20 10000 0.89 126 20:59 23.03.2022
3059 Clear 20 1025 20 10000 5.14 60 19:45 23.03.2022
3060 Clear 19 1026 22 10000 3.6 30 18:36 23.03.2022
3061 Clear 17 1026 25 10000 0.89 132 17:36 23.03.2022
3062 Clear 14 1026 30 10000 2.06 240 16:33 23.03.2022
3063 Clear 12 1026 35 10000 2.57 70 14:51 23.03.2022
3064 Clear 12 1026 35 10000 2.57 70 14:24 23.03.2022
3065 Clear 13 1025 32 10000 6.69 60 12:50 23.03.2022
3066 Clear 16 1024 28 10000 9.77 20 09:42 23.03.2022
3067 Clear 18 1023 25 10000 8.75 40 06:41 23.03.2022
3068 Clear 20 1021 24 10000 3.6 80 04:41 23.03.2022
3069 Clouds 24 1020 19 10000 4.63 70 00:29 23.03.2022
3070 Clouds 23 1021 21 10000 7.72 40 22:46 22.03.2022
3071 Clouds 22 1023 23 10000 6.26 80 21:29 22.03.2022
3072 Clouds 21 1023 24 10000 8.23 40 20:40 22.03.2022
3073 Clouds 20 1024 25 10000 9.26 30 19:41 22.03.2022
3074 Clear 20 1024 26 10000 9.26 30 19:18 22.03.2022
3075 Clouds 18 1024 27 10000 12.86 30 18:22 22.03.2022
3076 Clouds 17 1024 29 10000 7.2 340 17:29 22.03.2022
3077 Clouds 14 1023 32 10000 7.72 330 16:21 22.03.2022
3078 Clouds 11 1023 34 10000 4.12 20 15:22 22.03.2022
3079 Clouds 12 1023 33 10000 6.69 340 14:46 22.03.2022
3080 Clouds 12 1023 33 10000 6.69 340 14:27 22.03.2022
3081 Clouds 12 1022 31 10000 6.69 50 13:27 22.03.2022
3082 Clouds 12 1022 29 10000 5.66 60 11:52 22.03.2022
3083 Clouds 13 1021 27 10000 8.23 70 10:35 22.03.2022
3084 Clouds 14 1020 25 10000 8.75 50 08:24 22.03.2022
3085 Clouds 17 1018 20 10000 6.69 50 05:21 22.03.2022
3086 Clouds 20 1017 17 10000 3.6 110 03:46 22.03.2022
3087 Clouds 22 1017 19 10000 4.02 32 23:59 21.03.2022
3088 Clouds 20 1019 15 10000 7.2 310 22:29 21.03.2022
3089 Clouds 18 1020 16 10000 5.66 10 20:54 21.03.2022
3090 Clouds 17 1021 16 10000 6.69 340 20:34 21.03.2022
3091 Clouds 17 1019 20 10000 7.59 2 19:58 21.03.2022
3092 Clouds 16 1022 17 10000 7.72 330 19:27 21.03.2022
3093 Clouds 15 1022 18 10000 9.77 20 18:18 21.03.2022
3094 Clouds 13 1022 19 10000 7.72 20 17:18 21.03.2022
3095 Clouds 12 1022 21 10000 7.72 20 16:42 21.03.2022
3096 Clouds 10 1020 23 10000 6.69 350 15:48 21.03.2022
3097 Clouds 10 1020 23 10000 6.69 350 15:19 21.03.2022
3098 Clear 10 1019 25 10000 3.58 52 13:58 21.03.2022
3099 Clouds 11 1019 18 10000 7.72 30 12:35 21.03.2022
3100 Clouds 12 1018 16 10000 8.75 40 11:45 21.03.2022
3101 Clouds 12 1017 15 10000 8.23 40 10:36 21.03.2022
3102 Clouds 13 1016 13 10000 8.75 350 08:30 21.03.2022
3103 Clouds 15 1014 13 10000 16.09 330 06:48 21.03.2022
3104 Clouds 18 1011 10 10000 13.41 340 02:51 21.03.2022
3105 Clouds 21 1009 17 10000 10.8 320 23:43 20.03.2022
3106 Clouds 21 1009 20 10000 10.8 330 22:44 20.03.2022
3107 Clouds 20 1010 23 10000 13.41 310 21:52 20.03.2022
3108 Clouds 20 1010 23 10000 13.41 310 21:25 20.03.2022
3109 Clouds 19 1010 27 10000 13.38 330 20:43 20.03.2022
3110 Clouds 17 1010 34 10000 6.17 300 19:59 20.03.2022
3111 Clouds 16 1010 33 10000 11.32 340 19:31 20.03.2022
3112 Clouds 16 1009 33 10000 11.32 330 18:22 20.03.2022
3113 Clouds 16 1008 35 10000 11.83 320 17:33 20.03.2022
3114 Clouds 15 1008 38 10000 10.8 310 16:57 20.03.2022
3115 Clouds 12 1007 45 10000 7.72 310 15:34 20.03.2022
3116 Clouds 12 1007 45 10000 5.14 230 14:35 20.03.2022
3117 Clouds 13 1006 40 10000 12.86 330 12:35 20.03.2022
3118 Clouds 14 1006 37 10000 7.72 210 11:23 20.03.2022
3119 Clouds 15 1006 42 10000 11.83 240 09:26 20.03.2022
3120 Clouds 17 1006 36 10000 9.77 200 07:28 20.03.2022
3121 Clouds 20 1006 26 10000 9.77 240 05:40 20.03.2022
3122 Clouds 25 1006 10 10000 11.32 190 01:50 20.03.2022
3123 Clouds 26 1007 10 10000 11.83 180 00:45 20.03.2022
3124 Clouds 25 1008 12 10000 10.8 190 23:19 19.03.2022
3125 Clouds 22 1012 15 10000 4.63 70 21:28 19.03.2022
3126 Clouds 21 1014 17 10000 5.14 60 20:49 19.03.2022
3127 Clouds 20 1014 19 10000 1.79 123 18:58 19.03.2022
3128 Clouds 17 1016 18 10000 4.12 70 18:24 19.03.2022
3129 Clouds 16 1016 22 10000 0 0 17:35 19.03.2022
3130 Clouds 12 1016 22 10000 4.63 80 15:46 19.03.2022
3131 Clear 12 1017 24 10000 4.63 90 14:57 19.03.2022
3132 Clouds 12 1016 22 10000 4.12 60 13:19 19.03.2022
3133 Clear 12 1016 24 10000 2.57 290 12:40 19.03.2022
3134 Clear 13 1016 22 10000 3.6 210 11:54 19.03.2022
3135 Clear 13 1016 22 10000 3.6 210 11:54 19.03.2022
3136 Clear 13 1017 21 10000 4.12 180 10:53 19.03.2022
3137 Clear 15 1017 20 10000 4.12 200 07:33 19.03.2022
3138 Clouds 20 1016 15 10000 3.6 120 03:49 19.03.2022
3139 Clouds 23 1016 12 10000 4.12 80 02:29 19.03.2022
3140 Clouds 24 1017 13 10000 2.68 50 23:45 18.03.2022
3141 Clouds 22 1018 13 10000 2.06 100 22:28 18.03.2022
3142 Clouds 22 1019 14 10000 3.13 0 21:45 18.03.2022
3143 Clouds 20 1020 16 10000 3.6 60 19:52 18.03.2022
3144 Clouds 20 1020 16 10000 3.6 60 19:52 18.03.2022
3145 Clouds 19 1020 16 10000 3.6 60 19:21 18.03.2022
3146 Clear 16 1020 20 10000 2.57 310 17:52 18.03.2022
3147 Clear 12 1020 22 10000 2.06 300 16:49 18.03.2022
3148 Clear 10 1019 23 10000 4.12 190 15:32 18.03.2022
3149 Clear 10 1018 24 10000 3.09 180 14:23 18.03.2022
3150 Clear 10 1018 24 10000 3.6 180 12:36 18.03.2022
3151 Clouds 11 1018 23 10000 3.09 170 10:53 18.03.2022
3152 Clouds 11 1018 22 10000 2.57 310 09:30 18.03.2022
3153 Clouds 12 1018 23 10000 3.6 160 08:32 18.03.2022
3154 Clouds 14 1018 21 10000 3.09 40 06:35 18.03.2022
3155 Clouds 18 1016 18 10000 3.09 60 02:57 18.03.2022
3156 Clouds 20 1018 15 10000 2.57 330 00:23 18.03.2022
3157 Clouds 21 1019 14 10000 4.63 60 23:38 17.03.2022
3158 Clouds 20 1020 16 10000 4.63 30 22:25 17.03.2022
3159 Clouds 20 1022 17 10000 5.66 50 21:48 17.03.2022
3160 Clouds 19 1022 18 10000 5.66 50 21:23 17.03.2022
3161 Clouds 19 1023 20 10000 6.17 30 20:45 17.03.2022
3162 Clouds 17 1023 23 10000 7.2 30 19:50 17.03.2022
3163 Clouds 17 1023 23 10000 7.2 30 19:28 17.03.2022
3164 Clouds 16 1023 25 10000 6.69 50 18:46 17.03.2022
3165 Clear 14 1021 31 10000 1.81 42 16:57 17.03.2022
3166 Clouds 11 1022 29 10000 6.69 90 15:44 17.03.2022
3167 Clouds 11 1021 28 10000 9.26 30 15:25 17.03.2022
3168 Clear 11 1020 28 10000 8.23 50 14:29 17.03.2022
3169 Clear 13 1019 28 10000 5.36 360 12:54 17.03.2022
3170 Clear 14 1019 27 10000 7.72 330 12:23 17.03.2022
3171 Clear 14 1019 28 10000 4.63 350 11:27 17.03.2022
3172 Clear 14 1019 34 10000 3.6 20 10:29 17.03.2022
3173 Clear 15 1019 37 10000 6.17 60 08:37 17.03.2022
3174 Clouds 15 1018 37 10000 4.63 360 07:34 17.03.2022
3175 Clouds 17 1016 34 10000 7.72 30 05:47 17.03.2022
3176 Clouds 17 1016 34 10000 7.72 30 05:47 17.03.2022
3177 Clouds 23 1012 18 10000 11.32 310 01:30 17.03.2022
3178 Clouds 24 1012 18 10000 7.2 10 23:50 16.03.2022
3179 Clouds 24 1013 19 10000 7.72 350 22:48 16.03.2022
3180 Clouds 24 1013 19 10000 7.72 350 22:30 16.03.2022
3181 Clouds 23 1015 20 10000 8.23 330 21:39 16.03.2022
3182 Clouds 22 1015 24 10000 9.77 320 19:41 16.03.2022
3183 Clouds 22 1015 25 10000 9.77 320 19:20 16.03.2022
3184 Clear 20 1015 29 10000 11.32 310 18:37 16.03.2022
3185 Clouds 19 1015 32 10000 10.8 320 17:43 16.03.2022
3186 Clouds 19 1015 32 10000 10.8 320 17:19 16.03.2022
3187 Clouds 15 1014 35 10000 7.72 320 15:55 16.03.2022
3188 Clouds 16 1013 35 10000 3.09 320 14:25 16.03.2022
3189 Clouds 16 1013 33 10000 3.6 340 13:27 16.03.2022
3190 Clouds 17 1013 29 10000 3.09 180 11:54 16.03.2022
3191 Clouds 17 1014 29 10000 4.12 340 11:20 16.03.2022
3192 Clouds 18 1014 29 10000 6.17 320 10:23 16.03.2022
3193 Clouds 18 1014 25 10000 3.6 320 08:52 16.03.2022
3194 Clouds 18 1014 25 10000 0.45 288 05:58 16.03.2022
3195 Clouds 24 1015 15 10000 3.13 50 01:35 16.03.2022
3196 Clouds 24 1018 16 10000 5.14 30 22:38 15.03.2022
3197 Clouds 23 1020 17 10000 3.6 60 21:52 15.03.2022
3198 Clouds 21 1022 18 10000 3.6 70 20:18 15.03.2022
3199 Clouds 19 1023 22 10000 0.89 115 18:54 15.03.2022
3200 Clouds 14 1022 30 10000 0 0 16:55 15.03.2022
3201 Clouds 12 1023 34 10000 1.54 330 16:28 15.03.2022
3202 Clear 10 1022 37 10000 0.89 298 14:57 15.03.2022
3203 Clouds 10 1022 34 10000 3.6 170 14:34 15.03.2022
3204 Clouds 10 1022 35 10000 3.09 180 13:28 15.03.2022
3205 Smoke 11 1022 32 10000 4.12 210 12:21 15.03.2022
3206 Smoke 12 1023 31 10000 3.6 190 11:29 15.03.2022
3207 Clouds 13 1023 29 10000 3.6 190 09:39 15.03.2022
3208 Clouds 13 1023 28 10000 3.6 160 08:32 15.03.2022
3209 Clouds 14 1023 27 10000 3.09 300 07:50 15.03.2022
3210 Clouds 15 1024 27 10000 3.09 150 06:51 15.03.2022
3211 Clouds 20 1023 19 10000 2.24 130 02:38 15.03.2022
3212 Clouds 20 1023 20 10000 4.63 50 23:38 14.03.2022
3213 Clouds 20 1023 20 10000 4.63 50 23:20 14.03.2022
3214 Clouds 20 1022 24 10000 1.43 58 21:59 14.03.2022
3215 Clouds 19 1025 22 10000 5.66 50 21:20 14.03.2022
3216 Clouds 19 1026 23 10000 6.69 40 20:34 14.03.2022
3217 Clouds 18 1026 24 10000 7.72 30 19:47 14.03.2022
3218 Clouds 16 1026 26 10000 9.26 30 18:23 14.03.2022
3219 Clouds 15 1026 28 10000 6.71 50 17:43 14.03.2022
3220 Clouds 13 1025 28 10000 5.14 60 16:54 14.03.2022
3221 Clouds 11 1024 29 10000 4.12 40 15:29 14.03.2022
3222 Clouds 11 1023 27 10000 5.81 80 14:24 14.03.2022
3223 Clouds 13 1020 22 10000 3.6 330 11:36 14.03.2022
3224 Clouds 14 1020 18 10000 5.14 350 10:23 14.03.2022
3225 Clouds 14 1019 18 10000 2.06 360 09:38 14.03.2022
3226 Clouds 15 1019 17 10000 6.69 10 09:18 14.03.2022
3227 Clouds 15 1018 17 10000 4.12 10 08:46 14.03.2022
3228 Clear 16 1017 16 10000 3.6 320 07:21 14.03.2022
3229 Clear 19 1014 14 10000 3.6 230 04:22 14.03.2022
3230 Clouds 23 1013 13 10000 5.14 190 01:46 14.03.2022
3231 Clouds 22 1013 14 10000 3.6 320 00:35 14.03.2022
3232 Clouds 19 1014 16 10000 1.54 0 21:55 13.03.2022
3233 Clouds 19 1014 16 10000 1.54 0 21:26 13.03.2022
3234 Clouds 17 1015 17 10000 2.68 50 20:46 13.03.2022
3235 Clouds 17 1015 17 10000 2.68 50 20:23 13.03.2022
3236 Clouds 15 1016 19 10000 3.09 10 19:42 13.03.2022
3237 Clouds 15 1016 19 10000 3.09 10 19:23 13.03.2022
3238 Clouds 15 1016 19 10000 3.09 10 19:23 13.03.2022
3239 Clouds 15 1016 19 10000 3.09 10 19:23 13.03.2022
3240 Clouds 15 1016 19 10000 3.09 10 19:23 13.03.2022
3241 Clouds 14 1016 20 10000 5.66 80 18:45 13.03.2022
3242 Clouds 14 1016 20 10000 5.66 80 18:26 13.03.2022
3243 Clouds 12 1016 21 10000 5.14 80 17:39 13.03.2022
3244 Clouds 10 1015 23 10000 4.63 190 16:46 13.03.2022
3245 Clouds 10 1015 23 10000 4.63 190 16:25 13.03.2022
3246 Clouds 9 1014 24 10000 4.12 200 15:42 13.03.2022
3247 Clear 8 1015 23 10000 5.14 200 14:49 13.03.2022
3248 Clear 9 1015 22 10000 4.12 180 13:29 13.03.2022
3249 Clear 9 1015 24 10000 2.57 330 12:25 13.03.2022
3250 Clear 10 1016 22 10000 2.57 340 11:44 13.03.2022
3251 Clear 10 1017 21 10000 4.12 220 10:50 13.03.2022
3252 Clear 11 1017 20 10000 4.12 220 10:30 13.03.2022
3253 Clear 11 1018 20 10000 4.12 200 09:42 13.03.2022
3254 Clear 11 1018 20 10000 4.12 190 08:50 13.03.2022
3255 Clear 12 1018 20 10000 4.12 190 08:30 13.03.2022
3256 Clear 12 1018 18 10000 2.57 180 07:19 13.03.2022
3257 Clear 14 1018 21 10000 0.17 12 04:58 13.03.2022
3258 Clear 20 1019 13 10000 1.54 160 01:48 13.03.2022
3259 Clear 20 1021 12 10000 3.13 90 23:28 12.03.2022
3260 Clear 18 1024 12 10000 2.24 0 21:39 12.03.2022
3261 Clear 17 1025 13 10000 2.68 50 20:19 12.03.2022
3262 Clear 16 1026 13 10000 2.06 10 19:46 12.03.2022
3263 Clear 14 1027 15 10000 2.57 30 18:40 12.03.2022
3264 Clear 12 1027 17 10000 0.45 117 17:49 12.03.2022
3265 Clear 7 1027 23 10000 3.09 160 16:28 12.03.2022
3266 Clear 6 1026 22 10000 4.12 160 15:48 12.03.2022
3267 Clear 6 1026 22 10000 4.12 160 15:19 12.03.2022
3268 Clear 6 1026 21 10000 4.12 160 13:53 12.03.2022
3269 Clear 7 1027 19 10000 4.12 170 12:27 12.03.2022
3270 Clear 8 1027 19 10000 4.63 160 11:52 12.03.2022
3271 Clear 8 1027 19 10000 4.63 160 11:32 12.03.2022
3272 Clear 8 1027 18 10000 3.6 190 10:18 12.03.2022
3273 Clear 8 1027 18 10000 4.63 180 09:41 12.03.2022
3274 Clear 10 1027 17 10000 3.09 200 07:52 12.03.2022
3275 Clear 10 1027 17 10000 3.6 160 06:30 12.03.2022
3276 Clouds 16 1027 12 10000 3.6 20 00:31 12.03.2022
3277 Clouds 15 1027 12 10000 3.09 50 23:38 11.03.2022
3278 Clouds 15 1028 12 10000 2.06 320 22:29 11.03.2022
3279 Clear 13 1029 13 10000 4.12 130 21:23 11.03.2022
3280 Clear 13 1030 14 10000 4.12 70 20:42 11.03.2022
3281 Clear 12 1030 14 10000 4.12 70 20:22 11.03.2022
3282 Clear 11 1030 14 10000 6.69 60 19:29 11.03.2022
3283 Clear 8 1030 19 10000 3.13 60 17:50 11.03.2022
3284 Clear 7 1030 19 10000 3.13 60 17:21 11.03.2022
3285 Clear 3 1028 28 10000 6.17 60 15:57 11.03.2022
3286 Clear 3 1028 24 10000 6.17 60 15:29 11.03.2022
3287 Clear 5 1026 21 10000 6.71 360 13:28 11.03.2022
3288 Clear 4 1026 21 10000 7.2 10 12:30 11.03.2022
3289 Clear 4 1027 24 10000 5.14 40 11:57 11.03.2022
3290 Clear 6 1025 20 10000 6.71 30 10:24 11.03.2022
3291 Clear 6 1025 17 10000 5.81 10 09:32 11.03.2022
3292 Clear 7 1025 18 10000 6.69 10 08:25 11.03.2022
3293 Clear 7 1024 18 10000 7.2 20 07:46 11.03.2022
3294 Clear 8 1023 17 10000 6.69 20 06:25 11.03.2022
3295 Clear 9 1020 16 10000 7.2 30 04:24 11.03.2022
3296 Clouds 12 1017 14 10000 11.83 340 00:39 11.03.2022
3297 Clouds 12 1016 18 10000 13.89 20 22:32 10.03.2022
3298 Clouds 12 1016 21 10000 12.52 340 21:52 10.03.2022
3299 Clouds 12 1016 22 10000 12.52 340 21:24 10.03.2022
3300 Clouds 11 1015 25 10000 11.32 10 19:54 10.03.2022
3301 Clouds 10 1015 26 10000 11.16 342 18:56 10.03.2022
3302 Clouds 11 1013 35 10000 13.38 320 17:37 10.03.2022
3303 Clouds 11 1011 41 10000 9.77 330 16:42 10.03.2022
3304 Clouds 11 1009 49 10000 4.12 20 15:27 10.03.2022
3305 Clouds 13 1008 44 10000 8.75 360 13:30 10.03.2022
3306 Clouds 13 1007 38 10000 10.29 320 12:34 10.03.2022
3307 Clouds 13 1007 33 10000 8.75 330 11:23 10.03.2022
3308 Clouds 14 1007 27 10000 6.17 320 09:27 10.03.2022
3309 Clouds 15 1007 35 10000 7.72 310 07:46 10.03.2022
3310 Clear 17 1006 23 10000 1.45 273 04:59 10.03.2022
3311 Clouds 21 1007 17 10000 5.14 230 01:53 10.03.2022
3312 Clouds 21 1009 18 10000 3.6 160 23:29 09.03.2022
3313 Clouds 20 1011 19 10000 6.69 250 21:54 09.03.2022
3314 Clouds 20 1011 19 10000 6.69 180 21:34 09.03.2022
3315 Clouds 18 1013 21 10000 3.6 210 19:55 09.03.2022
3316 Clouds 15 1014 23 10000 3.6 90 18:34 09.03.2022
3317 Clouds 13 1014 26 10000 3.09 210 17:27 09.03.2022
3318 Clouds 10 1014 30 10000 3.6 200 16:34 09.03.2022
3319 Clouds 8 1013 33 10000 4.12 190 15:31 09.03.2022
3320 Clouds 8 1013 30 10000 5.14 190 13:54 09.03.2022
3321 Clouds 8 1013 29 10000 4.63 210 12:48 09.03.2022
3322 Clear 8 1014 29 10000 5.14 210 11:54 09.03.2022
3323 Clear 9 1013 30 10000 5.14 210 11:35 09.03.2022
3324 Clear 9 1014 28 10000 4.12 180 10:34 09.03.2022
3325 Clear 10 1014 29 10000 1.34 234 08:57 09.03.2022
3326 Clear 10 1015 27 10000 4.63 220 07:54 09.03.2022
3327 Clouds 15 1016 21 10000 1.54 160 02:57 09.03.2022
3328 Clouds 16 1017 19 10000 2.68 0 00:43 09.03.2022
3329 Clouds 16 1019 20 10000 2.68 0 22:47 08.03.2022
3330 Clouds 15 1019 20 10000 2.68 0 22:26 08.03.2022
3331 Clouds 15 1021 22 10000 3.6 90 21:23 08.03.2022
3332 Clouds 14 1022 22 10000 3.09 130 20:35 08.03.2022
3333 Clouds 13 1023 22 10000 3.09 120 19:35 08.03.2022
3334 Clouds 11 1024 24 10000 4.63 340 18:44 08.03.2022
3335 Clouds 9 1024 26 10000 2.68 40 17:30 08.03.2022
3336 Clear 4 1025 34 10000 4.63 50 15:56 08.03.2022
3337 Clear 5 1024 30 10000 5.14 350 14:19 08.03.2022
3338 Clear 6 1024 29 10000 3.6 20 12:43 08.03.2022
3339 Clear 6 1024 28 10000 3.09 90 11:45 08.03.2022
3340 Clear 7 1024 27 10000 4.63 30 10:44 08.03.2022
3341 Clear 7 1024 26 10000 4.63 50 09:43 08.03.2022
3342 Clear 9 1024 23 10000 7.2 20 06:43 08.03.2022
3343 Clear 11 1023 19 10000 4.63 20 04:52 08.03.2022
3344 Clouds 14 1023 18 10000 10.29 30 23:50 07.03.2022
3345 Clouds 13 1025 21 10000 7.2 10 21:54 07.03.2022
3346 Clouds 13 1025 21 10000 7.2 10 21:31 07.03.2022
3347 Clouds 12 1026 21 10000 10.8 320 20:44 07.03.2022
3348 Clouds 11 1026 23 10000 10.8 340 19:55 07.03.2022
3349 Clouds 11 1026 24 10000 11.83 320 19:29 07.03.2022
3350 Clouds 10 1026 25 10000 11.83 340 18:40 07.03.2022
3351 Clouds 9 1025 26 10000 9.77 320 17:41 07.03.2022
3352 Clouds 8 1025 29 10000 5.81 17 16:55 07.03.2022
3353 Clouds 6 1024 30 10000 10.29 320 15:32 07.03.2022
3354 Clouds 7 1022 34 10000 5.36 331 12:54 07.03.2022
3355 Clouds 7 1022 33 10000 6.69 330 12:21 07.03.2022
3356 Clear 8 1022 33 10000 7.2 310 10:36 07.03.2022
3357 Clear 10 1021 29 10000 4.63 330 08:39 07.03.2022
3358 Clouds 13 1019 28 10000 4.12 300 03:41 07.03.2022
3359 Clouds 15 1018 26 10000 5.14 310 00:22 07.03.2022
3360 Clouds 16 1019 26 10000 5.66 300 23:29 06.03.2022
3361 Clouds 15 1019 27 10000 7.72 340 22:32 06.03.2022
3362 Clouds 15 1019 27 10000 7.2 340 21:45 06.03.2022
3363 Clouds 13 1019 30 10000 9.26 320 20:30 06.03.2022
3364 Clouds 13 1019 32 10000 8.23 320 19:50 06.03.2022
3365 Clouds 11 1019 36 10000 7.72 330 18:51 06.03.2022
3366 Clouds 10 1018 42 10000 3.09 150 17:53 06.03.2022
3367 Clouds 9 1018 43 10000 3.09 150 17:20 06.03.2022
3368 Clouds 7 1018 48 10000 3.09 190 16:40 06.03.2022
3369 Clouds 5 1017 54 10000 3.09 280 15:37 06.03.2022
3370 Clouds 5 1016 55 10000 5.66 320 14:49 06.03.2022
3371 Clouds 5 1016 55 10000 5.66 320 14:28 06.03.2022
3372 Clouds 6 1015 55 10000 7.2 320 12:43 06.03.2022
3373 Clear 6 1014 56 10000 8.23 310 11:56 06.03.2022
3374 Clouds 6 1014 56 10000 11.32 300 10:45 06.03.2022
3375 Clouds 6 1013 53 10000 10.29 290 09:34 06.03.2022
3376 Clouds 7 1013 45 10000 10.29 300 08:28 06.03.2022
3377 Clouds 7 1012 41 10000 10.29 310 07:33 06.03.2022
3378 Clouds 9 1011 29 10000 1.34 322 03:58 06.03.2022
3379 Clouds 12 1010 22 10000 10.8 210 00:42 06.03.2022
3380 Clouds 12 1010 22 10000 10.8 210 00:23 06.03.2022
3381 Clouds 13 1010 21 10000 7.2 240 23:19 05.03.2022
3382 Clouds 12 1010 27 10000 9.26 240 22:42 05.03.2022
3383 Clouds 12 1011 28 10000 10.29 260 21:36 05.03.2022
3384 Clouds 11 1010 31 10000 10.29 230 20:57 05.03.2022
3385 Clouds 11 1010 23 10000 12.35 220 19:23 05.03.2022
3386 Clouds 11 1010 23 10000 12.35 220 18:50 05.03.2022
3387 Clouds 11 1010 29 10000 11.83 220 17:39 05.03.2022
3388 Dust 10 1009 36 10000 12.35 210 16:20 05.03.2022
3389 Dust 10 1009 42 10000 8.94 210 15:30 05.03.2022
3390 Dust 11 1008 44 10000 10.29 200 14:42 05.03.2022
3391 Dust 11 1008 43 10000 10.29 200 14:24 05.03.2022
3392 Clouds 11 1007 47 10000 9.77 190 12:55 05.03.2022
3393 Clouds 12 1008 50 10000 9.26 180 11:39 05.03.2022
3394 Clouds 12 1008 50 10000 9.26 180 11:18 05.03.2022
3395 Clouds 12 1009 49 10000 8.23 220 09:40 05.03.2022
3396 Clouds 12 1009 48 10000 8.75 190 08:46 05.03.2022
3397 Clouds 13 1009 45 10000 7.2 180 07:23 05.03.2022
3398 Clouds 13 1009 45 10000 7.2 180 07:23 05.03.2022
3399 Clouds 14 1009 40 10000 7.2 210 05:39 05.03.2022
3400 Clouds 18 1008 28 10000 9.77 210 00:51 05.03.2022
3401 Clouds 18 1008 28 10000 9.77 230 23:30 04.03.2022
3402 Clouds 18 1008 28 10000 8.75 160 22:40 04.03.2022
3403 Clouds 18 1008 29 10000 8.23 180 21:45 04.03.2022
3404 Clouds 18 1009 31 10000 9.26 170 20:48 04.03.2022
3405 Clouds 17 1009 32 10000 9.77 200 19:39 04.03.2022
3406 Clouds 16 1007 34 10000 5.31 197 18:59 04.03.2022
3407 Clouds 16 1008 34 10000 9.26 200 18:36 04.03.2022
3408 Clouds 14 1008 35 10000 8.23 190 17:29 04.03.2022
3409 Clouds 13 1007 36 10000 7.72 180 16:26 04.03.2022
3410 Clouds 13 1007 32 10000 7.2 220 15:27 04.03.2022
3411 Clouds 14 1006 26 10000 4.63 180 13:38 04.03.2022
3412 Clouds 14 1006 24 10000 4.63 170 12:48 04.03.2022
3413 Clouds 15 1007 23 10000 4.63 130 11:37 04.03.2022
3414 Clouds 15 1007 21 10000 4.63 190 10:30 04.03.2022
3415 Clouds 15 1007 20 10000 4.12 170 09:28 04.03.2022
3416 Clouds 17 1007 18 10000 4.12 220 08:20 04.03.2022
3417 Clouds 18 1007 17 10000 3.6 160 06:55 04.03.2022
3418 Clouds 24 1007 12 10000 7.2 180 02:52 04.03.2022
3419 Clouds 26 1010 13 10000 4.63 40 23:43 03.03.2022
3420 Clouds 25 1011 14 10000 3.6 20 22:18 03.03.2022
3421 Clear 24 1012 16 10000 4.02 70 21:37 03.03.2022
3422 Clouds 24 1009 19 10000 2.09 137 20:56 03.03.2022
3423 Clouds 22 1014 16 10000 2.06 70 19:42 03.03.2022
3424 Clouds 20 1014 18 10000 2.06 150 18:44 03.03.2022
3425 Clouds 18 1015 20 10000 3.09 190 17:43 03.03.2022
3426 Clouds 17 1015 20 10000 3.09 190 17:24 03.03.2022
3427 Clouds 13 1014 23 10000 2.57 190 15:47 03.03.2022
3428 Clouds 13 1014 22 10000 3.6 160 14:51 03.03.2022
3429 Clouds 14 1014 22 10000 3.6 160 14:32 03.03.2022
3430 Clouds 14 1014 22 10000 2.57 280 12:44 03.03.2022
3431 Clouds 14 1014 22 10000 3.09 290 11:32 03.03.2022
3432 Clouds 14 1015 22 10000 3.09 280 10:39 03.03.2022
3433 Clouds 15 1016 20 10000 2.57 180 08:44 03.03.2022
3434 Clouds 17 1014 18 10000 0.53 235 06:58 03.03.2022
3435 Clouds 17 1016 17 10000 4.12 160 06:23 03.03.2022
3436 Clouds 26 1017 12 10000 3.6 130 00:40 03.03.2022
3437 Clouds 25 1018 11 10000 2.24 80 23:28 02.03.2022
3438 Clouds 25 1018 15 10000 2.57 100 22:44 02.03.2022
3439 Clouds 24 1020 15 10000 3.6 40 21:23 02.03.2022
3440 Clouds 24 1020 15 10000 3.6 40 21:23 02.03.2022
3441 Clouds 22 1021 16 10000 6.17 60 20:30 02.03.2022
3442 Clouds 21 1021 17 10000 2.06 50 19:45 02.03.2022
3443 Clouds 21 1021 17 10000 2.06 50 19:26 02.03.2022
3444 Clouds 19 1021 18 10000 0 0 18:39 02.03.2022
3445 Clouds 19 1021 18 10000 0 0 18:39 02.03.2022
3446 Clouds 19 1021 18 10000 0 0 18:39 02.03.2022
3447 Clouds 17 1021 20 10000 2.06 290 17:45 02.03.2022
3448 Clouds 13 1021 23 10000 3.09 170 16:54 02.03.2022
3449 Clouds 11 1021 25 10000 3.09 170 16:36 02.03.2022
3450 Clouds 10 1021 24 10000 3.6 160 14:42 02.03.2022
3451 Clouds 11 1020 24 10000 1.54 210 13:23 02.03.2022
3452 Clouds 12 1020 23 10000 4.12 180 12:40 02.03.2022
3453 Clouds 12 1021 22 10000 3.6 180 11:38 02.03.2022
3454 Clouds 13 1021 21 10000 3.6 180 11:18 02.03.2022
3455 Clear 14 1021 19 10000 5.14 190 09:41 02.03.2022
3456 Clear 15 1021 17 10000 3.6 180 08:51 02.03.2022
3457 Clear 16 1020 17 10000 4.12 170 07:25 02.03.2022
3458 Clouds 17 1020 15 10000 4.12 160 05:44 02.03.2022
3459 Clear 26 1017 15 10000 0.98 71 00:57 02.03.2022
3460 Clear 25 1020 12 10000 2.57 0 23:46 01.03.2022
3461 Clear 24 1021 13 10000 1.54 0 22:45 01.03.2022
3462 Clear 24 1019 18 10000 1.14 39 21:56 01.03.2022
3463 Clear 22 1022 14 10000 3.6 20 21:21 01.03.2022
3464 Clear 21 1023 15 10000 2.06 20 20:24 01.03.2022
3465 Clear 19 1024 17 10000 2.06 20 19:23 01.03.2022
3466 Clear 18 1024 17 10000 2.06 140 18:35 01.03.2022
3467 Clear 15 1024 20 10000 1.54 180 17:55 01.03.2022
3468 Clear 11 1024 27 10000 3.09 170 16:54 01.03.2022
3469 Clear 10 1024 27 10000 3.09 180 15:59 01.03.2022
3470 Clear 9 1023 26 10000 3.09 290 15:23 01.03.2022
3471 Clear 9 1023 26 10000 2.06 300 14:34 01.03.2022
3472 Clear 10 1023 25 10000 2.57 300 13:27 01.03.2022
3473 Clear 11 1021 25 10000 1.67 8 12:58 01.03.2022
3474 Clear 10 1023 23 10000 3.6 160 12:22 01.03.2022
3475 Clear 12 1023 21 10000 4.63 160 10:26 01.03.2022
3476 Clear 13 1022 20 10000 3.6 160 08:36 01.03.2022
3477 Clear 14 1022 19 10000 3.09 20 07:36 01.03.2022
3478 Clear 17 1022 15 10000 2.57 260 04:28 01.03.2022
3479 Clear 23 1020 14 10000 3.96 42 00:59 01.03.2022
3480 Clouds 23 1022 11 10000 5.66 40 23:48 28.02.2022
3481 Clouds 22 1023 12 10000 6.69 50 22:52 28.02.2022
3482 Clouds 21 1025 13 10000 4.63 50 21:50 28.02.2022
3483 Clouds 20 1025 13 10000 4.63 50 21:24 28.02.2022
3484 Clouds 17 1027 15 10000 6.69 40 19:52 28.02.2022
3485 Clouds 16 1027 16 10000 6.69 40 19:22 28.02.2022
3486 Clouds 14 1027 17 10000 3.6 70 18:36 28.02.2022
3487 Clouds 12 1027 19 10000 3.09 60 17:23 28.02.2022
3488 Clouds 8 1027 23 10000 3.09 160 16:32 28.02.2022
3489 Clouds 6 1026 25 10000 2.57 180 15:23 28.02.2022
3490 Clouds 6 1026 23 10000 4.63 70 14:30 28.02.2022
3491 Clouds 7 1026 23 10000 4.63 40 13:34 28.02.2022
3492 Clouds 8 1027 21 10000 3.09 70 12:31 28.02.2022
3493 Clouds 7 1026 22 10000 3.09 360 11:37 28.02.2022
3494 Clear 8 1027 22 10000 3.09 320 10:44 28.02.2022
3495 Clear 8 1027 21 10000 3.09 320 10:19 28.02.2022
3496 Clear 9 1027 19 10000 3.6 170 09:30 28.02.2022
3497 Clouds 10 1027 19 10000 4.12 200 08:26 28.02.2022
3498 Clouds 10 1027 19 10000 3.6 40 07:19 28.02.2022
3499 Clouds 12 1027 18 10000 2.24 280 04:31 28.02.2022
3500 Clouds 14 1027 16 10000 2.68 340 03:30 28.02.2022
3501 Clouds 17 1028 13 10000 4.63 20 23:26 27.02.2022
3502 Clear 16 1028 14 10000 3.6 330 22:33 27.02.2022
3503 Clouds 15 1029 15 10000 5.66 60 21:47 27.02.2022
3504 Clouds 14 1030 16 10000 2.06 10 20:54 27.02.2022
3505 Clouds 14 1030 17 10000 3.6 110 20:27 27.02.2022
3506 Clouds 14 1032 18 10000 0.89 110 19:56 27.02.2022
3507 Clouds 12 1031 17 10000 2.57 10 19:26 27.02.2022
3508 Clouds 11 1032 19 10000 2.06 260 18:39 27.02.2022
3509 Clouds 9 1032 22 10000 2.06 170 17:54 27.02.2022
3510 Clouds 4 1031 26 10000 2.57 330 16:37 27.02.2022
3511 Clouds 3 1030 31 10000 3.09 160 15:55 27.02.2022
3512 Clouds 3 1030 28 10000 2.57 140 13:21 27.02.2022
3513 Clouds 4 1030 27 10000 2.57 180 12:32 27.02.2022
3514 Clouds 5 1030 24 10000 4.12 160 10:54 27.02.2022
3515 Clouds 5 1030 25 10000 1.03 31 09:58 27.02.2022
3516 Clouds 6 1030 22 10000 3.09 170 09:37 27.02.2022
3517 Clouds 6 1030 22 10000 3.09 170 09:18 27.02.2022
3518 Clouds 7 1030 22 10000 3.09 170 06:44 27.02.2022
3519 Clear 7 1030 21 10000 2.57 160 05:36 27.02.2022
3520 Clear 13 1029 15 10000 4.63 50 00:52 27.02.2022
3521 Clear 13 1030 18 10000 5.14 40 22:56 26.02.2022
3522 Clear 11 1030 19 10000 6.69 40 21:39 26.02.2022
3523 Clear 10 1031 19 10000 7.2 50 20:52 26.02.2022
3524 Clear 10 1031 20 10000 7.2 50 20:19 26.02.2022
3525 Clear 9 1031 22 10000 8.23 40 19:41 26.02.2022
3526 Clear 7 1031 26 10000 7.72 60 18:49 26.02.2022
3527 Clear 6 1031 29 10000 8.23 10 17:42 26.02.2022
3528 Clear 4 1030 34 10000 5.81 30 16:49 26.02.2022
3529 Clear 3 1029 35 10000 8.75 20 15:49 26.02.2022
3530 Clear 2 1029 37 10000 8.75 20 15:22 26.02.2022
3531 Clear 2 1028 39 10000 7.2 40 14:53 26.02.2022
3532 Clear 2 1028 37 10000 7.2 40 14:33 26.02.2022
3533 Clear 3 1028 36 10000 5.81 50 13:19 26.02.2022
3534 Clear 4 1027 36 10000 5.36 40 12:20 26.02.2022
3535 Clear 4 1027 34 10000 7.2 70 11:28 26.02.2022
3536 Clear 4 1027 35 10000 6.26 70 10:39 26.02.2022
3537 Clear 5 1026 33 10000 4.12 50 08:48 26.02.2022
3538 Clear 7 1025 29 10000 7.72 50 06:51 26.02.2022
3539 Clear 13 1022 14 10000 1.34 0 00:50 26.02.2022
3540 Clear 13 1023 17 10000 2.57 70 22:47 25.02.2022
3541 Clear 12 1024 18 10000 4.12 60 21:40 25.02.2022
3542 Clear 12 1024 18 10000 4.12 60 21:21 25.02.2022
3543 Clear 11 1025 20 10000 5.14 20 20:32 25.02.2022
3544 Clear 10 1027 24 10000 4.02 59 18:59 25.02.2022
3545 Clouds 6 1025 28 10000 3.6 360 17:27 25.02.2022
3546 Clouds 3 1024 35 10000 3.6 350 16:24 25.02.2022
3547 Clouds 2 1024 36 10000 6.69 310 15:43 25.02.2022
3548 Clouds 2 1024 34 10000 6.69 310 15:20 25.02.2022
3549 Clear 1 1023 36 10000 3.09 310 14:42 25.02.2022
3550 Clear 2 1023 36 10000 4.63 70 13:36 25.02.2022
3551 Clear 2 1023 38 10000 3.6 70 12:56 25.02.2022
3552 Clear 3 1023 34 10000 3.6 350 11:28 25.02.2022
3553 Clear 3 1023 34 10000 2.24 230 10:29 25.02.2022
3554 Clear 3 1023 34 10000 1.54 60 09:57 25.02.2022
3555 Clear 4 1023 33 10000 2.57 190 09:18 25.02.2022
3556 Clear 4 1022 31 10000 3.09 190 07:41 25.02.2022
3557 Clear 5 1022 29 10000 2.68 50 05:48 25.02.2022
3558 Clear 8 1021 25 10000 3.6 80 03:34 25.02.2022
3559 Clear 10 1022 23 10000 3.6 180 23:42 24.02.2022
3560 Clear 9 1024 25 10000 2.06 0 21:56 24.02.2022
3561 Clear 8 1024 25 10000 2.06 0 21:37 24.02.2022
3562 Clear 8 1024 25 10000 2.06 0 21:18 24.02.2022
3563 Clear 7 1026 29 10000 1.54 0 19:38 24.02.2022
3564 Clear 5 1026 32 10000 2.06 70 18:43 24.02.2022
3565 Clear 5 1026 33 10000 2.06 70 18:18 24.02.2022
3566 Clear 4 1025 36 10000 2.06 60 17:33 24.02.2022
3567 Clear 4 1025 36 10000 2.06 60 17:33 24.02.2022
3568 Clear 2 1025 43 10000 5.66 310 16:45 24.02.2022
3569 Clear 1 1025 44 10000 5.66 310 16:21 24.02.2022
3570 Clear 0 1023 49 10000 3.6 20 14:53 24.02.2022
3571 Clear 1 1023 46 10000 5.66 360 14:26 24.02.2022
3572 Clear 1 1023 47 10000 4.12 70 13:39 24.02.2022
3573 Clear 1 1023 47 10000 4.12 70 13:39 24.02.2022
3574 Clear 2 1021 49 10000 4.63 350 12:50 24.02.2022
3575 Clear 3 1020 40 10000 4.12 40 10:40 24.02.2022
3576 Clouds 4 1021 38 10000 0.89 5 08:59 24.02.2022
3577 Clouds 5 1019 34 10000 6.26 350 08:40 24.02.2022
3578 Clouds 6 1016 31 10000 8.94 320 05:52 24.02.2022
3579 Clouds 7 1011 43 10000 4.12 110 01:56 24.02.2022
3580 Clouds 9 1009 43 10000 6.69 250 22:56 23.02.2022
3581 Clouds 8 1009 40 10000 5.36 260 21:43 23.02.2022
3582 Clouds 8 1010 42 10000 5.66 330 20:31 23.02.2022
3583 Clouds 7 1010 46 10000 7.72 240 19:47 23.02.2022
3584 Clouds 6 1010 52 10000 6.69 290 18:32 23.02.2022
3585 Clouds 4 1009 55 10000 6.69 210 17:44 23.02.2022
3586 Clouds 3 1007 53 10000 6.69 210 14:44 23.02.2022
3587 Clouds 4 1007 53 10000 5.36 220 12:45 23.02.2022
3588 Clouds 4 1007 48 10000 5.49 236 11:59 23.02.2022
3589 Clouds 5 1006 44 10000 7.2 200 10:31 23.02.2022
3590 Clouds 7 1006 44 10000 5.4 242 08:59 23.02.2022
3591 Clouds 7 1006 47 10000 9.26 210 08:23 23.02.2022
3592 Clouds 9 1005 51 10000 12.86 220 03:49 23.02.2022
3593 Dust 14 1004 25 10000 12.35 220 00:39 23.02.2022
3594 Dust 14 1004 24 10000 13.89 230 23:38 22.02.2022
3595 Dust 13 1005 27 8047 12.86 220 22:32 22.02.2022
3596 Dust 13 1007 29 10000 13.89 200 21:49 22.02.2022
3597 Dust 13 1007 29 10000 13.89 200 21:30 22.02.2022
3598 Clouds 12 1008 31 10000 14.4 220 20:55 22.02.2022
3599 Clouds 12 1007 30 10000 14.4 220 20:29 22.02.2022
3600 Clouds 12 1008 33 10000 9.26 220 19:42 22.02.2022
3601 Clouds 11 1008 33 10000 9.26 220 19:19 22.02.2022
3602 Clouds 10 1008 39 10000 9.77 220 17:48 22.02.2022
3603 Clouds 9 1008 40 10000 9.77 220 17:21 22.02.2022
3604 Clouds 8 1008 43 10000 6.69 200 16:37 22.02.2022
3605 Clouds 7 1008 41 10000 8.75 190 15:40 22.02.2022
3606 Dust 6 1008 39 10000 5.36 200 14:44 22.02.2022
3607 Dust 8 1008 33 10000 4.63 220 12:23 22.02.2022
3608 Dust 9 1007 29 10000 5.36 240 10:50 22.02.2022
3609 Dust 11 1006 26 10000 6.17 220 08:41 22.02.2022
3610 Dust 12 1006 25 9656 5.66 190 07:26 22.02.2022
3611 Clear 14 1003 24 10000 2.91 271 04:59 22.02.2022
3612 Dust 18 1001 15 8047 12.86 220 01:45 22.02.2022
3613 Dust 18 1001 15 8047 12.86 220 01:45 22.02.2022
3614 Dust 18 1001 15 8047 12.86 220 01:45 22.02.2022
3615 Dust 19 1001 21 10000 12.35 240 22:46 21.02.2022
3616 Dust 18 1002 22 10000 11.83 210 21:33 21.02.2022
3617 Dust 17 1002 24 10000 13.89 220 20:35 21.02.2022
3618 Dust 17 1002 24 10000 13.89 220 20:35 21.02.2022
3619 Dust 16 1002 26 10000 11.32 190 18:46 21.02.2022
3620 Clouds 14 1001 29 10000 6.9 231 16:58 21.02.2022
3621 Clouds 14 1002 26 10000 8.23 180 15:20 21.02.2022
3622 Clouds 14 1002 27 10000 8.75 180 14:21 21.02.2022
3623 Clouds 14 1003 26 10000 3.13 180 13:20 21.02.2022
3624 Clouds 15 1004 26 10000 10.29 200 12:23 21.02.2022
3625 Clouds 16 1003 27 10000 6.09 227 10:58 21.02.2022
3626 Clouds 16 1005 23 10000 7.72 200 09:34 21.02.2022
3627 Clouds 19 1007 16 10000 5.36 190 05:35 21.02.2022
3628 Clouds 21 1009 15 10000 4.63 200 23:41 20.02.2022
3629 Clouds 20 1011 18 10000 6.69 240 22:21 20.02.2022
3630 Clouds 19 1013 19 10000 4.12 30 21:42 20.02.2022
3631 Clouds 18 1014 20 10000 2.24 0 20:53 20.02.2022
3632 Clouds 18 1014 20 10000 3.09 120 20:33 20.02.2022
3633 Clouds 16 1015 21 10000 2.57 120 19:31 20.02.2022
3634 Clouds 16 1015 21 10000 2.57 120 19:31 20.02.2022
3635 Clouds 15 1016 23 10000 1.54 10 18:50 20.02.2022
3636 Clouds 15 1016 24 10000 1.54 10 18:31 20.02.2022
3637 Clouds 13 1016 27 10000 2.06 200 17:47 20.02.2022
3638 Clouds 7 1015 32 10000 3.6 200 15:32 20.02.2022
3639 Clouds 8 1015 33 10000 3.6 170 14:41 20.02.2022
3640 Clouds 9 1015 31 10000 4.63 180 13:23 20.02.2022
3641 Clouds 9 1015 29 10000 3.09 190 12:22 20.02.2022
3642 Clouds 10 1017 27 10000 3.09 190 10:21 20.02.2022
3643 Clouds 11 1017 26 10000 4.12 190 09:53 20.02.2022
3644 Clear 11 1017 26 10000 3.09 300 07:45 20.02.2022
3645 Clear 20 1018 17 10000 2.57 70 00:54 20.02.2022
3646 Clear 21 1018 16 10000 2.57 70 00:29 20.02.2022
3647 Clear 20 1020 18 10000 3.09 70 22:25 19.02.2022
3648 Clear 19 1021 20 10000 3.6 70 21:57 19.02.2022
3649 Clear 18 1023 20 10000 3.13 70 20:51 19.02.2022
3650 Clear 17 1024 22 10000 2.57 30 19:42 19.02.2022
3651 Clear 16 1024 22 10000 1.34 30 19:20 19.02.2022
3652 Clear 14 1024 25 10000 3.6 20 18:29 19.02.2022
3653 Clear 12 1024 29 10000 3.09 290 17:33 19.02.2022
3654 Clear 8 1024 33 10000 3.09 190 16:22 19.02.2022
3655 Clear 8 1023 34 10000 0 0 14:56 19.02.2022
3656 Clear 7 1023 34 10000 3.6 190 14:37 19.02.2022
3657 Clear 9 1022 39 10000 1.17 7 11:59 19.02.2022
3658 Clear 8 1023 33 10000 3.6 290 11:36 19.02.2022
3659 Clear 10 1024 28 10000 3.6 160 09:34 19.02.2022
3660 Clear 13 1024 24 10000 2.57 160 06:53 19.02.2022
3661 Clouds 17 1023 17 10000 3.6 50 02:38 19.02.2022
3662 Clouds 19 1024 15 10000 2.24 0 23:28 18.02.2022
3663 Clouds 17 1026 16 10000 2.24 0 21:30 18.02.2022
3664 Clouds 16 1027 17 10000 2.24 30 20:33 18.02.2022
3665 Clouds 15 1028 19 10000 3.09 30 19:51 18.02.2022
3666 Clouds 13 1028 21 10000 1.54 310 18:49 18.02.2022
3667 Clouds 12 1028 21 10000 1.54 310 18:19 18.02.2022
3668 Clouds 9 1028 25 10000 2.57 180 17:21 18.02.2022
3669 Clouds 5 1026 29 10000 4.12 200 14:47 18.02.2022
3670 Clouds 6 1026 29 10000 2.57 180 13:54 18.02.2022
3671 Clouds 6 1026 28 10000 2.24 260 12:51 18.02.2022
3672 Clouds 7 1024 29 10000 1.1 331 11:58 18.02.2022
3673 Clouds 7 1026 30 10000 1.48 333 10:58 18.02.2022
3674 Clear 8 1026 25 10000 5.14 310 09:29 18.02.2022
3675 Clear 9 1026 24 10000 3.09 190 06:50 18.02.2022
3676 Clear 9 1026 24 10000 3.09 170 05:36 18.02.2022
3677 Clear 15 1026 17 10000 6.17 320 22:46 17.02.2022
3678 Clear 15 1027 19 10000 8.23 30 21:42 17.02.2022
3679 Clear 14 1028 20 10000 7.72 330 20:52 17.02.2022
3680 Clear 14 1028 20 10000 7.72 330 20:33 17.02.2022
3681 Clear 13 1028 22 10000 8.94 350 19:43 17.02.2022
3682 Clear 11 1028 24 10000 9.39 340 18:34 17.02.2022
3683 Clear 10 1028 27 10000 7.72 350 17:46 17.02.2022
3684 Clear 8 1027 31 10000 7.72 330 16:19 17.02.2022
3685 Clear 8 1025 31 10000 7.2 350 14:39 17.02.2022
3686 Clear 8 1025 30 10000 6.71 340 13:47 17.02.2022
3687 Clear 8 1024 31 10000 2.57 10 11:57 17.02.2022
3688 Clear 9 1024 29 10000 7.2 340 11:21 17.02.2022
3689 Clear 11 1021 27 10000 5.36 355 07:57 17.02.2022
3690 Clouds 18 1010 17 10000 9.77 310 00:20 17.02.2022
3691 Clouds 17 1010 23 10000 7.2 290 22:38 16.02.2022
3692 Clouds 15 1012 29 10000 8.23 340 20:24 16.02.2022
3693 Clear 14 1012 32 10000 9.26 330 19:23 16.02.2022
3694 Clouds 13 1011 34 10000 8.23 320 18:35 16.02.2022
3695 Clear 11 1011 40 10000 7.72 330 17:27 16.02.2022
3696 Clouds 10 1009 42 10000 7.72 330 15:24 16.02.2022
3697 Clouds 11 1008 39 10000 7.2 330 13:47 16.02.2022
3698 Clouds 11 1008 37 10000 8.23 320 12:27 16.02.2022
3699 Clouds 11 1007 37 10000 10.8 320 11:46 16.02.2022
3700 Clouds 11 1006 38 10000 8.23 340 10:35 16.02.2022
3701 Clouds 11 1006 40 10000 4.92 5 09:54 16.02.2022
3702 Clouds 12 1006 39 10000 10.29 10 06:44 16.02.2022
3703 Clouds 15 1003 23 10000 7.2 270 02:47 16.02.2022
3704 Clouds 18 1003 30 10000 9.77 210 22:34 15.02.2022
3705 Clouds 18 1003 29 10000 11.32 210 21:51 15.02.2022
3706 Clouds 18 1003 30 10000 11.32 210 21:30 15.02.2022
3707 Clear 18 1002 33 10000 5.81 259 20:58 15.02.2022
3708 Clouds 18 1003 29 10000 12.86 200 20:27 15.02.2022
3709 Clouds 18 1003 29 10000 14.4 200 19:46 15.02.2022
3710 Clouds 17 1003 29 10000 10.8 200 18:27 15.02.2022
3711 Clouds 16 1004 29 10000 6.69 190 17:55 15.02.2022
3712 Clouds 16 1004 29 10000 6.69 190 17:37 15.02.2022
3713 Clouds 15 1002 24 10000 10.29 180 15:43 15.02.2022
3714 Dust 16 1002 22 10000 10.8 210 14:31 15.02.2022
3715 Dust 16 1003 23 10000 8.23 180 13:25 15.02.2022
3716 Dust 17 1005 22 10000 12.35 220 11:41 15.02.2022
3717 Dust 18 1006 17 10000 14.92 220 10:30 15.02.2022
3718 Dust 18 1008 13 10000 8.75 170 08:48 15.02.2022
3719 Clouds 17 1009 13 10000 5.66 180 06:46 15.02.2022
3720 Clouds 21 1015 13 10000 3.6 80 23:35 14.02.2022
3721 Clouds 20 1017 16 10000 2.57 100 21:57 14.02.2022
3722 Clouds 18 1020 16 10000 2.06 40 20:54 14.02.2022
3723 Clouds 17 1021 16 10000 2.24 30 19:49 14.02.2022
3724 Clouds 17 1021 16 10000 2.24 30 19:29 14.02.2022
3725 Clouds 15 1021 18 10000 1.54 0 18:24 14.02.2022
3726 Clouds 12 1021 22 10000 3.09 200 17:30 14.02.2022
3727 Clouds 8 1021 25 10000 3.6 170 16:37 14.02.2022
3728 Clouds 8 1021 24 10000 3.6 180 15:22 14.02.2022
3729 Clouds 9 1021 20 10000 3.6 190 13:34 14.02.2022
3730 Clear 10 1019 20 10000 0.26 349 12:58 14.02.2022
3731 Clear 9 1022 20 10000 3.09 180 12:32 14.02.2022
3732 Clear 10 1022 20 10000 4.12 170 11:38 14.02.2022
3733 Clear 11 1023 19 10000 4.63 170 10:18 14.02.2022
3734 Clear 12 1023 19 10000 3.6 160 07:49 14.02.2022
3735 Clear 12 1023 17 10000 3.6 160 07:24 14.02.2022
3736 Clear 21 1025 12 10000 3.13 80 22:48 13.02.2022
3737 Clear 21 1025 13 10000 3.13 80 22:30 13.02.2022
3738 Clear 21 1025 15 10000 0.89 209 21:57 13.02.2022
3739 Clear 20 1026 14 10000 2.06 10 21:20 13.02.2022
3740 Clear 19 1028 15 10000 2.06 30 20:27 13.02.2022
3741 Clear 17 1028 19 10000 0.45 98 18:58 13.02.2022
3742 Clear 15 1028 19 10000 1.54 70 18:40 13.02.2022
3743 Clear 9 1027 26 10000 3.6 200 16:53 13.02.2022
3744 Clear 8 1027 25 10000 4.12 190 15:51 13.02.2022
3745 Clear 8 1026 25 10000 3.6 170 14:50 13.02.2022
3746 Clear 9 1026 24 10000 4.63 170 13:27 13.02.2022
3747 Clear 9 1026 23 10000 3.09 200 12:42 13.02.2022
3748 Clear 11 1027 22 10000 5.14 190 10:43 13.02.2022
3749 Clear 11 1027 22 10000 5.14 190 10:23 13.02.2022
3750 Clear 12 1026 18 10000 3.09 190 08:55 13.02.2022
3751 Clear 21 1024 11 10000 3.6 50 01:26 13.02.2022
3752 Clear 22 1024 11 10000 3.6 50 00:21 13.02.2022
3753 Clear 21 1026 13 10000 5.66 60 22:34 12.02.2022
3754 Clear 21 1024 18 10000 1.46 76 22:00 12.02.2022
3755 Clouds 20 1028 18 10000 4.63 50 20:55 12.02.2022
3756 Clouds 19 1028 18 10000 4.63 50 20:23 12.02.2022
3757 Clouds 17 1028 22 10000 2.24 100 18:54 12.02.2022
3758 Clouds 17 1028 22 10000 2.24 100 18:36 12.02.2022
3759 Clouds 14 1027 26 10000 2.06 170 17:39 12.02.2022
3760 Clouds 11 1026 30 10000 4.12 220 16:46 12.02.2022
3761 Clouds 11 1025 30 10000 0 0 15:53 12.02.2022
3762 Clouds 11 1025 31 10000 2.06 270 15:20 12.02.2022
3763 Clear 12 1025 30 10000 5.66 40 14:25 12.02.2022
3764 Clear 13 1024 29 10000 3.09 330 11:33 12.02.2022
3765 Clear 14 1023 26 10000 4.12 10 10:32 12.02.2022
3766 Clear 15 1023 25 10000 2.06 330 09:37 12.02.2022
3767 Clear 16 1022 25 10000 2.06 360 08:47 12.02.2022
3768 Clear 16 1022 24 10000 5.66 60 07:45 12.02.2022
3769 Clear 19 1020 20 10000 2.06 170 04:50 12.02.2022
3770 Clear 23 1018 15 10000 3.6 90 02:19 12.02.2022
3771 Clear 25 1017 17 10000 2.24 33 23:56 11.02.2022
3772 Clear 24 1019 17 10000 3.6 60 22:23 11.02.2022
3773 Clear 23 1020 20 10000 4.63 350 21:37 11.02.2022
3774 Clear 21 1021 24 10000 5.14 360 20:29 11.02.2022
3775 Clear 19 1021 27 10000 3.6 30 19:29 11.02.2022
3776 Clear 18 1021 30 10000 4.12 330 18:44 11.02.2022
3777 Clear 14 1021 36 10000 3.6 300 17:27 11.02.2022
3778 Clear 12 1020 40 10000 3.09 280 16:47 11.02.2022
3779 Clear 11 1020 40 10000 5.66 310 15:22 11.02.2022
3780 Clear 11 1020 39 10000 6.69 290 14:38 11.02.2022
3781 Clear 11 1020 40 10000 6.69 290 14:19 11.02.2022
3782 Clear 12 1019 39 10000 4.63 340 13:47 11.02.2022
3783 Clear 12 1020 38 10000 4.63 340 13:28 11.02.2022
3784 Clear 13 1020 34 10000 5.14 350 11:23 11.02.2022
3785 Clear 14 1020 33 10000 5.14 340 09:37 11.02.2022
3786 Clear 15 1021 32 10000 6.17 320 08:36 11.02.2022
3787 Clear 15 1020 32 10000 5.66 350 07:47 11.02.2022
3788 Clear 16 1020 30 10000 4.12 170 06:29 11.02.2022
3789 Clouds 21 1020 23 10000 2.57 60 02:22 11.02.2022
3790 Clouds 23 1022 22 10000 6.17 30 23:48 10.02.2022
3791 Clear 22 1023 24 10000 6.69 30 22:33 10.02.2022
3792 Clouds 21 1025 26 10000 5.14 10 21:42 10.02.2022
3793 Clear 20 1026 26 10000 5.36 10 20:50 10.02.2022
3794 Clear 19 1024 31 10000 3.06 23 19:58 10.02.2022
3795 Clear 19 1026 29 10000 3.58 40 19:23 10.02.2022
3796 Clear 17 1026 32 10000 7.2 340 18:33 10.02.2022
3797 Clear 15 1026 35 10000 5.14 350 17:23 10.02.2022
3798 Clear 13 1025 37 10000 6.17 350 16:43 10.02.2022
3799 Clear 13 1025 37 10000 5.81 50 15:41 10.02.2022
3800 Clear 13 1025 36 10000 5.81 50 15:21 10.02.2022
3801 Clear 13 1024 36 10000 6.69 330 14:35 10.02.2022
3802 Clear 13 1023 37 10000 2.68 348 13:56 10.02.2022
3803 Clear 14 1024 34 10000 6.17 360 13:19 10.02.2022
3804 Clear 15 1024 30 10000 8.75 10 11:53 10.02.2022
3805 Clear 15 1024 29 10000 8.75 10 11:32 10.02.2022
3806 Clear 16 1024 28 10000 7.72 360 10:23 10.02.2022
3807 Clear 16 1024 28 10000 7.2 20 09:44 10.02.2022
3808 Clear 16 1023 26 10000 6.71 350 08:40 10.02.2022
3809 Clear 16 1022 23 10000 3.13 20 06:33 10.02.2022
3810 Clouds 21 1020 14 10000 7.2 10 02:43 10.02.2022
3811 Clear 23 1019 15 10000 5.81 0 00:56 10.02.2022
3812 Clouds 23 1020 12 10000 6.17 340 00:38 10.02.2022
3813 Clouds 23 1020 11 10000 6.17 340 00:20 10.02.2022
3814 Clouds 23 1023 13 10000 3.6 10 22:54 09.02.2022
3815 Clouds 23 1023 12 10000 6.17 320 22:30 09.02.2022
3816 Clouds 22 1024 14 10000 5.66 340 21:47 09.02.2022
3817 Clouds 22 1024 12 10000 5.66 340 21:27 09.02.2022
3818 Clouds 20 1025 16 10000 7.2 330 20:43 09.02.2022
3819 Clouds 20 1025 15 10000 7.2 330 20:22 09.02.2022
3820 Clouds 18 1026 19 10000 6.17 340 19:41 09.02.2022
3821 Clouds 16 1026 22 10000 6.69 350 18:38 09.02.2022
3822 Clouds 10 1025 29 10000 1.54 220 16:55 09.02.2022
3823 Clouds 11 1023 27 10000 2.31 339 15:59 09.02.2022
3824 Clouds 9 1025 29 10000 3.6 310 15:22 09.02.2022
3825 Clear 10 1024 26 10000 3.09 350 12:43 09.02.2022
3826 Clear 11 1025 23 10000 5.14 340 11:23 09.02.2022
3827 Clear 12 1025 21 10000 1.54 230 10:33 09.02.2022
3828 Clear 12 1025 22 10000 6.17 330 09:47 09.02.2022
3829 Clear 12 1025 22 10000 6.17 330 09:20 09.02.2022
3830 Clear 13 1025 21 10000 8.23 320 08:43 09.02.2022
3831 Clear 16 1025 19 10000 4.63 20 05:55 09.02.2022
3832 Clear 17 1024 19 10000 3.6 320 03:51 09.02.2022
3833 Clear 22 1024 15 10000 6.69 20 01:55 09.02.2022
3834 Clouds 22 1024 16 10000 1.54 30 23:42 08.02.2022
3835 Clear 21 1025 17 10000 2.06 10 22:53 08.02.2022
3836 Clouds 20 1025 18 10000 2.06 120 22:27 08.02.2022
3837 Clear 20 1026 20 10000 0.89 96 21:58 08.02.2022
3838 Clouds 19 1026 19 10000 2.06 140 21:22 08.02.2022
3839 Clear 19 1027 20 10000 1.34 111 20:56 08.02.2022
3840 Clouds 18 1027 19 10000 3.09 130 20:31 08.02.2022
3841 Clouds 15 1028 23 10000 2.24 320 18:55 08.02.2022
3842 Clouds 11 1028 28 10000 2.57 290 17:50 08.02.2022
3843 Clouds 7 1027 33 10000 3.6 180 16:42 08.02.2022
3844 Clear 7 1027 32 10000 5.14 330 15:39 08.02.2022
3845 Clear 7 1027 33 10000 3.09 60 14:57 08.02.2022
3846 Clear 7 1026 30 10000 4.63 310 13:30 08.02.2022
3847 Clear 8 1027 31 10000 3.6 190 12:20 08.02.2022
3848 Clear 9 1027 29 10000 4.63 180 10:45 08.02.2022
3849 Clear 9 1027 29 10000 3.6 190 09:46 08.02.2022
3850 Clear 10 1027 27 10000 4.12 190 08:27 08.02.2022
3851 Clear 12 1027 25 10000 3.09 160 05:45 08.02.2022
3852 Clear 12 1027 25 10000 2.57 280 04:40 08.02.2022
3853 Clear 12 1027 24 10000 2.57 280 04:21 08.02.2022
3854 Clear 14 1027 22 10000 2.68 20 03:36 08.02.2022
3855 Clear 14 1027 22 10000 2.68 20 03:18 08.02.2022
3856 Clear 14 1027 26 10000 0.66 297 02:59 08.02.2022
3857 Clear 15 1027 21 10000 3.6 60 02:36 08.02.2022
3858 Clear 16 1027 20 10000 3.6 60 02:18 08.02.2022
3859 Clear 16 1027 20 10000 3.6 60 02:18 08.02.2022
3860 Clear 17 1027 18 10000 3.6 360 01:44 08.02.2022
3861 Clear 18 1027 16 10000 3.6 360 01:24 08.02.2022
3862 Clear 18 1027 18 10000 5.66 70 00:55 08.02.2022
3863 Clear 18 1028 20 10000 0.45 155 23:58 07.02.2022
3864 Clear 18 1028 17 10000 5.14 60 23:40 07.02.2022
3865 Clear 18 1028 15 10000 5.14 60 23:18 07.02.2022
3866 Clear 18 1029 19 10000 5.66 60 22:54 07.02.2022
3867 Clear 17 1029 18 10000 5.66 60 22:18 07.02.2022
3868 Clear 17 1031 18 10000 7.72 60 21:44 07.02.2022
3869 Clear 16 1031 17 10000 7.72 60 21:25 07.02.2022
3870 Clear 15 1032 19 10000 5.66 40 20:41 07.02.2022
3871 Clear 15 1032 22 10000 3.09 60 19:56 07.02.2022
3872 Clear 14 1032 20 10000 3.13 90 19:38 07.02.2022
3873 Clear 12 1033 22 10000 2.06 270 18:22 07.02.2022
3874 Clear 7 1031 28 10000 5.14 60 16:53 07.02.2022
3875 Clear 6 1031 30 10000 5.14 60 16:20 07.02.2022
3876 Clear 6 1031 30 10000 2.06 140 15:48 07.02.2022
3877 Clear 6 1030 30 10000 4.12 60 13:37 07.02.2022
3878 Clear 7 1030 29 10000 4.12 60 13:19 07.02.2022
3879 Clear 7 1031 33 10000 0.89 305 11:58 07.02.2022
3880 Clear 7 1031 33 10000 0.89 305 11:58 07.02.2022
3881 Clear 7 1031 33 10000 0.89 305 11:58 07.02.2022
3882 Clear 7 1030 29 10000 2.24 0 11:37 07.02.2022
3883 Clear 8 1030 26 10000 2.24 250 10:52 07.02.2022
3884 Clear 8 1030 27 10000 2.24 250 10:32 07.02.2022
3885 Clear 9 1030 25 10000 3.13 50 09:53 07.02.2022
3886 Clear 10 1030 24 10000 3.13 50 09:18 07.02.2022
3887 Clear 10 1030 25 10000 4.47 30 08:39 07.02.2022
3888 Clear 11 1030 23 10000 3.13 60 07:19 07.02.2022
3889 Clear 11 1029 23 10000 1.34 230 06:34 07.02.2022
3890 Clear 14 1027 20 10000 3.13 40 03:27 07.02.2022
3891 Clear 18 1026 16 10000 6.71 50 00:46 07.02.2022
3892 Clear 18 1026 16 10000 3.13 0 23:49 06.02.2022
3893 Clear 18 1027 17 10000 6.71 340 22:49 06.02.2022
3894 Clear 18 1027 20 10000 1.34 100 21:56 06.02.2022
3895 Clear 17 1028 17 10000 8.94 20 21:35 06.02.2022
3896 Clear 16 1028 18 10000 4.47 20 20:55 06.02.2022
3897 Clear 16 1028 18 10000 4.47 20 20:55 06.02.2022
3898 Clear 16 1028 18 10000 4.47 20 20:31 06.02.2022
3899 Clear 15 1029 20 10000 3.58 80 19:38 06.02.2022
3900 Clear 14 1028 21 10000 5.36 60 18:41 06.02.2022
3901 Clear 13 1029 25 10000 4.02 31 17:56 06.02.2022
3902 Clear 10 1028 25 10000 0 0 17:21 06.02.2022
3903 Clear 8 1027 28 10000 0 0 16:47 06.02.2022
3904 Clear 8 1026 28 10000 2.24 200 15:49 06.02.2022
3905 Clear 6 1026 32 10000 2.24 200 15:27 06.02.2022
3906 Clouds 7 1026 30 10000 1.34 220 14:45 06.02.2022
3907 Clouds 7 1025 28 10000 2.24 230 13:27 06.02.2022
3908 Clear 7 1026 31 10000 1.79 351 12:58 06.02.2022
3909 Clear 8 1024 29 10000 0 0 11:35 06.02.2022
3910 Clear 8 1024 27 10000 2.24 220 10:31 06.02.2022
3911 Clear 10 1023 26 10000 2.54 356 08:59 06.02.2022
3912 Clear 10 1024 24 10000 3.58 290 08:30 06.02.2022
3913 Clouds 11 1024 26 10000 2.24 230 05:31 06.02.2022
3914 Clouds 11 1024 26 10000 2.24 230 05:31 06.02.2022
3915 Clouds 14 1023 20 10000 1.34 210 02:49 06.02.2022
3916 Clouds 15 1023 20 10000 1.34 210 02:24 06.02.2022
3917 Clouds 17 1023 16 10000 0 0 00:27 06.02.2022
3918 Clouds 15 1025 20 10000 0 0 22:22 05.02.2022
3919 Clouds 14 1027 21 10000 2.68 30 21:18 05.02.2022
3920 Clouds 13 1028 22 10000 2.68 40 20:24 05.02.2022
3921 Clouds 11 1028 24 10000 2.68 70 19:46 05.02.2022
3922 Clouds 10 1028 25 10000 1.34 60 18:52 05.02.2022
3923 Clouds 6 1028 30 10000 3.13 0 17:39 05.02.2022
3924 Clouds 6 1028 30 10000 3.13 0 17:39 05.02.2022
3925 Clear 3 1028 36 10000 0 0 16:48 05.02.2022
3926 Clear 2 1028 37 10000 2.24 260 15:34 05.02.2022
3927 Clear 2 1028 38 10000 2.24 200 14:53 05.02.2022
3928 Clear 3 1029 35 10000 1.34 240 12:47 05.02.2022
3929 Clear 4 1029 35 10000 2.68 280 11:49 05.02.2022
3930 Clear 5 1029 34 10000 2.68 200 10:47 05.02.2022
3931 Clear 6 1030 31 10000 2.24 190 09:53 05.02.2022
3932 Clear 5 1030 31 10000 2.24 190 09:30 05.02.2022
3933 Clear 7 1030 31 10000 2.68 220 07:38 05.02.2022
3934 Clear 7 1031 31 10000 0 0 06:56 05.02.2022
3935 Clear 8 1030 27 10000 2.24 310 04:28 05.02.2022
3936 Clear 13 1030 20 10000 4.47 70 01:19 05.02.2022
3937 Clear 13 1031 21 10000 4.47 60 00:51 05.02.2022
3938 Clear 13 1031 21 10000 5.81 10 23:38 04.02.2022
3939 Clear 13 1031 21 10000 5.81 10 23:20 04.02.2022
3940 Clear 11 1034 25 10000 4.02 60 21:37 04.02.2022
3941 Clear 11 1034 25 10000 4.02 60 21:19 04.02.2022
3942 Clear 10 1035 27 10000 6.26 60 20:50 04.02.2022
3943 Clear 9 1035 29 10000 4.02 60 19:36 04.02.2022
3944 Clear 5 1036 36 10000 0 0 17:28 04.02.2022
3945 Clear 2 1034 40 10000 1.34 310 15:39 04.02.2022
3946 Clear 1 1033 40 10000 2.68 270 14:52 04.02.2022
3947 Clear 3 1033 38 10000 2.24 240 12:43 04.02.2022
3948 Clear 3 1032 36 10000 1.34 210 11:47 04.02.2022
3949 Clear 3 1032 36 10000 1.34 210 11:22 04.02.2022
3950 Clear 4 1032 36 10000 4.47 20 10:32 04.02.2022
3951 Clear 5 1031 33 10000 3.13 20 08:34 04.02.2022
3952 Clear 7 1028 28 10000 3.13 20 05:19 04.02.2022
3953 Clear 10 1025 23 10000 4.63 90 02:39 04.02.2022
3954 Clear 12 1025 20 10000 6.71 50 00:26 04.02.2022
3955 Clear 12 1025 20 10000 6.26 40 23:21 03.02.2022
3956 Clear 11 1025 20 10000 5.36 70 22:26 03.02.2022
3957 Clear 10 1025 21 10000 3.13 0 21:47 03.02.2022
3958 Clear 9 1027 22 10000 1.34 70 20:26 03.02.2022
3959 Clear 8 1027 25 10000 2.87 22 19:59 03.02.2022
3960 Clear 7 1027 23 10000 3.58 20 19:26 03.02.2022
3961 Clear 5 1027 25 10000 3.58 20 18:26 03.02.2022
3962 Clouds 3 1027 28 10000 0 0 17:27 03.02.2022
3963 Clear 0 1025 31 10000 2.24 50 15:44 03.02.2022
3964 Clear 1 1024 31 10000 2.24 90 14:22 03.02.2022
3965 Clear 1 1024 30 10000 1.34 40 12:32 03.02.2022
3966 Clear 2 1024 25 10000 2.24 10 09:29 03.02.2022
3967 Clear 3 1023 24 10000 4.47 50 08:19 03.02.2022
3968 Clear 7 1021 20 10000 3.13 53 02:56 03.02.2022
3969 Clear 9 1018 15 10000 8.94 10 00:29 03.02.2022
3970 Clouds 9 1019 15 10000 8.05 350 22:41 02.02.2022
3971 Clouds 9 1020 16 10000 9.39 340 21:52 02.02.2022
3972 Clouds 9 1020 16 10000 9.39 340 21:29 02.02.2022
3973 Clouds 8 1020 17 10000 10.73 330 20:27 02.02.2022
3974 Clouds 7 1020 18 10000 9.39 360 19:48 02.02.2022
3975 Clear 7 1020 22 10000 6.71 33 19:00 02.02.2022
3976 Clouds 6 1020 21 10000 9.39 350 18:25 02.02.2022
3977 Clouds 5 1019 23 10000 10.28 340 17:22 02.02.2022
3978 Clear 4 1020 26 10000 5.36 0 16:58 02.02.2022
3979 Clear 4 1018 25 10000 7.6 350 15:49 02.02.2022
3980 Clear 4 1015 24 10000 7.15 40 12:47 02.02.2022
3981 Clear 5 1015 24 10000 6.71 360 11:49 02.02.2022
3982 Clear 5 1015 24 10000 6.71 360 11:30 02.02.2022
3983 Clear 6 1014 24 10000 5.36 50 08:48 02.02.2022
3984 Clouds 12 1011 17 10000 5.36 40 02:44 02.02.2022
3985 Clouds 14 1011 20 10000 7.15 60 22:34 01.02.2022
3986 Clouds 14 1013 23 10000 2.68 30 20:55 01.02.2022
3987 Clouds 13 1014 25 10000 7.15 60 19:29 01.02.2022
3988 Clouds 10 1013 28 10000 3.58 50 17:34 01.02.2022
3989 Clouds 8 1013 30 10000 3.58 80 16:21 01.02.2022
3990 Clouds 9 1012 28 10000 4.63 80 12:57 01.02.2022
3991 Clouds 9 1012 28 10000 2.24 300 12:21 01.02.2022
3992 Clouds 9 1013 29 10000 1.34 240 08:52 01.02.2022
3993 Clouds 12 1014 21 10000 0 0 02:20 01.02.2022
3994 Clouds 14 1016 18 10000 2.68 70 23:37 31.01.2022
3995 Clouds 14 1017 18 10000 0 0 22:33 31.01.2022
3996 Clouds 14 1018 18 10000 0 0 21:35 31.01.2022
3997 Clouds 14 1018 18 10000 0 0 21:35 31.01.2022
3998 Clouds 13 1019 18 10000 0 0 20:34 31.01.2022
3999 Clouds 13 1020 22 10000 0.36 114 19:57 31.01.2022
4000 Clouds 10 1020 23 10000 0 0 18:32 31.01.2022
4001 Clear 9 1020 26 10000 2.06 360 17:57 31.01.2022
4002 Clouds 7 1020 26 10000 1.54 170 17:18 31.01.2022
4003 Clouds 6 1020 26 10000 0 0 16:21 31.01.2022
4004 Clouds 6 1020 27 10000 2.06 210 14:50 31.01.2022
4005 Clouds 5 1019 27 10000 1.54 230 13:29 31.01.2022
4006 Clouds 6 1020 26 10000 1.54 250 12:37 31.01.2022
4007 Clouds 9 1019 22 10000 0.7 236 10:59 31.01.2022
4008 Clouds 8 1020 23 10000 1.34 210 10:38 31.01.2022
4009 Clouds 8 1020 22 10000 0 0 09:36 31.01.2022
4010 Clear 9 1021 21 10000 2.24 210 08:54 31.01.2022
4011 Clear 9 1021 22 10000 2.24 210 08:20 31.01.2022
4012 Clear 9 1021 21 10000 1.34 220 07:37 31.01.2022
4013 Clear 11 1020 22 10000 2.24 250 05:24 31.01.2022
4014 Clear 18 1020 11 10000 0 0 00:23 31.01.2022
4015 Clear 17 1020 14 10000 0 0 22:33 30.01.2022
4016 Clear 17 1021 14 10000 1.34 60 21:45 30.01.2022
4017 Clear 17 1021 15 10000 1.34 60 21:24 30.01.2022
4018 Clear 16 1022 15 10000 1.34 80 20:51 30.01.2022
4019 Clear 16 1022 15 10000 1.34 80 20:31 30.01.2022
4020 Clouds 14 1023 17 10000 0 0 19:55 30.01.2022
4021 Clouds 12 1022 19 10000 0 0 18:51 30.01.2022
4022 Clouds 12 1022 20 10000 0 0 18:22 30.01.2022
4023 Clouds 9 1021 23 10000 0 0 17:30 30.01.2022
4024 Clouds 6 1021 23 10000 1.54 220 16:42 30.01.2022
4025 Clouds 5 1021 26 10000 1.54 220 16:22 30.01.2022
4026 Clear 5 1020 26 10000 1.54 240 15:54 30.01.2022
4027 Clear 6 1020 25 10000 1.54 240 15:32 30.01.2022
4028 Clear 6 1020 24 10000 2.57 200 14:47 30.01.2022
4029 Clear 7 1019 23 10000 1.54 240 13:44 30.01.2022
4030 Clouds 7 1019 24 10000 1.54 230 12:44 30.01.2022
4031 Clouds 9 1019 20 10000 0 0 10:39 30.01.2022
4032 Clouds 10 1020 23 10000 1.46 317 09:58 30.01.2022
4033 Clouds 10 1019 20 10000 0 0 09:21 30.01.2022
4034 Clouds 11 1019 23 10000 1.3 269 07:57 30.01.2022
4035 Clouds 14 1020 16 10000 2.68 260 02:44 30.01.2022
4036 Clouds 15 1020 15 10000 2.68 280 01:52 30.01.2022
4037 Clouds 16 1021 13 10000 2.24 40 23:46 29.01.2022
4038 Clouds 16 1022 14 10000 4.02 20 22:48 29.01.2022
4039 Clouds 15 1024 11 10000 2.24 30 21:28 29.01.2022
4040 Clouds 14 1025 15 10000 1.34 60 20:50 29.01.2022
4041 Clouds 13 1026 17 10000 0 0 19:47 29.01.2022
4042 Clouds 13 1026 17 10000 0 0 19:29 29.01.2022
4043 Clouds 11 1026 19 10000 0 0 18:43 29.01.2022
4044 Clouds 8 1026 23 10000 0 0 17:46 29.01.2022
4045 Clouds 4 1026 26 10000 1.34 230 16:43 29.01.2022
4046 Clouds 4 1026 26 10000 0 0 15:20 29.01.2022
4047 Clouds 5 1025 24 10000 2.24 230 13:47 29.01.2022
4048 Clouds 5 1025 25 10000 2.24 230 13:26 29.01.2022
4049 Clouds 6 1026 24 10000 1.34 250 12:42 29.01.2022
4050 Clouds 6 1026 23 10000 3.13 210 11:38 29.01.2022
4051 Clouds 7 1026 22 10000 2.68 210 10:31 29.01.2022
4052 Clouds 9 1026 18 10000 1.96 331 07:57 29.01.2022
4053 Clouds 13 1028 14 10000 3.58 40 01:37 29.01.2022
4054 Clouds 15 1029 12 10000 5.36 60 00:31 29.01.2022
4055 Clouds 15 1029 13 10000 6.71 50 23:22 28.01.2022
4056 Clouds 14 1031 13 10000 6.26 60 22:42 28.01.2022
4057 Clouds 14 1031 13 10000 6.26 60 22:18 28.01.2022
4058 Clouds 12 1034 17 10000 2.68 30 20:40 28.01.2022
4059 Clouds 11 1035 19 10000 0 0 19:51 28.01.2022
4060 Clouds 9 1035 21 10000 1.34 190 18:49 28.01.2022
4061 Clouds 7 1035 25 10000 2.24 210 17:46 28.01.2022
4062 Clear 3 1034 31 10000 2.24 200 15:46 28.01.2022
4063 Clear 4 1034 29 10000 1.34 220 14:20 28.01.2022
4064 Clear 5 1033 26 10000 0 0 12:35 28.01.2022
4065 Clear 6 1034 25 10000 2.24 220 11:38 28.01.2022
4066 Clear 7 1033 23 10000 2.68 20 10:22 28.01.2022
4067 Clear 7 1033 22 10000 4.02 50 09:45 28.01.2022
4068 Clear 9 1032 18 10000 4.47 60 07:40 28.01.2022
4069 Clear 11 1030 18 10000 4.47 60 05:24 28.01.2022
4070 Clear 12 1028 21 10000 5.81 50 03:47 28.01.2022
4071 Clear 14 1026 19 10000 6.71 50 02:23 28.01.2022
4072 Clear 15 1026 17 10000 8.05 50 01:34 28.01.2022
4073 Clear 17 1026 15 10000 5.36 40 23:33 27.01.2022
4074 Clear 15 1026 18 10000 2.24 70 21:50 27.01.2022
4075 Clear 15 1026 18 10000 2.24 70 21:30 27.01.2022
4076 Clear 14 1027 20 10000 0 0 20:53 27.01.2022
4077 Clear 12 1027 22 10000 1.34 40 19:30 27.01.2022
4078 Clear 8 1027 29 10000 0.45 225 17:56 27.01.2022
4079 Clear 4 1025 32 10000 0 0 15:31 27.01.2022
4080 Clear 3 1023 35 10000 1.34 160 13:39 27.01.2022
4081 Clear 4 1024 33 10000 2.24 250 12:46 27.01.2022
4082 Clear 4 1024 33 10000 2.24 250 12:46 27.01.2022
4083 Clear 5 1023 31 10000 0 0 10:57 27.01.2022
4084 Clear 5 1023 33 10000 2.68 210 09:19 27.01.2022
4085 Clear 6 1023 32 10000 2.68 210 08:37 27.01.2022
4086 Clear 6 1024 33 10000 1.34 300 07:22 27.01.2022
4087 Clear 10 1022 30 10000 3.6 50 02:57 27.01.2022
4088 Clear 13 1022 24 10000 2.24 0 23:33 26.01.2022
4089 Clear 12 1023 26 10000 0 0 22:25 26.01.2022
4090 Clear 12 1024 27 10000 3.13 20 21:36 26.01.2022
4091 Clear 11 1025 28 10000 3.58 40 20:41 26.01.2022
4092 Clear 11 1025 28 10000 3.58 40 20:23 26.01.2022
4093 Clear 10 1026 30 10000 1.34 350 19:23 26.01.2022
4094 Clear 8 1026 34 10000 0 0 18:45 26.01.2022
4095 Clear 6 1026 40 10000 0 0 17:51 26.01.2022
4096 Clear 5 1026 42 10000 0 0 17:23 26.01.2022
4097 Clear 3 1026 47 10000 0 0 16:33 26.01.2022
4098 Clear 3 1025 45 10000 1.34 190 15:49 26.01.2022
4099 Clear 4 1024 44 10000 0 0 14:20 26.01.2022
4100 Clear 6 1024 38 10000 3.58 20 11:52 26.01.2022
4101 Clear 6 1024 37 10000 6.71 30 10:28 26.01.2022
4102 Clear 7 1023 36 10000 2.68 100 09:48 26.01.2022
4103 Clear 8 1022 32 10000 4.02 40 07:45 26.01.2022
4104 Clear 11 1021 27 10000 2.68 90 04:24 26.01.2022
4105 Clear 15 1018 24 10000 6.26 11 23:58 25.01.2022
4106 Clouds 15 1017 21 10000 5.36 360 23:19 25.01.2022
4107 Clouds 15 1017 21 10000 9.83 30 22:21 25.01.2022
4108 Clouds 15 1018 21 10000 10.28 360 21:58 25.01.2022
4109 Clear 15 1018 20 10000 9.83 10 20:47 25.01.2022
4110 Clear 15 1018 20 10000 9.83 10 20:28 25.01.2022
4111 Clear 15 1018 20 10000 9.83 10 20:28 25.01.2022
4112 Clear 15 1018 20 10000 9.83 10 20:28 25.01.2022
4113 Clear 15 1018 21 10000 10.28 320 19:52 25.01.2022
4114 Clear 14 1017 24 10000 11.62 340 18:38 25.01.2022
4115 Clear 12 1016 31 10000 0 0 17:45 25.01.2022
4116 Clear 9 1015 37 10000 2.24 280 16:45 25.01.2022
4117 Clear 8 1015 39 10000 2.24 280 16:21 25.01.2022
4118 Clear 8 1014 36 10000 3.58 20 15:38 25.01.2022
4119 Clear 8 1014 39 10000 1.34 190 14:57 25.01.2022
4120 Clear 9 1012 36 10000 3.13 210 13:42 25.01.2022
4121 Clear 10 1013 34 10000 3.13 230 10:51 25.01.2022
4122 Clear 10 1014 31 10000 2.68 250 08:37 25.01.2022
4123 Clouds 10 1015 35 10000 2.68 220 07:29 25.01.2022
4124 Clouds 10 1014 34 10000 1.34 210 06:49 25.01.2022
4125 Clouds 11 1015 33 10000 1.34 210 05:22 25.01.2022
4126 Clear 18 1016 22 10000 2.24 80 23:37 24.01.2022
4127 Clear 18 1016 20 10000 2.24 80 23:18 24.01.2022
4128 Clear 18 1016 24 10000 0.45 115 22:59 24.01.2022
4129 Clear 17 1017 23 10000 1.34 40 22:41 24.01.2022
4130 Clear 17 1018 25 10000 0 0 21:53 24.01.2022
4131 Clear 17 1018 25 10000 0 0 21:53 24.01.2022
4132 Clear 16 1018 23 10000 0 0 21:28 24.01.2022
4133 Clear 16 1019 24 10000 1.34 30 20:30 24.01.2022
4134 Clear 14 1020 26 10000 0 0 19:44 24.01.2022
4135 Clear 14 1020 26 10000 0 0 19:24 24.01.2022
4136 Clear 12 1020 31 10000 0.45 182 17:59 24.01.2022
4137 Clear 9 1020 37 10000 1.34 200 17:24 24.01.2022
4138 Clear 7 1020 37 10000 2.68 270 16:41 24.01.2022
4139 Clear 6 1020 37 10000 2.68 270 16:18 24.01.2022
4140 Clear 6 1020 36 10000 2.24 220 14:38 24.01.2022
4141 Clear 7 1020 37 10000 0.45 310 12:58 24.01.2022
4142 Clear 7 1020 34 10000 2.24 220 12:23 24.01.2022
4143 Clear 8 1021 30 10000 2.24 220 10:27 24.01.2022
4144 Clear 8 1021 31 10000 1.34 0 09:48 24.01.2022
4145 Clear 9 1021 30 10000 2.24 220 08:34 24.01.2022
4146 Clear 10 1022 28 10000 0 0 06:19 24.01.2022
4147 Clouds 16 1022 20 10000 0 0 01:30 24.01.2022
4148 Clouds 17 1022 18 10000 2.24 130 00:35 24.01.2022
4149 Clouds 17 1022 19 10000 1.34 0 23:49 23.01.2022
4150 Clouds 17 1022 19 10000 1.34 0 23:49 23.01.2022
4151 Clouds 16 1023 21 10000 3.58 30 22:28 23.01.2022
4152 Clouds 15 1024 21 10000 3.58 30 21:46 23.01.2022
4153 Clouds 15 1024 22 10000 3.58 30 21:25 23.01.2022
4154 Clouds 14 1026 23 10000 4.47 50 20:44 23.01.2022
4155 Clear 13 1026 26 10000 5.36 360 19:43 23.01.2022
4156 Clear 11 1026 29 10000 0 0 18:50 23.01.2022
4157 Clear 9 1026 31 10000 0 0 17:44 23.01.2022
4158 Clear 7 1026 35 10000 1.34 0 16:47 23.01.2022
4159 Clear 7 1025 37 10000 0.45 229 14:59 23.01.2022
4160 Clear 7 1025 34 10000 1.34 210 14:25 23.01.2022
4161 Clear 7 1025 34 10000 1.34 210 14:25 23.01.2022
4162 Clear 9 1025 33 10000 4.47 40 12:54 23.01.2022
4163 Clear 9 1025 31 10000 4.47 40 12:22 23.01.2022
4164 Clear 9 1024 31 10000 6.71 30 11:52 23.01.2022
4165 Clear 9 1024 31 10000 6.71 30 11:18 23.01.2022
4166 Clear 10 1024 30 10000 6.26 20 10:27 23.01.2022
4167 Clear 10 1024 30 10000 6.26 10 09:51 23.01.2022
4168 Clear 11 1024 29 10000 6.71 10 08:53 23.01.2022
4169 Clear 12 1023 31 10000 2.24 17 05:56 23.01.2022
4170 Clouds 15 1020 23 10000 6.26 360 01:52 23.01.2022
4171 Clouds 16 1020 23 10000 6.26 360 01:26 23.01.2022
4172 Clouds 16 1020 22 10000 9.39 20 00:23 23.01.2022
4173 Clouds 16 1020 22 10000 9.39 30 23:44 22.01.2022
4174 Clouds 16 1020 23 10000 7.6 10 22:46 22.01.2022
4175 Clouds 15 1021 24 10000 5.81 10 21:36 22.01.2022
4176 Clouds 13 1023 26 10000 10.28 360 19:51 22.01.2022
4177 Clouds 11 1023 28 10000 7.15 360 18:49 22.01.2022
4178 Clouds 11 1023 28 10000 7.15 360 18:18 22.01.2022
4179 Clouds 9 1022 31 10000 7.6 350 17:40 22.01.2022
4180 Clear 8 1022 35 10000 4.92 328 16:56 22.01.2022
4181 Clouds 8 1021 33 10000 9.39 340 15:50 22.01.2022
4182 Clear 8 1021 35 10000 4.47 28 14:58 22.01.2022
4183 Clouds 9 1020 33 10000 10.73 350 13:42 22.01.2022
4184 Clouds 9 1021 32 10000 6.26 340 12:50 22.01.2022
4185 Clouds 9 1021 32 10000 6.26 340 12:28 22.01.2022
4186 Clouds 9 1022 33 10000 5.81 24 10:56 22.01.2022
4187 Clouds 10 1021 32 10000 6.71 340 10:29 22.01.2022
4188 Clear 10 1021 35 10000 4.92 14 09:58 22.01.2022
4189 Clouds 11 1021 32 10000 9.39 350 08:51 22.01.2022
4190 Clouds 11 1020 32 10000 9.39 360 07:38 22.01.2022
4191 Clouds 12 1019 30 10000 8.94 10 04:52 22.01.2022
4192 Clouds 14 1017 32 10000 9.83 10 01:34 22.01.2022
4193 Clouds 15 1017 31 10000 5.81 360 23:38 21.01.2022
4194 Clouds 15 1017 31 10000 5.81 360 23:38 21.01.2022
4195 Clouds 15 1017 31 10000 3.13 50 22:28 21.01.2022
4196 Clouds 13 1020 33 10000 3.58 50 20:22 21.01.2022
4197 Clouds 9 1019 39 10000 0 0 18:39 21.01.2022
4198 Clouds 7 1019 42 10000 0 0 17:28 21.01.2022
4199 Clouds 6 1018 45 10000 1.54 270 15:30 21.01.2022
4200 Clouds 6 1019 44 10000 1.54 200 13:37 21.01.2022
4201 Clouds 6 1020 43 10000 0 0 12:38 21.01.2022
4202 Clouds 7 1020 45 10000 0 0 11:27 21.01.2022
4203 Clouds 8 1020 43 10000 2.24 220 10:19 21.01.2022
4204 Clouds 8 1022 42 10000 1.34 230 08:24 21.01.2022
4205 Clouds 9 1023 43 10000 0.55 231 06:57 21.01.2022
4206 Clouds 16 1026 25 10000 0 0 23:36 20.01.2022
4207 Clouds 16 1027 26 10000 2.24 0 22:24 20.01.2022
4208 Clouds 15 1028 28 10000 2.68 0 21:43 20.01.2022
4209 Clouds 14 1029 30 10000 4.47 40 20:43 20.01.2022
4210 Clouds 13 1030 34 10000 6.26 10 19:20 20.01.2022
4211 Clouds 12 1029 37 10000 3.58 90 18:50 20.01.2022
4212 Clouds 10 1029 40 10000 3.13 30 17:29 20.01.2022
4213 Clear 8 1028 45 10000 4.47 60 15:43 20.01.2022
4214 Clear 7 1028 46 10000 4.47 60 15:22 20.01.2022
4215 Clear 8 1027 44 10000 5.36 70 13:41 20.01.2022
4216 Clear 9 1026 41 10000 7.15 20 12:35 20.01.2022
4217 Clear 9 1026 44 10000 4.47 30 11:50 20.01.2022
4218 Clear 9 1026 46 10000 2.24 50 10:40 20.01.2022
4219 Clear 10 1025 42 10000 5.81 10 09:40 20.01.2022
4220 Clear 9 1025 47 10000 2.68 300 08:32 20.01.2022
4221 Clear 11 1023 47 10000 1.34 280 05:32 20.01.2022
4222 Clouds 17 1021 30 10000 2.24 130 23:28 19.01.2022
4223 Clouds 17 1021 32 10000 0 0 22:24 19.01.2022
4224 Clouds 16 1022 36 10000 0 0 21:23 19.01.2022
4225 Clouds 15 1022 39 10000 0 0 20:49 19.01.2022
4226 Clouds 14 1023 48 10000 1.34 80 19:45 19.01.2022
4227 Clouds 11 1022 58 10000 1.34 200 18:40 19.01.2022
4228 Clouds 9 1021 65 10000 0 0 17:45 19.01.2022
4229 Clouds 6 1021 74 10000 2.24 250 16:48 19.01.2022
4230 Haze 6 1020 75 10000 2.06 210 14:42 19.01.2022
4231 Smoke 7 1019 78 10000 1.34 220 12:43 19.01.2022
4232 Smoke 7 1019 77 10000 1.34 250 11:42 19.01.2022
4233 Smoke 8 1019 75 10000 1.34 260 10:35 19.01.2022
4234 Clouds 8 1019 77 10000 2.24 210 09:34 19.01.2022
4235 Clouds 9 1019 71 10000 0.14 221 06:56 19.01.2022
4236 Clouds 13 1016 60 10000 2.24 70 02:41 19.01.2022
4237 Clouds 15 1016 51 10000 2.24 80 23:20 18.01.2022
4238 Clouds 15 1016 50 10000 2.24 0 22:34 18.01.2022
4239 Clouds 14 1017 55 10000 2.24 80 21:01 18.01.2022
4240 Clouds 13 1018 55 10000 0.45 114 19:55 18.01.2022
4241 Clouds 12 1018 56 10000 0 0 19:36 18.01.2022
4242 Smoke 11 1018 68 10000 2.68 90 18:51 18.01.2022
4243 Smoke 10 1018 74 10000 0 0 17:58 18.01.2022
4244 Clouds 9 1017 66 10000 1.54 240 16:58 18.01.2022
4245 Rain 8 1017 74 10000 0 0 15:47 18.01.2022
4246 Rain 8 1017 74 10000 0 0 15:22 18.01.2022
4247 Clouds 9 1016 59 10000 1.34 200 12:47 18.01.2022
4248 Clouds 10 1016 41 10000 0 0 10:47 18.01.2022
4249 Clouds 10 1017 37 10000 0 0 09:21 18.01.2022
4250 Clouds 10 1017 37 10000 0 0 07:55 18.01.2022
4251 Clouds 13 1016 27 10000 1.34 110 02:35 18.01.2022
4252 Clouds 16 1017 23 10000 2.24 70 23:46 17.01.2022
4253 Clouds 15 1017 24 10000 2.24 60 22:27 17.01.2022
4254 Clouds 15 1018 23 10000 0 0 21:35 17.01.2022
4255 Clouds 14 1019 24 10000 2.24 70 20:24 17.01.2022
4256 Clouds 10 1020 30 10000 0 0 18:30 17.01.2022
4257 Clouds 8 1019 35 10000 1.54 230 17:44 17.01.2022
4258 Clouds 6 1019 36 10000 0 0 16:44 17.01.2022
4259 Clouds 6 1019 35 10000 0 0 15:22 17.01.2022
4260 Clear 7 1018 33 10000 2.06 310 14:56 17.01.2022
4261 Clouds 7 1018 35 10000 1.34 250 13:26 17.01.2022
4262 Clear 7 1019 35 10000 0 0 12:56 17.01.2022
4263 Clouds 7 1018 34 10000 0 0 11:49 17.01.2022
4264 Clouds 8 1019 34 10000 1.54 220 10:21 17.01.2022
4265 Clouds 8 1019 33 10000 2.06 210 09:34 17.01.2022
4266 Clouds 8 1019 32 10000 1.34 200 07:24 17.01.2022
4267 Clear 9 1019 32 10000 2.06 50 06:56 17.01.2022
4268 Clouds 16 1019 22 10000 0 0 00:55 17.01.2022
4269 Clouds 16 1020 23 10000 0 0 22:29 16.01.2022
4270 Clouds 14 1022 26 10000 0 0 20:36 16.01.2022
4271 Clouds 10 1023 33 10000 0 0 18:51 16.01.2022
4272 Clear 9 1024 35 10000 0.81 348 17:59 16.01.2022
4273 Clouds 6 1023 39 10000 0 0 17:21 16.01.2022
4274 Clouds 4 1023 42 10000 2.24 250 16:33 16.01.2022
4275 Clouds 5 1022 40 10000 2.06 220 14:31 16.01.2022
4276 Clouds 5 1022 39 10000 2.06 210 13:46 16.01.2022
4277 Clouds 7 1023 36 10000 1.54 230 12:46 16.01.2022
4278 Clouds 7 1024 36 10000 2.06 280 11:41 16.01.2022
4279 Clouds 7 1024 36 10000 2.06 200 10:53 16.01.2022
4280 Clouds 8 1022 34 10000 1.28 345 09:59 16.01.2022
4281 Clouds 8 1024 36 10000 2.24 220 09:40 16.01.2022
4282 Clouds 8 1024 36 10000 2.24 220 09:22 16.01.2022
4283 Clouds 9 1024 33 10000 1.34 200 07:30 16.01.2022
4284 Smoke 15 1025 25 10000 2.68 270 00:38 16.01.2022
4285 Clouds 15 1025 25 10000 0 0 23:40 15.01.2022
4286 Clouds 14 1027 27 10000 1.34 0 21:23 15.01.2022
4287 Clear 14 1028 30 10000 2.57 230 20:56 15.01.2022
4288 Clouds 14 1029 29 10000 0 0 20:38 15.01.2022
4289 Clouds 12 1030 33 10000 0 0 19:28 15.01.2022
4290 Clouds 10 1030 37 10000 0 0 18:31 15.01.2022
4291 Clouds 6 1030 43 10000 1.34 230 16:52 15.01.2022
4292 Clouds 7 1029 42 10000 2.68 210 15:38 15.01.2022
4293 Clouds 8 1028 41 10000 2.24 190 13:35 15.01.2022
4294 Clouds 8 1028 42 10000 0 0 11:46 15.01.2022
4295 Clouds 10 1028 37 10000 2.24 10 09:49 15.01.2022
4296 Clouds 13 1027 32 10000 3.13 50 05:27 15.01.2022
4297 Clouds 18 1023 22 10000 6.71 360 23:44 14.01.2022
4298 Clouds 18 1025 22 10000 7.15 40 21:29 14.01.2022
4299 Clouds 18 1026 23 10000 5.81 30 20:37 14.01.2022
4300 Clear 17 1026 26 10000 4.02 5 19:56 14.01.2022
4301 Clouds 15 1025 29 10000 1.34 110 18:43 14.01.2022
4302 Clouds 13 1025 34 10000 2.24 160 17:52 14.01.2022
4303 Clouds 10 1023 42 10000 2.24 210 16:43 14.01.2022
4304 Clouds 10 1023 42 10000 2.24 210 16:43 14.01.2022
4305 Clouds 9 1022 42 10000 1.34 210 15:33 14.01.2022
4306 Clouds 8 1021 43 10000 0 0 14:29 14.01.2022
4307 Clouds 10 1019 40 10000 1.83 341 12:59 14.01.2022
4308 Clouds 10 1020 41 10000 2.68 280 11:53 14.01.2022
4309 Smoke 10 1020 39 10000 1.34 260 10:40 14.01.2022
4310 Clouds 11 1020 39 10000 0 0 08:53 14.01.2022
4311 Clouds 12 1021 35 10000 0 0 07:32 14.01.2022
4312 Clouds 15 1021 30 10000 0 0 02:27 14.01.2022
4313 Clouds 17 1022 26 10000 3.13 90 00:33 14.01.2022
4314 Clouds 17 1024 27 10000 0 0 21:52 13.01.2022
4315 Clouds 16 1024 28 10000 0 0 21:29 13.01.2022
4316 Clouds 15 1025 33 10000 0.45 157 19:58 13.01.2022
4317 Clouds 14 1026 32 10000 0 0 19:29 13.01.2022
4318 Clouds 13 1026 35 10000 0 0 18:40 13.01.2022
4319 Clouds 9 1026 39 10000 0 0 16:53 13.01.2022
4320 Clouds 9 1025 38 10000 0 0 15:39 13.01.2022
4321 Clouds 8 1025 38 10000 0 0 15:21 13.01.2022
4322 Clouds 8 1025 38 10000 2.68 210 13:29 13.01.2022
4323 Clouds 9 1026 35 10000 0 0 11:18 13.01.2022
4324 Clouds 10 1027 34 10000 2.24 210 09:23 13.01.2022
4325 Clouds 10 1027 33 10000 2.24 250 08:29 13.01.2022
4326 Clouds 11 1025 35 10000 0.66 345 07:58 13.01.2022
4327 Clouds 11 1027 32 10000 1.34 260 07:19 13.01.2022
4328 Clouds 12 1027 30 10000 2.24 200 05:21 13.01.2022
4329 Clear 14 1027 28 10000 2.24 230 03:48 13.01.2022
4330 Clouds 17 1027 23 10000 0 0 01:39 13.01.2022
4331 Clouds 18 1027 22 10000 0 0 23:53 12.01.2022
4332 Clouds 18 1027 20 10000 0 0 23:34 12.01.2022
4333 Clouds 18 1028 22 10000 1.34 20 22:32 12.01.2022
4334 Clouds 17 1029 23 10000 0 0 21:43 12.01.2022
4335 Clouds 16 1029 24 10000 0 0 21:19 12.01.2022
4336 Clouds 16 1030 25 10000 1.34 150 20:47 12.01.2022
4337 Clouds 12 1031 30 10000 0 0 18:52 12.01.2022
4338 Clouds 11 1031 30 10000 0 0 18:18 12.01.2022
4339 Clouds 7 1030 38 10000 2.24 230 16:52 12.01.2022
4340 Clouds 6 1029 37 10000 2.24 230 15:38 12.01.2022
4341 Clouds 6 1029 37 10000 1.34 230 14:39 12.01.2022
4342 Clouds 8 1028 36 10000 1.74 0 12:57 12.01.2022
4343 Clouds 8 1030 30 10000 1.34 220 09:48 12.01.2022
4344 Clear 9 1028 31 10000 1.21 339 07:58 12.01.2022
4345 Clouds 8 1030 30 10000 2.24 250 07:33 12.01.2022
4346 Clouds 13 1028 24 10000 1.34 200 02:38 12.01.2022
4347 Clouds 16 1028 20 10000 0 0 23:27 11.01.2022
4348 Clouds 15 1028 21 10000 1.34 60 22:39 11.01.2022
4349 Clouds 15 1028 21 10000 1.34 60 22:18 11.01.2022
4350 Clouds 13 1032 25 10000 0 0 20:40 11.01.2022
4351 Clouds 12 1033 27 10000 0 0 19:35 11.01.2022
4352 Clear 8 1032 35 10000 2.57 210 17:54 11.01.2022
4353 Clear 4 1031 40 10000 1.34 250 16:40 11.01.2022
4354 Clear 4 1031 40 10000 1.34 250 16:40 11.01.2022
4355 Clear 4 1031 40 10000 1.34 250 16:18 11.01.2022
4356 Clouds 5 1030 40 10000 1.54 220 14:53 11.01.2022
4357 Clouds 5 1030 38 10000 1.54 220 14:34 11.01.2022
4358 Clouds 5 1030 39 10000 2.06 200 13:52 11.01.2022
4359 Clouds 5 1030 39 10000 2.06 200 13:28 11.01.2022
4360 Clouds 6 1030 39 10000 2.24 230 12:34 11.01.2022
4361 Clouds 7 1030 35 10000 2.24 180 10:32 11.01.2022
4362 Clouds 8 1031 33 10000 1.34 220 07:55 11.01.2022
4363 Clouds 10 1031 30 10000 1.34 220 04:28 11.01.2022
4364 Clouds 15 1030 21 10000 2.68 330 00:27 11.01.2022
4365 Clouds 15 1030 20 10000 2.68 330 23:39 10.01.2022
4366 Clouds 15 1031 22 10000 4.02 10 22:39 10.01.2022
4367 Clouds 15 1031 22 10000 4.02 10 22:18 10.01.2022
4368 Clouds 14 1033 25 10000 0 0 21:33 10.01.2022
4369 Clouds 14 1033 28 10000 0.45 87 20:59 10.01.2022
4370 Clouds 13 1034 27 10000 1.34 60 20:41 10.01.2022
4371 Clouds 13 1034 27 10000 1.34 60 20:19 10.01.2022
4372 Clouds 11 1035 30 10000 1.34 0 19:38 10.01.2022
4373 Clouds 11 1035 31 10000 1.34 0 19:19 10.01.2022
4374 Clouds 10 1035 33 10000 1.34 190 18:46 10.01.2022
4375 Clouds 5 1034 44 10000 2.24 220 16:48 10.01.2022
4376 Clouds 5 1034 44 10000 2.24 220 16:26 10.01.2022
4377 Clouds 5 1033 43 10000 0 0 14:43 10.01.2022
4378 Clouds 5 1033 43 10000 2.68 270 13:22 10.01.2022
4379 Clear 7 1033 40 10000 2.06 250 11:56 10.01.2022
4380 Clear 6 1033 38 10000 1.34 230 10:48 10.01.2022
4381 Clear 7 1033 39 10000 1.34 210 09:33 10.01.2022
4382 Clear 9 1032 34 10000 1.34 250 05:51 10.01.2022
4383 Clear 13 1031 28 10000 4.47 40 02:30 10.01.2022
4384 Clear 15 1030 24 10000 5.81 40 01:20 10.01.2022
4385 Clear 16 1030 23 10000 6.71 50 00:19 10.01.2022
4386 Clear 15 1030 24 10000 6.26 40 22:44 09.01.2022
4387 Clear 15 1031 26 10000 0.89 35 21:57 09.01.2022
4388 Clear 15 1031 25 10000 5.36 50 21:37 09.01.2022
4389 Clear 15 1031 25 10000 5.36 50 21:37 09.01.2022
4390 Clear 15 1031 25 10000 5.36 50 21:37 09.01.2022
4391 Clear 14 1031 26 10000 5.36 50 21:18 09.01.2022
4392 Clear 14 1032 28 10000 3.58 10 20:45 09.01.2022
4393 Clear 14 1032 28 10000 3.58 10 20:26 09.01.2022
4394 Clear 12 1032 34 10000 0 0 19:38 09.01.2022
4395 Clear 12 1032 34 10000 0 0 19:20 09.01.2022
4396 Clear 10 1031 38 10000 2.24 180 18:37 09.01.2022
4397 Clear 8 1031 43 10000 1.34 200 17:48 09.01.2022
4398 Clear 8 1030 45 10000 1.34 200 17:29 09.01.2022
4399 Clear 6 1030 46 10000 2.68 220 16:43 09.01.2022
4400 Clear 6 1029 48 10000 2.06 200 15:42 09.01.2022
4401 Clear 6 1029 48 10000 2.06 200 15:42 09.01.2022
4402 Clear 6 1029 48 10000 0.45 223 14:58 09.01.2022
4403 Clear 6 1027 45 10000 1.34 220 14:24 09.01.2022
4404 Smoke 7 1027 45 10000 2.57 200 13:48 09.01.2022
4405 Clear 8 1027 45 10000 2.88 345 11:58 09.01.2022
4406 Clear 8 1026 42 10000 1.34 150 11:28 09.01.2022
4407 Clear 9 1025 40 10000 0 0 09:55 09.01.2022
4408 Clear 9 1025 38 10000 0 0 09:20 09.01.2022
4409 Clear 10 1024 35 10000 4.63 80 06:57 09.01.2022
4410 Clouds 16 1018 23 10000 5.36 330 01:30 09.01.2022
4411 Clouds 17 1017 22 10000 5.36 350 00:38 09.01.2022
4412 Clouds 17 1017 24 10000 3.58 330 23:34 08.01.2022
4413 Clouds 18 1016 25 10000 5.36 360 22:48 08.01.2022
4414 Clouds 17 1017 26 10000 6.71 10 21:28 08.01.2022
4415 Clouds 16 1017 29 10000 4.47 10 20:44 08.01.2022
4416 Clouds 16 1017 29 10000 4.47 10 20:22 08.01.2022
4417 Clouds 15 1017 34 10000 2.68 360 19:22 08.01.2022
4418 Clouds 11 1015 45 10000 3.13 170 17:38 08.01.2022
4419 Clouds 8 1014 50 10000 0 0 16:45 08.01.2022
4420 Clear 9 1013 46 10000 2.68 240 15:34 08.01.2022
4421 Clear 10 1012 44 10000 0 0 14:25 08.01.2022
4422 Clouds 11 1009 42 10000 3.58 360 11:43 08.01.2022
4423 Clouds 12 1008 39 10000 2.68 300 10:40 08.01.2022
4424 Clouds 12 1008 38 10000 2.68 300 10:21 08.01.2022
4425 Clouds 13 1007 33 10000 1.34 210 09:34 08.01.2022
4426 Clouds 14 1007 39 10000 0 0 06:18 08.01.2022
4427 Clouds 17 1007 31 10000 2.68 20 01:41 08.01.2022
4428 Clouds 17 1008 33 10000 0 0 23:31 07.01.2022
4429 Clouds 15 1011 39 10000 2.24 40 21:49 07.01.2022
4430 Clouds 14 1012 43 10000 1.54 50 20:34 07.01.2022
4431 Clouds 12 1013 44 10000 2.57 40 19:27 07.01.2022
4432 Clouds 12 1013 44 10000 2.57 40 19:27 07.01.2022
4433 Clouds 11 1013 48 10000 1.54 80 18:49 07.01.2022
4434 Clouds 10 1013 48 10000 1.54 80 18:21 07.01.2022
4435 Clouds 8 1012 56 10000 0 0 17:24 07.01.2022
4436 Clear 6 1012 62 10000 0 0 14:56 07.01.2022
4437 Clear 5 1012 63 10000 0 0 13:52 07.01.2022
4438 Clear 6 1013 61 10000 0 0 12:51 07.01.2022
4439 Clear 7 1014 59 10000 0 0 11:22 07.01.2022
4440 Clear 11 1015 45 10000 2.24 190 04:25 07.01.2022
4441 Smoke 13 1014 40 10000 1.34 70 02:46 07.01.2022
4442 Smoke 15 1014 33 10000 0 0 01:48 07.01.2022
4443 Smoke 15 1014 33 10000 0 0 01:48 07.01.2022
4444 Smoke 16 1014 32 10000 0 0 01:25 07.01.2022
4445 Smoke 17 1015 32 10000 0 0 00:30 07.01.2022
4446 Smoke 17 1015 32 10000 0 0 00:30 07.01.2022
4447 Clear 16 1017 33 10000 2.68 60 22:33 06.01.2022
4448 Clouds 14 1019 37 10000 1.34 70 20:51 06.01.2022
4449 Clouds 14 1019 38 10000 1.34 70 20:18 06.01.2022
4450 Clouds 13 1019 40 10000 2.24 80 19:36 06.01.2022
4451 Clouds 8 1020 50 10000 0 0 17:51 06.01.2022
4452 Clouds 8 1020 50 10000 0 0 17:23 06.01.2022
4453 Clouds 5 1020 55 10000 1.34 230 16:32 06.01.2022
4454 Clouds 6 1019 54 10000 1.34 250 15:44 06.01.2022
4455 Clouds 6 1019 57 10000 1.34 250 15:21 06.01.2022
4456 Clouds 6 1019 55 10000 0 0 14:20 06.01.2022
4457 Clouds 6 1019 53 10000 0 0 13:33 06.01.2022
4458 Clouds 6 1019 51 10000 1.54 220 12:20 06.01.2022
4459 Clouds 6 1019 49 10000 1.54 230 11:29 06.01.2022
4460 Clouds 7 1019 49 10000 1.34 240 10:50 06.01.2022
4461 Clouds 8 1020 42 10000 3.13 280 06:38 06.01.2022
4462 Clouds 15 1019 26 10000 3.13 80 00:34 06.01.2022
4463 Clouds 15 1019 25 10000 0 0 23:22 05.01.2022
4464 Clouds 14 1020 26 10000 1.34 50 22:48 05.01.2022
4465 Clouds 14 1020 26 10000 1.34 50 22:21 05.01.2022
4466 Clouds 13 1021 27 10000 1.34 10 21:25 05.01.2022
4467 Clouds 12 1022 29 10000 1.34 70 20:30 05.01.2022
4468 Clouds 12 1022 29 10000 1.34 70 20:30 05.01.2022
4469 Clouds 10 1023 33 10000 0 0 19:28 05.01.2022
4470 Clear 8 1023 37 10000 0 0 17:56 05.01.2022
4471 Clear 5 1022 47 10000 0 0 16:56 05.01.2022
4472 Clouds 3 1022 49 10000 0 0 16:18 05.01.2022
4473 Clouds 4 1022 47 10000 1.34 250 14:54 05.01.2022
4474 Clouds 4 1022 46 10000 0 0 13:33 05.01.2022
4475 Clouds 5 1022 44 10000 0.34 327 11:59 05.01.2022
4476 Clear 5 1023 41 10000 1.34 260 08:21 05.01.2022
4477 Clear 6 1023 40 10000 2.24 200 06:37 05.01.2022
4478 Clear 6 1023 40 10000 2.24 200 06:37 05.01.2022
4479 Clouds 12 1022 24 10000 3.58 60 01:20 05.01.2022
4480 Clouds 13 1022 22 10000 1.34 90 23:42 04.01.2022
4481 Clouds 13 1022 23 10000 1.34 90 23:19 04.01.2022
4482 Clouds 11 1024 26 10000 0 0 21:36 04.01.2022
4483 Clouds 10 1025 27 10000 2.24 70 20:41 04.01.2022
4484 Clouds 7 1026 35 10000 0 0 18:35 04.01.2022
4485 Clouds 4 1025 44 10000 0 0 17:19 04.01.2022
4486 Clouds 2 1024 48 10000 1.54 210 16:31 04.01.2022
4487 Clouds 3 1024 44 10000 0.86 359 14:58 04.01.2022
4488 Clouds 2 1022 47 10000 2.24 220 14:37 04.01.2022
4489 Clouds 2 1022 48 10000 0 0 13:55 04.01.2022
4490 Clouds 2 1022 44 10000 0 0 12:20 04.01.2022
4491 Clouds 3 1022 43 10000 2.06 210 10:21 04.01.2022
4492 Clouds 4 1021 41 10000 2.68 310 08:49 04.01.2022
4493 Clouds 4 1022 40 10000 1.34 260 06:28 04.01.2022
4494 Clouds 9 1021 26 10000 0 0 00:42 04.01.2022
4495 Clouds 10 1022 25 10000 2.24 80 23:49 03.01.2022
4496 Clouds 9 1022 25 10000 0 0 22:21 03.01.2022
4497 Clouds 9 1023 25 10000 2.24 60 21:38 03.01.2022
4498 Clouds 9 1025 26 10000 1.34 0 20:40 03.01.2022
4499 Clouds 6 1026 30 10000 0 0 18:55 03.01.2022
4500 Clouds 5 1026 31 10000 0 0 18:30 03.01.2022
4501 Clouds 5 1026 31 10000 0 0 18:30 03.01.2022
4502 Clouds 3 1026 36 10000 1.34 180 17:20 03.01.2022
4503 Clouds -1 1026 45 10000 1.34 250 16:31 03.01.2022
4504 Clear 0 1025 40 10000 1.34 190 14:31 03.01.2022
4505 Clear 0 1025 40 10000 2.06 220 12:52 03.01.2022
4506 Clear 1 1025 38 10000 2.68 210 11:50 03.01.2022
4507 Clear 1 1025 37 10000 0 0 10:38 03.01.2022
4508 Clouds 1 1026 37 10000 2.68 280 09:28 03.01.2022
4509 Clouds 2 1026 34 10000 2.68 200 07:53 03.01.2022
4510 Clear 5 1028 31 10000 0.45 106 02:56 03.01.2022
4511 Clear 8 1028 21 10000 2.24 80 23:23 02.01.2022
4512 Clear 8 1030 24 10000 0.89 102 22:56 02.01.2022
4513 Clear 7 1029 26 10000 3.13 80 21:52 02.01.2022
4514 Clear 6 1031 29 10000 2.68 50 20:50 02.01.2022
4515 Clear 6 1031 29 10000 2.68 50 20:29 02.01.2022
4516 Clear 4 1032 33 10000 0 0 19:31 02.01.2022
4517 Clear 3 1032 37 10000 0 0 18:55 02.01.2022
4518 Clear 2 1033 43 10000 0.89 220 17:56 02.01.2022
4519 Clear 1 1032 47 10000 1.34 210 17:38 02.01.2022
4520 Clear 0 1032 48 10000 1.34 210 17:20 02.01.2022
4521 Clear -2 1031 55 10000 0 0 16:27 02.01.2022
4522 Clear -2 1030 52 10000 1.34 220 14:41 02.01.2022
4523 Clear -1 1030 51 10000 2.24 210 13:25 02.01.2022
4524 Clear -1 1030 48 10000 1.34 220 12:31 02.01.2022
4525 Clear -1 1030 46 10000 0 0 11:41 02.01.2022
4526 Clear 0 1030 48 10000 1.34 210 10:53 02.01.2022
4527 Clear 0 1030 47 10000 2.68 190 09:55 02.01.2022
4528 Clouds 1 1030 42 10000 2.68 10 07:29 02.01.2022
4529 Clouds 6 1026 25 10000 4.47 50 02:20 02.01.2022
4530 Clouds 8 1024 23 10000 6.26 30 23:41 01.01.2022
4531 Clouds 8 1024 23 10000 6.26 30 23:22 01.01.2022
4532 Clouds 8 1024 23 10000 5.36 50 22:24 01.01.2022
4533 Clear 7 1024 24 10000 5.36 50 21:44 01.01.2022
4534 Clear 7 1024 27 10000 7.72 40 20:56 01.01.2022
4535 Clear 7 1024 24 10000 7.15 360 20:19 01.01.2022
4536 Clear 7 1024 25 10000 9.39 350 19:32 01.01.2022
4537 Clear 6 1022 26 10000 8.05 340 18:29 01.01.2022
4538 Clouds 4 1019 30 10000 6.26 330 16:51 01.01.2022
4539 Clouds 4 1019 31 10000 6.26 330 16:29 01.01.2022
4540 Clear 4 1018 31 10000 5.81 330 15:31 01.01.2022
4541 Clear 4 1016 31 10000 8.05 320 14:22 01.01.2022
4542 Clear 5 1013 31 10000 8.05 320 12:50 01.01.2022
4543 Clouds 5 1014 33 10000 5.81 24 11:59 01.01.2022
4544 Clouds 5 1012 31 10000 8.94 330 11:24 01.01.2022
4545 Clouds 6 1011 29 10000 9.83 340 10:42 01.01.2022
4546 Smoke 6 1009 30 10000 12.96 340 09:47 01.01.2022
4547 Clouds 8 1008 33 10000 11.18 340 08:26 01.01.2022
4548 Clouds 8 1006 36 10000 4.02 30 07:55 01.01.2022
4549 Clouds 8 1006 34 10000 4.02 30 07:34 01.01.2022
4550 Clouds 8 1005 39 10000 7.15 340 06:42 01.01.2022
4551 Clouds 9 1002 52 10000 13.41 320 04:38 01.01.2022
4552 Clouds 12 1000 48 10000 5.81 250 02:54 01.01.2022
4553 Clouds 14 1000 46 10000 5.36 280 23:44 31.12.2021
4554 Clouds 14 1002 47 10000 5.36 230 21:54 31.12.2021
4555 Clouds 13 1003 48 10000 6.26 220 20:41 31.12.2021
4556 Clouds 13 1004 54 10000 6.26 180 19:31 31.12.2021
4557 Clouds 12 1004 59 10000 4.12 200 18:44 31.12.2021
4558 Clouds 10 1004 64 10000 3.58 220 17:45 31.12.2021
4559 Clouds 10 1004 64 10000 3.58 220 17:19 31.12.2021
4560 Clouds 9 1003 63 10000 4.02 190 16:40 31.12.2021
4561 Clear 9 1003 58 10000 3.13 223 15:57 31.12.2021
4562 Clouds 10 1003 60 10000 5.36 200 15:29 31.12.2021
4563 Clouds 9 1003 61 10000 4.02 182 14:57 31.12.2021
4564 Clouds 9 1003 61 10000 4.02 182 14:57 31.12.2021
4565 Clouds 10 1004 62 10000 5.36 190 14:31 31.12.2021
4566 Clouds 10 1004 61 10000 5.36 190 13:42 31.12.2021
4567 Clouds 10 1005 61 10000 5.81 180 12:49 31.12.2021
4568 Clouds 10 1006 61 10000 4.02 190 11:52 31.12.2021
4569 Clouds 10 1006 61 10000 4.02 190 11:33 31.12.2021
4570 Clouds 10 1007 64 10000 5.66 190 10:38 31.12.2021
4571 Clouds 10 1007 64 10000 5.66 190 10:20 31.12.2021
4572 Clouds 11 1007 63 10000 6.26 190 09:33 31.12.2021
4573 Clouds 10 1008 64 10000 3.58 200 08:47 31.12.2021
4574 Clouds 11 1009 61 10000 4.47 200 07:32 31.12.2021
4575 Clouds 12 1009 50 10000 4.47 190 00:47 31.12.2021
4576 Clouds 12 1011 49 10000 2.68 0 22:50 30.12.2021
4577 Clouds 12 1011 50 10000 2.68 0 22:26 30.12.2021
4578 Clouds 12 1012 54 10000 2.68 120 21:37 30.12.2021
4579 Clouds 12 1012 54 10000 2.68 120 21:37 30.12.2021
4580 Clouds 11 1013 55 10000 1.34 80 20:49 30.12.2021
4581 Clouds 11 1013 56 10000 1.34 80 20:28 30.12.2021
4582 Clouds 10 1014 59 10000 0 0 19:48 30.12.2021
4583 Clouds 10 1014 60 10000 0 0 19:18 30.12.2021
4584 Clouds 9 1014 65 10000 0 0 18:20 30.12.2021
4585 Clouds 7 1014 70 10000 0 0 16:37 30.12.2021
4586 Clouds 7 1013 70 10000 0 0 15:52 30.12.2021
4587 Clouds 7 1013 69 10000 2.24 290 14:41 30.12.2021
4588 Clouds 7 1013 68 10000 2.24 290 14:19 30.12.2021
4589 Clouds 7 1013 69 10000 0 0 13:23 30.12.2021
4590 Clouds 7 1013 66 10000 1.34 290 11:34 30.12.2021
4591 Clouds 7 1013 67 10000 2.24 280 10:27 30.12.2021
4592 Clouds 7 1013 67 10000 2.24 300 09:27 30.12.2021
4593 Clouds 8 1013 56 10000 2.68 190 06:55 30.12.2021
4594 Clouds 9 1012 52 10000 1.34 160 04:25 30.12.2021
4595 Clouds 9 1011 52 10000 3.13 0 03:40 30.12.2021
4596 Clouds 10 1010 46 10000 3.58 110 00:42 30.12.2021
4597 Clouds 10 1010 45 10000 1.34 0 23:36 29.12.2021
4598 Clouds 9 1010 47 10000 3.13 30 22:32 29.12.2021
4599 Clouds 9 1011 49 10000 4.02 60 21:53 29.12.2021
4600 Clouds 8 1012 51 10000 3.58 80 20:56 29.12.2021
4601 Clouds 8 1012 52 10000 3.58 80 20:25 29.12.2021
4602 Clouds 7 1013 56 10000 1.34 0 19:31 29.12.2021
4603 Clouds 5 1012 64 10000 2.24 80 18:30 29.12.2021
4604 Clouds 3 1012 69 10000 1.34 220 17:30 29.12.2021
4605 Clear 3 1013 69 10000 0.45 69 16:58 29.12.2021
4606 Clouds 1 1011 74 10000 1.34 200 16:19 29.12.2021
4607 Clear 2 1011 72 10000 0.72 144 14:59 29.12.2021
4608 Clear 2 1009 77 10000 0 0 12:57 29.12.2021
4609 Clear 2 1009 74 10000 1.34 200 12:30 29.12.2021
4610 Clear 3 1008 70 10000 2.24 220 10:53 29.12.2021
4611 Clear 4 1009 76 10000 0.89 250 08:56 29.12.2021
4612 Clouds 4 1009 80 10000 0.89 232 06:59 29.12.2021
4613 Clouds 4 1007 70 10000 2.24 270 06:30 29.12.2021
4614 Clouds 4 1007 70 10000 2.68 300 05:52 29.12.2021
4615 Clouds 6 1006 61 10000 5.36 340 03:48 29.12.2021
4616 Clouds 9 1005 45 10000 5.14 220 00:32 29.12.2021
4617 Clear 9 1006 46 10000 2.24 150 23:57 28.12.2021
4618 Clouds 9 1005 45 10000 0.89 155 22:56 28.12.2021
4619 Clouds 9 1005 42 10000 2.68 200 22:24 28.12.2021
4620 Clouds 9 1006 45 10000 0 0 21:54 28.12.2021
4621 Clouds 9 1006 45 10000 0 0 21:28 28.12.2021
4622 Clouds 8 1007 50 10000 3.58 210 19:52 28.12.2021
4623 Clouds 7 1007 54 10000 4.02 200 18:53 28.12.2021
4624 Clouds 7 1007 55 10000 4.02 200 18:24 28.12.2021
4625 Clouds 5 1006 59 10000 4.47 220 17:29 28.12.2021
4626 Clouds 4 1006 61 10000 3.58 200 15:53 28.12.2021
4627 Clouds 4 1006 62 10000 3.58 200 15:29 28.12.2021
4628 Clouds 5 1005 60 10000 4.47 210 14:55 28.12.2021
4629 Clouds 5 1005 60 10000 4.47 210 14:22 28.12.2021
4630 Clouds 4 1006 64 10000 0.89 295 13:58 28.12.2021
4631 Clouds 5 1005 61 10000 3.13 200 13:37 28.12.2021
4632 Clouds 5 1005 60 10000 5.36 200 12:55 28.12.2021
4633 Clouds 5 1005 60 10000 5.36 200 12:20 28.12.2021
4634 Clouds 7 1005 56 10000 5.81 200 10:19 28.12.2021
4635 Clouds 8 1005 52 10000 4.47 220 07:33 28.12.2021
4636 Clouds 10 1004 49 10000 7.15 220 03:35 28.12.2021
4637 Clouds 11 1004 39 10000 7.15 230 23:39 27.12.2021
4638 Clouds 11 1005 37 10000 9.39 200 22:21 27.12.2021
4639 Clouds 11 1007 36 10000 7.15 220 21:30 27.12.2021
4640 Clouds 10 1009 38 10000 8.94 220 20:39 27.12.2021
4641 Clouds 10 1010 38 10000 8.94 230 19:48 27.12.2021
4642 Clouds 9 1010 39 10000 8.94 230 19:27 27.12.2021
4643 Clouds 6 1011 43 10000 7.15 220 17:51 27.12.2021
4644 Clouds 6 1011 44 10000 7.15 220 17:28 27.12.2021
4645 Clear 4 1012 46 10000 1.34 134 15:56 27.12.2021
4646 Clouds 5 1011 45 10000 9.83 230 15:19 27.12.2021
4647 Clouds 5 1010 45 10000 9.39 220 14:22 27.12.2021
4648 Clouds 6 1011 42 10000 5.81 200 12:52 27.12.2021
4649 Clear 7 1011 39 10000 2.24 227 10:56 27.12.2021
4650 Clouds 6 1011 42 10000 5.81 200 10:27 27.12.2021
4651 Clouds 7 1012 39 10000 3.58 200 09:19 27.12.2021
4652 Clear 7 1013 38 10000 6.26 200 07:34 27.12.2021
4653 Clear 8 1013 36 10000 5.36 210 06:29 27.12.2021
4654 Clouds 10 1012 37 10000 3.13 210 01:52 27.12.2021
4655 Clouds 12 1012 34 10000 7.6 190 23:49 26.12.2021
4656 Clouds 12 1012 33 10000 7.6 190 23:19 26.12.2021
4657 Clouds 12 1012 34 10000 5.36 200 21:37 26.12.2021
4658 Clouds 11 1013 35 10000 5.81 220 19:55 26.12.2021
4659 Clouds 10 1012 37 10000 6.26 250 18:46 26.12.2021
4660 Clouds 9 1012 38 10000 6.26 250 18:22 26.12.2021
4661 Clouds 8 1008 48 10000 5.36 220 15:53 26.12.2021
4662 Clouds 9 1007 55 10000 6.26 190 13:51 26.12.2021
4663 Clouds 9 1007 56 10000 6.26 190 13:32 26.12.2021
4664 Clouds 9 1007 59 10000 8.94 190 12:36 26.12.2021
4665 Clouds 9 1008 58 10000 6.69 200 11:24 26.12.2021
4666 Clouds 10 1008 53 10000 4.47 190 09:35 26.12.2021
4667 Clouds 10 1008 59 10000 3.58 200 08:50 26.12.2021
4668 Clouds 10 1008 60 10000 3.58 200 08:27 26.12.2021
4669 Clouds 12 1009 47 10000 3.13 210 02:19 26.12.2021
4670 Clouds 14 1009 41 10000 6.71 230 00:40 26.12.2021
4671 Clouds 15 1009 40 10000 5.81 190 23:37 25.12.2021
4672 Clouds 15 1010 41 10000 5.36 190 22:38 25.12.2021
4673 Clouds 15 1010 41 10000 5.36 190 22:20 25.12.2021
4674 Clouds 13 1013 48 10000 3.58 160 20:27 25.12.2021
4675 Clouds 12 1014 55 10000 4.02 200 19:19 25.12.2021
4676 Clouds 10 1014 66 10000 0 0 18:39 25.12.2021
4677 Clouds 6 1013 77 10000 2.24 250 16:50 25.12.2021
4678 Clouds 6 1013 73 10000 1.34 310 15:38 25.12.2021
4679 Clear 6 1012 73 10000 1.34 210 14:23 25.12.2021
4680 Clear 7 1012 68 10000 2.24 240 12:40 25.12.2021
4681 Clear 9 1011 63 10000 4.47 170 10:49 25.12.2021
4682 Clear 9 1011 61 10000 6.71 180 09:49 25.12.2021
4683 Clear 10 1011 58 10000 4.47 180 07:28 25.12.2021
4684 Clouds 15 1006 48 10000 8.05 220 01:43 25.12.2021
4685 Clouds 16 1005 46 10000 6.26 170 00:22 25.12.2021
4686 Clear 17 1004 47 10000 1.34 300 21:59 24.12.2021
4687 Clouds 15 1006 55 10000 4.47 230 19:27 24.12.2021
4688 Clouds 14 1006 62 10000 1.79 213 18:57 24.12.2021
4689 Rain 12 1005 74 10000 3.58 220 16:49 24.12.2021
4690 Rain 12 1004 73 10000 4.02 210 15:52 24.12.2021
4691 Clouds 12 1004 72 10000 4.02 210 15:32 24.12.2021
4692 Clouds 12 1004 76 10000 4.02 190 14:35 24.12.2021
4693 Rain 12 1004 72 10000 2.68 188 13:59 24.12.2021
4694 Snow 12 1004 72 10000 4.02 200 13:32 24.12.2021
4695 Clouds 13 1005 70 10000 3.13 210 12:47 24.12.2021
4696 Clouds 13 1006 71 10000 4.47 210 11:46 24.12.2021
4697 Clouds 13 1006 69 10000 4.47 210 11:24 24.12.2021
4698 Clouds 13 1006 70 10000 6.71 200 10:45 24.12.2021
4699 Clouds 13 1006 70 10000 7.15 200 09:25 24.12.2021
4700 Clouds 13 1007 72 10000 6.71 200 08:19 24.12.2021
4701 Clouds 13 1007 72 10000 5.36 200 07:44 24.12.2021
4702 Rain 12 1010 73 10000 0 0 00:48 24.12.2021
4703 Clouds 13 1011 67 8047 0 0 23:54 23.12.2021
4704 Rain 13 1011 57 10000 0 0 22:54 23.12.2021
4705 Rain 13 1011 56 10000 0 0 22:26 23.12.2021
4706 Rain 14 1011 57 10000 0 0 21:59 23.12.2021
4707 Clouds 13 1013 52 10000 2.68 90 20:54 23.12.2021
4708 Clouds 12 1014 50 10000 2.68 50 19:39 23.12.2021
4709 Clouds 11 1015 44 10000 0 0 18:32 23.12.2021
4710 Clouds 10 1015 45 10000 2.68 330 17:47 23.12.2021
4711 Clouds 9 1015 48 10000 0 0 16:43 23.12.2021
4712 Clouds 9 1015 47 10000 0 0 16:23 23.12.2021
4713 Clouds 9 1015 47 10000 0 0 15:31 23.12.2021
4714 Clouds 9 1015 47 10000 0 0 14:42 23.12.2021
4715 Clouds 9 1015 47 10000 0 0 14:19 23.12.2021
4716 Clouds 9 1016 45 10000 1.34 210 12:48 23.12.2021
4717 Clouds 9 1016 46 10000 1.34 360 10:43 23.12.2021
4718 Clouds 9 1017 44 10000 1.34 280 09:35 23.12.2021
4719 Clouds 9 1018 45 10000 0.74 82 08:59 23.12.2021
4720 Clouds 10 1017 41 10000 0 0 06:48 23.12.2021
4721 Clouds 10 1017 41 10000 0 0 04:30 23.12.2021
4722 Clear 12 1019 36 10000 0.89 82 22:57 22.12.2021
4723 Clouds 12 1018 35 10000 2.24 40 22:32 22.12.2021
4724 Clouds 12 1019 37 10000 1.34 70 21:53 22.12.2021
4725 Clouds 12 1019 37 10000 1.34 70 21:28 22.12.2021
4726 Clouds 11 1020 38 10000 1.34 90 20:41 22.12.2021
4727 Clouds 10 1020 39 10000 1.34 90 20:20 22.12.2021
4728 Clouds 9 1021 42 10000 1.34 70 19:19 22.12.2021
4729 Clouds 4 1021 60 10000 1.54 210 17:39 22.12.2021
4730 Clouds 4 1020 58 10000 0 0 16:36 22.12.2021
4731 Clouds 3 1020 58 10000 1.34 210 15:36 22.12.2021
4732 Clouds 4 1021 59 10000 2.06 270 13:32 22.12.2021
4733 Clouds 4 1020 55 10000 1.54 220 12:31 22.12.2021
4734 Haze 5 1021 53 10000 2.24 210 09:53 22.12.2021
4735 Haze 5 1021 53 10000 2.24 210 09:33 22.12.2021
4736 Clouds 5 1022 54 10000 0 0 07:22 22.12.2021
4737 Clouds 6 1022 51 10000 2.24 220 05:41 22.12.2021
4738 Clouds 7 1022 51 10000 2.24 220 05:22 22.12.2021
4739 Clouds 8 1022 47 10000 0 0 04:47 22.12.2021
4740 Clouds 8 1022 47 10000 0 0 04:22 22.12.2021
4741 Clouds 8 1021 46 10000 0 0 03:32 22.12.2021
4742 Clouds 13 1021 32 10000 0 0 00:29 22.12.2021
4743 Clouds 13 1022 32 10000 0 0 22:51 21.12.2021
4744 Clouds 12 1022 33 10000 0 0 22:27 21.12.2021
4745 Clouds 12 1023 35 10000 0 0 21:43 21.12.2021
4746 Clouds 10 1024 38 10000 0 0 20:53 21.12.2021
4747 Clouds 10 1024 39 10000 0 0 20:20 21.12.2021
4748 Clouds 9 1025 43 10000 1.34 190 19:41 21.12.2021
4749 Clouds 9 1025 44 10000 1.34 50 18:38 21.12.2021
4750 Clouds 8 1026 48 10000 1.28 20 17:59 21.12.2021
4751 Clouds 8 1024 48 10000 0 0 17:40 21.12.2021
4752 Clouds 7 1023 45 10000 0 0 15:47 21.12.2021
4753 Clouds 7 1023 45 10000 0 0 15:19 21.12.2021
4754 Clouds 7 1024 46 10000 0 0 13:47 21.12.2021
4755 Clouds 7 1024 46 10000 0 0 13:29 21.12.2021
4756 Clouds 7 1025 45 10000 2.68 200 10:55 21.12.2021
4757 Clouds 7 1025 47 10000 0 0 09:57 21.12.2021
4758 Clouds 7 1024 46 10000 2.24 230 09:18 21.12.2021
4759 Clouds 7 1025 45 10000 0 0 07:50 21.12.2021
4760 Clouds 7 1025 45 10000 0 0 07:25 21.12.2021
4761 Clouds 8 1026 42 10000 0.45 294 04:56 21.12.2021
4762 Clouds 9 1024 36 10000 1.34 200 02:39 21.12.2021
4763 Clouds 12 1025 31 10000 0.45 111 23:58 20.12.2021
4764 Clouds 12 1024 29 10000 2.68 20 22:49 20.12.2021
4765 Clouds 12 1024 29 10000 2.68 20 22:28 20.12.2021
4766 Clouds 12 1025 29 10000 1.34 0 21:42 20.12.2021
4767 Clouds 11 1025 30 10000 1.34 0 21:22 20.12.2021
4768 Clouds 11 1025 32 10000 0 0 20:41 20.12.2021
4769 Clouds 9 1026 36 10000 0 0 19:48 20.12.2021
4770 Clouds 9 1026 37 10000 0 0 19:29 20.12.2021
4771 Clouds 7 1026 42 10000 0 0 18:49 20.12.2021
4772 Clouds 5 1025 45 10000 1.54 210 17:52 20.12.2021
4773 Clear 4 1024 53 10000 0 0 16:56 20.12.2021
4774 Clouds 1 1024 58 10000 2.24 220 16:36 20.12.2021
4775 Clouds 1 1023 56 10000 1.54 230 15:47 20.12.2021
4776 Clouds 3 1023 51 10000 1.54 200 14:41 20.12.2021
4777 Smoke 3 1023 54 10000 0 0 12:44 20.12.2021
4778 Clouds 3 1022 51 10000 2.68 210 10:55 20.12.2021
4779 Clouds 3 1022 49 10000 2.68 220 09:47 20.12.2021
4780 Clear 4 1023 45 10000 0 0 08:56 20.12.2021
4781 Clouds 4 1023 47 10000 2.24 220 08:38 20.12.2021
4782 Clear 5 1023 48 10000 0 0 07:44 20.12.2021
4783 Clear 5 1022 46 10000 1.54 230 06:40 20.12.2021
4784 Clear 8 1022 37 10000 0 0 02:32 20.12.2021
4785 Clouds 12 1022 27 10000 2.68 80 23:37 19.12.2021
4786 Clouds 12 1022 28 10000 0 0 22:44 19.12.2021
4787 Clouds 11 1023 30 10000 0 0 21:44 19.12.2021
4788 Clouds 11 1023 30 10000 0 0 21:25 19.12.2021
4789 Clouds 10 1024 32 10000 0 0 20:24 19.12.2021
4790 Clouds 9 1025 34 10000 0 0 19:43 19.12.2021
4791 Clouds 8 1025 37 10000 0 0 18:54 19.12.2021
4792 Clouds 6 1024 41 10000 0 0 18:20 19.12.2021
4793 Clouds 4 1024 46 10000 0 0 17:45 19.12.2021
4794 Clouds 1 1024 56 10000 2.06 230 16:46 19.12.2021
4795 Clear 2 1023 53 10000 1.54 340 15:56 19.12.2021
4796 Clouds 1 1023 54 10000 0 0 15:25 19.12.2021
4797 Clouds 1 1022 53 10000 1.54 210 14:48 19.12.2021
4798 Clear 2 1022 50 10000 1.54 220 13:41 19.12.2021
4799 Clear 2 1022 52 10000 1.54 220 13:20 19.12.2021
4800 Clear 2 1022 51 10000 0 0 12:33 19.12.2021
4801 Clear 3 1023 48 10000 2.24 210 11:39 19.12.2021
4802 Clouds 3 1023 48 10000 1.34 260 10:51 19.12.2021
4803 Clouds 3 1023 51 10000 1.34 260 10:23 19.12.2021
4804 Clouds 4 1024 48 10000 2.68 200 08:55 19.12.2021
4805 Clouds 5 1024 46 10000 2.24 220 06:54 19.12.2021
4806 Clouds 8 1024 36 10000 0 0 02:30 19.12.2021
4807 Clouds 11 1024 28 10000 1.34 0 00:55 19.12.2021
4808 Clouds 11 1024 28 10000 0 0 23:21 18.12.2021
4809 Clouds 11 1025 28 10000 0 0 22:29 18.12.2021
4810 Clouds 10 1026 30 10000 2.24 20 21:44 18.12.2021
4811 Clouds 10 1026 30 10000 2.24 20 21:26 18.12.2021
4812 Clouds 10 1027 32 10000 2.24 50 20:43 18.12.2021
4813 Clouds 8 1028 37 10000 1.34 0 19:40 18.12.2021
4814 Clouds 6 1028 43 10000 2.24 190 18:26 18.12.2021
4815 Clouds 4 1028 51 10000 2.68 210 17:49 18.12.2021
4816 Clouds 2 1028 58 10000 1.34 270 16:50 18.12.2021
4817 Clouds 1 1028 60 10000 1.34 270 16:21 18.12.2021
4818 Clear 2 1027 57 10000 1.34 280 15:24 18.12.2021
4819 Clear 2 1027 58 10000 2.24 200 14:19 18.12.2021
4820 Clear 3 1027 59 10000 1.64 346 11:59 18.12.2021
4821 Clear 4 1027 53 10000 2.68 350 10:42 18.12.2021
4822 Clear 5 1026 50 10000 4.47 360 09:32 18.12.2021
4823 Clear 5 1027 46 10000 5.36 360 08:36 18.12.2021
4824 Clouds 6 1026 46 10000 5.81 360 07:41 18.12.2021
4825 Clear 10 1024 36 10000 6.71 30 01:47 18.12.2021
4826 Clear 11 1024 32 10000 0.89 0 23:56 17.12.2021
4827 Clear 11 1023 33 10000 3.13 0 22:51 17.12.2021
4828 Clear 11 1024 36 10000 3.13 50 21:50 17.12.2021
4829 Clear 10 1024 41 10000 6.26 10 20:48 17.12.2021
4830 Clear 9 1026 46 10000 2.24 0 19:58 17.12.2021
4831 Clear 7 1024 50 10000 6.26 350 18:40 17.12.2021
4832 Clear 6 1024 53 10000 6.26 350 18:18 17.12.2021
4833 Clear 4 1024 67 10000 0 0 16:57 17.12.2021
4834 Clear 2 1022 68 10000 0 0 16:28 17.12.2021
4835 Clear 3 1022 65 10000 4.47 30 15:51 17.12.2021
4836 Clear 3 1021 63 10000 4.47 30 14:43 17.12.2021
4837 Clear 2 1021 66 10000 1.34 360 13:55 17.12.2021
4838 Clear 3 1021 67 10000 2.68 260 12:37 17.12.2021
4839 Clear 3 1020 64 10000 1.34 200 10:42 17.12.2021
4840 Clouds 4 1020 62 10000 2.24 200 09:47 17.12.2021
4841 Clouds 4 1020 61 10000 2.24 230 08:43 17.12.2021
4842 Clouds 4 1020 61 10000 2.24 230 08:18 17.12.2021
4843 Clear 6 1020 56 10000 0 0 04:57 17.12.2021
4844 Clouds 8 1018 46 10000 5.66 30 00:57 17.12.2021
4845 Clouds 8 1017 45 10000 0 0 22:44 16.12.2021
4846 Clouds 8 1017 46 10000 0 0 22:22 16.12.2021
4847 Clouds 8 1017 46 10000 0 0 21:43 16.12.2021
4848 Clouds 7 1018 49 10000 2.68 0 20:40 16.12.2021
4849 Clouds 7 1018 49 10000 2.68 0 20:21 16.12.2021
4850 Clouds 6 1019 52 10000 3.13 60 19:27 16.12.2021
4851 Clouds 5 1019 54 10000 0 0 18:31 16.12.2021
4852 Clouds 3 1019 61 10000 0 0 17:36 16.12.2021
4853 Clouds 1 1019 66 10000 2.24 200 16:24 16.12.2021
4854 Clouds 1 1019 66 10000 0 0 15:38 16.12.2021
4855 Clouds 1 1020 64 10000 2.24 260 13:45 16.12.2021
4856 Clear 2 1021 64 10000 3.6 50 11:56 16.12.2021
4857 Clouds 2 1020 63 10000 2.24 250 11:18 16.12.2021
4858 Clear 2 1021 63 10000 2.68 220 10:39 16.12.2021
4859 Clear 2 1021 59 10000 2.68 210 09:42 16.12.2021
4860 Clear 3 1022 56 10000 0 0 06:23 16.12.2021
4861 Clear 4 1022 50 10000 1.34 180 04:33 16.12.2021
4862 Clouds 9 1021 31 10000 1.34 340 23:47 15.12.2021
4863 Clouds 9 1022 32 10000 0 0 22:49 15.12.2021
4864 Clouds 9 1022 32 10000 0 0 22:21 15.12.2021
4865 Clouds 9 1022 35 10000 0 0 21:31 15.12.2021
4866 Clouds 8 1023 37 10000 2.68 350 20:41 15.12.2021
4867 Clouds 8 1023 42 10000 2.24 0 19:53 15.12.2021
4868 Clouds 7 1022 45 10000 1.34 190 18:50 15.12.2021
4869 Clouds 6 1022 46 10000 1.34 190 18:18 15.12.2021
4870 Clouds 5 1021 53 10000 0 0 17:43 15.12.2021
4871 Clouds 4 1022 58 10000 2.01 264 16:59 15.12.2021
4872 Clouds 4 1019 55 10000 2.24 160 15:47 15.12.2021
4873 Clouds 4 1019 56 10000 2.24 160 15:29 15.12.2021
4874 Clouds 3 1018 59 10000 2.24 0 14:44 15.12.2021
4875 Clouds 4 1017 53 10000 2.24 160 13:27 15.12.2021
4876 Clouds 5 1015 50 10000 3.13 210 11:40 15.12.2021
4877 Clouds 6 1012 52 10000 6.71 250 09:38 15.12.2021
4878 Clouds 6 1008 56 10000 7.15 230 07:55 15.12.2021
4879 Clouds 8 1002 59 10000 10.28 220 04:22 15.12.2021
4880 Clouds 13 1003 60 10000 7.15 160 23:53 14.12.2021
4881 Clouds 12 1004 60 10000 6.26 160 22:55 14.12.2021
4882 Clouds 13 1005 60 10000 6.26 160 22:37 14.12.2021
4883 Clouds 13 1007 55 10000 7.15 160 21:25 14.12.2021
4884 Clouds 13 1009 55 10000 6.26 160 20:18 14.12.2021
4885 Clouds 13 1011 53 10000 5.81 170 19:21 14.12.2021
4886 Clouds 12 1012 55 10000 5.36 170 18:38 14.12.2021
4887 Clouds 11 1012 57 10000 2.24 170 17:51 14.12.2021
4888 Clouds 10 1012 57 10000 4.63 170 16:43 14.12.2021
4889 Clouds 9 1012 58 10000 4.02 190 15:54 14.12.2021
4890 Clouds 9 1013 51 10000 3.58 180 13:35 14.12.2021
4891 Clouds 9 1013 46 10000 3.13 190 12:47 14.12.2021
4892 Clouds 10 1014 44 10000 3.58 190 11:25 14.12.2021
4893 Clouds 10 1014 42 10000 3.58 170 10:28 14.12.2021
4894 Clouds 10 1014 42 10000 2.68 190 09:53 14.12.2021
4895 Clouds 11 1015 38 10000 2.24 170 08:40 14.12.2021
4896 Clouds 11 1015 39 10000 2.24 170 08:20 14.12.2021
4897 Clouds 11 1015 37 10000 2.68 190 06:40 14.12.2021
4898 Clouds 14 1016 31 10000 1.34 20 23:42 13.12.2021
4899 Clouds 13 1016 30 10000 1.34 0 22:18 13.12.2021
4900 Clouds 12 1017 31 10000 2.24 0 21:34 13.12.2021
4901 Clear 12 1018 32 10000 1.34 0 20:51 13.12.2021
4902 Clouds 11 1018 32 10000 1.34 0 20:20 13.12.2021
4903 Clouds 10 1019 33 10000 1.34 0 19:49 13.12.2021
4904 Clouds 6 1018 44 10000 2.24 300 17:27 13.12.2021
4905 Clouds 3 1017 47 10000 1.34 220 16:24 13.12.2021
4906 Clouds 2 1017 47 10000 1.34 220 15:43 13.12.2021
4907 Clear 3 1016 44 10000 0 0 13:57 13.12.2021
4908 Clouds 3 1016 45 10000 0 0 13:31 13.12.2021
4909 Clouds 3 1017 44 10000 1.34 210 12:39 13.12.2021
4910 Clouds 3 1016 41 10000 0 0 11:44 13.12.2021
4911 Clouds 4 1017 41 10000 0 0 11:24 13.12.2021
4912 Clouds 3 1016 41 10000 2.68 200 10:21 13.12.2021
4913 Clouds 4 1017 41 10000 2.24 230 08:43 13.12.2021
4914 Clouds 5 1017 36 10000 1.34 250 05:38 13.12.2021
4915 Clear 7 1016 36 10000 0 0 03:57 13.12.2021
4916 Clouds 12 1016 24 10000 1.34 0 23:43 12.12.2021
4917 Clear 11 1019 27 10000 0 0 21:56 12.12.2021
4918 Clouds 10 1019 25 10000 1.34 0 20:48 12.12.2021
4919 Clouds 8 1020 26 10000 0 0 19:34 12.12.2021
4920 Clouds 5 1020 33 10000 0 0 17:54 12.12.2021
4921 Clouds 1 1019 40 10000 1.34 240 16:29 12.12.2021
4922 Clouds 1 1019 40 10000 0 0 15:53 12.12.2021
4923 Clouds 1 1019 40 10000 0 0 15:28 12.12.2021
4924 Clouds 1 1018 39 10000 2.24 210 14:38 12.12.2021
4925 Clouds 1 1018 39 10000 2.24 200 13:47 12.12.2021
4926 Clouds 2 1019 40 10000 1.34 240 12:47 12.12.2021
4927 Clouds 2 1019 38 10000 1.34 220 11:45 12.12.2021
4928 Clouds 2 1019 38 10000 1.34 220 11:45 12.12.2021
4929 Clouds 2 1019 38 10000 1.34 220 11:25 12.12.2021
4930 Clouds 2 1020 37 10000 0 0 10:43 12.12.2021
4931 Clouds 2 1020 36 10000 2.68 200 09:45 12.12.2021
4932 Clouds 3 1021 36 10000 1.34 240 08:38 12.12.2021
4933 Clouds 4 1021 34 10000 2.24 230 06:35 12.12.2021
4934 Clouds 5 1022 32 10000 1.34 260 05:28 12.12.2021
4935 Clouds 5 1022 34 10000 1.05 37 03:58 12.12.2021
4936 Clouds 9 1022 22 10000 2.24 70 00:42 12.12.2021
4937 Clouds 9 1024 23 10000 0 0 22:42 11.12.2021
4938 Clouds 9 1024 24 10000 0 0 22:19 11.12.2021
4939 Clouds 8 1025 33 10000 0 0 21:22 11.12.2021
4940 Clouds 7 1027 29 10000 0 0 19:40 11.12.2021
4941 Clouds 7 1027 30 10000 0 0 19:20 11.12.2021
4942 Clouds 5 1027 35 10000 2.24 20 18:38 11.12.2021
4943 Clouds 3 1027 42 10000 0 0 17:41 11.12.2021
4944 Clear 0 1029 49 10000 0 0 15:57 11.12.2021
4945 Clear 0 1027 49 10000 2.24 200 15:37 11.12.2021
4946 Clear 1 1027 47 10000 1.34 250 14:21 11.12.2021
4947 Clear 2 1027 44 10000 0.96 37 11:58 11.12.2021
4948 Clear 3 1026 39 10000 3.13 360 10:24 11.12.2021
4949 Clear 4 1026 38 10000 3.58 60 09:37 11.12.2021
4950 Clear 8 1024 31 10000 4.02 60 03:25 11.12.2021
4951 Clouds 11 1021 26 10000 7.15 50 00:44 11.12.2021
4952 Clouds 11 1021 26 10000 6.71 60 23:39 10.12.2021
4953 Clouds 12 1021 27 10000 4.02 30 22:33 10.12.2021
4954 Clouds 11 1021 28 10000 5.36 20 21:37 10.12.2021
4955 Clouds 10 1022 33 10000 9.39 10 19:55 10.12.2021
4956 Clouds 9 1021 38 10000 9.39 10 19:18 10.12.2021
4957 Clouds 7 1019 53 10000 3.58 20 17:23 10.12.2021
4958 Clouds 6 1018 56 10000 2.68 360 16:32 10.12.2021
4959 Clouds 6 1016 57 10000 4.02 30 15:42 10.12.2021
4960 Clouds 6 1016 57 10000 4.02 30 15:23 10.12.2021
4961 Clouds 7 1014 64 10000 1.34 0 13:53 10.12.2021
4962 Clouds 7 1014 63 10000 1.34 0 13:31 10.12.2021
4963 Clouds 7 1014 64 10000 2.24 160 12:47 10.12.2021
4964 Clouds 8 1013 59 10000 2.68 0 11:34 10.12.2021
4965 Clouds 8 1012 66 10000 0 0 10:50 10.12.2021
4966 Clouds 9 1011 68 10000 4.47 280 09:30 10.12.2021
4967 Clouds 10 1010 68 10000 2.24 170 07:21 10.12.2021
4968 Clouds 12 1006 51 10000 6.71 200 02:51 10.12.2021
4969 Clouds 13 1005 51 10000 1.79 0 00:57 10.12.2021
4970 Clouds 14 1006 50 10000 6.26 220 23:38 09.12.2021
4971 Clouds 14 1006 51 10000 8.05 220 22:40 09.12.2021
4972 Clouds 14 1005 51 10000 8.05 220 22:19 09.12.2021
4973 Clouds 14 1006 48 10000 9.83 220 21:20 09.12.2021
4974 Dust 14 1006 50 10000 6.71 220 20:34 09.12.2021
4975 Dust 14 1007 50 10000 9.39 200 19:22 09.12.2021
4976 Clouds 14 1007 52 10000 6.71 200 18:50 09.12.2021
4977 Clouds 14 1007 56 10000 2.24 0 17:57 09.12.2021
4978 Dust 14 1007 55 10000 9.39 220 17:27 09.12.2021
4979 Clouds 14 1007 54 10000 1.79 0 16:57 09.12.2021
4980 Clouds 14 1007 51 10000 6.26 200 16:20 09.12.2021
4981 Clouds 13 1007 48 10000 7.72 200 14:52 09.12.2021
4982 Clouds 13 1007 52 10000 4.47 160 13:50 09.12.2021
4983 Clouds 12 1008 54 10000 4.47 170 12:47 09.12.2021
4984 Clouds 11 1009 58 10000 5.66 200 11:25 09.12.2021
4985 Clouds 11 1010 58 10000 1.34 0 09:45 09.12.2021
4986 Clouds 12 1012 54 10000 3.13 190 06:51 09.12.2021
4987 Clouds 14 1012 49 10000 2.68 220 03:49 09.12.2021
4988 Clouds 18 1013 38 10000 4.02 260 23:50 08.12.2021
4989 Clouds 18 1013 39 10000 4.02 260 23:31 08.12.2021
4990 Clouds 18 1013 41 10000 3.58 150 22:53 08.12.2021
4991 Clouds 17 1014 46 10000 1.34 0 21:49 08.12.2021
4992 Clouds 17 1014 46 10000 1.34 0 21:30 08.12.2021
4993 Clouds 16 1016 49 10000 2.24 0 20:19 08.12.2021
4994 Clouds 15 1017 55 10000 2.24 0 19:39 08.12.2021
4995 Clouds 14 1017 63 10000 0 0 18:53 08.12.2021
4996 Clouds 14 1017 63 10000 0 0 18:53 08.12.2021
4997 Clouds 12 1017 71 10000 1.34 190 17:52 08.12.2021
4998 Clouds 10 1016 69 10000 0.1 172 15:59 08.12.2021
4999 Clouds 10 1017 75 10000 0 0 15:31 08.12.2021
5000 Clouds 10 1016 74 10000 2.24 260 14:52 08.12.2021
5001 Clouds 11 1016 76 10000 2.24 200 12:39 08.12.2021
5002 Clouds 12 1017 74 10000 2.24 200 10:32 08.12.2021
5003 Clouds 12 1018 74 10000 1.34 270 09:30 08.12.2021
5004 Clouds 12 1018 75 10000 2.68 360 07:29 08.12.2021
5005 Clouds 13 1017 57 10000 0.53 297 04:58 08.12.2021
5006 Clouds 16 1015 41 10000 2.68 30 23:48 07.12.2021
5007 Clouds 16 1015 39 10000 2.68 40 22:27 07.12.2021
5008 Clouds 16 1015 36 10000 1.34 0 21:23 07.12.2021
5009 Clouds 16 1016 34 10000 2.24 20 20:24 07.12.2021
5010 Clouds 15 1015 32 10000 0 0 18:55 07.12.2021
5011 Clouds 14 1015 34 10000 0 0 17:53 07.12.2021
5012 Clouds 13 1014 33 10000 0 0 17:20 07.12.2021
5013 Clouds 13 1014 33 10000 2.68 340 16:34 07.12.2021
5014 Clouds 13 1013 32 10000 0 0 15:34 07.12.2021
5015 Clouds 13 1012 30 10000 0 0 14:30 07.12.2021
5016 Clouds 13 1012 30 10000 2 320 12:56 07.12.2021
5017 Clouds 13 1012 30 10000 2 320 12:56 07.12.2021
5018 Clouds 13 1012 29 10000 1.34 270 11:52 07.12.2021
5019 Clouds 14 1012 29 10000 1.34 250 10:36 07.12.2021
5020 Clouds 14 1013 28 10000 2.24 280 08:42 07.12.2021
5021 Clouds 14 1013 29 10000 1.34 350 06:21 07.12.2021
5022 Clouds 14 1013 29 10000 0 0 05:39 07.12.2021
5023 Clouds 20 1015 20 10000 2.68 100 23:49 06.12.2021
5024 Clouds 20 1014 22 10000 1.38 113 22:58 06.12.2021
5025 Clouds 20 1016 19 10000 1.34 50 22:37 06.12.2021
5026 Clouds 20 1017 20 10000 1.34 0 21:52 06.12.2021
5027 Clouds 19 1018 21 10000 2.68 60 20:40 06.12.2021
5028 Clouds 19 1018 20 10000 2.68 60 20:22 06.12.2021
5029 Clouds 18 1019 21 10000 0 0 19:22 06.12.2021
5030 Clouds 16 1020 24 10000 0 0 18:29 06.12.2021
5031 Clouds 14 1020 28 10000 0 0 17:40 06.12.2021
5032 Clouds 12 1020 29 10000 1.34 240 16:48 06.12.2021
5033 Clouds 11 1019 28 10000 2.68 210 15:41 06.12.2021
5034 Clouds 11 1019 29 10000 1.34 230 13:46 06.12.2021
5035 Clouds 12 1019 28 10000 3.13 0 12:39 06.12.2021
5036 Clouds 12 1019 28 10000 1.34 210 11:38 06.12.2021
5037 Clouds 14 1019 25 10000 2.68 310 08:51 06.12.2021
5038 Clouds 15 1019 23 10000 0 0 06:42 06.12.2021
5039 Clouds 24 1017 14 10000 0 0 23:38 05.12.2021
5040 Clouds 22 1019 19 10000 2.24 0 21:52 05.12.2021
5041 Clouds 22 1019 19 10000 2.24 0 21:19 05.12.2021
5042 Clouds 20 1020 21 10000 2.68 150 20:19 05.12.2021
5043 Clouds 19 1021 23 10000 1.34 40 19:33 05.12.2021
5044 Clouds 18 1021 25 10000 0 0 18:55 05.12.2021
5045 Clouds 16 1021 26 10000 0 0 18:20 05.12.2021
5046 Clouds 13 1021 30 10000 2.57 190 17:48 05.12.2021
5047 Clouds 10 1020 34 10000 0 0 16:48 05.12.2021
5048 Clouds 10 1020 35 10000 0 0 16:26 05.12.2021
5049 Clear 10 1020 34 10000 2.68 210 15:48 05.12.2021
5050 Clear 10 1020 35 10000 2.24 220 14:41 05.12.2021
5051 Clear 10 1020 35 10000 2.24 220 14:23 05.12.2021
5052 Clear 10 1020 33 10000 2.68 200 13:22 05.12.2021
5053 Clear 11 1020 32 10000 4.02 300 12:40 05.12.2021
5054 Clear 11 1020 32 10000 4.02 300 12:18 05.12.2021
5055 Clear 12 1020 32 10000 2.24 300 11:30 05.12.2021
5056 Clear 13 1019 30 10000 1.33 304 09:59 05.12.2021
5057 Clear 12 1020 33 10000 3.58 190 08:24 05.12.2021
5058 Clear 15 1019 31 10000 1.34 190 03:27 05.12.2021
5059 Clear 21 1019 21 10000 1.34 0 23:45 04.12.2021
5060 Clear 20 1020 24 10000 0 0 21:55 04.12.2021
5061 Clear 19 1020 26 10000 1.54 220 20:57 04.12.2021
5062 Clear 18 1021 26 10000 1.34 190 20:20 04.12.2021
5063 Clear 17 1022 29 10000 0 0 19:32 04.12.2021
5064 Clear 15 1022 31 10000 0 0 18:21 04.12.2021
5065 Clear 12 1022 36 10000 0 0 17:39 04.12.2021
5066 Clear 9 1021 42 10000 1.34 240 16:51 04.12.2021
5067 Clear 9 1021 42 10000 1.34 240 16:31 04.12.2021
5068 Clear 9 1021 42 10000 1.34 220 15:40 04.12.2021
5069 Clear 10 1020 37 10000 2.68 220 11:54 04.12.2021
5070 Clear 10 1020 37 10000 2.68 220 11:32 04.12.2021
5071 Clear 10 1020 38 10000 2.24 210 10:53 04.12.2021
5072 Clear 11 1020 36 10000 1.34 220 08:48 04.12.2021
5073 Clear 12 1019 34 10000 2.24 210 06:28 04.12.2021
5074 Clear 14 1019 34 10000 2.24 220 04:42 04.12.2021
5075 Clouds 20 1017 24 10000 2.24 60 00:24 04.12.2021
5076 Clouds 21 1018 24 10000 0 0 23:26 03.12.2021
5077 Clouds 21 1018 24 10000 0 0 23:26 03.12.2021
5078 Clouds 21 1018 24 10000 2.24 50 22:46 03.12.2021
5079 Clouds 19 1019 25 10000 1.34 90 21:26 03.12.2021
5080 Clouds 19 1020 26 10000 0 0 20:54 03.12.2021
5081 Clouds 18 1021 28 10000 1.34 100 19:53 03.12.2021
5082 Clouds 16 1021 29 10000 0 0 18:34 03.12.2021
5083 Clouds 16 1020 32 10000 0.92 351 17:59 03.12.2021
5084 Clouds 10 1020 38 10000 2.68 200 15:47 03.12.2021
5085 Clouds 11 1020 39 10000 0 0 12:54 03.12.2021
5086 Clouds 12 1019 37 10000 1.34 220 11:49 03.12.2021
5087 Clouds 12 1019 36 10000 1.34 200 10:55 03.12.2021
5088 Clouds 13 1020 34 10000 2.68 210 08:27 03.12.2021
5089 Clouds 14 1020 34 10000 2.24 200 07:43 03.12.2021
5090 Clouds 16 1019 31 10000 1.34 200 04:35 03.12.2021
5091 Clouds 20 1019 23 10000 0 0 00:48 03.12.2021
5092 Clouds 21 1019 22 10000 1.34 40 23:47 02.12.2021
5093 Clouds 20 1020 24 10000 2.24 90 22:24 02.12.2021
5094 Clouds 20 1020 23 10000 2.24 120 21:35 02.12.2021
5095 Clouds 20 1021 22 10000 0 0 20:40 02.12.2021
5096 Clouds 20 1022 22 10000 0 0 20:20 02.12.2021
5097 Clouds 17 1023 26 10000 0 0 18:35 02.12.2021
5098 Clouds 10 1022 33 10000 2.24 210 16:33 02.12.2021
5099 Clouds 10 1022 32 10000 1.34 200 15:30 02.12.2021
5100 Clouds 10 1021 32 10000 3.13 210 14:51 02.12.2021
5101 Clouds 11 1021 34 10000 1.34 270 12:53 02.12.2021
5102 Clouds 11 1021 30 10000 1.34 270 12:19 02.12.2021
5103 Clouds 13 1022 27 10000 3.13 210 10:41 02.12.2021
5104 Clouds 13 1022 25 10000 2.24 240 09:25 02.12.2021
5105 Clouds 15 1021 21 10000 2.68 200 06:45 02.12.2021
5106 Clear 21 1021 19 10000 0 0 00:57 02.12.2021
5107 Clouds 24 1021 15 10000 2.68 40 23:30 01.12.2021
5108 Clouds 23 1022 15 10000 0 0 22:25 01.12.2021
5109 Clouds 23 1023 16 10000 0 0 21:42 01.12.2021
5110 Clear 21 1023 21 10000 1.43 53 19:59 01.12.2021
5111 Clouds 20 1025 20 10000 1.34 300 19:36 01.12.2021
5112 Clouds 15 1025 25 10000 2.24 220 17:50 01.12.2021
5113 Clear 14 1024 30 10000 1.28 344 16:59 01.12.2021
5114 Clouds 11 1024 29 10000 3.13 220 15:37 01.12.2021
5115 Clouds 12 1024 29 10000 2.68 320 14:24 01.12.2021
5116 Clouds 12 1023 28 10000 2.24 0 13:36 01.12.2021
5117 Clouds 13 1023 28 10000 2.68 230 10:43 01.12.2021
5118 Clear 14 1021 29 10000 1.83 4 09:59 01.12.2021
5119 Clouds 15 1023 26 10000 2.24 220 08:50 01.12.2021
5120 Clouds 15 1022 26 10000 2.24 220 07:54 01.12.2021
5121 Clouds 15 1022 25 10000 2.24 220 07:19 01.12.2021
5122 Clouds 18 1021 25 10000 2.06 260 03:50 01.12.2021
5123 Clouds 20 1020 23 10000 1.54 260 02:34 01.12.2021
5124 Clear 25 1019 19 10000 2.47 29 23:59 30.11.2021
5125 Clouds 25 1020 17 10000 1.34 120 23:28 30.11.2021
5126 Clear 24 1021 18 10000 1.34 0 22:22 30.11.2021
5127 Clear 22 1022 20 10000 1.34 60 20:46 30.11.2021
5128 Clear 22 1022 20 10000 1.34 60 20:23 30.11.2021
5129 Clear 21 1024 21 10000 2.24 30 19:38 30.11.2021
5130 Clear 19 1023 24 10000 0 0 18:51 30.11.2021
5131 Clear 16 1023 27 10000 0 0 17:21 30.11.2021
5132 Clear 11 1021 31 10000 3.13 220 15:50 30.11.2021
5133 Clear 12 1021 30 10000 2.68 260 14:29 30.11.2021
5134 Clear 11 1020 31 10000 0 0 13:29 30.11.2021
5135 Clear 13 1020 29 10000 3.58 200 12:53 30.11.2021
5136 Clear 13 1020 28 10000 3.13 210 11:52 30.11.2021
5137 Clear 13 1020 28 10000 3.13 210 11:25 30.11.2021
5138 Clear 12 1020 28 10000 1.34 260 10:35 30.11.2021
5139 Clear 14 1020 27 10000 2.68 190 08:54 30.11.2021
5140 Clear 14 1020 26 10000 2.68 190 08:32 30.11.2021
5141 Clear 14 1020 27 10000 2.24 230 07:48 30.11.2021
5142 Clear 15 1019 27 10000 1.02 291 04:59 30.11.2021
5143 Clear 20 1019 20 10000 0 0 01:45 30.11.2021
5144 Clear 21 1019 18 10000 0 0 01:26 30.11.2021
5145 Clear 23 1019 17 10000 0 0 23:25 29.11.2021
5146 Clear 23 1019 19 10000 0.97 80 22:58 29.11.2021
5147 Clear 23 1020 17 10000 0 0 22:34 29.11.2021
5148 Clear 22 1021 18 10000 0 0 21:46 29.11.2021
5149 Clear 21 1021 18 10000 0 0 21:19 29.11.2021
5150 Clear 21 1022 19 10000 0 0 20:44 29.11.2021
5151 Clear 21 1022 22 10000 1 61 19:57 29.11.2021
5152 Clear 20 1023 20 10000 1.34 0 19:38 29.11.2021
5153 Clear 19 1023 22 10000 0 0 18:56 29.11.2021
5154 Clear 20 1021 15 10000 0.64 31 18:37 29.11.2021
5155 Clear 17 1021 20 10000 1.05 335 17:21 29.11.2021
5156 Clear 17 1021 20 10000 1.05 335 16:33 29.11.2021
5157 Clear 12 1021 24 10000 1.25 338 15:55 29.11.2021
5158 Clear 12 1021 24 10000 1.49 341 14:45 29.11.2021
5159 Clear 13 1021 23 10000 1.75 340 13:47 29.11.2021
5160 Clear 13 1020 23 10000 1.73 348 12:56 29.11.2021
5161 Clear 13 1021 23 10000 1.35 344 11:51 29.11.2021
5162 Clear 13 1021 23 10000 1.18 332 10:59 29.11.2021
5163 Clear 9 1024 23 10000 0 0 09:56 29.11.2021
5164 Clear 13 1024 21 10000 1.54 220 06:44 29.11.2021
5165 Clear 15 1024 17 10000 3.09 230 04:53 29.11.2021
5166 Clear 22 1023 11 10000 0 0 00:44 29.11.2021
5167 Clear 22 1024 10 10000 0 0 23:47 28.11.2021
5168 Clear 22 1024 10 10000 0 0 23:28 28.11.2021
5169 Clear 20 1025 11 10000 0 0 21:53 28.11.2021
5170 Clear 21 1025 11 10000 0 0 21:27 28.11.2021
5171 Clear 18 1026 12 10000 0 0 20:35 28.11.2021
5172 Clear 17 1027 13 10000 0 0 19:29 28.11.2021
5173 Clear 14 1027 14 10000 1.54 60 18:38 28.11.2021
5174 Clear 7 1027 19 10000 0 0 17:56 28.11.2021
5175 Clear 12 1027 17 10000 0 0 17:32 28.11.2021
5176 Clear 8 1026 20 10000 0 0 16:44 28.11.2021
5177 Clear 8 1026 20 10000 0 0 16:22 28.11.2021
5178 Clear 8 1026 20 10000 0 0 15:33 28.11.2021
5179 Clear 8 1025 20 10000 2.57 210 14:49 28.11.2021
5180 Clear 8 1025 19 10000 2.06 200 13:49 28.11.2021
5181 Clear 8 1024 16 10000 2.57 280 12:54 28.11.2021
5182 Clear 8 1025 19 10000 2.06 200 11:19 28.11.2021
5183 Clear 9 1024 20 10000 1.54 220 10:22 28.11.2021
5184 Clear 10 1024 19 10000 1.54 220 09:40 28.11.2021
5185 Clear 11 1024 16 10000 2.06 210 08:19 28.11.2021
5186 Clouds 21 1020 7 10000 0 0 00:39 28.11.2021
5187 Clouds 19 1022 9 10000 0 0 21:40 27.11.2021
5188 Clouds 15 1023 11 10000 0 0 19:49 27.11.2021
5189 Clear 5 1023 19 10000 0 0 17:57 27.11.2021
5190 Clear 6 1020 13 10000 1.29 337 15:59 27.11.2021
5191 Clear 7 1021 20 10000 1.54 220 14:30 27.11.2021
5192 Clear 6 1019 13 10000 1.35 346 12:58 27.11.2021
5193 Clear 8 1020 18 10000 2.06 200 10:52 27.11.2021
5194 Clear 8 1020 18 10000 2.06 230 09:53 27.11.2021
5195 Clear 9 1021 16 10000 1.54 280 08:44 27.11.2021
5196 Clouds 10 1020 16 10000 1.54 200 06:34 27.11.2021
5197 Clouds 16 1020 12 10000 1.54 200 02:25 27.11.2021
5198 Clouds 18 1021 8 10000 0 0 23:40 26.11.2021
5199 Clouds 18 1022 9 10000 2.06 0 22:26 26.11.2021
5200 Clouds 17 1024 10 10000 0 0 21:41 26.11.2021
5201 Clouds 17 1024 10 10000 0 0 21:22 26.11.2021
5202 Clouds 16 1025 10 10000 0 0 20:40 26.11.2021
5203 Clouds 13 1026 13 10000 0 0 19:55 26.11.2021
5204 Clouds 11 1027 16 10000 0 0 18:44 26.11.2021
5205 Clouds 8 1027 19 10000 0 0 17:24 26.11.2021
5206 Clouds 5 1027 22 10000 1.54 220 16:45 26.11.2021
5207 Clouds 5 1027 24 10000 1.54 240 14:50 26.11.2021
5208 Clouds 6 1027 24 10000 2.06 260 13:34 26.11.2021
5209 Clouds 8 1028 20 10000 2.68 250 10:44 26.11.2021
5210 Clouds 9 1028 19 10000 1.34 240 09:49 26.11.2021
5211 Clouds 9 1028 19 10000 2.68 270 08:50 26.11.2021
5212 Clouds 9 1028 19 10000 2.68 270 08:19 26.11.2021
5213 Clouds 9 1029 20 10000 2.24 280 06:30 26.11.2021
5214 Clear 11 1029 18 10000 2.68 280 04:52 26.11.2021
5215 Clear 12 1029 18 10000 2.06 220 03:35 26.11.2021
5216 Clouds 17 1030 13 10000 5.36 20 23:43 25.11.2021
5217 Clouds 16 1031 14 10000 6.26 30 22:25 25.11.2021
5218 Clear 14 1033 16 10000 4.47 60 20:43 25.11.2021
5219 Clear 13 1034 18 10000 3.13 20 19:21 25.11.2021
5220 Clear 11 1034 20 10000 4.02 60 18:25 25.11.2021
5221 Clear 9 1034 22 10000 0 0 17:27 25.11.2021
5222 Clear 7 1034 24 10000 0 0 16:45 25.11.2021
5223 Clear 7 1033 26 10000 1.79 0 15:59 25.11.2021
5224 Clear 7 1033 24 10000 2.68 70 14:31 25.11.2021
5225 Clear 8 1032 26 10000 2.24 0 12:57 25.11.2021
5226 Clear 9 1032 23 10000 4.02 0 11:56 25.11.2021
5227 Clear 10 1031 19 10000 10.28 20 10:43 25.11.2021
5228 Clear 11 1030 17 10000 9.39 360 08:21 25.11.2021
5229 Clear 13 1025 15 10000 6.71 360 03:18 25.11.2021
5230 Clear 15 1024 16 10000 8.94 20 01:26 25.11.2021
5231 Clear 16 1023 17 10000 6.71 340 22:33 24.11.2021
5232 Clear 15 1023 18 10000 8.05 10 21:48 24.11.2021
5233 Clear 15 1023 18 10000 8.05 10 21:22 24.11.2021
5234 Clear 15 1024 19 10000 9.83 20 20:27 24.11.2021
5235 Clear 15 1023 19 10000 6.71 360 19:40 24.11.2021
5236 Clear 13 1023 22 10000 7.6 350 18:19 24.11.2021
5237 Clouds 12 1020 25 10000 7.15 20 16:47 24.11.2021
5238 Clear 11 1018 28 10000 7.2 350 14:58 24.11.2021
5239 Clouds 11 1018 24 10000 5.81 40 14:22 24.11.2021
5240 Clouds 12 1016 22 10000 7.6 40 13:35 24.11.2021
5241 Clouds 11 1015 25 10000 2.68 200 11:34 24.11.2021
5242 Clear 11 1015 27 10000 0.89 0 10:58 24.11.2021
5243 Clouds 11 1014 25 10000 2.24 160 10:36 24.11.2021
5244 Clouds 12 1013 23 10000 3.58 250 09:33 24.11.2021
5245 Clear 13 1013 24 10000 3.13 240 07:41 24.11.2021
5246 Clouds 13 1012 25 10000 1.34 180 05:41 24.11.2021
5247 Clouds 15 1011 25 10000 1.34 170 03:44 24.11.2021
5248 Clouds 20 1011 16 10000 2.68 30 23:33 23.11.2021
5249 Clouds 20 1012 17 10000 2.57 40 22:39 23.11.2021
5250 Clouds 19 1012 18 10000 2.68 20 21:45 23.11.2021
5251 Clouds 18 1014 21 10000 0 0 20:36 23.11.2021
5252 Clouds 16 1015 21 10000 2.24 90 19:34 23.11.2021
5253 Clouds 14 1015 23 10000 0 0 18:34 23.11.2021
5254 Clouds 13 1016 26 10000 1.34 210 17:41 23.11.2021
5255 Clouds 13 1016 26 10000 1.34 210 17:41 23.11.2021
5256 Clouds 12 1016 28 10000 0 0 16:37 23.11.2021
5257 Clouds 11 1016 28 10000 0 0 15:27 23.11.2021
5258 Clear 11 1015 29 10000 1.54 160 14:56 23.11.2021
5259 Clouds 11 1016 28 10000 0 0 13:29 23.11.2021
5260 Clouds 11 1017 26 10000 0 0 10:28 23.11.2021
5261 Clouds 12 1018 25 10000 1.34 280 09:48 23.11.2021
5262 Clouds 12 1018 23 10000 2.68 210 08:41 23.11.2021
5263 Clouds 14 1020 21 10000 1.34 220 04:53 23.11.2021
5264 Clear 15 1020 20 10000 1.54 280 03:37 23.11.2021
5265 Clouds 20 1022 14 10000 0 0 23:42 22.11.2021
5266 Clouds 20 1022 16 10000 0 0 23:20 22.11.2021
5267 Clouds 20 1023 16 10000 2.68 360 22:31 22.11.2021
5268 Clouds 19 1024 17 10000 3.58 10 21:45 22.11.2021
5269 Clouds 18 1024 17 10000 3.58 10 21:21 22.11.2021
5270 Clear 17 1025 19 10000 2.24 110 20:43 22.11.2021
5271 Clear 16 1027 21 10000 0 0 19:24 22.11.2021
5272 Clear 14 1027 22 10000 1.34 180 18:41 22.11.2021
5273 Clear 14 1027 22 10000 1.34 180 18:41 22.11.2021
5274 Clear 14 1027 23 10000 1.34 180 18:22 22.11.2021
5275 Clear 9 1027 28 10000 2.68 210 16:45 22.11.2021
5276 Clear 7 1027 30 10000 2.68 210 15:32 22.11.2021
5277 Clear 8 1027 29 10000 1.34 230 12:51 22.11.2021
5278 Clear 9 1027 28 10000 2.24 210 11:39 22.11.2021
5279 Clear 10 1027 27 10000 1.34 230 10:27 22.11.2021
5280 Clear 11 1027 25 10000 2.24 200 08:44 22.11.2021
5281 Clear 11 1027 24 10000 2.24 200 08:24 22.11.2021
5282 Clear 18 1026 18 10000 5.36 40 01:43 22.11.2021
5283 Clear 19 1026 17 10000 6.26 70 23:21 21.11.2021
5284 Clear 19 1026 18 10000 5.81 40 22:45 21.11.2021
5285 Clear 19 1027 19 10000 7.15 60 21:22 21.11.2021
5286 Clear 18 1029 21 10000 5.36 40 20:36 21.11.2021
5287 Clear 17 1030 23 10000 3.13 20 19:35 21.11.2021
5288 Clear 14 1029 31 10000 4.02 0 17:57 21.11.2021
5289 Clear 13 1029 30 10000 3.58 60 17:36 21.11.2021
5290 Clear 11 1027 35 10000 2.68 100 15:21 21.11.2021
5291 Clear 12 1027 34 10000 3.58 30 14:42 21.11.2021
5292 Clear 12 1026 35 10000 4.47 30 13:23 21.11.2021
5293 Clear 12 1026 34 10000 5.81 10 12:27 21.11.2021
5294 Clear 13 1026 34 10000 5.36 30 11:38 21.11.2021
5295 Clear 14 1025 33 10000 4.02 50 10:19 21.11.2021
5296 Clear 14 1025 33 10000 4.02 50 09:47 21.11.2021
5297 Clouds 14 1024 37 10000 0 0 08:33 21.11.2021
5298 Clouds 15 1024 35 10000 3.58 60 07:53 21.11.2021
5299 Clouds 15 1023 32 10000 3.58 40 06:37 21.11.2021
5300 Clouds 16 1022 30 10000 2.68 320 05:42 21.11.2021
5301 Clouds 17 1020 27 10000 1.34 290 03:26 21.11.2021
5302 Clouds 17 1019 28 10000 2.06 310 02:56 21.11.2021
5303 Clouds 18 1020 26 10000 1.54 130 02:18 21.11.2021
5304 Clouds 21 1019 22 10000 3.13 60 00:50 21.11.2021
5305 Clouds 22 1019 20 10000 2.68 60 22:35 20.11.2021
5306 Clouds 21 1019 21 10000 1.34 0 21:33 20.11.2021
5307 Clouds 20 1020 22 10000 0 0 20:32 20.11.2021
5308 Clouds 18 1020 25 10000 1.34 300 18:45 20.11.2021
5309 Clouds 17 1020 27 10000 1.34 300 18:24 20.11.2021
5310 Clouds 13 1020 31 10000 0 0 17:22 20.11.2021
5311 Clouds 10 1019 35 10000 1.34 250 15:23 20.11.2021
5312 Clouds 10 1018 35 10000 1.34 210 14:39 20.11.2021
5313 Clouds 10 1018 35 10000 1.34 210 14:20 20.11.2021
5314 Clear 11 1017 37 10000 0.89 0 11:56 20.11.2021
5315 Clear 11 1017 37 10000 0.89 0 11:56 20.11.2021
5316 Clouds 12 1017 34 10000 0.45 0 09:58 20.11.2021
5317 Clouds 12 1017 32 10000 0 0 08:44 20.11.2021
5318 Clouds 13 1018 31 10000 1.34 210 06:50 20.11.2021
5319 Clouds 14 1017 29 10000 0 0 05:21 20.11.2021
5320 Clouds 15 1017 28 10000 2.24 220 04:49 20.11.2021
5321 Clouds 19 1017 22 10000 0 0 00:43 20.11.2021
5322 Clouds 20 1017 21 10000 0 0 00:18 20.11.2021
5323 Clouds 20 1018 21 10000 2.24 50 22:54 19.11.2021
5324 Clouds 19 1019 21 10000 2.68 60 21:36 19.11.2021
5325 Clouds 19 1020 21 10000 1.34 60 20:48 19.11.2021
5326 Clouds 18 1020 22 10000 1.34 60 20:29 19.11.2021
5327 Clouds 17 1021 24 10000 1.34 50 19:47 19.11.2021
5328 Clouds 16 1021 26 10000 1.34 50 18:49 19.11.2021
5329 Clouds 14 1020 27 10000 1.34 20 17:45 19.11.2021
5330 Clouds 13 1020 31 10000 0 0 16:43 19.11.2021
5331 Clouds 13 1020 31 10000 0 0 16:43 19.11.2021
5332 Clouds 12 1019 31 10000 1.34 200 15:22 19.11.2021
5333 Clouds 13 1020 30 10000 1.34 250 11:54 19.11.2021
5334 Clouds 12 1020 28 10000 0 0 10:25 19.11.2021
5335 Clouds 12 1020 29 10000 0 0 08:39 19.11.2021
5336 Clouds 13 1020 27 10000 2.24 200 06:29 19.11.2021
5337 Clouds 14 1020 25 10000 1.34 210 04:22 19.11.2021
5338 Clouds 19 1020 21 10000 0.45 0 23:59 18.11.2021
5339 Clouds 19 1020 18 10000 0 0 23:41 18.11.2021
5340 Clouds 18 1022 19 10000 1.34 50 21:41 18.11.2021
5341 Clouds 17 1023 19 10000 1.34 0 20:46 18.11.2021
5342 Clouds 17 1023 18 10000 1.34 0 20:28 18.11.2021
5343 Clouds 17 1024 19 10000 0 0 19:43 18.11.2021
5344 Clouds 15 1024 21 10000 1.34 30 18:40 18.11.2021
5345 Clouds 14 1024 23 10000 1.34 210 17:54 18.11.2021
5346 Clouds 13 1024 25 10000 1.34 210 17:35 18.11.2021
5347 Clouds 9 1023 30 10000 1.34 220 16:43 18.11.2021
5348 Clouds 9 1023 29 10000 1.34 190 15:23 18.11.2021
5349 Clouds 9 1022 31 10000 1.34 200 13:21 18.11.2021
5350 Clouds 10 1022 26 10000 2.24 150 11:45 18.11.2021
5351 Clouds 11 1022 26 10000 2.24 150 11:26 18.11.2021
5352 Clouds 11 1022 24 10000 1.34 360 10:55 18.11.2021
5353 Clouds 12 1022 23 10000 3.13 70 09:28 18.11.2021
5354 Clouds 13 1022 26 10000 3.13 90 07:31 18.11.2021
5355 Clouds 15 1021 24 10000 2.24 220 05:47 18.11.2021
5356 Clouds 18 1020 22 10000 3.6 50 02:35 18.11.2021
5357 Clouds 20 1019 20 10000 5.36 60 01:21 18.11.2021
5358 Clouds 21 1019 21 10000 5.81 40 22:41 17.11.2021
5359 Clouds 21 1019 21 10000 5.81 40 22:20 17.11.2021
5360 Clouds 21 1020 23 10000 5.81 60 21:36 17.11.2021
5361 Clouds 20 1020 24 10000 4.02 60 20:18 17.11.2021
5362 Clouds 17 1020 30 10000 0 0 17:44 17.11.2021
5363 Clouds 15 1019 35 10000 0.45 0 16:59 17.11.2021
5364 Clouds 13 1015 34 10000 2.03 333 13:59 17.11.2021
5365 Clouds 13 1016 33 10000 0 0 12:39 17.11.2021
5366 Clouds 13 1016 33 10000 1.34 300 11:37 17.11.2021
5367 Clouds 14 1015 31 10000 1.34 280 10:28 17.11.2021
5368 Clouds 15 1015 29 10000 1.34 250 09:23 17.11.2021
5369 Clouds 16 1014 27 10000 1.34 210 07:41 17.11.2021
5370 Clouds 18 1012 28 10000 0 0 03:31 17.11.2021
5371 Clouds 23 1012 22 10000 4.02 70 00:47 17.11.2021
5372 Clouds 24 1013 20 10000 2.24 0 22:44 16.11.2021
5373 Clouds 22 1015 23 10000 2.24 180 20:20 16.11.2021
5374 Clouds 22 1014 26 10000 0.45 0 19:59 16.11.2021
5375 Clouds 19 1016 31 10000 2.24 210 18:53 16.11.2021
5376 Clouds 18 1016 30 10000 2.24 210 18:29 16.11.2021
5377 Clouds 16 1016 32 10000 1.34 220 17:34 16.11.2021
5378 Clouds 15 1015 33 10000 1.34 270 16:32 16.11.2021
5379 Clouds 15 1015 33 10000 2.68 230 15:49 16.11.2021
5380 Clouds 15 1015 32 10000 2.68 280 14:31 16.11.2021
5381 Clouds 16 1015 32 10000 2.24 280 11:22 16.11.2021
5382 Clouds 16 1016 31 10000 3.13 280 09:45 16.11.2021
5383 Clouds 17 1016 30 10000 1.34 290 08:25 16.11.2021
5384 Clouds 17 1017 28 10000 0 0 07:31 16.11.2021
5385 Clouds 23 1017 22 10000 1.34 120 01:20 16.11.2021
5386 Clouds 24 1019 21 10000 1.34 90 22:52 15.11.2021
5387 Clouds 24 1019 21 10000 1.34 90 22:21 15.11.2021
5388 Clouds 24 1020 21 10000 1.34 0 21:52 15.11.2021
5389 Clouds 24 1021 22 10000 1.34 0 21:26 15.11.2021
5390 Clouds 22 1023 23 10000 0 0 19:41 15.11.2021
5391 Clouds 20 1023 25 10000 0 0 18:30 15.11.2021
5392 Clouds 14 1023 34 10000 1.54 210 16:20 15.11.2021
5393 Clouds 13 1022 34 10000 2.24 230 15:40 15.11.2021
5394 Clouds 13 1022 34 10000 2.24 230 15:21 15.11.2021
5395 Clouds 13 1022 34 10000 1.54 230 13:22 15.11.2021
5396 Clear 15 1021 30 10000 0 0 10:57 15.11.2021
5397 Smoke 15 1022 30 10000 2.24 210 09:27 15.11.2021
5398 Smoke 15 1022 30 10000 2.24 210 09:27 15.11.2021
5399 Clouds 17 1022 27 10000 1.34 200 07:45 15.11.2021
5400 Smoke 18 1021 26 10000 2.24 220 05:19 15.11.2021
5401 Clouds 26 1021 19 10000 0 0 23:37 14.11.2021
5402 Clouds 25 1022 19 10000 2.68 50 22:35 14.11.2021
5403 Clouds 23 1025 23 10000 2.24 60 19:53 14.11.2021
5404 Clouds 22 1025 24 10000 2.24 60 19:18 14.11.2021
5405 Clouds 21 1024 27 10000 1.34 90 18:54 14.11.2021
5406 Clouds 20 1024 28 10000 1.34 90 18:36 14.11.2021
5407 Clouds 20 1024 28 10000 1.34 90 18:18 14.11.2021
5408 Clouds 18 1025 31 10000 2.06 190 17:55 14.11.2021
5409 Clouds 18 1024 31 10000 2.06 190 17:37 14.11.2021
5410 Clouds 17 1025 31 10000 2.06 190 17:19 14.11.2021
5411 Clouds 14 1024 35 10000 3.09 210 16:46 14.11.2021
5412 Clouds 14 1024 37 10000 3.09 210 16:20 14.11.2021
5413 Clouds 13 1024 36 10000 1.54 170 15:23 14.11.2021
5414 Clear 13 1024 37 10000 2.06 230 14:49 14.11.2021
5415 Clear 14 1024 36 10000 2.06 230 14:28 14.11.2021
5416 Clear 14 1023 35 10000 1.54 250 13:54 14.11.2021
5417 Clear 14 1023 36 10000 1.54 250 13:35 14.11.2021
5418 Clear 15 1023 34 10000 2.24 220 12:27 14.11.2021
5419 Clear 15 1023 33 10000 2.68 210 11:41 14.11.2021
5420 Clear 16 1023 34 10000 2.24 220 10:41 14.11.2021
5421 Clear 16 1023 34 10000 1.34 270 09:48 14.11.2021
5422 Clear 17 1023 32 10000 1.34 200 08:54 14.11.2021
5423 Clear 17 1022 32 10000 1.34 260 07:19 14.11.2021
5424 Clouds 26 1020 23 10000 0 0 23:47 13.11.2021
5425 Clouds 25 1021 23 10000 1.34 60 22:26 13.11.2021
5426 Clear 25 1021 26 10000 0.89 0 21:56 13.11.2021
5427 Clouds 24 1022 25 10000 0 0 21:22 13.11.2021
5428 Clouds 22 1024 27 10000 1.34 340 19:38 13.11.2021
5429 Clouds 20 1024 30 10000 0 0 18:33 13.11.2021
5430 Clouds 20 1024 30 10000 0 0 18:33 13.11.2021
5431 Clouds 18 1024 34 10000 1.54 270 17:55 13.11.2021
5432 Clouds 13 1023 41 10000 0 0 16:37 13.11.2021
5433 Clear 13 1023 40 10000 0 0 15:20 13.11.2021
5434 Clear 14 1022 39 10000 0 0 14:20 13.11.2021
5435 Clear 14 1022 38 10000 1.34 230 13:18 13.11.2021
5436 Clear 15 1022 37 10000 2.68 210 12:22 13.11.2021
5437 Clear 15 1022 37 10000 2.24 180 11:34 13.11.2021
5438 Clear 16 1023 36 10000 1.34 220 10:44 13.11.2021
5439 Clear 16 1023 35 10000 1.54 10 09:56 13.11.2021
5440 Clear 16 1023 36 10000 3.13 210 09:34 13.11.2021
5441 Clear 17 1023 34 10000 0 0 08:56 13.11.2021
5442 Clear 17 1023 35 10000 0 0 08:23 13.11.2021
5443 Clouds 19 1023 31 10000 2.24 270 04:47 13.11.2021
5444 Clouds 20 1023 31 10000 2.24 270 04:28 13.11.2021
5445 Clouds 24 1022 25 10000 2.68 50 01:30 13.11.2021
5446 Clouds 25 1023 24 10000 4.02 40 22:46 12.11.2021
5447 Clear 25 1024 24 10000 2.68 0 21:45 12.11.2021
5448 Clear 25 1024 24 10000 2.68 0 21:45 12.11.2021
5449 Clear 23 1026 30 10000 0 0 19:46 12.11.2021
5450 Clear 22 1026 30 10000 0 0 19:27 12.11.2021
5451 Clear 21 1027 33 10000 1.54 90 18:28 12.11.2021
5452 Clear 16 1026 41 10000 1.34 270 16:34 12.11.2021
5453 Clear 14 1026 45 10000 2.24 260 15:32 12.11.2021
5454 Clouds 15 1025 40 10000 2.68 220 11:33 12.11.2021
5455 Clear 16 1025 37 10000 2.68 190 10:51 12.11.2021
5456 Clear 16 1025 36 10000 2.24 180 09:37 12.11.2021
5457 Clear 17 1025 34 10000 3.13 350 08:38 12.11.2021
5458 Clouds 22 1022 28 10000 0 0 02:28 12.11.2021
5459 Clear 24 1022 24 10000 2.68 110 23:41 11.11.2021
5460 Clear 24 1023 25 10000 3.13 40 22:30 11.11.2021
5461 Clear 23 1024 26 10000 3.6 30 21:27 11.11.2021
5462 Clouds 22 1024 27 10000 1.34 0 20:40 11.11.2021
5463 Clear 21 1025 31 10000 0.89 0 18:56 11.11.2021
5464 Clouds 18 1025 34 10000 0 0 17:43 11.11.2021
5465 Clouds 15 1025 40 10000 0 0 16:43 11.11.2021
5466 Clouds 14 1024 41 10000 2.68 130 14:46 11.11.2021
5467 Clouds 14 1024 41 10000 2.68 130 14:28 11.11.2021
5468 Clouds 15 1024 39 10000 1.34 350 13:38 11.11.2021
5469 Clouds 16 1023 37 10000 4.47 10 12:48 11.11.2021
5470 Clear 17 1023 37 10000 3.13 40 10:40 11.11.2021
5471 Clear 17 1023 37 10000 4.02 10 09:34 11.11.2021
5472 Clouds 18 1022 35 10000 1.34 270 07:38 11.11.2021
5473 Clear 19 1019 34 10000 0.45 0 03:58 11.11.2021
5474 Clouds 26 1017 23 10000 3.58 0 23:00 10.11.2021
5475 Clouds 25 1020 23 10000 2.68 0 22:22 10.11.2021
5476 Clouds 24 1021 24 10000 2.57 0 21:21 10.11.2021
5477 Clouds 24 1021 27 10000 1.34 0 20:46 10.11.2021
5478 Clouds 23 1022 30 10000 2.24 0 19:47 10.11.2021
5479 Clouds 23 1022 30 10000 2.24 0 19:47 10.11.2021
5480 Clouds 20 1022 36 10000 0 0 18:33 10.11.2021
5481 Clear 16 1021 47 10000 3.13 190 16:34 10.11.2021
5482 Clouds 15 1020 50 10000 3.13 200 14:52 10.11.2021
5483 Clouds 15 1020 50 10000 2.24 210 13:41 10.11.2021
5484 Clouds 15 1019 50 10000 2.24 200 12:47 10.11.2021
5485 Clouds 16 1019 45 10000 0 0 10:39 10.11.2021
5486 Clouds 18 1018 42 10000 2.24 200 08:45 10.11.2021
5487 Clouds 18 1018 41 10000 2.24 200 07:32 10.11.2021
5488 Clouds 18 1018 41 10000 2.24 200 07:32 10.11.2021
5489 Clouds 18 1018 39 10000 1.34 190 06:26 10.11.2021
5490 Clouds 18 1018 39 10000 3.13 240 05:51 10.11.2021
5491 Clouds 23 1016 26 10000 7.15 260 23:52 09.11.2021
5492 Clouds 24 1016 25 10000 6.26 230 21:48 09.11.2021
5493 Clouds 23 1017 24 10000 5.81 220 20:31 09.11.2021
5494 Clouds 22 1018 23 10000 4.47 190 19:21 09.11.2021
5495 Clouds 21 1018 23 10000 4.02 190 17:31 09.11.2021
5496 Clouds 19 1017 23 10000 5.36 200 15:45 09.11.2021
5497 Clouds 19 1017 20 10000 5.36 200 14:29 09.11.2021
5498 Clouds 18 1017 25 10000 6.17 200 12:53 09.11.2021
5499 Clouds 18 1017 25 10000 6.17 200 12:53 09.11.2021
5500 Clouds 18 1017 24 10000 2.24 170 11:42 09.11.2021
5501 Clouds 18 1017 24 10000 4.47 180 10:44 09.11.2021
5502 Clear 18 1017 23 10000 2.57 340 09:24 09.11.2021
5503 Clouds 18 1017 20 10000 4.02 190 08:25 09.11.2021
5504 Clouds 20 1017 16 10000 2.68 180 05:47 09.11.2021
5505 Clouds 23 1015 16 10000 3.13 220 02:22 09.11.2021
5506 Clouds 24 1014 14 10000 4.47 230 01:43 09.11.2021
5507 Clear 26 1012 18 10000 2.24 0 23:58 08.11.2021
5508 Clouds 26 1015 18 10000 2.57 0 22:49 08.11.2021
5509 Clouds 25 1015 21 10000 4.47 70 21:55 08.11.2021
5510 Clouds 24 1016 23 10000 3.58 70 20:53 08.11.2021
5511 Clouds 23 1016 25 10000 3.13 80 19:49 08.11.2021
5512 Clouds 20 1017 27 10000 0 0 18:25 08.11.2021
5513 Clouds 16 1016 34 10000 1.34 210 16:21 08.11.2021
5514 Clouds 15 1013 35 10000 0.45 0 14:58 08.11.2021
5515 Clouds 16 1015 31 10000 1.34 240 14:38 08.11.2021
5516 Clouds 16 1015 29 10000 1.34 230 13:31 08.11.2021
5517 Clouds 18 1014 29 10000 2.06 50 11:56 08.11.2021
5518 Clouds 19 1014 25 10000 4.02 190 10:50 08.11.2021
5519 Clouds 19 1014 22 10000 3.13 200 09:39 08.11.2021
5520 Clouds 20 1014 22 10000 5.36 180 08:54 08.11.2021
5521 Clouds 20 1014 20 10000 4.47 180 07:29 08.11.2021
5522 Clouds 23 1013 15 10000 2.24 190 03:48 08.11.2021
5523 Clouds 23 1013 14 10000 2.24 190 03:26 08.11.2021
5524 Clouds 28 1012 13 10000 2.68 210 23:46 07.11.2021
5525 Clouds 28 1013 13 10000 4.47 170 21:48 07.11.2021
5526 Clouds 27 1013 14 10000 4.47 170 20:54 07.11.2021
5527 Clouds 25 1015 14 10000 3.58 170 19:30 07.11.2021
5528 Clouds 23 1015 18 10000 6.69 180 18:22 07.11.2021
5529 Clouds 19 1014 23 10000 6.26 190 16:50 07.11.2021
5530 Clear 17 1014 23 10000 5.81 170 15:47 07.11.2021
5531 Clear 17 1014 24 10000 4.02 180 14:29 07.11.2021
5532 Clear 17 1013 26 10000 3.58 190 13:26 07.11.2021
5533 Clear 18 1014 24 10000 4.02 170 11:42 07.11.2021
5534 Clear 20 1014 24 10000 2.68 180 09:49 07.11.2021
5535 Clouds 21 1014 22 10000 1.34 80 07:20 07.11.2021
5536 Clouds 26 1013 9 10000 4.47 230 02:34 07.11.2021
5537 Clouds 29 1013 14 10000 5.36 200 23:22 06.11.2021
5538 Clouds 29 1014 16 10000 3.58 240 22:42 06.11.2021
5539 Clouds 27 1014 19 10000 4.47 170 21:32 06.11.2021
5540 Clouds 25 1016 23 10000 2.68 50 20:50 06.11.2021
5541 Clear 22 1016 31 10000 1.34 0 18:56 06.11.2021
5542 Clouds 16 1017 38 10000 0 0 16:44 06.11.2021
5543 Clear 14 1016 41 10000 2.68 210 14:37 06.11.2021
5544 Clear 15 1016 39 10000 1.34 260 13:38 06.11.2021
5545 Clear 15 1016 39 10000 1.34 260 13:38 06.11.2021
5546 Clear 16 1016 37 10000 2.68 270 11:46 06.11.2021
5547 Clouds 17 1016 35 10000 0 0 09:23 06.11.2021
5548 Clear 19 1014 34 10000 0.89 0 04:57 06.11.2021
5549 Clouds 25 1015 24 10000 2.24 70 01:27 06.11.2021
5550 Clouds 26 1016 22 10000 2.24 80 23:34 05.11.2021
5551 Clouds 26 1016 24 10000 2.68 50 22:33 05.11.2021
5552 Clouds 24 1018 26 10000 2.24 50 20:50 05.11.2021
5553 Clouds 24 1018 26 10000 2.24 50 20:19 05.11.2021
5554 Clouds 23 1019 27 10000 2.24 140 19:32 05.11.2021
5555 Clouds 21 1019 31 10000 1.34 0 18:38 05.11.2021
5556 Clouds 18 1019 37 10000 0 0 17:26 05.11.2021
5557 Clouds 14 1018 42 10000 0 0 15:20 05.11.2021
5558 Clouds 14 1017 41 10000 1.34 190 13:35 05.11.2021
5559 Clear 16 1017 40 10000 2.24 200 10:29 05.11.2021
5560 Clear 17 1017 37 10000 2.57 240 08:39 05.11.2021
5561 Clouds 17 1016 37 10000 2.24 210 07:21 05.11.2021
5562 Clear 19 1015 32 10000 1.34 270 04:43 05.11.2021
5563 Clouds 22 1014 27 10000 1.34 90 02:24 05.11.2021
5564 Clouds 25 1014 24 10000 1.34 90 00:30 05.11.2021
5565 Clear 26 1014 27 10000 0.45 0 22:59 04.11.2021
5566 Clouds 25 1016 25 10000 2.68 100 22:18 04.11.2021
5567 Clear 24 1017 25 10000 0 0 21:30 04.11.2021
5568 Clear 24 1018 26 10000 1.34 40 20:40 04.11.2021
5569 Clear 24 1018 26 10000 1.34 40 20:19 04.11.2021
5570 Clear 23 1019 28 10000 0 0 19:39 04.11.2021
5571 Clear 21 1019 31 10000 0 0 18:43 04.11.2021
5572 Clear 19 1020 36 10000 0 0 17:36 04.11.2021
5573 Clear 15 1019 42 10000 1.34 210 16:23 04.11.2021
5574 Clear 14 1019 44 10000 2.24 220 14:19 04.11.2021
5575 Clear 16 1018 39 10000 2.24 210 10:52 04.11.2021
5576 Clear 17 1019 38 10000 1.34 180 09:29 04.11.2021
5577 Clear 17 1019 37 10000 2.24 210 08:29 04.11.2021
5578 Clear 18 1019 36 10000 2.24 230 07:34 04.11.2021
5579 Clouds 26 1019 26 10000 2.68 30 23:52 03.11.2021
5580 Clouds 25 1019 26 10000 3.13 50 22:49 03.11.2021
5581 Clouds 25 1020 26 10000 2.24 50 21:45 03.11.2021
5582 Clouds 24 1021 27 10000 3.58 50 20:45 03.11.2021
5583 Clouds 24 1022 27 10000 3.58 50 20:27 03.11.2021
5584 Clouds 23 1023 27 10000 3.13 10 19:40 03.11.2021
5585 Clouds 22 1023 30 10000 2.24 80 18:47 03.11.2021
5586 Clouds 21 1021 33 10000 1.4 44 17:58 03.11.2021
5587 Clouds 16 1023 36 10000 1.34 230 16:53 03.11.2021
5588 Clouds 14 1022 41 10000 2.24 220 15:52 03.11.2021
5589 Clouds 14 1022 41 10000 2.24 220 15:31 03.11.2021
5590 Clouds 15 1021 38 10000 1.34 230 13:45 03.11.2021
5591 Clouds 15 1021 37 10000 1.34 200 11:38 03.11.2021
5592 Clouds 16 1022 36 10000 1.54 220 10:52 03.11.2021
5593 Clouds 16 1022 36 10000 1.54 220 10:18 03.11.2021
5594 Clouds 17 1021 35 10000 1.54 200 09:27 03.11.2021
5595 Smoke 17 1021 36 10000 0 0 08:20 03.11.2021
5596 Smoke 17 1020 34 10000 0 0 07:38 03.11.2021
5597 Clouds 19 1019 29 10000 2.24 210 04:23 03.11.2021
5598 Clouds 24 1018 23 10000 0 0 01:32 03.11.2021
5599 Clouds 25 1019 23 10000 0 0 23:30 02.11.2021
5600 Clouds 25 1019 23 10000 1.34 20 22:20 02.11.2021
5601 Clouds 24 1020 26 10000 0 0 20:45 02.11.2021
5602 Clouds 23 1020 26 10000 0 0 20:21 02.11.2021
5603 Clouds 23 1021 26 10000 0 0 19:31 02.11.2021
5604 Clouds 21 1021 28 10000 0 0 18:36 02.11.2021
5605 Clouds 20 1021 31 10000 0 0 17:48 02.11.2021
5606 Clouds 19 1021 32 10000 0 0 17:25 02.11.2021
5607 Clouds 16 1020 37 10000 1.34 180 16:19 02.11.2021
5608 Clouds 16 1018 36 10000 0.89 0 14:57 02.11.2021
5609 Clouds 16 1018 35 10000 3.58 280 13:31 02.11.2021
5610 Clouds 16 1017 36 10000 0.45 0 12:59 02.11.2021
5611 Clouds 17 1018 34 10000 2.24 210 12:18 02.11.2021
5612 Clouds 17 1018 32 10000 1.34 250 11:26 02.11.2021
5613 Clouds 18 1018 33 10000 3.58 190 10:38 02.11.2021
5614 Clouds 18 1018 32 10000 3.58 190 10:18 02.11.2021
5615 Clouds 21 1017 25 10000 6.71 220 07:47 02.11.2021
5616 Clouds 22 1017 24 10000 4.02 210 05:55 02.11.2021
5617 Clouds 23 1016 22 10000 2.68 160 03:27 02.11.2021
5618 Clouds 25 1015 19 10000 5.36 190 00:19 02.11.2021
5619 Clear 25 1015 25 10000 2.24 0 21:57 01.11.2021
5620 Clouds 24 1017 25 10000 3.58 180 20:45 01.11.2021
5621 Clouds 24 1017 26 10000 3.58 180 20:19 01.11.2021
5622 Clouds 22 1017 30 10000 2.24 0 19:41 01.11.2021
5623 Clouds 21 1017 35 10000 3.58 140 18:34 01.11.2021
5624 Clouds 19 1017 38 10000 1.34 0 17:49 01.11.2021
5625 Clear 18 1016 40 10000 1.54 30 16:57 01.11.2021
5626 Clouds 16 1016 44 10000 1.34 190 16:25 01.11.2021
5627 Clouds 16 1016 42 10000 1.34 210 15:37 01.11.2021
5628 Clouds 16 1016 42 10000 1.34 210 15:18 01.11.2021
5629 Clouds 16 1016 42 10000 2.24 240 14:37 01.11.2021
5630 Clouds 16 1016 41 10000 2.24 240 14:18 01.11.2021
5631 Clouds 17 1014 39 10000 2.24 210 12:38 01.11.2021
5632 Clouds 17 1014 38 10000 1.34 180 11:34 01.11.2021
5633 Clouds 18 1015 36 10000 4.02 180 10:20 01.11.2021
5634 Clouds 20 1014 30 10000 2.68 150 08:18 01.11.2021
5635 Clouds 20 1013 30 10000 1.34 160 07:46 01.11.2021
5636 Clouds 23 1012 25 10000 3.13 210 03:51 01.11.2021
5637 Clouds 25 1011 22 10000 6.17 230 01:44 01.11.2021
5638 Clouds 27 1011 18 10000 3.58 190 22:48 31.10.2021
5639 Clouds 26 1012 22 10000 4.47 200 20:50 31.10.2021
5640 Clouds 25 1013 26 10000 4.02 190 19:22 31.10.2021
5641 Clouds 24 1013 29 10000 4.02 170 18:41 31.10.2021
5642 Clouds 22 1013 32 10000 2.68 180 17:52 31.10.2021
5643 Clouds 18 1012 37 10000 2.68 190 15:51 31.10.2021
5644 Clouds 18 1011 36 10000 2.68 190 14:24 31.10.2021
5645 Clouds 19 1011 34 10000 4.47 190 12:50 31.10.2021
5646 Clouds 20 1011 35 10000 3.58 190 11:41 31.10.2021
5647 Clouds 20 1011 33 10000 2.68 200 10:44 31.10.2021
5648 Clouds 21 1011 32 10000 2.68 170 09:22 31.10.2021
5649 Clouds 21 1011 30 10000 3.13 190 08:37 31.10.2021
5650 Clear 26 1010 29 10000 1.34 0 01:57 31.10.2021
5651 Clouds 25 1013 27 10000 2.24 90 22:47 30.10.2021
5652 Clouds 24 1014 29 10000 0 0 21:35 30.10.2021
5653 Clear 24 1015 30 10000 1.34 0 20:50 30.10.2021
5654 Clouds 20 1015 36 10000 0 0 18:48 30.10.2021
5655 Clouds 16 1014 43 10000 1.54 190 17:25 30.10.2021
5656 Clear 14 1014 46 10000 2.24 230 15:21 30.10.2021
5657 Clear 15 1014 43 10000 1.34 240 13:40 30.10.2021
5658 Clear 15 1014 43 10000 1.34 240 13:21 30.10.2021
5659 Clear 16 1014 42 10000 1.34 230 12:51 30.10.2021
5660 Clear 16 1014 41 10000 1.34 220 11:44 30.10.2021
5661 Clear 17 1014 40 10000 2.24 210 10:32 30.10.2021
5662 Clear 18 1014 39 10000 3.13 220 08:53 30.10.2021
5663 Clear 18 1014 36 10000 2.68 270 07:25 30.10.2021
5664 Clouds 20 1014 33 10000 2.24 200 05:39 30.10.2021
5665 Clear 26 1014 24 10000 0 0 00:47 30.10.2021
5666 Clear 25 1016 28 10000 2.24 0 22:43 29.10.2021
5667 Clear 25 1016 28 10000 2.24 0 22:20 29.10.2021
5668 Clear 24 1018 31 10000 0 0 20:46 29.10.2021
5669 Clear 22 1019 33 10000 0 0 19:56 29.10.2021
5670 Clear 20 1019 38 10000 0 0 18:33 29.10.2021
5671 Clear 15 1018 46 10000 1.34 260 16:52 29.10.2021
5672 Clear 15 1018 47 10000 2.24 220 14:36 29.10.2021
5673 Clear 17 1018 43 10000 2.24 220 11:44 29.10.2021
5674 Clear 17 1020 41 10000 2.24 220 10:35 29.10.2021
5675 Clear 18 1019 39 10000 2.68 270 08:35 29.10.2021
5676 Clear 27 1021 23 10000 4.02 40 00:37 29.10.2021
5677 Clear 26 1021 25 10000 3.13 60 23:19 28.10.2021
5678 Clear 25 1022 30 10000 0.89 0 21:56 28.10.2021
5679 Clear 23 1025 31 10000 2.68 360 20:32 28.10.2021
5680 Clear 21 1025 35 10000 2.68 10 19:50 28.10.2021
5681 Clear 19 1025 40 10000 2.24 30 18:23 28.10.2021
5682 Clear 15 1022 48 10000 1.89 351 16:58 28.10.2021
5683 Clear 15 1024 46 10000 2.68 210 15:24 28.10.2021
5684 Clear 15 1023 46 10000 2.24 220 13:46 28.10.2021
5685 Clear 15 1023 48 10000 2.24 220 13:22 28.10.2021
5686 Clear 15 1023 45 10000 2.68 290 12:41 28.10.2021
5687 Clear 16 1021 43 10000 1.99 7 10:57 28.10.2021
5688 Clear 16 1023 42 10000 1.34 290 09:38 28.10.2021
5689 Clear 16 1020 42 10000 1.32 2 08:58 28.10.2021
5690 Clear 16 1023 41 10000 0 0 08:34 28.10.2021
5691 Clear 19 1022 33 10000 0 0 04:48 28.10.2021
5692 Clear 22 1023 26 10000 0 0 23:50 27.10.2021
5693 Clear 22 1023 27 10000 0 0 22:31 27.10.2021
5694 Clear 21 1025 28 10000 3.13 80 21:33 27.10.2021
5695 Clear 20 1025 30 10000 2.68 130 20:53 27.10.2021
5696 Clear 19 1025 31 10000 0.45 0 19:57 27.10.2021
5697 Clear 18 1025 32 10000 2.24 0 19:38 27.10.2021
5698 Clear 16 1026 35 10000 1.34 20 18:39 27.10.2021
5699 Clear 11 1023 48 10000 0 0 16:27 27.10.2021
5700 Clear 11 1023 47 10000 1.34 170 15:30 27.10.2021
5701 Clear 11 1022 48 10000 2.68 280 14:40 27.10.2021
5702 Clear 13 1022 43 10000 0 0 11:28 27.10.2021
5703 Clear 13 1021 42 10000 0.9 241 10:58 27.10.2021
5704 Clear 13 1021 40 10000 2.24 230 09:51 27.10.2021
5705 Clear 14 1021 38 10000 2.68 240 08:22 27.10.2021
5706 Clear 14 1020 35 10000 2.24 200 06:53 27.10.2021
5707 Clouds 19 1018 25 10000 5.66 30 02:24 27.10.2021
5708 Clear 20 1017 25 10000 3.58 0 00:56 27.10.2021
5709 Clouds 20 1017 22 10000 7.6 330 00:26 27.10.2021
5710 Clouds 20 1017 22 10000 4.47 350 23:41 26.10.2021
5711 Clouds 19 1018 23 10000 5.36 350 22:37 26.10.2021
5712 Clear 19 1017 28 10000 4.47 0 21:57 26.10.2021
5713 Clear 17 1018 30 10000 2.68 210 20:27 26.10.2021
5714 Clear 16 1017 35 10000 2.68 200 19:26 26.10.2021
5715 Clear 15 1017 38 10000 2.24 350 18:40 26.10.2021
5716 Clear 11 1014 47 10000 2.68 290 16:22 26.10.2021
5717 Clear 12 1012 45 10000 6.71 330 14:19 26.10.2021
5718 Clouds 12 1011 50 10000 0 0 11:34 26.10.2021
5719 Clear 12 1008 53 10000 4.4 305 09:59 26.10.2021
5720 Clouds 14 1007 53 10000 4.02 240 07:24 26.10.2021
5721 Rain 16 1004 55 10000 8.94 250 03:39 26.10.2021
5722 Clouds 25 1003 34 10000 8.05 180 23:50 25.10.2021
5723 Clouds 25 1003 32 10000 7.6 190 22:39 25.10.2021
5724 Clouds 26 1003 31 10000 7.6 190 22:18 25.10.2021
5725 Clouds 25 1005 31 10000 7.15 180 21:26 25.10.2021
5726 Clouds 23 1006 35 10000 4.12 170 19:45 25.10.2021
5727 Clouds 22 1006 36 10000 4.12 170 19:25 25.10.2021
5728 Clouds 22 1007 37 10000 3.6 150 18:51 25.10.2021
5729 Clouds 20 1007 38 10000 4.47 180 17:43 25.10.2021
5730 Clouds 18 1008 38 10000 2.68 150 15:41 25.10.2021
5731 Clouds 18 1006 39 10000 2.03 168 13:56 25.10.2021
5732 Clouds 19 1008 36 10000 3.58 180 12:22 25.10.2021
5733 Clouds 20 1010 35 10000 1.34 120 10:18 25.10.2021
5734 Clouds 22 1009 32 10000 3.13 180 07:47 25.10.2021
5735 Clouds 22 1008 36 10000 3.81 178 05:58 25.10.2021
5736 Clouds 25 1008 31 10000 4.47 200 00:53 25.10.2021
5737 Clouds 25 1008 30 10000 4.47 200 00:35 25.10.2021
5738 Clouds 24 1008 30 10000 4.47 190 23:45 24.10.2021
5739 Clouds 23 1009 30 10000 5.36 170 22:40 24.10.2021
5740 Clouds 23 1009 30 10000 5.36 170 22:20 24.10.2021
5741 Clouds 22 1009 31 10000 4.02 180 21:37 24.10.2021
5742 Clouds 21 1010 33 10000 2.68 180 20:42 24.10.2021
5743 Clouds 19 1010 36 10000 2.68 160 19:49 24.10.2021
5744 Clouds 18 1010 39 10000 4.47 180 18:30 24.10.2021
5745 Clouds 18 1009 40 10000 3.13 160 17:48 24.10.2021
5746 Clear 16 1007 47 10000 2.57 100 15:57 24.10.2021
5747 Clouds 16 1008 44 10000 2.68 200 15:20 24.10.2021
5748 Clouds 17 1008 40 10000 2.24 200 13:23 24.10.2021
5749 Clouds 18 1007 38 10000 3.58 190 12:26 24.10.2021
5750 Clouds 17 1008 41 10000 3.13 160 11:36 24.10.2021
5751 Clouds 18 1008 37 10000 3.13 190 10:38 24.10.2021
5752 Clouds 18 1008 37 10000 3.13 190 10:38 24.10.2021
5753 Clouds 19 1008 37 10000 2.68 190 08:43 24.10.2021
5754 Clouds 23 1003 33 10000 0.45 0 02:58 24.10.2021
5755 Clouds 25 1006 28 10000 0 0 23:51 23.10.2021
5756 Clouds 24 1007 29 10000 3.13 330 22:40 23.10.2021
5757 Clouds 23 1008 34 10000 4.02 190 20:43 23.10.2021
5758 Clouds 22 1008 36 10000 4.47 230 19:26 23.10.2021
5759 Clouds 21 1007 39 10000 7.15 230 18:43 23.10.2021
5760 Clouds 19 1007 42 10000 4.02 210 17:44 23.10.2021
5761 Clouds 19 1006 43 10000 2.24 200 16:53 23.10.2021
5762 Clouds 19 1006 42 10000 5.36 190 15:20 23.10.2021
5763 Clouds 20 1006 36 10000 6.71 200 13:18 23.10.2021
5764 Clouds 28 1010 14 10000 4.02 180 00:36 23.10.2021
5765 Clouds 26 1011 20 10000 5.36 90 23:28 22.10.2021
5766 Clear 23 1014 27 10000 0.89 0 20:56 22.10.2021
5767 Clouds 21 1015 32 10000 1.58 138 18:57 22.10.2021
5768 Clouds 19 1016 32 10000 0 0 18:20 22.10.2021
5769 Clouds 13 1016 40 10000 1.34 230 16:18 22.10.2021
5770 Clouds 14 1016 37 10000 1.34 210 14:31 22.10.2021
5771 Clouds 14 1017 36 10000 2.24 220 12:41 22.10.2021
5772 Clouds 16 1018 35 10000 0 0 10:50 22.10.2021
5773 Clouds 17 1017 33 10000 0.89 0 09:56 22.10.2021
5774 Clouds 17 1018 33 10000 2.24 230 09:32 22.10.2021
5775 Clouds 18 1019 31 10000 1.34 220 07:28 22.10.2021
5776 Clouds 19 1019 29 10000 1.34 220 06:19 22.10.2021
5777 Clouds 25 1020 22 10000 0 0 00:31 22.10.2021
5778 Clouds 25 1020 22 10000 0 0 23:48 21.10.2021
5779 Clouds 24 1021 23 10000 1.34 60 22:22 21.10.2021
5780 Clear 23 1022 24 10000 0 0 21:18 21.10.2021
5781 Clouds 22 1023 25 10000 0 0 20:21 21.10.2021
5782 Clouds 20 1023 28 10000 0 0 19:30 21.10.2021
5783 Clouds 19 1023 30 10000 0 0 18:52 21.10.2021
5784 Clouds 18 1023 33 10000 0 0 18:27 21.10.2021
5785 Clouds 16 1023 37 10000 1.34 220 17:42 21.10.2021
5786 Clouds 13 1022 41 10000 2.24 200 16:26 21.10.2021
5787 Clouds 13 1022 39 10000 2.24 220 15:21 21.10.2021
5788 Clouds 13 1021 39 10000 0 0 14:50 21.10.2021
5789 Clouds 14 1021 36 10000 1.34 210 13:27 21.10.2021
5790 Clouds 14 1021 36 10000 2.24 230 11:35 21.10.2021
5791 Clouds 15 1021 36 10000 2.06 260 09:24 21.10.2021
5792 Clouds 16 1021 33 10000 1.54 210 07:32 21.10.2021
5793 Clouds 17 1020 31 10000 0 0 05:33 21.10.2021
5794 Clouds 23 1019 25 10000 0.45 0 23:56 20.10.2021
5795 Clouds 22 1021 23 10000 0 0 22:21 20.10.2021
5796 Clouds 21 1022 24 10000 1.34 0 21:45 20.10.2021
5797 Clear 20 1021 28 10000 0.89 0 20:57 20.10.2021
5798 Clear 20 1021 28 10000 0.89 0 20:57 20.10.2021
5799 Clouds 19 1022 26 10000 1.34 0 20:37 20.10.2021
5800 Clouds 20 1021 29 10000 0.89 0 19:59 20.10.2021
5801 Clouds 17 1022 32 10000 0.45 0 18:59 20.10.2021
5802 Clouds 16 1022 31 10000 0 0 18:29 20.10.2021
5803 Clouds 10 1020 37 10000 2.24 220 15:54 20.10.2021
5804 Clouds 11 1019 35 10000 2.68 220 12:50 20.10.2021
5805 Clouds 13 1018 31 10000 1.34 240 09:30 20.10.2021
5806 Clouds 16 1017 27 10000 1.34 120 05:24 20.10.2021
5807 Clouds 21 1016 21 10000 0 0 00:53 20.10.2021
5808 Clouds 21 1016 19 10000 0 0 00:28 20.10.2021
5809 Clouds 20 1017 23 10000 2.24 40 22:21 19.10.2021
5810 Clear 19 1018 24 10000 0 0 21:28 19.10.2021
5811 Clear 18 1018 25 10000 2.24 250 20:26 19.10.2021
5812 Clear 17 1018 27 10000 2.24 70 19:46 19.10.2021
5813 Clear 16 1018 28 10000 2.24 70 19:23 19.10.2021
5814 Clear 14 1017 31 10000 0 0 18:23 19.10.2021
5815 Clear 9 1016 41 10000 1.34 220 16:25 19.10.2021
5816 Clear 9 1016 39 10000 2.68 200 15:25 19.10.2021
5817 Clear 10 1015 37 10000 0 0 14:31 19.10.2021
5818 Clear 10 1015 34 10000 2.24 200 13:49 19.10.2021
5819 Clear 11 1015 35 10000 2.68 230 11:37 19.10.2021
5820 Clear 12 1014 33 10000 2.68 280 10:51 19.10.2021
5821 Clear 12 1013 33 10000 1.34 190 09:35 19.10.2021
5822 Clear 13 1014 33 10000 2.24 180 08:53 19.10.2021
5823 Clouds 17 1009 36 10000 5.81 330 00:28 19.10.2021
5824 Clouds 17 1008 37 10000 0.89 216 23:56 18.10.2021
5825 Clouds 17 1009 35 10000 6.71 310 23:21 18.10.2021
5826 Clouds 17 1008 36 10000 4.02 210 22:55 18.10.2021
5827 Clouds 17 1007 43 10000 0.45 268 21:58 18.10.2021
5828 Clouds 17 1007 43 10000 0.45 268 21:58 18.10.2021
5829 Clouds 18 1008 38 10000 10.28 230 20:46 18.10.2021
5830 Clouds 18 1008 38 10000 10.28 230 20:20 18.10.2021
5831 Clouds 17 1008 40 10000 7.6 210 19:31 18.10.2021
5832 Clear 17 1007 42 10000 0.89 193 18:58 18.10.2021
5833 Clouds 15 1007 36 10000 5.36 210 16:30 18.10.2021
5834 Clouds 16 1006 28 10000 3.13 190 14:33 18.10.2021
5835 Clouds 18 1008 22 10000 4.47 210 11:47 18.10.2021
5836 Clouds 19 1009 20 10000 4.02 170 09:47 18.10.2021
5837 Clouds 21 1009 16 10000 2.24 180 06:39 18.10.2021
5838 Clouds 27 1012 16 10000 3.58 60 23:54 17.10.2021
5839 Smoke 25 1013 18 10000 3.13 60 22:27 17.10.2021
5840 Smoke 25 1015 18 10000 2.24 40 21:44 17.10.2021
5841 Smoke 23 1016 19 10000 2.24 100 20:49 17.10.2021
5842 Clouds 22 1016 21 10000 0.45 148 19:56 17.10.2021
5843 Clouds 21 1016 20 10000 0 0 19:37 17.10.2021
5844 Clouds 20 1016 24 10000 0.45 105 18:28 17.10.2021
5845 Clouds 14 1016 28 10000 2.24 210 16:38 17.10.2021
5846 Clouds 14 1016 27 10000 2.68 270 14:39 17.10.2021
5847 Clouds 14 1015 28 10000 0.89 0 13:59 17.10.2021
5848 Clouds 14 1017 25 10000 2.68 210 13:30 17.10.2021
5849 Clear 15 1017 24 10000 2.68 220 11:27 17.10.2021
5850 Clear 16 1018 21 10000 2.24 200 10:19 17.10.2021
5851 Clear 17 1017 22 10000 2.68 240 08:29 17.10.2021
5852 Clear 23 1017 18 10000 3.6 50 02:57 17.10.2021
5853 Clear 25 1019 13 10000 2.24 30 00:30 17.10.2021
5854 Clear 25 1021 14 10000 4.02 20 22:47 16.10.2021
5855 Clear 22 1023 18 10000 4.02 50 20:36 16.10.2021
5856 Clear 21 1023 22 10000 1.34 228 19:59 16.10.2021
5857 Clear 20 1023 20 10000 1.34 20 19:40 16.10.2021
5858 Clear 20 1023 20 10000 1.34 20 19:18 16.10.2021
5859 Clear 18 1024 22 10000 0 0 18:44 16.10.2021
5860 Clear 18 1024 22 10000 0 0 18:22 16.10.2021
5861 Clear 15 1023 28 10000 2.24 210 17:31 16.10.2021
5862 Clear 11 1023 31 10000 1.34 220 16:18 16.10.2021
5863 Clear 14 1023 25 10000 1.34 0 12:50 16.10.2021
5864 Clear 14 1023 24 10000 4.02 60 11:24 16.10.2021
5865 Clear 15 1022 22 10000 1.75 14 08:58 16.10.2021
5866 Clear 18 1023 20 10000 2.68 20 04:26 16.10.2021
5867 Clear 22 1024 14 10000 4.47 90 00:51 16.10.2021
5868 Clear 22 1024 16 10000 5.81 40 23:26 15.10.2021
5869 Clear 21 1025 18 10000 6.26 50 22:21 15.10.2021
5870 Clear 20 1026 20 10000 4.47 10 21:40 15.10.2021
5871 Clear 19 1027 22 10000 8.94 60 20:54 15.10.2021
5872 Clear 19 1027 22 10000 8.94 60 20:25 15.10.2021
5873 Clear 18 1027 24 10000 6.71 50 19:20 15.10.2021
5874 Clear 16 1027 29 10000 4.02 50 18:22 15.10.2021
5875 Clear 12 1025 33 10000 1.34 360 15:48 15.10.2021
5876 Clear 13 1025 33 10000 0 0 14:22 15.10.2021
5877 Clear 13 1024 35 10000 5.36 70 12:25 15.10.2021
5878 Clear 14 1024 33 10000 6.26 50 11:18 15.10.2021
5879 Clear 15 1023 31 10000 5.81 60 10:28 15.10.2021
5880 Clear 16 1021 30 10000 0 0 07:37 15.10.2021
5881 Clear 18 1019 26 10000 2.24 110 04:46 15.10.2021
5882 Clear 23 1018 19 10000 2.24 0 00:23 15.10.2021
5883 Clear 22 1018 20 10000 2.68 70 23:25 14.10.2021
5884 Clear 21 1019 21 10000 2.24 0 22:20 14.10.2021
5885 Clear 21 1019 22 10000 2.24 0 21:37 14.10.2021
5886 Clear 19 1019 25 10000 2.24 130 20:20 14.10.2021
5887 Clear 18 1019 28 10000 1.34 0 19:46 14.10.2021
5888 Clear 16 1019 31 10000 1.34 90 18:40 14.10.2021
5889 Clear 16 1019 31 10000 1.34 90 18:40 14.10.2021
5890 Clear 10 1017 40 10000 2.68 290 16:59 14.10.2021
5891 Clear 10 1017 40 10000 2.68 290 16:32 14.10.2021
5892 Clear 10 1016 39 10000 1.34 210 14:50 14.10.2021
5893 Clear 10 1016 38 10000 1.34 210 14:26 14.10.2021
5894 Clear 11 1015 37 10000 2.24 210 13:33 14.10.2021
5895 Clear 12 1015 33 10000 1.34 230 11:34 14.10.2021
5896 Clear 12 1014 36 10000 0 0 09:24 14.10.2021
5897 Clear 14 1014 34 10000 1.32 54 06:19 14.10.2021
5898 Clouds 20 1013 25 10000 1.34 0 00:41 14.10.2021
5899 Dust 19 1015 25 10000 2.68 320 22:42 13.10.2021
5900 Dust 18 1016 27 10000 0 0 21:36 13.10.2021
5901 Dust 17 1016 29 10000 1.34 40 20:45 13.10.2021
5902 Dust 15 1016 31 10000 0 0 19:39 13.10.2021
5903 Dust 14 1016 35 10000 0 0 18:47 13.10.2021
5904 Dust 11 1016 42 10000 2.68 300 17:22 13.10.2021
5905 Dust 10 1015 44 10000 2.24 230 14:47 13.10.2021
5906 Dust 10 1015 45 10000 2.24 230 14:25 13.10.2021
5907 Dust 10 1014 43 10000 2.24 160 12:48 13.10.2021
5908 Dust 11 1014 41 10000 2.24 100 11:37 13.10.2021
5909 Dust 11 1014 40 10000 1.34 230 10:18 13.10.2021
5910 Clear 12 1014 38 10000 1.34 180 07:53 13.10.2021
5911 Dust 16 1012 28 10000 3.13 350 03:39 13.10.2021
5912 Dust 18 1011 26 10000 2.24 340 02:21 13.10.2021
5913 Dust 18 1010 26 10000 9.39 360 23:36 12.10.2021
5914 Dust 17 1010 26 10000 8.94 360 22:53 12.10.2021
5915 Dust 17 1010 26 10000 8.94 360 22:34 12.10.2021
5916 Clouds 16 1009 29 10000 8.05 330 20:54 12.10.2021
5917 Dust 15 1009 28 10000 8.05 330 20:31 12.10.2021
5918 Dust 14 1009 29 10000 8.94 340 19:42 12.10.2021
5919 Dust 13 1008 34 10000 5.81 330 18:26 12.10.2021
5920 Dust 11 1007 40 10000 6.26 330 17:21 12.10.2021
5921 Dust 10 1006 44 10000 6.71 330 16:24 12.10.2021
5922 Dust 10 1005 46 10000 7.15 330 15:33 12.10.2021
5923 Dust 10 1003 47 10000 10.28 330 13:46 12.10.2021
5924 Dust 10 1003 48 10000 10.28 330 13:18 12.10.2021
5925 Clouds 9 1001 49 10000 7.15 330 11:30 12.10.2021
5926 Clouds 10 999 48 10000 7.6 330 09:34 12.10.2021
5927 Dust 10 999 53 10000 10.73 350 08:20 12.10.2021
5928 Dust 10 998 49 10000 13.86 330 06:44 12.10.2021
5929 Dust 12 996 44 10000 10.73 320 04:38 12.10.2021
5930 Dust 17 995 28 8047 10.73 260 02:46 12.10.2021
5931 Dust 23 995 19 6437 10.73 220 23:46 11.10.2021
5932 Dust 23 995 19 6437 10.73 220 23:28 11.10.2021
5933 Dust 24 996 18 10000 11.18 230 22:31 11.10.2021
5934 Clouds 24 998 18 10000 8.05 210 21:20 11.10.2021
5935 Clear 22 1000 19 10000 5.36 220 19:48 11.10.2021
5936 Clear 22 1000 19 10000 5.36 220 19:23 11.10.2021
5937 Clouds 20 1002 22 10000 6.26 210 18:23 11.10.2021
5938 Clouds 16 1004 31 10000 4.47 180 16:40 11.10.2021
5939 Clouds 15 1004 31 10000 4.47 180 16:19 11.10.2021
5940 Clouds 14 1005 36 10000 2.68 170 15:40 11.10.2021
5941 Clouds 14 1006 35 10000 2.24 10 14:53 11.10.2021
5942 Clear 14 1007 34 10000 2.24 270 13:51 11.10.2021
5943 Clear 15 1007 35 10000 2.24 270 13:32 11.10.2021
5944 Clear 16 1010 32 10000 2.24 170 10:49 11.10.2021
5945 Clear 17 1011 31 10000 0 0 09:45 11.10.2021
5946 Clear 18 1010 33 10000 0.45 0 07:56 11.10.2021
5947 Clear 25 1014 20 10000 0 0 01:42 11.10.2021
5948 Clear 25 1015 21 10000 1.34 100 00:53 11.10.2021
5949 Clear 25 1015 21 10000 1.34 100 00:31 11.10.2021
5950 Clear 24 1017 23 10000 2.68 80 22:22 10.10.2021
5951 Clear 23 1018 24 10000 5.36 70 21:35 10.10.2021
5952 Clear 23 1019 25 10000 2.68 50 20:48 10.10.2021
5953 Clear 22 1019 25 10000 2.68 50 20:22 10.10.2021
5954 Clear 22 1018 26 10000 1.79 0 19:59 10.10.2021
5955 Clear 22 1019 25 10000 4.02 60 19:38 10.10.2021
5956 Clear 20 1019 27 10000 5.81 350 18:37 10.10.2021
5957 Clear 17 1019 32 10000 7.15 350 17:19 10.10.2021
5958 Clear 16 1018 33 10000 2.24 130 15:47 10.10.2021
5959 Clear 16 1017 32 10000 6.26 340 14:42 10.10.2021
5960 Clear 17 1017 30 10000 7.6 350 13:34 10.10.2021
5961 Clear 17 1017 29 10000 7.6 350 12:40 10.10.2021
5962 Clear 18 1017 28 10000 6.71 340 10:55 10.10.2021
5963 Clear 18 1017 26 10000 4.47 350 09:31 10.10.2021
5964 Clear 18 1017 26 10000 4.47 350 09:31 10.10.2021
5965 Clear 19 1017 25 10000 4.47 330 08:54 10.10.2021
5966 Clear 19 1016 23 10000 4.02 330 07:53 10.10.2021
5967 Clouds 23 1014 21 10000 0 0 03:28 10.10.2021
5968 Clouds 24 1015 23 10000 1.34 190 01:28 10.10.2021
5969 Clouds 24 1015 24 10000 3.13 0 00:33 10.10.2021
5970 Clouds 23 1015 26 10000 5.36 320 23:20 09.10.2021
5971 Clouds 23 1017 29 10000 3.58 40 21:48 09.10.2021
5972 Clouds 23 1017 29 10000 3.58 40 21:29 09.10.2021
5973 Clouds 21 1017 36 10000 2.68 40 19:45 09.10.2021
5974 Clouds 20 1017 38 10000 2.68 40 19:20 09.10.2021
5975 Clouds 19 1016 40 10000 0 0 18:33 09.10.2021
5976 Clouds 16 1016 46 10000 2.68 200 17:21 09.10.2021
5977 Clouds 14 1015 52 10000 4.02 220 16:19 09.10.2021
5978 Clear 14 1014 56 10000 2.24 210 13:46 09.10.2021
5979 Clear 15 1014 55 10000 2.68 240 12:54 09.10.2021
5980 Clear 16 1014 50 10000 2.24 250 11:48 09.10.2021
5981 Clear 16 1014 49 10000 3.13 230 10:42 09.10.2021
5982 Clear 17 1013 46 10000 5.36 200 09:52 09.10.2021
5983 Clear 18 1013 45 10000 5.36 200 08:30 09.10.2021
5984 Clouds 18 1012 42 10000 4.47 200 07:49 09.10.2021
5985 Clouds 20 1012 37 10000 4.02 220 05:29 09.10.2021
5986 Clouds 22 1010 36 10000 0.45 246 02:59 09.10.2021
5987 Clouds 22 1011 36 10000 8.05 230 02:40 09.10.2021
5988 Clouds 23 1012 44 10000 4.02 200 23:51 08.10.2021
5989 Clouds 23 1013 48 10000 4.47 210 22:55 08.10.2021
5990 Clouds 22 1013 51 10000 4.47 210 22:24 08.10.2021
5991 Clouds 20 1014 67 10000 0 0 20:55 08.10.2021
5992 Clouds 19 1013 67 10000 0.45 0 18:59 08.10.2021
5993 Rain 19 1014 62 10000 2.24 180 17:36 08.10.2021
5994 Rain 20 1013 55 10000 3.58 190 16:51 08.10.2021
5995 Clouds 20 1013 55 10000 3.58 190 16:23 08.10.2021
5996 Clear 23 1011 34 10000 2.68 0 13:57 08.10.2021
5997 Clouds 24 1011 32 10000 0.45 214 12:56 08.10.2021
5998 Clouds 23 1012 35 10000 1.34 160 11:32 08.10.2021
5999 Clouds 24 1012 36 10000 2.68 170 10:41 08.10.2021
6000 Clouds 24 1012 39 10000 3.13 190 09:18 08.10.2021
6001 Clouds 28 1014 34 10000 3.13 110 23:55 07.10.2021
6002 Clouds 27 1014 35 10000 3.13 110 23:19 07.10.2021
6003 Clouds 26 1015 37 10000 2.24 70 21:46 07.10.2021
6004 Clouds 26 1015 36 10000 2.24 70 21:23 07.10.2021
6005 Clouds 25 1016 38 10000 0 0 20:20 07.10.2021
6006 Clouds 23 1016 41 10000 0 0 19:29 07.10.2021
6007 Clouds 22 1016 44 10000 0 0 18:22 07.10.2021
6008 Clouds 20 1016 45 10000 0 0 17:18 07.10.2021
6009 Clouds 19 1015 48 10000 1.34 240 15:34 07.10.2021
6010 Clouds 19 1014 46 10000 2.24 280 13:47 07.10.2021
6011 Clouds 20 1014 47 10000 2.24 280 13:28 07.10.2021
6012 Clouds 20 1014 46 10000 1.34 260 12:40 07.10.2021
6013 Clouds 21 1014 43 10000 1.34 250 10:49 07.10.2021
6014 Clouds 21 1014 42 10000 1.34 250 10:19 07.10.2021
6015 Clouds 22 1014 40 10000 0 0 09:32 07.10.2021
6016 Clouds 23 1014 38 10000 1.34 80 08:41 07.10.2021
6017 Clouds 23 1014 37 10000 1.34 210 07:42 07.10.2021
6018 Clouds 23 1013 42 10000 1.93 201 06:59 07.10.2021
6019 Clouds 28 1013 31 10000 3.13 110 02:24 07.10.2021
6020 Clouds 28 1014 34 10000 0 0 23:40 06.10.2021
6021 Clouds 27 1015 36 10000 2.68 40 22:46 06.10.2021
6022 Clouds 26 1016 39 10000 1.34 0 21:49 06.10.2021
6023 Clouds 25 1017 42 10000 2.24 0 20:35 06.10.2021
6024 Clouds 23 1017 46 10000 1.34 350 19:48 06.10.2021
6025 Clouds 22 1017 50 10000 0 0 18:39 06.10.2021
6026 Clouds 18 1017 59 10000 0 0 16:55 06.10.2021
6027 Clouds 17 1017 61 10000 0 0 15:26 06.10.2021
6028 Clouds 18 1016 57 10000 1.34 210 13:54 06.10.2021
6029 Clear 18 1016 52 10000 3.6 40 12:57 06.10.2021
6030 Clouds 18 1016 55 10000 2.24 220 12:39 06.10.2021
6031 Clouds 18 1016 56 10000 2.24 220 12:20 06.10.2021
6032 Clouds 20 1013 50 10000 1.18 81 09:59 06.10.2021
6033 Clouds 20 1016 52 10000 0 0 09:38 06.10.2021
6034 Clouds 20 1016 52 10000 0 0 08:42 06.10.2021
6035 Clouds 20 1016 49 10000 1.34 50 07:20 06.10.2021
6036 Clouds 22 1015 43 10000 3.58 80 05:26 06.10.2021
6037 Clouds 26 1014 38 10000 3.58 90 00:26 06.10.2021
6038 Clouds 27 1015 39 10000 0.89 69 23:57 05.10.2021
6039 Clouds 26 1015 39 10000 2.06 0 23:38 05.10.2021
6040 Clouds 26 1015 39 10000 2.06 0 23:19 05.10.2021
6041 Clouds 26 1016 39 10000 3.09 190 22:27 05.10.2021
6042 Clouds 26 1017 42 10000 2.06 180 21:44 05.10.2021
6043 Clouds 25 1016 43 10000 4.02 180 20:41 05.10.2021
6044 Clouds 25 1016 42 10000 4.02 180 20:23 05.10.2021
6045 Clouds 24 1017 48 10000 4.12 250 19:42 05.10.2021
6046 Rain 23 1016 46 10000 6.26 210 18:49 05.10.2021
6047 Clouds 22 1015 39 10000 2.24 210 16:36 05.10.2021
6048 Clouds 22 1014 31 10000 1.34 210 14:34 05.10.2021
6049 Clouds 22 1014 28 10000 1.34 270 13:33 05.10.2021
6050 Clouds 23 1014 28 10000 0 0 12:38 05.10.2021
6051 Clouds 23 1014 32 10000 0.56 265 11:59 05.10.2021
6052 Clouds 23 1015 27 10000 1.34 230 10:44 05.10.2021
6053 Clear 24 1014 26 10000 2.06 40 08:56 05.10.2021
6054 Clouds 27 1014 26 10000 0 0 03:56 05.10.2021
6055 Clouds 30 1016 20 10000 0 0 23:53 04.10.2021
6056 Clouds 30 1017 24 10000 0.45 115 21:59 04.10.2021
6057 Clouds 27 1018 22 10000 1.34 50 19:34 04.10.2021
6058 Clouds 25 1018 26 10000 0 0 18:26 04.10.2021
6059 Clouds 20 1017 30 10000 0 0 16:23 04.10.2021
6060 Clouds 21 1017 29 10000 2.24 210 15:31 04.10.2021
6061 Clouds 21 1017 29 10000 2.24 210 15:31 04.10.2021
6062 Clouds 21 1016 28 10000 2.24 210 14:42 04.10.2021
6063 Clouds 21 1016 27 10000 0 0 13:48 04.10.2021
6064 Clouds 21 1016 27 10000 0 0 13:24 04.10.2021
6065 Clouds 22 1016 25 10000 2.24 240 11:35 04.10.2021
6066 Clear 23 1016 24 10000 1.34 210 10:48 04.10.2021
6067 Clear 24 1013 27 10000 0.97 300 09:58 04.10.2021
6068 Clear 24 1016 24 10000 2.24 260 08:39 04.10.2021
6069 Clear 25 1015 24 10000 2.06 360 06:56 04.10.2021
6070 Clouds 33 1015 15 10000 2.68 70 00:28 04.10.2021
6071 Clouds 31 1017 15 10000 0 0 22:34 03.10.2021
6072 Clouds 30 1018 16 10000 2.24 0 21:38 03.10.2021
6073 Clouds 29 1019 17 10000 1.34 30 20:55 03.10.2021
6074 Clear 28 1019 20 10000 0 0 19:56 03.10.2021
6075 Clear 25 1019 21 10000 0 0 18:33 03.10.2021
6076 Clear 23 1019 25 10000 0 0 17:43 03.10.2021
6077 Clear 19 1018 26 10000 0 0 15:51 03.10.2021
6078 Clear 20 1017 24 10000 2.68 210 14:45 03.10.2021
6079 Clear 20 1017 27 10000 0 0 13:57 03.10.2021
6080 Clear 21 1017 23 10000 0 0 13:20 03.10.2021
6081 Clear 21 1017 23 10000 2.68 220 12:24 03.10.2021
6082 Clear 22 1017 23 10000 0 0 10:35 03.10.2021
6083 Clear 23 1017 22 10000 2.24 210 08:33 03.10.2021
6084 Clouds 31 1017 15 10000 0 0 00:41 03.10.2021
6085 Clouds 29 1019 16 10000 2.24 300 22:33 02.10.2021
6086 Clouds 28 1021 17 10000 1.34 20 20:55 02.10.2021
6087 Clear 25 1020 22 10000 0.9 63 18:59 02.10.2021
6088 Clouds 23 1020 21 10000 0 0 18:31 02.10.2021
6089 Clouds 20 1020 26 10000 0 0 17:38 02.10.2021
6090 Clouds 18 1020 23 10000 1.34 230 16:46 02.10.2021
6091 Clear 17 1019 24 10000 2.24 210 14:42 02.10.2021
6092 Clear 18 1018 20 10000 6.26 10 15:41 30.09.2021
6093 Clear 18 1017 20 10000 3.13 90 14:42 30.09.2021
6094 Clear 18 1017 21 10000 2.24 210 12:22 30.09.2021
6095 Clear 19 1017 21 10000 0 0 11:29 30.09.2021
6096 Clear 19 1017 22 10000 0 0 10:26 30.09.2021
6097 Clear 20 1016 21 10000 5.81 40 08:54 30.09.2021
6098 Clear 21 1016 19 10000 5.81 40 08:22 30.09.2021
6099 Clouds 23 1014 13 10000 3.58 20 05:50 30.09.2021
6100 Clouds 27 1012 10 10000 7.15 10 02:33 30.09.2021
6101 Clouds 27 1013 12 10000 3.58 50 00:37 30.09.2021
6102 Clouds 27 1012 16 10000 1.34 131 22:59 29.09.2021
6103 Clouds 26 1014 16 10000 6.26 360 21:54 29.09.2021
6104 Clouds 24 1015 17 10000 4.47 60 20:40 29.09.2021
6105 Clouds 24 1015 18 10000 4.47 60 20:20 29.09.2021
6106 Clouds 23 1014 18 10000 7.15 20 19:24 29.09.2021
6107 Clouds 21 1014 20 10000 8.05 10 18:18 29.09.2021
6108 Clear 20 1012 22 10000 4.92 0 16:56 29.09.2021
6109 Smoke 20 1012 20 10000 6.71 360 16:28 29.09.2021
6110 Smoke 20 1012 21 10000 7.2 30 15:35 29.09.2021
6111 Smoke 20 1012 20 10000 9.26 30 14:37 29.09.2021
6112 Smoke 21 1010 23 10000 6.17 40 13:33 29.09.2021
6113 Smoke 21 1010 22 10000 7.2 10 12:39 29.09.2021
6114 Smoke 22 1009 23 10000 4.12 360 11:23 29.09.2021
6115 Smoke 22 1009 26 10000 2.24 190 10:31 29.09.2021
6116 Haze 23 1009 29 10000 0 0 09:42 29.09.2021
6117 Smoke 24 1007 26 10000 3.58 180 07:52 29.09.2021
6118 Smoke 25 1006 26 10000 4.02 220 06:46 29.09.2021
6119 Smoke 31 1005 18 10000 8.05 220 00:28 29.09.2021
6120 Smoke 30 1006 20 10000 6.71 180 22:26 28.09.2021
6121 Smoke 30 1007 21 10000 4.47 210 21:54 28.09.2021
6122 Smoke 30 1007 21 10000 4.47 210 21:19 28.09.2021
6123 Haze 28 1008 26 10000 5.14 210 19:49 28.09.2021
6124 Smoke 27 1008 27 10000 5.14 210 19:27 28.09.2021
6125 Haze 25 1008 31 10000 5.36 180 18:41 28.09.2021
6126 Smoke 25 1008 31 10000 5.36 180 18:40 28.09.2021
6127 Smoke 23 1007 35 10000 6.17 180 16:43 28.09.2021
6128 Smoke 23 1008 37 10000 4.63 170 15:19 28.09.2021
6129 Smoke 24 1008 35 10000 5.81 200 13:25 28.09.2021
6130 Smoke 25 1008 34 10000 5.36 190 12:24 28.09.2021
6131 Smoke 25 1008 35 10000 6.26 190 11:47 28.09.2021
6132 Smoke 25 1008 35 10000 6.17 190 11:25 28.09.2021
6133 Smoke 26 1008 33 10000 3.58 180 10:27 28.09.2021
6134 Smoke 26 1009 36 10000 4.02 170 09:29 28.09.2021
6135 Smoke 27 1009 36 10000 4.47 190 08:43 28.09.2021
6136 Smoke 27 1009 34 10000 3.58 200 07:55 28.09.2021
6137 Smoke 28 1008 30 10000 3.58 200 06:25 28.09.2021
6138 Clouds 33 1009 30 10000 3.13 140 01:35 28.09.2021
6139 Clouds 33 1010 30 10000 3.58 110 00:30 28.09.2021
6140 Clouds 32 1011 32 10000 0 0 23:49 27.09.2021
6141 Clouds 32 1011 32 10000 0 0 23:24 27.09.2021
6142 Clouds 31 1013 36 10000 0 0 22:20 27.09.2021
6143 Clouds 29 1014 41 10000 3.13 60 20:54 27.09.2021
6144 Clouds 28 1014 42 10000 3.13 60 20:26 27.09.2021
6145 Clear 27 1015 47 10000 2.24 160 19:37 27.09.2021
6146 Clouds 25 1015 51 10000 0 0 18:52 27.09.2021
6147 Clouds 24 1014 55 10000 0 0 17:41 27.09.2021
6148 Clear 23 1013 58 10000 0.89 0 16:56 27.09.2021
6149 Clouds 22 1013 59 10000 0 0 16:34 27.09.2021
6150 Clear 22 1013 59 10000 1.34 360 15:37 27.09.2021
6151 Clear 23 1013 57 10000 3.13 320 13:49 27.09.2021
6152 Clear 23 1012 55 10000 2.57 300 12:22 27.09.2021
6153 Clear 25 1012 50 10000 3.58 290 10:48 27.09.2021
6154 Clouds 26 1012 46 10000 2.68 290 09:40 27.09.2021
6155 Clouds 28 1012 37 10000 2.24 270 07:44 27.09.2021
6156 Clouds 32 1010 26 10000 3.58 80 03:34 27.09.2021
6157 Clouds 33 1012 25 10000 3.13 110 23:49 26.09.2021
6158 Clear 32 1011 31 10000 0.45 0 21:57 26.09.2021
6159 Clouds 31 1014 29 10000 0 0 21:27 26.09.2021
6160 Clouds 30 1015 32 10000 0 0 20:25 26.09.2021
6161 Clouds 29 1015 34 10000 1.34 360 19:54 26.09.2021
6162 Clouds 29 1015 35 10000 1.34 360 19:25 26.09.2021
6163 Clouds 29 1015 35 10000 1.34 360 19:25 26.09.2021
6164 Clouds 29 1015 35 10000 1.34 360 19:25 26.09.2021
6165 Clouds 29 1015 35 10000 1.34 360 19:25 26.09.2021
6166 Clouds 29 1015 35 10000 1.34 360 19:25 26.09.2021
6167 Clouds 29 1015 35 10000 1.34 360 19:25 26.09.2021
6168 Clouds 27 1015 39 10000 1.34 0 18:41 26.09.2021
6169 Clouds 25 1015 44 10000 1.34 300 17:38 26.09.2021
6170 Clouds 25 1015 44 10000 1.34 300 17:20 26.09.2021
6171 Clouds 23 1014 44 10000 3.13 300 16:22 26.09.2021
6172 Clouds 23 1014 43 10000 2.24 290 15:27 26.09.2021
6173 Clouds 23 1013 45 10000 2.24 290 14:20 26.09.2021
6174 Clouds 24 1013 44 10000 0 0 13:42 26.09.2021
6175 Clouds 25 1013 42 10000 2.24 290 12:31 26.09.2021
6176 Clouds 25 1012 43 10000 0.89 0 11:56 26.09.2021
6177 Clouds 25 1013 39 10000 2.24 290 11:23 26.09.2021
6178 Clouds 26 1013 37 10000 3.58 220 09:50 26.09.2021
6179 Clouds 27 1014 35 10000 4.02 200 08:41 26.09.2021
6180 Clouds 34 1013 23 10000 0 0 00:29 26.09.2021
6181 Clouds 34 1014 22 10000 3.58 80 23:46 25.09.2021
6182 Clouds 32 1015 24 10000 3.13 110 22:39 25.09.2021
6183 Clouds 32 1015 24 10000 3.13 110 22:19 25.09.2021
6184 Clouds 32 1016 27 10000 2.68 0 21:45 25.09.2021
6185 Clouds 30 1017 29 10000 1.34 60 20:52 25.09.2021
6186 Clouds 28 1017 33 10000 1.34 100 19:40 25.09.2021
6187 Clouds 26 1017 35 10000 0 0 18:28 25.09.2021
6188 Clouds 24 1016 36 10000 0 0 17:23 25.09.2021
6189 Clear 22 1014 33 10000 1.34 300 14:38 25.09.2021
6190 Clear 23 1014 31 10000 2.68 220 13:55 25.09.2021
6191 Clear 23 1014 29 10000 0 0 12:45 25.09.2021
6192 Clear 24 1014 27 10000 2.24 230 11:27 25.09.2021
6193 Clear 25 1015 25 10000 2.24 210 10:18 25.09.2021
6194 Clear 26 1014 23 10000 0 0 08:55 25.09.2021
6195 Clear 27 1014 24 10000 2.68 240 07:47 25.09.2021
6196 Clouds 34 1013 18 10000 2.24 90 00:52 25.09.2021
6197 Clouds 33 1015 17 10000 3.58 50 22:18 24.09.2021
6198 Clouds 32 1016 17 10000 2.24 60 21:32 24.09.2021
6199 Clouds 31 1016 17 10000 3.58 40 20:32 24.09.2021
6200 Clouds 30 1017 19 10000 0 0 19:29 24.09.2021
6201 Clouds 28 1017 21 10000 0 0 18:18 24.09.2021
6202 Clouds 26 1017 26 10000 1.34 0 17:42 24.09.2021
6203 Clouds 25 1017 27 10000 1.34 0 17:23 24.09.2021
6204 Clouds 23 1016 28 10000 0 0 15:38 24.09.2021
6205 Clouds 25 1015 26 10000 3.13 10 13:21 24.09.2021
6206 Clouds 25 1015 26 10000 3.13 10 13:21 24.09.2021
6207 Smoke 25 1015 27 10000 5.81 30 12:43 24.09.2021
6208 Smoke 26 1015 26 10000 5.81 30 12:25 24.09.2021
6209 Smoke 26 1014 27 10000 1.54 80 10:49 24.09.2021
6210 Clear 28 1010 28 10000 2.27 266 08:59 24.09.2021
6211 Clear 28 1012 26 10000 4.63 190 07:57 24.09.2021
6212 Clear 28 1009 27 10000 1.54 217 06:59 24.09.2021
6213 Clouds 30 1011 24 10000 1.54 180 05:57 24.09.2021
6214 Smoke 35 1011 18 10000 2.06 100 02:29 24.09.2021
6215 Smoke 34 1014 18 10000 2.06 30 22:37 23.09.2021
6216 Clear 34 1010 21 10000 1.38 115 21:58 23.09.2021
6217 Smoke 32 1015 19 10000 0 0 20:52 23.09.2021
6218 Haze 32 1015 18 10000 0 0 20:27 23.09.2021
6219 Haze 28 1015 23 10000 2.06 30 18:27 23.09.2021
6220 Clouds 24 1013 28 10000 1.54 310 15:37 23.09.2021
6221 Clouds 24 1013 28 10000 1.54 310 15:19 23.09.2021
6222 Clouds 25 1013 28 10000 2.06 210 14:24 23.09.2021
6223 Clouds 25 1014 27 10000 1.54 250 13:26 23.09.2021
6224 Clouds 25 1014 27 10000 1.54 220 12:54 23.09.2021
6225 Clouds 25 1014 27 10000 1.54 220 12:24 23.09.2021
6226 Clear 26 1013 26 10000 0 0 11:56 23.09.2021
6227 Clear 26 1014 22 10000 2.06 190 10:29 23.09.2021
6228 Clear 26 1014 22 10000 1.54 220 09:53 23.09.2021
6229 Clear 27 1014 19 10000 2.06 250 08:42 23.09.2021
6230 Clouds 31 1015 16 10000 2.06 230 05:29 23.09.2021
6231 Clear 35 1018 12 10000 2.06 40 23:48 22.09.2021
6232 Clear 33 1020 12 10000 1.54 0 22:44 22.09.2021
6233 Clear 33 1020 12 10000 1.54 0 22:18 22.09.2021
6234 Clear 32 1021 13 10000 1.54 60 21:41 22.09.2021
6235 Clear 32 1017 17 10000 1.47 95 20:57 22.09.2021
6236 Clear 30 1023 16 10000 1.54 80 19:34 22.09.2021
6237 Clear 28 1023 18 10000 0 0 18:46 22.09.2021
6238 Clear 27 1023 19 10000 0 0 18:22 22.09.2021
6239 Clear 22 1019 20 10000 0.66 21 16:41 22.09.2021
6240 Clear 21 1022 20 10000 3.09 300 15:38 22.09.2021
6241 Clear 21 1022 18 10000 2.57 210 14:25 22.09.2021
6242 Clear 22 1022 18 10000 2.06 210 12:20 22.09.2021
6243 Clear 23 1021 19 10000 0 0 10:57 22.09.2021
6244 Clear 24 1022 17 10000 2.06 220 09:29 22.09.2021
6245 Clear 24 1022 17 10000 2.06 220 09:29 22.09.2021
6246 Clear 25 1022 17 10000 2.06 240 08:31 22.09.2021
6247 Clear 25 1022 16 10000 2.57 270 07:30 22.09.2021
6248 Clear 26 1022 16 10000 2.57 260 06:19 22.09.2021
6249 Clear 27 1022 14 10000 2.57 170 05:38 22.09.2021
6250 Clear 31 1021 13 10000 2.06 340 03:52 22.09.2021
6251 Clear 32 1022 11 10000 2.57 0 02:43 22.09.2021
6252 Clear 31 1023 12 10000 4.63 40 23:30 21.09.2021
6253 Clear 30 1024 13 10000 4.63 50 21:38 21.09.2021
6254 Clear 29 1023 17 10000 1.34 0 20:27 21.09.2021
6255 Clear 27 1023 22 10000 0.45 0 19:23 21.09.2021
6256 Clear 24 1023 23 10000 0.89 0 17:49 21.09.2021
6257 Clear 20 1025 24 10000 2.06 210 16:38 21.09.2021
6258 Clear 19 1024 24 10000 2.06 230 15:52 21.09.2021
6259 Clear 19 1021 27 10000 1.47 24 14:58 21.09.2021
6260 Clear 19 1020 28 10000 6.69 30 13:57 21.09.2021
6261 Clear 20 1022 25 10000 1.54 150 13:39 21.09.2021
6262 Clear 20 1021 23 10000 0 0 12:40 21.09.2021
6263 Clear 23 1021 17 10000 2.06 170 10:33 21.09.2021
6264 Clear 25 1020 14 10000 3.09 70 08:40 21.09.2021
6265 Clear 26 1020 15 10000 5.66 40 07:20 21.09.2021
6266 Clouds 30 1018 12 10000 4.63 60 00:48 21.09.2021
6267 Clouds 28 1019 14 10000 5.14 80 22:37 20.09.2021
6268 Clouds 28 1019 14 10000 5.66 40 21:41 20.09.2021
6269 Smoke 27 1020 17 10000 6.17 60 20:55 20.09.2021
6270 Smoke 27 1018 20 10000 2.57 40 19:33 20.09.2021
6271 Smoke 24 1017 22 10000 5.14 60 17:52 20.09.2021
6272 Clear 23 1016 25 10000 6.69 30 16:50 20.09.2021
6273 Clear 22 1014 26 10000 4.47 0 15:56 20.09.2021
6274 Clear 23 1015 23 10000 7.2 60 15:32 20.09.2021
6275 Haze 24 1014 23 10000 3.6 70 14:25 20.09.2021
6276 Clear 24 1012 26 10000 2.06 160 12:39 20.09.2021
6277 Clear 24 1012 25 10000 2.06 160 12:20 20.09.2021
6278 Clear 25 1011 24 10000 3.6 190 10:32 20.09.2021
6279 Clear 26 1011 23 10000 4.63 200 09:43 20.09.2021
6280 Clear 26 1011 22 10000 4.63 200 09:20 20.09.2021
6281 Clear 27 1010 22 10000 3.6 190 08:27 20.09.2021
6282 Clear 33 1007 15 10000 6.17 220 02:27 20.09.2021
6283 Clear 34 1009 11 10000 8.75 240 22:46 19.09.2021
6284 Clear 33 1010 11 10000 6.17 210 21:45 19.09.2021
6285 Smoke 32 1011 12 10000 5.14 210 20:53 19.09.2021
6286 Smoke 31 1012 13 10000 5.66 190 19:32 19.09.2021
6287 Smoke 29 1012 16 10000 5.66 220 18:32 19.09.2021
6288 Smoke 25 1011 20 10000 4.63 210 17:23 19.09.2021
6289 Smoke 22 1011 20 10000 5.14 190 16:32 19.09.2021
6290 Smoke 22 1011 20 10000 4.12 190 15:31 19.09.2021
6291 Smoke 23 1011 19 10000 4.12 200 14:48 19.09.2021
6292 Smoke 24 1011 18 10000 3.6 190 13:29 19.09.2021
6293 Smoke 24 1012 17 10000 3.6 220 12:52 19.09.2021
6294 Smoke 25 1012 15 10000 4.12 210 11:29 19.09.2021
6295 Clear 25 1010 17 10000 2.24 0 10:56 19.09.2021
6296 Clear 25 1013 15 10000 2.57 200 09:49 19.09.2021
6297 Clear 26 1012 13 10000 2.57 230 08:41 19.09.2021
6298 Smoke 28 1012 14 10000 1.54 200 06:42 19.09.2021
6299 Clouds 34 1013 16 10000 4.12 250 23:53 18.09.2021
6300 Clouds 33 1014 20 10000 7.2 260 22:51 18.09.2021
6301 Clouds 32 1014 29 10000 5.14 70 20:58 18.09.2021
6302 Clouds 32 1016 29 10000 5.14 70 20:38 18.09.2021
6303 Clouds 30 1016 32 10000 4.63 60 19:40 18.09.2021
6304 Clouds 30 1016 32 10000 4.63 60 19:21 18.09.2021
6305 Clouds 29 1015 33 10000 0 0 18:37 18.09.2021
6306 Clouds 28 1015 36 10000 0 0 17:45 18.09.2021
6307 Clouds 24 1015 41 10000 0 0 16:24 18.09.2021
6308 Clouds 25 1014 37 10000 0 0 13:49 18.09.2021
6309 Clouds 25 1014 37 10000 0 0 13:29 18.09.2021
6310 Clouds 25 1014 37 10000 2.57 200 12:50 18.09.2021
6311 Clouds 26 1015 36 10000 0 0 11:42 18.09.2021
6312 Clouds 27 1015 34 10000 1.54 290 10:33 18.09.2021
6313 Clouds 27 1015 33 10000 1.54 260 09:48 18.09.2021
6314 Clouds 27 1015 33 10000 1.54 260 09:19 18.09.2021
6315 Clouds 28 1011 33 10000 4.07 196 05:51 18.09.2021
6316 Clouds 33 1010 28 10000 3.52 181 00:42 18.09.2021
6317 Clouds 33 1011 28 10000 3.2 170 23:50 17.09.2021
6318 Clouds 31 1011 33 10000 2.34 163 22:38 17.09.2021
6319 Clouds 31 1012 33 10000 2.71 171 22:19 17.09.2021
6320 Clouds 29 1017 31 10000 1.54 170 21:23 17.09.2021
6321 Clouds 29 1017 20 10000 2.06 200 19:23 17.09.2021
6322 Clouds 26 1015 18 10000 1.54 290 17:25 17.09.2021
6323 Clouds 23 1014 18 10000 0 0 16:27 17.09.2021
6324 Clear 23 1012 18 10000 2.06 290 14:23 17.09.2021
6325 Clear 24 1011 15 10000 1.54 210 10:53 17.09.2021
6326 Clear 28 1010 13 10000 3.09 220 08:52 17.09.2021
6327 Clear 29 1009 13 10000 2.06 210 07:19 17.09.2021
6328 Smoke 34 1007 10 10000 6.17 240 03:54 17.09.2021
6329 Clear 37 1008 10 10000 5.14 240 23:25 16.09.2021
6330 Clear 37 1009 10 10000 5.66 210 22:25 16.09.2021
6331 Clear 36 1009 12 10000 4.12 190 21:43 16.09.2021
6332 Clear 35 1009 11 10000 4.12 190 21:22 16.09.2021
6333 Clear 34 1010 13 10000 4.63 200 20:18 16.09.2021
6334 Clear 29 1010 16 10000 4.63 190 18:20 16.09.2021
6335 Clear 27 1009 18 10000 4.12 210 17:33 16.09.2021
6336 Clear 23 1007 20 10000 3.09 50 14:56 16.09.2021
6337 Clear 23 1008 18 10000 0 0 13:56 16.09.2021
6338 Clear 25 1008 16 10000 5.66 200 12:49 16.09.2021
6339 Clear 26 1008 16 10000 5.66 200 12:28 16.09.2021
6340 Clear 27 1008 15 10000 4.12 200 11:25 16.09.2021
6341 Clear 27 1008 14 10000 2.57 190 10:33 16.09.2021
6342 Clear 28 1008 13 10000 3.6 190 09:53 16.09.2021
6343 Clear 29 1008 13 10000 3.09 190 08:42 16.09.2021
6344 Clear 30 1009 12 10000 2.06 210 07:22 16.09.2021
6345 Clear 31 1009 12 10000 3.6 180 06:43 16.09.2021
6346 Clear 34 1008 13 10000 3.6 200 04:55 16.09.2021
6347 Clear 38 1008 12 10000 4.63 100 01:27 16.09.2021
6348 Clear 38 1010 12 10000 5.14 70 23:37 15.09.2021
6349 Clear 37 1012 11 10000 3.09 90 22:47 15.09.2021
6350 Clear 36 1013 12 10000 2.06 20 21:44 15.09.2021
6351 Clear 35 1013 12 10000 2.06 20 21:25 15.09.2021
6352 Clear 33 1014 13 10000 2.57 80 19:52 15.09.2021
6353 Clear 32 1014 14 10000 2.57 80 19:19 15.09.2021
6354 Clear 29 1013 17 10000 2.57 270 17:49 15.09.2021
6355 Clear 26 1013 17 10000 1.54 230 16:54 15.09.2021
6356 Clear 24 1012 18 10000 1.54 220 15:33 15.09.2021
6357 Clear 25 1012 18 10000 2.06 230 14:44 15.09.2021
6358 Clear 26 1012 17 10000 0 0 13:51 15.09.2021
6359 Clear 26 1012 16 10000 0 0 13:29 15.09.2021
6360 Clear 27 1012 15 10000 0 0 12:42 15.09.2021
6361 Clear 27 1012 16 10000 2.06 190 11:51 15.09.2021
6362 Clear 27 1012 16 10000 2.06 190 11:19 15.09.2021
6363 Clear 28 1011 15 10000 2.06 200 10:50 15.09.2021
6364 Clear 29 1011 15 10000 3.09 220 09:26 15.09.2021
6365 Clear 31 1011 14 10000 2.06 220 07:43 15.09.2021
6366 Clear 35 1010 12 10000 1.54 110 04:24 15.09.2021
6367 Clouds 38 1012 13 10000 1.54 150 22:56 14.09.2021
6368 Clear 37 1014 10 10000 1.54 20 21:38 14.09.2021
6369 Clear 36 1014 12 10000 2.06 360 20:27 14.09.2021
6370 Clear 35 1014 12 10000 1.54 50 19:41 14.09.2021
6371 Clear 29 1014 16 10000 0 0 17:34 14.09.2021
6372 Clear 29 1012 18 10000 0 0 16:56 14.09.2021
6373 Clear 26 1012 16 10000 1.54 290 15:28 14.09.2021
6374 Clear 27 1011 16 10000 1.54 260 14:31 14.09.2021
6375 Clear 29 1011 14 10000 3.6 200 11:51 14.09.2021
6376 Clear 30 1011 13 10000 3.6 210 10:53 14.09.2021
6377 Clear 31 1010 13 10000 3.6 200 09:50 14.09.2021
6378 Clear 31 1010 15 10000 4.12 240 08:36 14.09.2021
6379 Clear 33 1009 15 10000 4.12 240 06:22 14.09.2021
6380 Clouds 40 1011 12 10000 7.2 230 23:54 13.09.2021
6381 Clouds 39 1011 11 10000 7.2 250 22:30 13.09.2021
6382 Clouds 39 1009 15 10000 8.75 220 21:59 13.09.2021
6383 Clouds 39 1012 10 10000 8.75 220 21:40 13.09.2021
6384 Smoke 35 1013 15 10000 2.06 0 19:48 13.09.2021
6385 Smoke 33 1012 17 10000 0 0 18:45 13.09.2021
6386 Smoke 33 1012 17 10000 0 0 18:45 13.09.2021
6387 Smoke 31 1013 19 10000 0 0 17:41 13.09.2021
6388 Smoke 28 1012 21 10000 0 0 16:50 13.09.2021
6389 Clear 27 1011 23 10000 1.54 60 14:56 13.09.2021
6390 Clear 27 1011 23 10000 1.54 60 14:56 13.09.2021
6391 Clear 29 1011 21 10000 2.06 210 11:52 13.09.2021
6392 Clear 30 1009 21 10000 0.45 202 10:58 13.09.2021
6393 Clear 31 1010 20 10000 3.6 200 08:55 13.09.2021
6394 Clouds 40 1010 12 10000 6.69 250 01:24 13.09.2021
6395 Clouds 39 1012 14 10000 3.6 200 22:55 12.09.2021
6396 Clouds 39 1012 15 10000 2.06 0 22:24 12.09.2021
6397 Clouds 38 1013 17 10000 4.63 100 21:23 12.09.2021
6398 Clouds 36 1014 21 10000 2.57 120 20:19 12.09.2021
6399 Clouds 35 1015 22 10000 2.06 0 19:49 12.09.2021
6400 Clouds 34 1015 23 10000 2.06 0 19:18 12.09.2021
6401 Clouds 32 1014 24 10000 1.54 0 18:18 12.09.2021
6402 Clear 28 1012 31 10000 0.81 221 15:58 12.09.2021
6403 Clear 28 1014 29 10000 1.54 190 14:47 12.09.2021
6404 Clear 28 1013 30 10000 0 0 12:45 12.09.2021
6405 Clear 30 1013 29 10000 3.09 240 10:33 12.09.2021
6406 Clear 30 1012 28 10000 2.57 240 08:39 12.09.2021
6407 Clear 32 1012 27 10000 2.06 230 07:33 12.09.2021
6408 Clouds 39 1012 17 10000 4.63 200 00:47 12.09.2021
6409 Clouds 39 1012 17 10000 4.63 200 00:47 12.09.2021
6410 Clouds 39 1012 20 10000 0.45 221 22:58 11.09.2021
6411 Clouds 38 1015 21 10000 3.6 190 21:39 11.09.2021
6412 Clouds 34 1016 26 10000 3.09 180 19:41 11.09.2021
6413 Clouds 32 1016 30 10000 3.6 180 18:28 11.09.2021
6414 Clouds 30 1015 34 10000 4.12 190 17:28 11.09.2021
6415 Clouds 27 1014 38 10000 3.09 210 15:36 11.09.2021
6416 Clouds 28 1014 35 10000 2.06 210 13:25 11.09.2021
6417 Clouds 29 1013 34 10000 3.09 190 11:44 11.09.2021
6418 Clouds 30 1013 30 10000 2.06 180 10:35 11.09.2021
6419 Clouds 32 1013 30 10000 2.06 210 08:51 11.09.2021
6420 Clouds 32 1013 29 10000 2.06 210 07:43 11.09.2021
6421 Clouds 35 1012 24 10000 3.09 210 04:23 11.09.2021
6422 Thunderstorm 37 1014 24 10000 4.63 130 22:43 10.09.2021
6423 Thunderstorm 38 1015 23 10000 3.6 100 21:57 10.09.2021
6424 Thunderstorm 38 1013 23 10000 3.6 100 21:38 10.09.2021
6425 Clouds 35 1015 26 10000 0 0 19:31 10.09.2021
6426 Clear 33 1014 30 10000 0.45 0 17:56 10.09.2021
6427 Clouds 29 1015 35 10000 2.06 280 16:27 10.09.2021
6428 Clouds 29 1012 33 10000 1.54 200 13:26 10.09.2021
6429 Clouds 30 1012 32 10000 1.54 240 10:32 10.09.2021
6430 Clouds 33 1012 27 10000 2.57 190 07:52 10.09.2021
6431 Clouds 34 1012 24 10000 2.06 210 06:37 10.09.2021
6432 Clouds 41 1009 21 10000 0.89 75 23:59 09.09.2021
6433 Clouds 40 1013 20 10000 3.6 100 21:48 09.09.2021
6434 Clouds 38 1014 24 10000 1.54 0 20:48 09.09.2021
6435 Clouds 38 1014 24 10000 1.54 0 20:26 09.09.2021
6436 Clouds 34 1015 32 10000 0 0 18:41 09.09.2021
6437 Clouds 32 1014 33 10000 0 0 17:41 09.09.2021
6438 Clouds 29 1014 38 10000 0 0 16:27 09.09.2021
6439 Clouds 30 1014 34 10000 1.54 270 13:38 09.09.2021
6440 Clear 31 1013 34 10000 2.57 10 11:57 09.09.2021
6441 Clouds 31 1012 33 10000 2.57 200 11:22 09.09.2021
6442 Clouds 32 1012 31 10000 0 0 09:34 09.09.2021
6443 Clouds 32 1014 30 10000 0 0 09:34 09.09.2021
6444 Clouds 35 1012 26 10000 2.06 210 07:34 09.09.2021
6445 Clouds 37 1010 18 10000 2.06 100 04:47 09.09.2021
6446 Clear 40 1011 16 10000 3.09 20 22:58 08.09.2021
6447 Clear 39 1013 14 10000 2.06 40 21:47 08.09.2021
6448 Clear 38 1014 14 10000 0 0 20:37 08.09.2021
6449 Clear 37 1014 14 10000 1.54 50 19:44 08.09.2021
6450 Clear 34 1013 17 10000 0 0 18:34 08.09.2021
6451 Clear 36 1010 13 10000 1.39 75 17:58 08.09.2021
6452 Clear 31 1014 17 10000 1.54 200 17:39 08.09.2021
6453 Clear 29 1013 20 10000 2.06 240 14:50 08.09.2021
6454 Clear 29 1013 19 10000 2.57 210 13:25 08.09.2021
6455 Clear 30 1012 19 10000 2.57 270 12:41 08.09.2021
6456 Clear 30 1012 18 10000 2.57 270 12:21 08.09.2021
6457 Clear 32 1008 23 10000 1.62 287 10:59 08.09.2021
6458 Clear 32 1012 17 10000 2.57 200 10:27 08.09.2021
6459 Clear 33 1012 17 10000 3.09 200 09:25 08.09.2021
6460 Clear 34 1010 16 10000 3.09 250 07:41 08.09.2021
6461 Clear 36 1010 16 10000 0 0 05:44 08.09.2021
6462 Clouds 41 1013 14 10000 1.54 0 22:51 07.09.2021
6463 Clouds 40 1013 15 10000 1.54 0 22:18 07.09.2021
6464 Clear 37 1015 20 10000 0 0 20:27 07.09.2021
6465 Clear 35 1015 21 10000 1.54 350 18:46 07.09.2021
6466 Clear 34 1015 22 10000 1.54 350 18:21 07.09.2021
6467 Clear 29 1014 22 10000 2.06 60 16:56 07.09.2021
6468 Clear 28 1015 23 10000 2.06 230 15:43 07.09.2021
6469 Clear 28 1015 22 10000 1.54 280 14:44 07.09.2021
6470 Clear 29 1014 21 10000 0 0 12:45 07.09.2021
6471 Clear 29 1014 21 10000 0 0 12:45 07.09.2021
6472 Clear 30 1014 20 10000 3.09 220 11:51 07.09.2021
6473 Clear 31 1014 19 10000 2.06 200 10:43 07.09.2021
6474 Clear 33 1012 18 10000 1.54 190 08:39 07.09.2021
6475 Clear 33 1013 18 10000 2.06 250 07:44 07.09.2021
6476 Clear 35 1012 18 10000 2.06 100 05:46 07.09.2021
6477 Smoke 41 1011 13 10000 3.09 100 02:38 07.09.2021
6478 Smoke 41 1012 13 10000 1.54 90 00:53 07.09.2021
6479 Smoke 41 1013 12 10000 2.57 90 23:36 06.09.2021
6480 Clear 40 1012 14 10000 1.34 0 22:57 06.09.2021
6481 Smoke 40 1014 13 10000 2.06 0 22:39 06.09.2021
6482 Smoke 38 1015 13 10000 2.06 50 21:29 06.09.2021
6483 Smoke 36 1016 15 10000 0 0 19:31 06.09.2021
6484 Smoke 34 1016 16 10000 0 0 18:53 06.09.2021
6485 Smoke 34 1016 16 10000 0 0 18:24 06.09.2021
6486 Smoke 31 1017 16 10000 0 0 17:36 06.09.2021
6487 Clear 27 1014 19 10000 1.54 240 15:55 06.09.2021
6488 Clear 28 1014 17 10000 1.54 230 14:25 06.09.2021
6489 Clear 29 1014 18 10000 1.54 260 12:48 06.09.2021
6490 Clear 30 1014 18 10000 2.06 240 10:54 06.09.2021
6491 Clear 32 1013 18 10000 3.6 290 08:35 06.09.2021
6492 Clear 33 1012 17 10000 2.06 230 06:47 06.09.2021
6493 Clouds 39 1013 10 10000 2.57 0 23:37 05.09.2021
6494 Clouds 39 1013 13 10000 2.57 0 23:18 05.09.2021
6495 Clouds 39 1014 12 10000 1.54 40 22:28 05.09.2021
6496 Clouds 38 1014 13 10000 1.54 0 21:49 05.09.2021
6497 Clouds 37 1015 13 10000 0 0 20:50 05.09.2021
6498 Clear 34 1014 16 10000 0 0 18:56 05.09.2021
6499 Clouds 29 1016 14 10000 0 0 17:34 05.09.2021
6500 Clear 25 1015 15 10000 0 0 15:31 05.09.2021
6501 Clear 26 1014 17 10000 1.54 210 14:23 05.09.2021
6502 Clear 27 1014 16 10000 2.57 210 12:30 05.09.2021
6503 Clear 28 1014 15 10000 2.06 210 10:55 05.09.2021
6504 Clear 28 1014 15 10000 2.06 210 10:31 05.09.2021
6505 Clear 29 1014 15 10000 3.09 200 09:22 05.09.2021
6506 Clear 29 1014 15 10000 1.54 230 08:21 05.09.2021
6507 Clear 37 1012 12 10000 1.54 0 02:36 05.09.2021
6508 Clouds 37 1012 12 10000 1.54 0 00:30 05.09.2021
6509 Clouds 37 1012 12 10000 1.54 0 00:30 05.09.2021
6510 Clouds 37 1013 12 10000 2.06 50 23:42 04.09.2021
6511 Clouds 36 1014 12 10000 3.09 350 22:36 04.09.2021
6512 Clear 37 1013 14 10000 0.89 0 21:58 04.09.2021
6513 Clear 33 1015 13 10000 0 0 19:42 04.09.2021
6514 Clouds 30 1015 16 10000 1.54 200 18:44 04.09.2021
6515 Clouds 24 1015 18 10000 3.09 200 16:23 04.09.2021
6516 Clear 24 1014 17 10000 1.54 220 13:22 04.09.2021
6517 Clear 26 1013 16 10000 2.06 210 11:19 04.09.2021
6518 Clear 27 1013 14 10000 4.12 220 09:25 04.09.2021
6519 Clear 30 1011 13 10000 2.06 220 05:53 04.09.2021
6520 Clouds 36 1011 10 10000 3.6 230 00:27 04.09.2021
6521 Clouds 36 1012 11 10000 4.12 210 23:32 03.09.2021
6522 Clouds 35 1013 12 10000 3.6 240 22:35 03.09.2021
6523 Clouds 34 1013 13 10000 3.09 190 21:35 03.09.2021
6524 Clouds 34 1013 13 10000 3.09 190 21:35 03.09.2021
6525 Clouds 34 1013 13 10000 1.54 0 20:42 03.09.2021
6526 Clouds 33 1013 14 10000 1.54 30 19:50 03.09.2021
6527 Clouds 32 1014 14 10000 1.54 30 19:18 03.09.2021
6528 Clear 29 1013 19 10000 0 0 17:47 03.09.2021
6529 Clear 25 1014 21 10000 0 0 16:37 03.09.2021
6530 Clear 25 1010 25 10000 1.2 247 14:58 03.09.2021
6531 Clear 26 1011 19 10000 2.57 210 12:24 03.09.2021
6532 Clear 28 1011 17 10000 3.6 220 10:31 03.09.2021
6533 Clear 28 1010 18 10000 4.12 240 08:46 03.09.2021
6534 Clear 29 1010 16 10000 2.57 200 07:43 03.09.2021
6535 Clouds 36 1009 11 10000 6.69 200 01:40 03.09.2021
6536 Clear 36 1008 17 10000 3.58 0 22:57 02.09.2021
6537 Clouds 35 1011 17 10000 5.14 220 21:31 02.09.2021
6538 Clear 32 1012 27 10000 2.57 160 19:55 02.09.2021
6539 Clear 28 1011 47 10000 0 0 17:32 02.09.2021
6540 Clear 28 1011 47 10000 0 0 17:32 02.09.2021
6541 Clear 25 1011 52 10000 1.54 220 15:50 02.09.2021
6542 Clear 25 1007 57 10000 0 0 13:57 02.09.2021
6543 Clear 26 1010 52 10000 3.09 180 12:42 02.09.2021
6544 Clear 26 1009 51 10000 4.12 180 11:34 02.09.2021
6545 Clear 27 1009 50 10000 2.06 170 09:40 02.09.2021
6546 Clouds 28 1008 47 10000 3.6 170 07:48 02.09.2021
6547 Clouds 28 1008 46 10000 3.6 170 07:18 02.09.2021
6548 Clouds 28 1008 46 10000 3.6 170 07:18 02.09.2021
6549 Clouds 32 1006 38 10000 4.63 150 02:54 02.09.2021
6550 Clouds 32 1006 37 10000 2.57 0 01:55 02.09.2021
6551 Clouds 33 1006 36 10000 2.57 0 01:23 02.09.2021
6552 Clouds 32 1007 39 10000 6.69 80 23:37 01.09.2021
6553 Clouds 31 1008 41 10000 6.17 90 22:39 01.09.2021
6554 Clouds 31 1008 42 10000 3.09 120 21:35 01.09.2021
6555 Clouds 28 1009 49 10000 2.06 0 20:28 01.09.2021
6556 Clouds 26 1009 59 10000 2.06 180 18:29 01.09.2021
6557 Clouds 25 1009 64 10000 1.54 0 17:37 01.09.2021
6558 Clouds 25 1008 66 10000 2.57 100 16:46 01.09.2021
6559 Clouds 25 1008 65 10000 2.57 110 15:25 01.09.2021
6560 Clouds 26 1006 54 10000 0 0 11:50 01.09.2021
6561 Clouds 27 1006 54 10000 2.57 160 10:55 01.09.2021
6562 Clouds 29 1005 46 10000 1.54 140 08:46 01.09.2021
6563 Clouds 29 1006 40 10000 4.63 190 07:51 01.09.2021
6564 Thunderstorm 35 1003 29 10000 4.63 160 00:50 01.09.2021
6565 Clouds 36 1007 24 10000 2.06 120 22:33 31.08.2021
6566 Clouds 35 1007 26 10000 4.12 190 21:22 31.08.2021
6567 Clouds 33 1007 32 10000 2.06 170 19:45 31.08.2021
6568 Clouds 31 1007 35 10000 2.57 180 18:27 31.08.2021
6569 Clouds 30 1007 38 10000 1.54 100 17:34 31.08.2021
6570 Clouds 29 1007 39 10000 1.54 0 16:52 31.08.2021
6571 Clouds 29 1007 39 10000 1.54 0 16:23 31.08.2021
6572 Clouds 30 1005 36 10000 0.89 0 12:56 31.08.2021
6573 Clouds 31 1007 33 10000 2.06 180 11:26 31.08.2021
6574 Clouds 31 1007 32 10000 4.63 180 10:49 31.08.2021
6575 Clouds 31 1007 32 10000 3.09 140 09:43 31.08.2021
6576 Clouds 31 1007 33 10000 2.06 200 08:36 31.08.2021
6577 Clear 34 1005 27 10000 0.89 181 05:58 31.08.2021
6578 Clouds 38 1006 22 10000 3.6 190 00:23 31.08.2021
6579 Clouds 38 1007 22 10000 3.6 100 23:25 30.08.2021
6580 Clouds 38 1007 23 10000 4.12 110 21:43 30.08.2021
6581 Clouds 37 1008 23 10000 0 0 20:42 30.08.2021
6582 Clouds 36 1006 27 10000 0.45 171 19:58 30.08.2021
6583 Clouds 35 1009 26 10000 0 0 19:29 30.08.2021
6584 Clouds 34 1009 27 10000 1.54 0 18:23 30.08.2021
6585 Clouds 30 1008 31 10000 2.06 290 16:49 30.08.2021
6586 Clouds 29 1009 32 10000 2.06 310 15:50 30.08.2021
6587 Clouds 28 1007 33 10000 3.09 290 14:39 30.08.2021
6588 Clouds 29 1007 33 10000 1.54 300 13:27 30.08.2021
6589 Clear 30 1006 31 10000 0.45 0 11:56 30.08.2021
6590 Clouds 34 1007 24 10000 5.66 180 08:23 30.08.2021
6591 Clouds 40 1008 19 10000 2.06 0 22:18 29.08.2021
6592 Clouds 39 1009 20 10000 2.06 40 21:25 29.08.2021
6593 Clouds 37 1010 21 10000 2.06 30 19:32 29.08.2021
6594 Clouds 35 1010 24 10000 2.06 330 18:30 29.08.2021
6595 Clouds 29 1011 29 10000 2.06 210 16:25 29.08.2021
6596 Clouds 29 1011 29 10000 2.06 210 16:25 29.08.2021
6597 Clear 30 1010 28 10000 0 0 14:34 29.08.2021
6598 Clear 31 1010 29 10000 2.06 200 13:55 29.08.2021
6599 Clear 30 1007 29 10000 0.45 0 12:58 29.08.2021
6600 Clear 32 1009 25 10000 3.6 240 12:18 29.08.2021
6601 Clear 32 1009 25 10000 3.6 240 12:18 29.08.2021
6602 Clear 32 1009 24 10000 3.09 210 11:40 29.08.2021
6603 Clear 32 1009 23 10000 1.54 190 10:48 29.08.2021
6604 Clear 33 1009 21 10000 1.54 190 10:29 29.08.2021
6605 Clear 33 1009 20 10000 3.09 200 09:35 29.08.2021
6606 Clouds 39 1006 15 10000 5.14 270 04:21 29.08.2021
6607 Clear 41 1007 13 10000 0.89 0 22:57 28.08.2021
6608 Clouds 38 1010 12 10000 2.06 60 20:33 28.08.2021
6609 Clouds 36 1010 14 10000 2.06 0 19:29 28.08.2021
6610 Clear 34 1010 15 10000 2.57 0 18:24 28.08.2021
6611 Clear 32 1010 16 10000 0 0 17:46 28.08.2021
6612 Clear 28 1010 16 10000 0 0 16:32 28.08.2021
6613 Clear 28 1009 18 10000 1.54 320 15:20 28.08.2021
6614 Clear 29 1005 21 10000 1.19 264 13:58 28.08.2021
6615 Clear 29 1008 17 10000 2.57 240 13:39 28.08.2021
6616 Clear 29 1008 18 10000 2.06 240 12:30 28.08.2021
6617 Clear 31 1007 16 10000 2.06 210 10:47 28.08.2021
6618 Clear 32 1007 15 10000 2.57 240 09:34 28.08.2021
6619 Clear 34 1005 14 10000 3.09 200 07:34 28.08.2021
6620 Clear 41 1007 10 10000 2.06 100 23:45 27.08.2021
6621 Clear 38 1009 9 10000 3.09 70 21:29 27.08.2021
6622 Clear 38 1010 9 10000 2.57 30 20:52 27.08.2021
6623 Clear 35 1010 10 10000 2.06 350 19:32 27.08.2021
6624 Clear 33 1010 11 10000 1.54 120 18:39 27.08.2021
6625 Clear 30 1010 10 10000 0 0 17:45 27.08.2021
6626 Clear 26 1010 10 10000 1.54 280 16:31 27.08.2021
6627 Clear 26 1009 13 10000 0 0 14:44 27.08.2021
6628 Clear 27 1009 10 10000 3.6 210 12:57 27.08.2021
6629 Clear 29 1009 10 10000 2.57 200 11:43 27.08.2021
6630 Clear 28 1009 10 10000 3.6 180 10:49 27.08.2021
6631 Clear 30 1006 15 10000 2.94 260 09:58 27.08.2021
6632 Clear 31 1009 10 10000 2.57 200 08:55 27.08.2021
6633 Clear 31 1009 9 10000 2.57 200 08:35 27.08.2021
6634 Clear 34 1008 8 10000 4.12 240 05:35 27.08.2021
6635 Clear 41 1008 6 10000 6.17 230 00:40 27.08.2021
6636 Clouds 41 1009 7 10000 4.63 220 23:52 26.08.2021
6637 Clouds 40 1010 7 10000 5.66 200 22:23 26.08.2021
6638 Clouds 39 1011 9 10000 5.66 220 21:32 26.08.2021
6639 Clouds 36 1012 15 10000 4.12 190 19:30 26.08.2021
6640 Clouds 32 1012 20 10000 3.6 190 17:50 26.08.2021
6641 Clouds 32 1012 21 10000 3.6 190 17:24 26.08.2021
6642 Clouds 29 1012 23 10000 4.12 180 16:26 26.08.2021
6643 Clouds 29 1012 22 10000 5.66 180 14:20 26.08.2021
6644 Clouds 30 1011 21 10000 3.09 190 13:20 26.08.2021
6645 Clouds 30 1010 22 10000 2.06 0 12:32 26.08.2021
6646 Clear 31 1012 22 10000 5.14 220 11:22 26.08.2021
6647 Clouds 33 1011 19 10000 3.09 210 08:35 26.08.2021
6648 Clouds 34